<?xml version="1.0" encoding="UTF-8" standalone="no" ?>
<gpx xmlns="http://www.topografix.com/GPX/1/1" xmlns:xsi="http://www.w3.org/2001/XMLSchema-instance" xsi:schemaLocation="http://www.topografix.com/GPX/1/1 http://www.topografix.com/GPX/1/1/gpx.xsd" version="1.1" creator="VisuGPX - https://www.visugpx.com">
  <metadata>
    <name>Pointe d'Areu (couloir W) + tricotage</name>
    <desc><![CDATA[                                                                   ]]></desc>
  </metadata>
  <trk>
    <name><![CDATA[20190323200240-2WHnb]]></name>
    <trkseg>
      <trkpt lat="46.02985" lon="6.57501">
        <ele>1313.78</ele>
        <time>2019-03-19T08:58:23Z</time>
      </trkpt>
      <trkpt lat="46.02984" lon="6.57501">
        <ele>1308.49</ele>
        <time>2019-03-19T08:58:24Z</time>
      </trkpt>
      <trkpt lat="46.02983" lon="6.57501">
        <ele>1308.49</ele>
        <time>2019-03-19T08:58:25Z</time>
      </trkpt>
      <trkpt lat="46.02982" lon="6.575">
        <ele>1308.49</ele>
        <time>2019-03-19T08:58:26Z</time>
      </trkpt>
      <trkpt lat="46.0298" lon="6.575">
        <ele>1313.78</ele>
        <time>2019-03-19T08:58:28Z</time>
      </trkpt>
      <trkpt lat="46.02979" lon="6.575">
        <ele>1313.78</ele>
        <time>2019-03-19T08:58:29Z</time>
      </trkpt>
      <trkpt lat="46.02935" lon="6.57517">
        <ele>1317.14</ele>
        <time>2019-03-19T08:59:10Z</time>
      </trkpt>
      <trkpt lat="46.0292" lon="6.57519">
        <ele>1320.03</ele>
        <time>2019-03-19T08:59:25Z</time>
      </trkpt>
      <trkpt lat="46.02895" lon="6.57525">
        <ele>1323.39</ele>
        <time>2019-03-19T08:59:47Z</time>
      </trkpt>
      <trkpt lat="46.0287" lon="6.57529">
        <ele>1326.28</ele>
        <time>2019-03-19T09:00:08Z</time>
      </trkpt>
      <trkpt lat="46.02851" lon="6.57531">
        <ele>1329.16</ele>
        <time>2019-03-19T09:00:26Z</time>
      </trkpt>
      <trkpt lat="46.02833" lon="6.57532">
        <ele>1332.52</ele>
        <time>2019-03-19T09:00:44Z</time>
      </trkpt>
      <trkpt lat="46.02801" lon="6.5754">
        <ele>1335.41</ele>
        <time>2019-03-19T09:01:12Z</time>
      </trkpt>
      <trkpt lat="46.02779" lon="6.57541">
        <ele>1338.77</ele>
        <time>2019-03-19T09:01:31Z</time>
      </trkpt>
      <trkpt lat="46.02763" lon="6.57546">
        <ele>1341.66</ele>
        <time>2019-03-19T09:01:49Z</time>
      </trkpt>
      <trkpt lat="46.0275" lon="6.57554">
        <ele>1345.02</ele>
        <time>2019-03-19T09:02:05Z</time>
      </trkpt>
      <trkpt lat="46.02737" lon="6.57561">
        <ele>1347.91</ele>
        <time>2019-03-19T09:02:20Z</time>
      </trkpt>
      <trkpt lat="46.02723" lon="6.57578">
        <ele>1350.79</ele>
        <time>2019-03-19T09:02:39Z</time>
      </trkpt>
      <trkpt lat="46.02713" lon="6.57594">
        <ele>1354.15</ele>
        <time>2019-03-19T09:02:55Z</time>
      </trkpt>
      <trkpt lat="46.02706" lon="6.57602">
        <ele>1355.6</ele>
        <time>2019-03-19T09:03:03Z</time>
      </trkpt>
      <trkpt lat="46.02705" lon="6.57603">
        <ele>1356.08</ele>
        <time>2019-03-19T09:03:04Z</time>
      </trkpt>
      <trkpt lat="46.02705" lon="6.57604">
        <ele>1356.08</ele>
        <time>2019-03-19T09:03:05Z</time>
      </trkpt>
      <trkpt lat="46.02693" lon="6.57617">
        <ele>1358.96</ele>
        <time>2019-03-19T09:03:20Z</time>
      </trkpt>
      <trkpt lat="46.02691" lon="6.57619">
        <ele>1359.44</ele>
        <time>2019-03-19T09:03:22Z</time>
      </trkpt>
      <trkpt lat="46.02691" lon="6.5762">
        <ele>1359.44</ele>
        <time>2019-03-19T09:03:23Z</time>
      </trkpt>
      <trkpt lat="46.0269" lon="6.57621">
        <ele>1359.92</ele>
        <time>2019-03-19T09:03:24Z</time>
      </trkpt>
      <trkpt lat="46.0269" lon="6.57622">
        <ele>1359.92</ele>
        <time>2019-03-19T09:03:25Z</time>
      </trkpt>
      <trkpt lat="46.0269" lon="6.57623">
        <ele>1360.4</ele>
        <time>2019-03-19T09:03:26Z</time>
      </trkpt>
      <trkpt lat="46.02689" lon="6.57624">
        <ele>1360.4</ele>
        <time>2019-03-19T09:03:27Z</time>
      </trkpt>
      <trkpt lat="46.02679" lon="6.57633">
        <ele>1363.77</ele>
        <time>2019-03-19T09:03:40Z</time>
      </trkpt>
      <trkpt lat="46.02659" lon="6.57651">
        <ele>1366.65</ele>
        <time>2019-03-19T09:03:59Z</time>
      </trkpt>
      <trkpt lat="46.02655" lon="6.57654">
        <ele>1368.57</ele>
        <time>2019-03-19T09:04:05Z</time>
      </trkpt>
      <trkpt lat="46.02654" lon="6.57654">
        <ele>1368.57</ele>
        <time>2019-03-19T09:04:06Z</time>
      </trkpt>
      <trkpt lat="46.02643" lon="6.57658">
        <ele>1371.94</ele>
        <time>2019-03-19T09:04:21Z</time>
      </trkpt>
      <trkpt lat="46.02632" lon="6.57666">
        <ele>1374.82</ele>
        <time>2019-03-19T09:04:36Z</time>
      </trkpt>
      <trkpt lat="46.02631" lon="6.57666">
        <ele>1375.3</ele>
        <time>2019-03-19T09:04:37Z</time>
      </trkpt>
      <trkpt lat="46.02623" lon="6.57676">
        <ele>1377.71</ele>
        <time>2019-03-19T09:04:49Z</time>
      </trkpt>
      <trkpt lat="46.02617" lon="6.57687">
        <ele>1380.59</ele>
        <time>2019-03-19T09:05:02Z</time>
      </trkpt>
      <trkpt lat="46.02607" lon="6.57694">
        <ele>1383.96</ele>
        <time>2019-03-19T09:05:17Z</time>
      </trkpt>
      <trkpt lat="46.02597" lon="6.57695">
        <ele>1386.84</ele>
        <time>2019-03-19T09:05:30Z</time>
      </trkpt>
      <trkpt lat="46.02595" lon="6.57698">
        <ele>1387.8</ele>
        <time>2019-03-19T09:05:33Z</time>
      </trkpt>
      <trkpt lat="46.0259" lon="6.57707">
        <ele>1390.68</ele>
        <time>2019-03-19T09:05:46Z</time>
      </trkpt>
      <trkpt lat="46.02587" lon="6.57717">
        <ele>1393.57</ele>
        <time>2019-03-19T09:05:59Z</time>
      </trkpt>
      <trkpt lat="46.0258" lon="6.57731">
        <ele>1396.93</ele>
        <time>2019-03-19T09:06:15Z</time>
      </trkpt>
      <trkpt lat="46.02578" lon="6.57735">
        <ele>1398.37</ele>
        <time>2019-03-19T09:06:20Z</time>
      </trkpt>
      <trkpt lat="46.02577" lon="6.57737">
        <ele>1398.86</ele>
        <time>2019-03-19T09:06:22Z</time>
      </trkpt>
      <trkpt lat="46.02574" lon="6.57745">
        <ele>1400.3</ele>
        <time>2019-03-19T09:06:29Z</time>
      </trkpt>
      <trkpt lat="46.02569" lon="6.57758">
        <ele>1403.66</ele>
        <time>2019-03-19T09:06:43Z</time>
      </trkpt>
      <trkpt lat="46.02566" lon="6.57761">
        <ele>1404.62</ele>
        <time>2019-03-19T09:06:48Z</time>
      </trkpt>
      <trkpt lat="46.02563" lon="6.5777">
        <ele>1406.55</ele>
        <time>2019-03-19T09:06:57Z</time>
      </trkpt>
      <trkpt lat="46.02567" lon="6.57775">
        <ele>1407.99</ele>
        <time>2019-03-19T09:07:21Z</time>
      </trkpt>
      <trkpt lat="46.02571" lon="6.57771">
        <ele>1407.99</ele>
        <time>2019-03-19T09:07:40Z</time>
      </trkpt>
      <trkpt lat="46.02571" lon="6.57768">
        <ele>1407.51</ele>
        <time>2019-03-19T09:08:02Z</time>
      </trkpt>
      <trkpt lat="46.02569" lon="6.57769">
        <ele>1407.51</ele>
        <time>2019-03-19T09:08:07Z</time>
      </trkpt>
      <trkpt lat="46.02568" lon="6.57767">
        <ele>1407.03</ele>
        <time>2019-03-19T09:08:28Z</time>
      </trkpt>
      <trkpt lat="46.02562" lon="6.57761">
        <ele>1407.99</ele>
        <time>2019-03-19T09:08:38Z</time>
      </trkpt>
      <trkpt lat="46.02553" lon="6.57753">
        <ele>1410.39</ele>
        <time>2019-03-19T09:08:49Z</time>
      </trkpt>
      <trkpt lat="46.0255" lon="6.57748">
        <ele>1411.83</ele>
        <time>2019-03-19T09:08:56Z</time>
      </trkpt>
      <trkpt lat="46.02548" lon="6.57746">
        <ele>1411.83</ele>
        <time>2019-03-19T09:08:58Z</time>
      </trkpt>
      <trkpt lat="46.02537" lon="6.57732">
        <ele>1415.2</ele>
        <time>2019-03-19T09:09:17Z</time>
      </trkpt>
      <trkpt lat="46.02526" lon="6.57725">
        <ele>1417.6</ele>
        <time>2019-03-19T09:09:30Z</time>
      </trkpt>
      <trkpt lat="46.02525" lon="6.57725">
        <ele>1417.6</ele>
        <time>2019-03-19T09:09:31Z</time>
      </trkpt>
      <trkpt lat="46.02517" lon="6.57723">
        <ele>1419.52</ele>
        <time>2019-03-19T09:09:40Z</time>
      </trkpt>
      <trkpt lat="46.0251" lon="6.57725">
        <ele>1422.41</ele>
        <time>2019-03-19T09:09:52Z</time>
      </trkpt>
      <trkpt lat="46.02511" lon="6.57736">
        <ele>1425.77</ele>
        <time>2019-03-19T09:10:04Z</time>
      </trkpt>
      <trkpt lat="46.02511" lon="6.57738">
        <ele>1425.77</ele>
        <time>2019-03-19T09:10:06Z</time>
      </trkpt>
      <trkpt lat="46.02512" lon="6.5774">
        <ele>1426.25</ele>
        <time>2019-03-19T09:10:08Z</time>
      </trkpt>
      <trkpt lat="46.02511" lon="6.57761">
        <ele>1429.62</ele>
        <time>2019-03-19T09:10:24Z</time>
      </trkpt>
      <trkpt lat="46.02514" lon="6.57778">
        <ele>1432.5</ele>
        <time>2019-03-19T09:10:38Z</time>
      </trkpt>
      <trkpt lat="46.02512" lon="6.57784">
        <ele>1433.46</ele>
        <time>2019-03-19T09:10:43Z</time>
      </trkpt>
      <trkpt lat="46.02511" lon="6.57786">
        <ele>1433.94</ele>
        <time>2019-03-19T09:10:45Z</time>
      </trkpt>
      <trkpt lat="46.0251" lon="6.57786">
        <ele>1433.94</ele>
        <time>2019-03-19T09:10:46Z</time>
      </trkpt>
      <trkpt lat="46.02509" lon="6.57786">
        <ele>1434.42</ele>
        <time>2019-03-19T09:10:47Z</time>
      </trkpt>
      <trkpt lat="46.02507" lon="6.57786">
        <ele>1434.42</ele>
        <time>2019-03-19T09:10:48Z</time>
      </trkpt>
      <trkpt lat="46.02506" lon="6.57786">
        <ele>1434.42</ele>
        <time>2019-03-19T09:10:49Z</time>
      </trkpt>
      <trkpt lat="46.02505" lon="6.57785">
        <ele>1434.42</ele>
        <time>2019-03-19T09:10:50Z</time>
      </trkpt>
      <trkpt lat="46.02496" lon="6.57783">
        <ele>1437.79</ele>
        <time>2019-03-19T09:11:03Z</time>
      </trkpt>
      <trkpt lat="46.02485" lon="6.57779">
        <ele>1440.67</ele>
        <time>2019-03-19T09:11:17Z</time>
      </trkpt>
      <trkpt lat="46.02477" lon="6.57775">
        <ele>1444.04</ele>
        <time>2019-03-19T09:11:32Z</time>
      </trkpt>
      <trkpt lat="46.02477" lon="6.57785">
        <ele>1446.92</ele>
        <time>2019-03-19T09:11:45Z</time>
      </trkpt>
      <trkpt lat="46.02477" lon="6.57798">
        <ele>1449.81</ele>
        <time>2019-03-19T09:11:57Z</time>
      </trkpt>
      <trkpt lat="46.02476" lon="6.5781">
        <ele>1452.69</ele>
        <time>2019-03-19T09:12:10Z</time>
      </trkpt>
      <trkpt lat="46.02471" lon="6.57813">
        <ele>1454.13</ele>
        <time>2019-03-19T09:12:19Z</time>
      </trkpt>
      <trkpt lat="46.02459" lon="6.57805">
        <ele>1457.02</ele>
        <time>2019-03-19T09:12:36Z</time>
      </trkpt>
      <trkpt lat="46.0245" lon="6.57802">
        <ele>1460.38</ele>
        <time>2019-03-19T09:12:50Z</time>
      </trkpt>
      <trkpt lat="46.0245" lon="6.57809">
        <ele>1462.3</ele>
        <time>2019-03-19T09:12:58Z</time>
      </trkpt>
      <trkpt lat="46.02452" lon="6.57813">
        <ele>1463.26</ele>
        <time>2019-03-19T09:13:02Z</time>
      </trkpt>
      <trkpt lat="46.02452" lon="6.57816">
        <ele>1463.26</ele>
        <time>2019-03-19T09:13:04Z</time>
      </trkpt>
      <trkpt lat="46.02456" lon="6.57834">
        <ele>1466.63</ele>
        <time>2019-03-19T09:13:21Z</time>
      </trkpt>
      <trkpt lat="46.02459" lon="6.57855">
        <ele>1469.51</ele>
        <time>2019-03-19T09:13:41Z</time>
      </trkpt>
      <trkpt lat="46.02449" lon="6.57855">
        <ele>1472.88</ele>
        <time>2019-03-19T09:13:55Z</time>
      </trkpt>
      <trkpt lat="46.02443" lon="6.57853">
        <ele>1474.8</ele>
        <time>2019-03-19T09:14:04Z</time>
      </trkpt>
      <trkpt lat="46.02437" lon="6.5785">
        <ele>1476.72</ele>
        <time>2019-03-19T09:14:13Z</time>
      </trkpt>
      <trkpt lat="46.02429" lon="6.57845">
        <ele>1479.13</ele>
        <time>2019-03-19T09:14:26Z</time>
      </trkpt>
      <trkpt lat="46.02419" lon="6.57838">
        <ele>1482.01</ele>
        <time>2019-03-19T09:14:40Z</time>
      </trkpt>
      <trkpt lat="46.0241" lon="6.57834">
        <ele>1485.37</ele>
        <time>2019-03-19T09:14:56Z</time>
      </trkpt>
      <trkpt lat="46.0241" lon="6.57843">
        <ele>1487.78</ele>
        <time>2019-03-19T09:15:08Z</time>
      </trkpt>
      <trkpt lat="46.02411" lon="6.57845">
        <ele>1488.74</ele>
        <time>2019-03-19T09:15:10Z</time>
      </trkpt>
      <trkpt lat="46.02412" lon="6.57865">
        <ele>1491.62</ele>
        <time>2019-03-19T09:15:25Z</time>
      </trkpt>
      <trkpt lat="46.0241" lon="6.57884">
        <ele>1494.51</ele>
        <time>2019-03-19T09:15:40Z</time>
      </trkpt>
      <trkpt lat="46.0241" lon="6.57889">
        <ele>1495.47</ele>
        <time>2019-03-19T09:15:44Z</time>
      </trkpt>
      <trkpt lat="46.0241" lon="6.57892">
        <ele>1496.43</ele>
        <time>2019-03-19T09:15:47Z</time>
      </trkpt>
      <trkpt lat="46.02405" lon="6.57892">
        <ele>1496.91</ele>
        <time>2019-03-19T09:15:52Z</time>
      </trkpt>
      <trkpt lat="46.02394" lon="6.57885">
        <ele>1500.27</ele>
        <time>2019-03-19T09:16:07Z</time>
      </trkpt>
      <trkpt lat="46.02383" lon="6.57877">
        <ele>1503.64</ele>
        <time>2019-03-19T09:16:24Z</time>
      </trkpt>
      <trkpt lat="46.02381" lon="6.57881">
        <ele>1506.52</ele>
        <time>2019-03-19T09:16:40Z</time>
      </trkpt>
      <trkpt lat="46.02386" lon="6.579">
        <ele>1509.41</ele>
        <time>2019-03-19T09:17:01Z</time>
      </trkpt>
      <trkpt lat="46.02384" lon="6.57903">
        <ele>1510.85</ele>
        <time>2019-03-19T09:17:14Z</time>
      </trkpt>
      <trkpt lat="46.02378" lon="6.57893">
        <ele>1513.73</ele>
        <time>2019-03-19T09:17:29Z</time>
      </trkpt>
      <trkpt lat="46.02374" lon="6.5789">
        <ele>1516.62</ele>
        <time>2019-03-19T09:17:41Z</time>
      </trkpt>
      <trkpt lat="46.02376" lon="6.57895">
        <ele>1518.06</ele>
        <time>2019-03-19T09:17:47Z</time>
      </trkpt>
      <trkpt lat="46.02377" lon="6.57911">
        <ele>1521.42</ele>
        <time>2019-03-19T09:18:04Z</time>
      </trkpt>
      <trkpt lat="46.02379" lon="6.57919">
        <ele>1522.39</ele>
        <time>2019-03-19T09:18:12Z</time>
      </trkpt>
      <trkpt lat="46.02379" lon="6.57922">
        <ele>1522.87</ele>
        <time>2019-03-19T09:18:14Z</time>
      </trkpt>
      <trkpt lat="46.02376" lon="6.57926">
        <ele>1524.31</ele>
        <time>2019-03-19T09:18:24Z</time>
      </trkpt>
      <trkpt lat="46.0237" lon="6.57919">
        <ele>1527.19</ele>
        <time>2019-03-19T09:18:40Z</time>
      </trkpt>
      <trkpt lat="46.02362" lon="6.5791">
        <ele>1530.56</ele>
        <time>2019-03-19T09:18:55Z</time>
      </trkpt>
      <trkpt lat="46.02354" lon="6.57907">
        <ele>1533.44</ele>
        <time>2019-03-19T09:19:08Z</time>
      </trkpt>
      <trkpt lat="46.02347" lon="6.57905">
        <ele>1536.8</ele>
        <time>2019-03-19T09:19:21Z</time>
      </trkpt>
      <trkpt lat="46.02348" lon="6.57909">
        <ele>1538.25</ele>
        <time>2019-03-19T09:19:27Z</time>
      </trkpt>
      <trkpt lat="46.02349" lon="6.57917">
        <ele>1540.17</ele>
        <time>2019-03-19T09:19:36Z</time>
      </trkpt>
      <trkpt lat="46.02349" lon="6.57919">
        <ele>1540.17</ele>
        <time>2019-03-19T09:19:38Z</time>
      </trkpt>
      <trkpt lat="46.02349" lon="6.57923">
        <ele>1541.13</ele>
        <time>2019-03-19T09:19:42Z</time>
      </trkpt>
      <trkpt lat="46.0235" lon="6.57936">
        <ele>1544.5</ele>
        <time>2019-03-19T09:19:55Z</time>
      </trkpt>
      <trkpt lat="46.0235" lon="6.57949">
        <ele>1547.38</ele>
        <time>2019-03-19T09:20:09Z</time>
      </trkpt>
      <trkpt lat="46.0235" lon="6.57962">
        <ele>1550.74</ele>
        <time>2019-03-19T09:20:23Z</time>
      </trkpt>
      <trkpt lat="46.02344" lon="6.57965">
        <ele>1553.63</ele>
        <time>2019-03-19T09:20:41Z</time>
      </trkpt>
      <trkpt lat="46.02336" lon="6.57961">
        <ele>1556.99</ele>
        <time>2019-03-19T09:20:55Z</time>
      </trkpt>
      <trkpt lat="46.02332" lon="6.57961">
        <ele>1558.92</ele>
        <time>2019-03-19T09:21:01Z</time>
      </trkpt>
      <trkpt lat="46.02325" lon="6.57959">
        <ele>1561.8</ele>
        <time>2019-03-19T09:21:13Z</time>
      </trkpt>
      <trkpt lat="46.02324" lon="6.57967">
        <ele>1565.16</ele>
        <time>2019-03-19T09:21:26Z</time>
      </trkpt>
      <trkpt lat="46.0232" lon="6.57976">
        <ele>1568.05</ele>
        <time>2019-03-19T09:21:38Z</time>
      </trkpt>
      <trkpt lat="46.02317" lon="6.57986">
        <ele>1570.93</ele>
        <time>2019-03-19T09:21:50Z</time>
      </trkpt>
      <trkpt lat="46.0231" lon="6.57991">
        <ele>1574.3</ele>
        <time>2019-03-19T09:22:02Z</time>
      </trkpt>
      <trkpt lat="46.02309" lon="6.57992">
        <ele>1574.78</ele>
        <time>2019-03-19T09:22:03Z</time>
      </trkpt>
      <trkpt lat="46.02308" lon="6.57992">
        <ele>1574.78</ele>
        <time>2019-03-19T09:22:04Z</time>
      </trkpt>
      <trkpt lat="46.02298" lon="6.57982">
        <ele>1577.66</ele>
        <time>2019-03-19T09:22:18Z</time>
      </trkpt>
      <trkpt lat="46.02287" lon="6.57965">
        <ele>1581.03</ele>
        <time>2019-03-19T09:22:36Z</time>
      </trkpt>
      <trkpt lat="46.0227" lon="6.5795">
        <ele>1584.39</ele>
        <time>2019-03-19T09:22:57Z</time>
      </trkpt>
      <trkpt lat="46.02255" lon="6.57938">
        <ele>1587.27</ele>
        <time>2019-03-19T09:23:17Z</time>
      </trkpt>
      <trkpt lat="46.02242" lon="6.5793">
        <ele>1590.64</ele>
        <time>2019-03-19T09:23:34Z</time>
      </trkpt>
      <trkpt lat="46.02234" lon="6.57925">
        <ele>1593.52</ele>
        <time>2019-03-19T09:23:47Z</time>
      </trkpt>
      <trkpt lat="46.02237" lon="6.57936">
        <ele>1595.45</ele>
        <time>2019-03-19T09:23:59Z</time>
      </trkpt>
      <trkpt lat="46.02246" lon="6.57959">
        <ele>1598.81</ele>
        <time>2019-03-19T09:24:20Z</time>
      </trkpt>
      <trkpt lat="46.02246" lon="6.57965">
        <ele>1602.17</ele>
        <time>2019-03-19T09:24:36Z</time>
      </trkpt>
      <trkpt lat="46.0224" lon="6.5796">
        <ele>1605.06</ele>
        <time>2019-03-19T09:24:48Z</time>
      </trkpt>
      <trkpt lat="46.0223" lon="6.5796">
        <ele>1608.42</ele>
        <time>2019-03-19T09:25:02Z</time>
      </trkpt>
      <trkpt lat="46.02222" lon="6.57957">
        <ele>1611.31</ele>
        <time>2019-03-19T09:25:16Z</time>
      </trkpt>
      <trkpt lat="46.02215" lon="6.57951">
        <ele>1614.67</ele>
        <time>2019-03-19T09:25:30Z</time>
      </trkpt>
      <trkpt lat="46.02212" lon="6.57945">
        <ele>1617.56</ele>
        <time>2019-03-19T09:25:45Z</time>
      </trkpt>
      <trkpt lat="46.02208" lon="6.57943">
        <ele>1619</ele>
        <time>2019-03-19T09:25:52Z</time>
      </trkpt>
      <trkpt lat="46.02204" lon="6.57943">
        <ele>1621.4</ele>
        <time>2019-03-19T09:26:00Z</time>
      </trkpt>
      <trkpt lat="46.02201" lon="6.5795">
        <ele>1624.77</ele>
        <time>2019-03-19T09:26:14Z</time>
      </trkpt>
      <trkpt lat="46.02201" lon="6.57963">
        <ele>1627.65</ele>
        <time>2019-03-19T09:26:28Z</time>
      </trkpt>
      <trkpt lat="46.02195" lon="6.5797">
        <ele>1630.53</ele>
        <time>2019-03-19T09:26:42Z</time>
      </trkpt>
      <trkpt lat="46.02188" lon="6.57959">
        <ele>1633.9</ele>
        <time>2019-03-19T09:26:58Z</time>
      </trkpt>
      <trkpt lat="46.02182" lon="6.57956">
        <ele>1636.78</ele>
        <time>2019-03-19T09:27:10Z</time>
      </trkpt>
      <trkpt lat="46.02181" lon="6.57966">
        <ele>1639.67</ele>
        <time>2019-03-19T09:27:24Z</time>
      </trkpt>
      <trkpt lat="46.02178" lon="6.57971">
        <ele>1643.03</ele>
        <time>2019-03-19T09:27:40Z</time>
      </trkpt>
      <trkpt lat="46.02173" lon="6.57963">
        <ele>1646.4</ele>
        <time>2019-03-19T09:27:55Z</time>
      </trkpt>
      <trkpt lat="46.02164" lon="6.57954">
        <ele>1649.28</ele>
        <time>2019-03-19T09:28:11Z</time>
      </trkpt>
      <trkpt lat="46.02157" lon="6.57948">
        <ele>1652.16</ele>
        <time>2019-03-19T09:28:24Z</time>
      </trkpt>
      <trkpt lat="46.02148" lon="6.57945">
        <ele>1655.53</ele>
        <time>2019-03-19T09:28:38Z</time>
      </trkpt>
      <trkpt lat="46.02142" lon="6.57937">
        <ele>1658.41</ele>
        <time>2019-03-19T09:28:55Z</time>
      </trkpt>
      <trkpt lat="46.02139" lon="6.57934">
        <ele>1660.33</ele>
        <time>2019-03-19T09:29:02Z</time>
      </trkpt>
      <trkpt lat="46.02134" lon="6.57928">
        <ele>1662.74</ele>
        <time>2019-03-19T09:29:21Z</time>
      </trkpt>
      <trkpt lat="46.02132" lon="6.57927">
        <ele>1662.74</ele>
        <time>2019-03-19T09:29:25Z</time>
      </trkpt>
      <trkpt lat="46.02131" lon="6.57927">
        <ele>1663.22</ele>
        <time>2019-03-19T09:29:26Z</time>
      </trkpt>
      <trkpt lat="46.02125" lon="6.57921">
        <ele>1666.1</ele>
        <time>2019-03-19T09:29:49Z</time>
      </trkpt>
      <trkpt lat="46.02123" lon="6.57916">
        <ele>1668.99</ele>
        <time>2019-03-19T09:30:03Z</time>
      </trkpt>
      <trkpt lat="46.02121" lon="6.57912">
        <ele>1670.43</ele>
        <time>2019-03-19T09:30:09Z</time>
      </trkpt>
      <trkpt lat="46.02119" lon="6.5791">
        <ele>1670.91</ele>
        <time>2019-03-19T09:30:12Z</time>
      </trkpt>
      <trkpt lat="46.02118" lon="6.57906">
        <ele>1672.35</ele>
        <time>2019-03-19T09:30:19Z</time>
      </trkpt>
      <trkpt lat="46.02114" lon="6.57902">
        <ele>1675.72</ele>
        <time>2019-03-19T09:30:32Z</time>
      </trkpt>
      <trkpt lat="46.02114" lon="6.57915">
        <ele>1678.6</ele>
        <time>2019-03-19T09:30:48Z</time>
      </trkpt>
      <trkpt lat="46.02114" lon="6.57928">
        <ele>1681.96</ele>
        <time>2019-03-19T09:31:03Z</time>
      </trkpt>
      <trkpt lat="46.02114" lon="6.57938">
        <ele>1684.85</ele>
        <time>2019-03-19T09:31:18Z</time>
      </trkpt>
      <trkpt lat="46.02113" lon="6.57939">
        <ele>1685.33</ele>
        <time>2019-03-19T09:31:19Z</time>
      </trkpt>
      <trkpt lat="46.02108" lon="6.57937">
        <ele>1688.21</ele>
        <time>2019-03-19T09:31:33Z</time>
      </trkpt>
      <trkpt lat="46.02106" lon="6.57935">
        <ele>1689.65</ele>
        <time>2019-03-19T09:31:40Z</time>
      </trkpt>
      <trkpt lat="46.02098" lon="6.57941">
        <ele>1693.02</ele>
        <time>2019-03-19T09:31:56Z</time>
      </trkpt>
      <trkpt lat="46.02095" lon="6.57941">
        <ele>1695.42</ele>
        <time>2019-03-19T09:32:08Z</time>
      </trkpt>
      <trkpt lat="46.02096" lon="6.5795">
        <ele>1698.31</ele>
        <time>2019-03-19T09:32:22Z</time>
      </trkpt>
      <trkpt lat="46.02095" lon="6.5795">
        <ele>1700.23</ele>
        <time>2019-03-19T09:32:32Z</time>
      </trkpt>
      <trkpt lat="46.02096" lon="6.5795">
        <ele>1700.71</ele>
        <time>2019-03-19T09:32:33Z</time>
      </trkpt>
      <trkpt lat="46.02093" lon="6.5796">
        <ele>1704.07</ele>
        <time>2019-03-19T09:32:51Z</time>
      </trkpt>
      <trkpt lat="46.02091" lon="6.57962">
        <ele>1704.55</ele>
        <time>2019-03-19T09:32:54Z</time>
      </trkpt>
      <trkpt lat="46.02088" lon="6.57967">
        <ele>1706.96</ele>
        <time>2019-03-19T09:33:05Z</time>
      </trkpt>
      <trkpt lat="46.02085" lon="6.57959">
        <ele>1709.84</ele>
        <time>2019-03-19T09:33:20Z</time>
      </trkpt>
      <trkpt lat="46.02084" lon="6.5796">
        <ele>1711.28</ele>
        <time>2019-03-19T09:33:26Z</time>
      </trkpt>
      <trkpt lat="46.0208" lon="6.57976">
        <ele>1714.17</ele>
        <time>2019-03-19T09:33:43Z</time>
      </trkpt>
      <trkpt lat="46.02076" lon="6.57978">
        <ele>1716.09</ele>
        <time>2019-03-19T09:33:51Z</time>
      </trkpt>
      <trkpt lat="46.02072" lon="6.57971">
        <ele>1718.49</ele>
        <time>2019-03-19T09:34:02Z</time>
      </trkpt>
      <trkpt lat="46.02075" lon="6.57956">
        <ele>1721.38</ele>
        <time>2019-03-19T09:34:18Z</time>
      </trkpt>
      <trkpt lat="46.02072" lon="6.57952">
        <ele>1722.82</ele>
        <time>2019-03-19T09:34:25Z</time>
      </trkpt>
      <trkpt lat="46.02067" lon="6.57956">
        <ele>1725.7</ele>
        <time>2019-03-19T09:34:38Z</time>
      </trkpt>
      <trkpt lat="46.0206" lon="6.57962">
        <ele>1729.07</ele>
        <time>2019-03-19T09:34:54Z</time>
      </trkpt>
      <trkpt lat="46.02052" lon="6.57964">
        <ele>1731.95</ele>
        <time>2019-03-19T09:35:06Z</time>
      </trkpt>
      <trkpt lat="46.02051" lon="6.57975">
        <ele>1734.84</ele>
        <time>2019-03-19T09:35:21Z</time>
      </trkpt>
      <trkpt lat="46.0205" lon="6.57984">
        <ele>1738.2</ele>
        <time>2019-03-19T09:35:36Z</time>
      </trkpt>
      <trkpt lat="46.02044" lon="6.57982">
        <ele>1741.08</ele>
        <time>2019-03-19T09:35:50Z</time>
      </trkpt>
      <trkpt lat="46.0204" lon="6.57974">
        <ele>1743.01</ele>
        <time>2019-03-19T09:36:00Z</time>
      </trkpt>
      <trkpt lat="46.02031" lon="6.57974">
        <ele>1745.89</ele>
        <time>2019-03-19T09:36:15Z</time>
      </trkpt>
      <trkpt lat="46.02029" lon="6.57977">
        <ele>1746.37</ele>
        <time>2019-03-19T09:36:18Z</time>
      </trkpt>
      <trkpt lat="46.02021" lon="6.57984">
        <ele>1749.74</ele>
        <time>2019-03-19T09:36:32Z</time>
      </trkpt>
      <trkpt lat="46.02018" lon="6.57987">
        <ele>1750.7</ele>
        <time>2019-03-19T09:36:38Z</time>
      </trkpt>
      <trkpt lat="46.02011" lon="6.57992">
        <ele>1753.58</ele>
        <time>2019-03-19T09:36:52Z</time>
      </trkpt>
      <trkpt lat="46.02003" lon="6.58003">
        <ele>1757.43</ele>
        <time>2019-03-19T09:37:06Z</time>
      </trkpt>
      <trkpt lat="46.01998" lon="6.5801">
        <ele>1760.31</ele>
        <time>2019-03-19T09:37:20Z</time>
      </trkpt>
      <trkpt lat="46.01994" lon="6.58012">
        <ele>1763.2</ele>
        <time>2019-03-19T09:37:33Z</time>
      </trkpt>
      <trkpt lat="46.01986" lon="6.58016">
        <ele>1766.56</ele>
        <time>2019-03-19T09:37:46Z</time>
      </trkpt>
      <trkpt lat="46.01981" lon="6.58019">
        <ele>1768</ele>
        <time>2019-03-19T09:37:52Z</time>
      </trkpt>
      <trkpt lat="46.01976" lon="6.58027">
        <ele>1770.89</ele>
        <time>2019-03-19T09:38:06Z</time>
      </trkpt>
      <trkpt lat="46.01977" lon="6.58037">
        <ele>1773.77</ele>
        <time>2019-03-19T09:38:19Z</time>
      </trkpt>
      <trkpt lat="46.01969" lon="6.58044">
        <ele>1777.13</ele>
        <time>2019-03-19T09:38:33Z</time>
      </trkpt>
      <trkpt lat="46.01962" lon="6.58047">
        <ele>1780.02</ele>
        <time>2019-03-19T09:38:47Z</time>
      </trkpt>
      <trkpt lat="46.01954" lon="6.58051">
        <ele>1783.38</ele>
        <time>2019-03-19T09:39:02Z</time>
      </trkpt>
      <trkpt lat="46.01947" lon="6.58057">
        <ele>1786.27</ele>
        <time>2019-03-19T09:39:18Z</time>
      </trkpt>
      <trkpt lat="46.01937" lon="6.58063">
        <ele>1789.63</ele>
        <time>2019-03-19T09:39:33Z</time>
      </trkpt>
      <trkpt lat="46.01926" lon="6.58067">
        <ele>1793</ele>
        <time>2019-03-19T09:39:49Z</time>
      </trkpt>
      <trkpt lat="46.01917" lon="6.5807">
        <ele>1795.88</ele>
        <time>2019-03-19T09:40:04Z</time>
      </trkpt>
      <trkpt lat="46.01908" lon="6.58073">
        <ele>1798.76</ele>
        <time>2019-03-19T09:40:20Z</time>
      </trkpt>
      <trkpt lat="46.01903" lon="6.58076">
        <ele>1802.13</ele>
        <time>2019-03-19T09:40:32Z</time>
      </trkpt>
      <trkpt lat="46.01894" lon="6.58083">
        <ele>1805.49</ele>
        <time>2019-03-19T09:40:47Z</time>
      </trkpt>
      <trkpt lat="46.01887" lon="6.58089">
        <ele>1808.38</ele>
        <time>2019-03-19T09:41:01Z</time>
      </trkpt>
      <trkpt lat="46.01882" lon="6.58099">
        <ele>1811.74</ele>
        <time>2019-03-19T09:41:17Z</time>
      </trkpt>
      <trkpt lat="46.01873" lon="6.58107">
        <ele>1814.63</ele>
        <time>2019-03-19T09:41:32Z</time>
      </trkpt>
      <trkpt lat="46.01856" lon="6.58108">
        <ele>1817.99</ele>
        <time>2019-03-19T09:41:53Z</time>
      </trkpt>
      <trkpt lat="46.0185" lon="6.58098">
        <ele>1819.43</ele>
        <time>2019-03-19T09:42:05Z</time>
      </trkpt>
      <trkpt lat="46.01836" lon="6.58072">
        <ele>1822.32</ele>
        <time>2019-03-19T09:42:28Z</time>
      </trkpt>
      <trkpt lat="46.01819" lon="6.58063">
        <ele>1825.2</ele>
        <time>2019-03-19T09:42:49Z</time>
      </trkpt>
      <trkpt lat="46.01805" lon="6.58058">
        <ele>1828.56</ele>
        <time>2019-03-19T09:43:07Z</time>
      </trkpt>
      <trkpt lat="46.01788" lon="6.58051">
        <ele>1831.45</ele>
        <time>2019-03-19T09:43:27Z</time>
      </trkpt>
      <trkpt lat="46.01774" lon="6.5804">
        <ele>1834.81</ele>
        <time>2019-03-19T09:43:46Z</time>
      </trkpt>
      <trkpt lat="46.01761" lon="6.58033">
        <ele>1837.7</ele>
        <time>2019-03-19T09:44:01Z</time>
      </trkpt>
      <trkpt lat="46.0175" lon="6.58028">
        <ele>1840.1</ele>
        <time>2019-03-19T09:44:17Z</time>
      </trkpt>
      <trkpt lat="46.01745" lon="6.58037">
        <ele>1843.47</ele>
        <time>2019-03-19T09:44:31Z</time>
      </trkpt>
      <trkpt lat="46.01742" lon="6.58048">
        <ele>1846.83</ele>
        <time>2019-03-19T09:44:44Z</time>
      </trkpt>
      <trkpt lat="46.01734" lon="6.58049">
        <ele>1849.71</ele>
        <time>2019-03-19T09:45:00Z</time>
      </trkpt>
      <trkpt lat="46.01723" lon="6.58048">
        <ele>1852.6</ele>
        <time>2019-03-19T09:45:14Z</time>
      </trkpt>
      <trkpt lat="46.01714" lon="6.58045">
        <ele>1855.96</ele>
        <time>2019-03-19T09:45:27Z</time>
      </trkpt>
      <trkpt lat="46.01707" lon="6.58047">
        <ele>1858.85</ele>
        <time>2019-03-19T09:45:42Z</time>
      </trkpt>
      <trkpt lat="46.01705" lon="6.58056">
        <ele>1860.77</ele>
        <time>2019-03-19T09:45:51Z</time>
      </trkpt>
      <trkpt lat="46.01703" lon="6.58067">
        <ele>1864.13</ele>
        <time>2019-03-19T09:46:03Z</time>
      </trkpt>
      <trkpt lat="46.017" lon="6.58067">
        <ele>1865.09</ele>
        <time>2019-03-19T09:46:07Z</time>
      </trkpt>
      <trkpt lat="46.01692" lon="6.58063">
        <ele>1867.98</ele>
        <time>2019-03-19T09:46:20Z</time>
      </trkpt>
      <trkpt lat="46.0169" lon="6.58063">
        <ele>1868.46</ele>
        <time>2019-03-19T09:46:22Z</time>
      </trkpt>
      <trkpt lat="46.01689" lon="6.58063">
        <ele>1868.94</ele>
        <time>2019-03-19T09:46:24Z</time>
      </trkpt>
      <trkpt lat="46.01681" lon="6.58065">
        <ele>1871.82</ele>
        <time>2019-03-19T09:46:36Z</time>
      </trkpt>
      <trkpt lat="46.01668" lon="6.58069">
        <ele>1875.19</ele>
        <time>2019-03-19T09:46:52Z</time>
      </trkpt>
      <trkpt lat="46.01654" lon="6.58073">
        <ele>1878.07</ele>
        <time>2019-03-19T09:47:08Z</time>
      </trkpt>
      <trkpt lat="46.01644" lon="6.58078">
        <ele>1880.96</ele>
        <time>2019-03-19T09:47:24Z</time>
      </trkpt>
      <trkpt lat="46.01633" lon="6.58081">
        <ele>1884.32</ele>
        <time>2019-03-19T09:47:39Z</time>
      </trkpt>
      <trkpt lat="46.01623" lon="6.58083">
        <ele>1887.21</ele>
        <time>2019-03-19T09:47:52Z</time>
      </trkpt>
      <trkpt lat="46.01613" lon="6.58088">
        <ele>1890.09</ele>
        <time>2019-03-19T09:48:08Z</time>
      </trkpt>
      <trkpt lat="46.01604" lon="6.58089">
        <ele>1893.45</ele>
        <time>2019-03-19T09:48:22Z</time>
      </trkpt>
      <trkpt lat="46.0159" lon="6.5809">
        <ele>1896.34</ele>
        <time>2019-03-19T09:48:40Z</time>
      </trkpt>
      <trkpt lat="46.01576" lon="6.58088">
        <ele>1899.22</ele>
        <time>2019-03-19T09:48:58Z</time>
      </trkpt>
      <trkpt lat="46.01563" lon="6.58088">
        <ele>1902.59</ele>
        <time>2019-03-19T09:49:15Z</time>
      </trkpt>
      <trkpt lat="46.01552" lon="6.58086">
        <ele>1905.47</ele>
        <time>2019-03-19T09:49:30Z</time>
      </trkpt>
      <trkpt lat="46.0154" lon="6.5808">
        <ele>1908.83</ele>
        <time>2019-03-19T09:49:46Z</time>
      </trkpt>
      <trkpt lat="46.01529" lon="6.58078">
        <ele>1911.72</ele>
        <time>2019-03-19T09:50:01Z</time>
      </trkpt>
      <trkpt lat="46.01516" lon="6.58076">
        <ele>1915.08</ele>
        <time>2019-03-19T09:50:18Z</time>
      </trkpt>
      <trkpt lat="46.01503" lon="6.58075">
        <ele>1917.97</ele>
        <time>2019-03-19T09:50:35Z</time>
      </trkpt>
      <trkpt lat="46.01501" lon="6.58074">
        <ele>1918.93</ele>
        <time>2019-03-19T09:50:38Z</time>
      </trkpt>
      <trkpt lat="46.01499" lon="6.58075">
        <ele>1919.41</ele>
        <time>2019-03-19T09:50:40Z</time>
      </trkpt>
      <trkpt lat="46.01499" lon="6.58075">
        <ele>1919.89</ele>
        <time>2019-03-19T09:50:41Z</time>
      </trkpt>
      <trkpt lat="46.01498" lon="6.58075">
        <ele>1919.89</ele>
        <time>2019-03-19T09:50:42Z</time>
      </trkpt>
      <trkpt lat="46.01489" lon="6.58076">
        <ele>1923.25</ele>
        <time>2019-03-19T09:50:57Z</time>
      </trkpt>
      <trkpt lat="46.01481" lon="6.58079">
        <ele>1926.14</ele>
        <time>2019-03-19T09:51:10Z</time>
      </trkpt>
      <trkpt lat="46.0147" lon="6.58083">
        <ele>1929.5</ele>
        <time>2019-03-19T09:51:26Z</time>
      </trkpt>
      <trkpt lat="46.01466" lon="6.58084">
        <ele>1929.98</ele>
        <time>2019-03-19T09:51:30Z</time>
      </trkpt>
      <trkpt lat="46.01465" lon="6.58085">
        <ele>1930.46</ele>
        <time>2019-03-19T09:51:31Z</time>
      </trkpt>
      <trkpt lat="46.01452" lon="6.5809">
        <ele>1933.83</ele>
        <time>2019-03-19T09:51:49Z</time>
      </trkpt>
      <trkpt lat="46.0143" lon="6.58095">
        <ele>1936.71</ele>
        <time>2019-03-19T09:52:14Z</time>
      </trkpt>
      <trkpt lat="46.01422" lon="6.58096">
        <ele>1937.19</ele>
        <time>2019-03-19T09:52:21Z</time>
      </trkpt>
      <trkpt lat="46.01421" lon="6.58096">
        <ele>1937.19</ele>
        <time>2019-03-19T09:52:22Z</time>
      </trkpt>
      <trkpt lat="46.01419" lon="6.58096">
        <ele>1937.19</ele>
        <time>2019-03-19T09:52:23Z</time>
      </trkpt>
      <trkpt lat="46.01418" lon="6.58097">
        <ele>1937.19</ele>
        <time>2019-03-19T09:52:24Z</time>
      </trkpt>
      <trkpt lat="46.01408" lon="6.581">
        <ele>1937.67</ele>
        <time>2019-03-19T09:52:33Z</time>
      </trkpt>
      <trkpt lat="46.01407" lon="6.581">
        <ele>1937.67</ele>
        <time>2019-03-19T09:52:34Z</time>
      </trkpt>
      <trkpt lat="46.01406" lon="6.58101">
        <ele>1937.67</ele>
        <time>2019-03-19T09:52:35Z</time>
      </trkpt>
      <trkpt lat="46.01405" lon="6.581">
        <ele>1937.67</ele>
        <time>2019-03-19T09:52:36Z</time>
      </trkpt>
      <trkpt lat="46.01403" lon="6.581">
        <ele>1937.67</ele>
        <time>2019-03-19T09:52:37Z</time>
      </trkpt>
      <trkpt lat="46.01401" lon="6.58101">
        <ele>1937.67</ele>
        <time>2019-03-19T09:52:38Z</time>
      </trkpt>
      <trkpt lat="46.01357" lon="6.581">
        <ele>1940.08</ele>
        <time>2019-03-19T09:55:04Z</time>
      </trkpt>
      <trkpt lat="46.01325" lon="6.58095">
        <ele>1942.96</ele>
        <time>2019-03-19T09:55:34Z</time>
      </trkpt>
      <trkpt lat="46.01307" lon="6.5809">
        <ele>1946.33</ele>
        <time>2019-03-19T09:55:55Z</time>
      </trkpt>
      <trkpt lat="46.01306" lon="6.5809">
        <ele>1946.33</ele>
        <time>2019-03-19T09:55:56Z</time>
      </trkpt>
      <trkpt lat="46.01305" lon="6.58089">
        <ele>1946.81</ele>
        <time>2019-03-19T09:55:57Z</time>
      </trkpt>
      <trkpt lat="46.01304" lon="6.58089">
        <ele>1946.81</ele>
        <time>2019-03-19T09:55:58Z</time>
      </trkpt>
      <trkpt lat="46.01297" lon="6.58086">
        <ele>1947.77</ele>
        <time>2019-03-19T09:56:05Z</time>
      </trkpt>
      <trkpt lat="46.01295" lon="6.58086">
        <ele>1948.25</ele>
        <time>2019-03-19T09:56:07Z</time>
      </trkpt>
      <trkpt lat="46.01286" lon="6.58085">
        <ele>1950.17</ele>
        <time>2019-03-19T09:56:17Z</time>
      </trkpt>
      <trkpt lat="46.01285" lon="6.58085">
        <ele>1950.17</ele>
        <time>2019-03-19T09:56:18Z</time>
      </trkpt>
      <trkpt lat="46.0128" lon="6.58088">
        <ele>1950.65</ele>
        <time>2019-03-19T09:56:23Z</time>
      </trkpt>
      <trkpt lat="46.01279" lon="6.58088">
        <ele>1950.65</ele>
        <time>2019-03-19T09:56:24Z</time>
      </trkpt>
      <trkpt lat="46.01278" lon="6.58089">
        <ele>1951.13</ele>
        <time>2019-03-19T09:56:25Z</time>
      </trkpt>
      <trkpt lat="46.01277" lon="6.58089">
        <ele>1951.13</ele>
        <time>2019-03-19T09:56:26Z</time>
      </trkpt>
      <trkpt lat="46.01276" lon="6.58089">
        <ele>1951.61</ele>
        <time>2019-03-19T09:56:27Z</time>
      </trkpt>
      <trkpt lat="46.01275" lon="6.5809">
        <ele>1951.61</ele>
        <time>2019-03-19T09:56:28Z</time>
      </trkpt>
      <trkpt lat="46.01274" lon="6.5809">
        <ele>1951.13</ele>
        <time>2019-03-19T09:56:29Z</time>
      </trkpt>
      <trkpt lat="46.01273" lon="6.58091">
        <ele>1951.13</ele>
        <time>2019-03-19T09:56:30Z</time>
      </trkpt>
      <trkpt lat="46.01271" lon="6.58092">
        <ele>1951.61</ele>
        <time>2019-03-19T09:56:31Z</time>
      </trkpt>
      <trkpt lat="46.0127" lon="6.58092">
        <ele>1951.61</ele>
        <time>2019-03-19T09:56:32Z</time>
      </trkpt>
      <trkpt lat="46.01269" lon="6.58093">
        <ele>1951.61</ele>
        <time>2019-03-19T09:56:33Z</time>
      </trkpt>
      <trkpt lat="46.01268" lon="6.58094">
        <ele>1951.61</ele>
        <time>2019-03-19T09:56:34Z</time>
      </trkpt>
      <trkpt lat="46.01264" lon="6.58096">
        <ele>1952.57</ele>
        <time>2019-03-19T09:56:38Z</time>
      </trkpt>
      <trkpt lat="46.01262" lon="6.58096">
        <ele>1952.57</ele>
        <time>2019-03-19T09:56:39Z</time>
      </trkpt>
      <trkpt lat="46.01261" lon="6.58097">
        <ele>1952.57</ele>
        <time>2019-03-19T09:56:40Z</time>
      </trkpt>
      <trkpt lat="46.0126" lon="6.58097">
        <ele>1952.57</ele>
        <time>2019-03-19T09:56:41Z</time>
      </trkpt>
      <trkpt lat="46.01259" lon="6.58098">
        <ele>1952.57</ele>
        <time>2019-03-19T09:56:42Z</time>
      </trkpt>
      <trkpt lat="46.01251" lon="6.58101">
        <ele>1953.54</ele>
        <time>2019-03-19T09:56:49Z</time>
      </trkpt>
      <trkpt lat="46.0125" lon="6.58101">
        <ele>1953.54</ele>
        <time>2019-03-19T09:56:50Z</time>
      </trkpt>
      <trkpt lat="46.01249" lon="6.58101">
        <ele>1954.02</ele>
        <time>2019-03-19T09:56:51Z</time>
      </trkpt>
      <trkpt lat="46.01248" lon="6.58102">
        <ele>1954.02</ele>
        <time>2019-03-19T09:56:52Z</time>
      </trkpt>
      <trkpt lat="46.01247" lon="6.58102">
        <ele>1954.02</ele>
        <time>2019-03-19T09:56:53Z</time>
      </trkpt>
      <trkpt lat="46.01246" lon="6.58102">
        <ele>1954.02</ele>
        <time>2019-03-19T09:56:54Z</time>
      </trkpt>
      <trkpt lat="46.01244" lon="6.58103">
        <ele>1954.02</ele>
        <time>2019-03-19T09:56:55Z</time>
      </trkpt>
      <trkpt lat="46.01243" lon="6.58103">
        <ele>1954.02</ele>
        <time>2019-03-19T09:56:56Z</time>
      </trkpt>
      <trkpt lat="46.01242" lon="6.58103">
        <ele>1954.5</ele>
        <time>2019-03-19T09:56:57Z</time>
      </trkpt>
      <trkpt lat="46.01241" lon="6.58103">
        <ele>1954.5</ele>
        <time>2019-03-19T09:56:58Z</time>
      </trkpt>
      <trkpt lat="46.01224" lon="6.58102">
        <ele>1955.94</ele>
        <time>2019-03-19T09:57:13Z</time>
      </trkpt>
      <trkpt lat="46.01214" lon="6.58098">
        <ele>1957.86</ele>
        <time>2019-03-19T09:57:26Z</time>
      </trkpt>
      <trkpt lat="46.01203" lon="6.58094">
        <ele>1961.23</ele>
        <time>2019-03-19T09:57:41Z</time>
      </trkpt>
      <trkpt lat="46.01189" lon="6.58088">
        <ele>1964.11</ele>
        <time>2019-03-19T09:57:58Z</time>
      </trkpt>
      <trkpt lat="46.01182" lon="6.58086">
        <ele>1966.03</ele>
        <time>2019-03-19T09:58:08Z</time>
      </trkpt>
      <trkpt lat="46.01155" lon="6.58079">
        <ele>1968.92</ele>
        <time>2019-03-19T09:58:34Z</time>
      </trkpt>
      <trkpt lat="46.01151" lon="6.5808">
        <ele>1970.36</ele>
        <time>2019-03-19T09:58:39Z</time>
      </trkpt>
      <trkpt lat="46.0115" lon="6.5808">
        <ele>1970.36</ele>
        <time>2019-03-19T09:58:40Z</time>
      </trkpt>
      <trkpt lat="46.01149" lon="6.5808">
        <ele>1970.36</ele>
        <time>2019-03-19T09:58:41Z</time>
      </trkpt>
      <trkpt lat="46.01128" lon="6.58059">
        <ele>1973.24</ele>
        <time>2019-03-19T09:59:08Z</time>
      </trkpt>
      <trkpt lat="46.01118" lon="6.58045">
        <ele>1976.61</ele>
        <time>2019-03-19T09:59:23Z</time>
      </trkpt>
      <trkpt lat="46.01112" lon="6.58047">
        <ele>1979.01</ele>
        <time>2019-03-19T09:59:36Z</time>
      </trkpt>
      <trkpt lat="46.01109" lon="6.5806">
        <ele>1982.38</ele>
        <time>2019-03-19T09:59:51Z</time>
      </trkpt>
      <trkpt lat="46.01102" lon="6.58072">
        <ele>1985.26</ele>
        <time>2019-03-19T10:00:06Z</time>
      </trkpt>
      <trkpt lat="46.01096" lon="6.58082">
        <ele>1988.62</ele>
        <time>2019-03-19T10:00:20Z</time>
      </trkpt>
      <trkpt lat="46.01091" lon="6.58092">
        <ele>1991.51</ele>
        <time>2019-03-19T10:00:33Z</time>
      </trkpt>
      <trkpt lat="46.01084" lon="6.581">
        <ele>1994.39</ele>
        <time>2019-03-19T10:00:46Z</time>
      </trkpt>
      <trkpt lat="46.01078" lon="6.58108">
        <ele>1997.76</ele>
        <time>2019-03-19T10:00:59Z</time>
      </trkpt>
      <trkpt lat="46.01067" lon="6.58117">
        <ele>2001.12</ele>
        <time>2019-03-19T10:01:14Z</time>
      </trkpt>
      <trkpt lat="46.01059" lon="6.58125">
        <ele>2004.01</ele>
        <time>2019-03-19T10:01:28Z</time>
      </trkpt>
      <trkpt lat="46.01054" lon="6.58136">
        <ele>2007.37</ele>
        <time>2019-03-19T10:01:41Z</time>
      </trkpt>
      <trkpt lat="46.01045" lon="6.58155">
        <ele>2010.25</ele>
        <time>2019-03-19T10:02:00Z</time>
      </trkpt>
      <trkpt lat="46.01032" lon="6.58174">
        <ele>2013.62</ele>
        <time>2019-03-19T10:02:19Z</time>
      </trkpt>
      <trkpt lat="46.01021" lon="6.58194">
        <ele>2016.98</ele>
        <time>2019-03-19T10:02:37Z</time>
      </trkpt>
      <trkpt lat="46.01013" lon="6.58206">
        <ele>2019.87</ele>
        <time>2019-03-19T10:02:51Z</time>
      </trkpt>
      <trkpt lat="46.01003" lon="6.58218">
        <ele>2022.75</ele>
        <time>2019-03-19T10:03:07Z</time>
      </trkpt>
      <trkpt lat="46.00993" lon="6.58226">
        <ele>2026.12</ele>
        <time>2019-03-19T10:03:21Z</time>
      </trkpt>
      <trkpt lat="46.00986" lon="6.58232">
        <ele>2029</ele>
        <time>2019-03-19T10:03:32Z</time>
      </trkpt>
      <trkpt lat="46.00983" lon="6.58233">
        <ele>2029.48</ele>
        <time>2019-03-19T10:03:35Z</time>
      </trkpt>
      <trkpt lat="46.00974" lon="6.58238">
        <ele>2032.84</ele>
        <time>2019-03-19T10:03:48Z</time>
      </trkpt>
      <trkpt lat="46.00965" lon="6.5824">
        <ele>2035.73</ele>
        <time>2019-03-19T10:04:02Z</time>
      </trkpt>
      <trkpt lat="46.00958" lon="6.58238">
        <ele>2039.09</ele>
        <time>2019-03-19T10:04:13Z</time>
      </trkpt>
      <trkpt lat="46.00952" lon="6.58233">
        <ele>2041.02</ele>
        <time>2019-03-19T10:04:22Z</time>
      </trkpt>
      <trkpt lat="46.00944" lon="6.58222">
        <ele>2043.9</ele>
        <time>2019-03-19T10:04:35Z</time>
      </trkpt>
      <trkpt lat="46.00938" lon="6.58208">
        <ele>2046.78</ele>
        <time>2019-03-19T10:04:50Z</time>
      </trkpt>
      <trkpt lat="46.00931" lon="6.58188">
        <ele>2049.67</ele>
        <time>2019-03-19T10:05:07Z</time>
      </trkpt>
      <trkpt lat="46.00928" lon="6.5817">
        <ele>2051.59</ele>
        <time>2019-03-19T10:05:21Z</time>
      </trkpt>
      <trkpt lat="46.00936" lon="6.58149">
        <ele>2054.47</ele>
        <time>2019-03-19T10:05:39Z</time>
      </trkpt>
      <trkpt lat="46.00952" lon="6.58098">
        <ele>2057.84</ele>
        <time>2019-03-19T10:06:12Z</time>
      </trkpt>
      <trkpt lat="46.00961" lon="6.58056">
        <ele>2057.84</ele>
        <time>2019-03-19T10:06:36Z</time>
      </trkpt>
      <trkpt lat="46.00968" lon="6.58028">
        <ele>2059.76</ele>
        <time>2019-03-19T10:06:54Z</time>
      </trkpt>
      <trkpt lat="46.00975" lon="6.58">
        <ele>2060.72</ele>
        <time>2019-03-19T10:07:12Z</time>
      </trkpt>
      <trkpt lat="46.00982" lon="6.57964">
        <ele>2062.17</ele>
        <time>2019-03-19T10:07:33Z</time>
      </trkpt>
      <trkpt lat="46.00992" lon="6.57915">
        <ele>2065.05</ele>
        <time>2019-03-19T10:08:04Z</time>
      </trkpt>
      <trkpt lat="46.00993" lon="6.57912">
        <ele>2065.53</ele>
        <time>2019-03-19T10:08:06Z</time>
      </trkpt>
      <trkpt lat="46.00993" lon="6.5791">
        <ele>2065.53</ele>
        <time>2019-03-19T10:08:07Z</time>
      </trkpt>
      <trkpt lat="46.00993" lon="6.57908">
        <ele>2065.53</ele>
        <time>2019-03-19T10:08:08Z</time>
      </trkpt>
      <trkpt lat="46.00993" lon="6.57906">
        <ele>2065.53</ele>
        <time>2019-03-19T10:08:09Z</time>
      </trkpt>
      <trkpt lat="46.00993" lon="6.57904">
        <ele>2065.53</ele>
        <time>2019-03-19T10:08:10Z</time>
      </trkpt>
      <trkpt lat="46.00993" lon="6.57902">
        <ele>2065.53</ele>
        <time>2019-03-19T10:08:11Z</time>
      </trkpt>
      <trkpt lat="46.00992" lon="6.579">
        <ele>2065.53</ele>
        <time>2019-03-19T10:08:12Z</time>
      </trkpt>
      <trkpt lat="46.00992" lon="6.57898">
        <ele>2065.53</ele>
        <time>2019-03-19T10:08:13Z</time>
      </trkpt>
      <trkpt lat="46.00991" lon="6.57895">
        <ele>2065.53</ele>
        <time>2019-03-19T10:08:14Z</time>
      </trkpt>
      <trkpt lat="46.00983" lon="6.57863">
        <ele>2062.17</ele>
        <time>2019-03-19T10:08:25Z</time>
      </trkpt>
      <trkpt lat="46.00978" lon="6.57844">
        <ele>2058.8</ele>
        <time>2019-03-19T10:08:30Z</time>
      </trkpt>
      <trkpt lat="46.00973" lon="6.57834">
        <ele>2056.88</ele>
        <time>2019-03-19T10:08:32Z</time>
      </trkpt>
      <trkpt lat="46.00969" lon="6.57821">
        <ele>2054.47</ele>
        <time>2019-03-19T10:08:34Z</time>
      </trkpt>
      <trkpt lat="46.00965" lon="6.57815">
        <ele>2053.51</ele>
        <time>2019-03-19T10:08:35Z</time>
      </trkpt>
      <trkpt lat="46.00962" lon="6.57808">
        <ele>2051.59</ele>
        <time>2019-03-19T10:08:36Z</time>
      </trkpt>
      <trkpt lat="46.00958" lon="6.57801">
        <ele>2049.67</ele>
        <time>2019-03-19T10:08:37Z</time>
      </trkpt>
      <trkpt lat="46.00954" lon="6.57795">
        <ele>2048.23</ele>
        <time>2019-03-19T10:08:38Z</time>
      </trkpt>
      <trkpt lat="46.0095" lon="6.57787">
        <ele>2045.34</ele>
        <time>2019-03-19T10:08:39Z</time>
      </trkpt>
      <trkpt lat="46.00945" lon="6.57778">
        <ele>2042.94</ele>
        <time>2019-03-19T10:08:40Z</time>
      </trkpt>
      <trkpt lat="46.00941" lon="6.57769">
        <ele>2041.5</ele>
        <time>2019-03-19T10:08:41Z</time>
      </trkpt>
      <trkpt lat="46.00936" lon="6.57761">
        <ele>2039.57</ele>
        <time>2019-03-19T10:08:42Z</time>
      </trkpt>
      <trkpt lat="46.00931" lon="6.57752">
        <ele>2035.25</ele>
        <time>2019-03-19T10:08:43Z</time>
      </trkpt>
      <trkpt lat="46.00922" lon="6.57734">
        <ele>2031.4</ele>
        <time>2019-03-19T10:08:45Z</time>
      </trkpt>
      <trkpt lat="46.00916" lon="6.57726">
        <ele>2029.96</ele>
        <time>2019-03-19T10:08:46Z</time>
      </trkpt>
      <trkpt lat="46.00906" lon="6.57712">
        <ele>2024.19</ele>
        <time>2019-03-19T10:08:48Z</time>
      </trkpt>
      <trkpt lat="46.00897" lon="6.57697">
        <ele>2020.35</ele>
        <time>2019-03-19T10:08:50Z</time>
      </trkpt>
      <trkpt lat="46.00887" lon="6.5768">
        <ele>2016.98</ele>
        <time>2019-03-19T10:08:53Z</time>
      </trkpt>
      <trkpt lat="46.00884" lon="6.57677">
        <ele>2016.98</ele>
        <time>2019-03-19T10:08:54Z</time>
      </trkpt>
      <trkpt lat="46.00871" lon="6.57656">
        <ele>2018.43</ele>
        <time>2019-03-19T10:09:09Z</time>
      </trkpt>
      <trkpt lat="46.00847" lon="6.57611">
        <ele>2015.06</ele>
        <time>2019-03-19T10:09:36Z</time>
      </trkpt>
      <trkpt lat="46.00838" lon="6.57601">
        <ele>2014.1</ele>
        <time>2019-03-19T10:09:43Z</time>
      </trkpt>
      <trkpt lat="46.00837" lon="6.576">
        <ele>2014.1</ele>
        <time>2019-03-19T10:09:44Z</time>
      </trkpt>
      <trkpt lat="46.00836" lon="6.57599">
        <ele>2014.1</ele>
        <time>2019-03-19T10:09:45Z</time>
      </trkpt>
      <trkpt lat="46.00835" lon="6.57598">
        <ele>2014.1</ele>
        <time>2019-03-19T10:09:46Z</time>
      </trkpt>
      <trkpt lat="46.00823" lon="6.5758">
        <ele>2017.46</ele>
        <time>2019-03-19T10:10:05Z</time>
      </trkpt>
      <trkpt lat="46.00822" lon="6.57579">
        <ele>2017.46</ele>
        <time>2019-03-19T10:10:06Z</time>
      </trkpt>
      <trkpt lat="46.00815" lon="6.57569">
        <ele>2020.83</ele>
        <time>2019-03-19T10:10:19Z</time>
      </trkpt>
      <trkpt lat="46.00811" lon="6.57561">
        <ele>2022.75</ele>
        <time>2019-03-19T10:10:28Z</time>
      </trkpt>
      <trkpt lat="46.00808" lon="6.57557">
        <ele>2023.71</ele>
        <time>2019-03-19T10:10:33Z</time>
      </trkpt>
      <trkpt lat="46.00802" lon="6.57544">
        <ele>2027.08</ele>
        <time>2019-03-19T10:10:48Z</time>
      </trkpt>
      <trkpt lat="46.00798" lon="6.57535">
        <ele>2029</ele>
        <time>2019-03-19T10:10:57Z</time>
      </trkpt>
      <trkpt lat="46.00798" lon="6.57533">
        <ele>2029</ele>
        <time>2019-03-19T10:10:59Z</time>
      </trkpt>
      <trkpt lat="46.0079" lon="6.57517">
        <ele>2032.36</ele>
        <time>2019-03-19T10:11:15Z</time>
      </trkpt>
      <trkpt lat="46.00789" lon="6.57512">
        <ele>2032.84</ele>
        <time>2019-03-19T10:11:20Z</time>
      </trkpt>
      <trkpt lat="46.00781" lon="6.57496">
        <ele>2036.21</ele>
        <time>2019-03-19T10:11:37Z</time>
      </trkpt>
      <trkpt lat="46.00778" lon="6.5749">
        <ele>2037.65</ele>
        <time>2019-03-19T10:11:44Z</time>
      </trkpt>
      <trkpt lat="46.00777" lon="6.57489">
        <ele>2038.13</ele>
        <time>2019-03-19T10:11:46Z</time>
      </trkpt>
      <trkpt lat="46.00775" lon="6.57486">
        <ele>2038.61</ele>
        <time>2019-03-19T10:11:49Z</time>
      </trkpt>
      <trkpt lat="46.00771" lon="6.57476">
        <ele>2041.5</ele>
        <time>2019-03-19T10:12:01Z</time>
      </trkpt>
      <trkpt lat="46.0077" lon="6.57473">
        <ele>2042.46</ele>
        <time>2019-03-19T10:12:04Z</time>
      </trkpt>
      <trkpt lat="46.00765" lon="6.57463">
        <ele>2044.86</ele>
        <time>2019-03-19T10:12:17Z</time>
      </trkpt>
      <trkpt lat="46.0075" lon="6.57445">
        <ele>2046.78</ele>
        <time>2019-03-19T10:12:37Z</time>
      </trkpt>
      <trkpt lat="46.00742" lon="6.57424">
        <ele>2047.75</ele>
        <time>2019-03-19T10:12:52Z</time>
      </trkpt>
      <trkpt lat="46.00732" lon="6.57405">
        <ele>2047.75</ele>
        <time>2019-03-19T10:13:06Z</time>
      </trkpt>
      <trkpt lat="46.0072" lon="6.57388">
        <ele>2047.75</ele>
        <time>2019-03-19T10:13:20Z</time>
      </trkpt>
      <trkpt lat="46.00715" lon="6.57383">
        <ele>2048.23</ele>
        <time>2019-03-19T10:13:26Z</time>
      </trkpt>
      <trkpt lat="46.00714" lon="6.57381">
        <ele>2048.23</ele>
        <time>2019-03-19T10:13:27Z</time>
      </trkpt>
      <trkpt lat="46.00713" lon="6.5738">
        <ele>2048.23</ele>
        <time>2019-03-19T10:13:41Z</time>
      </trkpt>
      <trkpt lat="46.00714" lon="6.57379">
        <ele>2047.75</ele>
        <time>2019-03-19T10:13:55Z</time>
      </trkpt>
      <trkpt lat="46.00712" lon="6.57377">
        <ele>2048.23</ele>
        <time>2019-03-19T10:14:52Z</time>
      </trkpt>
      <trkpt lat="46.00712" lon="6.57376">
        <ele>2048.23</ele>
        <time>2019-03-19T10:14:53Z</time>
      </trkpt>
      <trkpt lat="46.00711" lon="6.57375">
        <ele>2048.23</ele>
        <time>2019-03-19T10:14:54Z</time>
      </trkpt>
      <trkpt lat="46.00709" lon="6.57374">
        <ele>2048.23</ele>
        <time>2019-03-19T10:14:55Z</time>
      </trkpt>
      <trkpt lat="46.00708" lon="6.57373">
        <ele>2048.23</ele>
        <time>2019-03-19T10:14:56Z</time>
      </trkpt>
      <trkpt lat="46.00708" lon="6.57371">
        <ele>2048.71</ele>
        <time>2019-03-19T10:14:57Z</time>
      </trkpt>
      <trkpt lat="46.00704" lon="6.57368">
        <ele>2048.71</ele>
        <time>2019-03-19T10:15:00Z</time>
      </trkpt>
      <trkpt lat="46.00679" lon="6.57333">
        <ele>2050.63</ele>
        <time>2019-03-19T10:15:27Z</time>
      </trkpt>
      <trkpt lat="46.0066" lon="6.57304">
        <ele>2051.59</ele>
        <time>2019-03-19T10:15:50Z</time>
      </trkpt>
      <trkpt lat="46.00644" lon="6.57278">
        <ele>2050.63</ele>
        <time>2019-03-19T10:16:07Z</time>
      </trkpt>
      <trkpt lat="46.00643" lon="6.57277">
        <ele>2050.15</ele>
        <time>2019-03-19T10:16:08Z</time>
      </trkpt>
      <trkpt lat="46.00642" lon="6.57276">
        <ele>2050.15</ele>
        <time>2019-03-19T10:16:09Z</time>
      </trkpt>
      <trkpt lat="46.00642" lon="6.57275">
        <ele>2050.15</ele>
        <time>2019-03-19T10:16:10Z</time>
      </trkpt>
      <trkpt lat="46.0064" lon="6.57272">
        <ele>2050.15</ele>
        <time>2019-03-19T10:16:12Z</time>
      </trkpt>
      <trkpt lat="46.0064" lon="6.5727">
        <ele>2050.15</ele>
        <time>2019-03-19T10:16:13Z</time>
      </trkpt>
      <trkpt lat="46.0064" lon="6.57268">
        <ele>2049.67</ele>
        <time>2019-03-19T10:16:14Z</time>
      </trkpt>
      <trkpt lat="46.00636" lon="6.57244">
        <ele>2046.78</ele>
        <time>2019-03-19T10:16:21Z</time>
      </trkpt>
      <trkpt lat="46.00634" lon="6.57226">
        <ele>2043.42</ele>
        <time>2019-03-19T10:16:26Z</time>
      </trkpt>
      <trkpt lat="46.00635" lon="6.57212">
        <ele>2040.54</ele>
        <time>2019-03-19T10:16:33Z</time>
      </trkpt>
      <trkpt lat="46.00637" lon="6.57208">
        <ele>2040.54</ele>
        <time>2019-03-19T10:16:37Z</time>
      </trkpt>
      <trkpt lat="46.00637" lon="6.57206">
        <ele>2040.05</ele>
        <time>2019-03-19T10:16:38Z</time>
      </trkpt>
      <trkpt lat="46.00642" lon="6.57186">
        <ele>2037.17</ele>
        <time>2019-03-19T10:16:44Z</time>
      </trkpt>
      <trkpt lat="46.00644" lon="6.57177">
        <ele>2034.77</ele>
        <time>2019-03-19T10:16:47Z</time>
      </trkpt>
      <trkpt lat="46.00643" lon="6.57175">
        <ele>2034.29</ele>
        <time>2019-03-19T10:16:48Z</time>
      </trkpt>
      <trkpt lat="46.00642" lon="6.57175">
        <ele>2033.81</ele>
        <time>2019-03-19T10:16:49Z</time>
      </trkpt>
      <trkpt lat="46.0064" lon="6.57175">
        <ele>2033.33</ele>
        <time>2019-03-19T10:16:50Z</time>
      </trkpt>
      <trkpt lat="46.00639" lon="6.57176">
        <ele>2032.84</ele>
        <time>2019-03-19T10:16:51Z</time>
      </trkpt>
      <trkpt lat="46.00622" lon="6.57185">
        <ele>2029.96</ele>
        <time>2019-03-19T10:17:00Z</time>
      </trkpt>
      <trkpt lat="46.00609" lon="6.57192">
        <ele>2026.12</ele>
        <time>2019-03-19T10:17:04Z</time>
      </trkpt>
      <trkpt lat="46.00601" lon="6.57196">
        <ele>2023.71</ele>
        <time>2019-03-19T10:17:06Z</time>
      </trkpt>
      <trkpt lat="46.00595" lon="6.57196">
        <ele>2022.75</ele>
        <time>2019-03-19T10:17:07Z</time>
      </trkpt>
      <trkpt lat="46.00589" lon="6.57194">
        <ele>2021.31</ele>
        <time>2019-03-19T10:17:08Z</time>
      </trkpt>
      <trkpt lat="46.00583" lon="6.57192">
        <ele>2018.91</ele>
        <time>2019-03-19T10:17:09Z</time>
      </trkpt>
      <trkpt lat="46.00576" lon="6.57189">
        <ele>2016.98</ele>
        <time>2019-03-19T10:17:10Z</time>
      </trkpt>
      <trkpt lat="46.0057" lon="6.57187">
        <ele>2015.54</ele>
        <time>2019-03-19T10:17:11Z</time>
      </trkpt>
      <trkpt lat="46.00557" lon="6.5718">
        <ele>2012.18</ele>
        <time>2019-03-19T10:17:14Z</time>
      </trkpt>
      <trkpt lat="46.00544" lon="6.5717">
        <ele>2011.7</ele>
        <time>2019-03-19T10:17:24Z</time>
      </trkpt>
      <trkpt lat="46.00539" lon="6.57168">
        <ele>2012.18</ele>
        <time>2019-03-19T10:17:29Z</time>
      </trkpt>
      <trkpt lat="46.00538" lon="6.57168">
        <ele>2012.18</ele>
        <time>2019-03-19T10:17:30Z</time>
      </trkpt>
      <trkpt lat="46.00537" lon="6.57168">
        <ele>2012.18</ele>
        <time>2019-03-19T10:17:31Z</time>
      </trkpt>
      <trkpt lat="46.00535" lon="6.57168">
        <ele>2012.18</ele>
        <time>2019-03-19T10:17:32Z</time>
      </trkpt>
      <trkpt lat="46.00534" lon="6.57168">
        <ele>2012.18</ele>
        <time>2019-03-19T10:17:33Z</time>
      </trkpt>
      <trkpt lat="46.00533" lon="6.57168">
        <ele>2012.18</ele>
        <time>2019-03-19T10:17:34Z</time>
      </trkpt>
      <trkpt lat="46.00532" lon="6.57168">
        <ele>2012.66</ele>
        <time>2019-03-19T10:17:35Z</time>
      </trkpt>
      <trkpt lat="46.00531" lon="6.57169">
        <ele>2012.66</ele>
        <time>2019-03-19T10:17:36Z</time>
      </trkpt>
      <trkpt lat="46.0053" lon="6.57169">
        <ele>2012.66</ele>
        <time>2019-03-19T10:17:37Z</time>
      </trkpt>
      <trkpt lat="46.00529" lon="6.57169">
        <ele>2012.66</ele>
        <time>2019-03-19T10:17:38Z</time>
      </trkpt>
      <trkpt lat="46.00528" lon="6.57169">
        <ele>2013.14</ele>
        <time>2019-03-19T10:17:39Z</time>
      </trkpt>
      <trkpt lat="46.00527" lon="6.57169">
        <ele>2013.14</ele>
        <time>2019-03-19T10:17:40Z</time>
      </trkpt>
      <trkpt lat="46.00526" lon="6.5717">
        <ele>2013.14</ele>
        <time>2019-03-19T10:17:41Z</time>
      </trkpt>
      <trkpt lat="46.00525" lon="6.5717">
        <ele>2013.62</ele>
        <time>2019-03-19T10:17:42Z</time>
      </trkpt>
      <trkpt lat="46.00497" lon="6.57167">
        <ele>2016.02</ele>
        <time>2019-03-19T10:18:06Z</time>
      </trkpt>
      <trkpt lat="46.00496" lon="6.57167">
        <ele>2016.02</ele>
        <time>2019-03-19T10:18:08Z</time>
      </trkpt>
      <trkpt lat="46.00495" lon="6.57166">
        <ele>2016.5</ele>
        <time>2019-03-19T10:18:09Z</time>
      </trkpt>
      <trkpt lat="46.00475" lon="6.57157">
        <ele>2019.39</ele>
        <time>2019-03-19T10:18:30Z</time>
      </trkpt>
      <trkpt lat="46.00473" lon="6.57155">
        <ele>2019.87</ele>
        <time>2019-03-19T10:18:32Z</time>
      </trkpt>
      <trkpt lat="46.00471" lon="6.57154">
        <ele>2020.35</ele>
        <time>2019-03-19T10:18:34Z</time>
      </trkpt>
      <trkpt lat="46.0047" lon="6.57154">
        <ele>2020.35</ele>
        <time>2019-03-19T10:18:35Z</time>
      </trkpt>
      <trkpt lat="46.00469" lon="6.57153">
        <ele>2020.83</ele>
        <time>2019-03-19T10:18:36Z</time>
      </trkpt>
      <trkpt lat="46.00468" lon="6.57152">
        <ele>2020.83</ele>
        <time>2019-03-19T10:18:37Z</time>
      </trkpt>
      <trkpt lat="46.00467" lon="6.57151">
        <ele>2021.31</ele>
        <time>2019-03-19T10:18:38Z</time>
      </trkpt>
      <trkpt lat="46.00465" lon="6.5715">
        <ele>2021.79</ele>
        <time>2019-03-19T10:18:40Z</time>
      </trkpt>
      <trkpt lat="46.00464" lon="6.57149">
        <ele>2021.79</ele>
        <time>2019-03-19T10:18:41Z</time>
      </trkpt>
      <trkpt lat="46.0046" lon="6.57145">
        <ele>2022.75</ele>
        <time>2019-03-19T10:18:46Z</time>
      </trkpt>
      <trkpt lat="46.00457" lon="6.57143">
        <ele>2023.71</ele>
        <time>2019-03-19T10:18:51Z</time>
      </trkpt>
      <trkpt lat="46.00445" lon="6.57132">
        <ele>2025.64</ele>
        <time>2019-03-19T10:19:05Z</time>
      </trkpt>
      <trkpt lat="46.00439" lon="6.57128">
        <ele>2026.6</ele>
        <time>2019-03-19T10:19:12Z</time>
      </trkpt>
      <trkpt lat="46.00437" lon="6.57127">
        <ele>2026.6</ele>
        <time>2019-03-19T10:19:13Z</time>
      </trkpt>
      <trkpt lat="46.00426" lon="6.57119">
        <ele>2028.04</ele>
        <time>2019-03-19T10:19:24Z</time>
      </trkpt>
      <trkpt lat="46.00416" lon="6.5711">
        <ele>2029.48</ele>
        <time>2019-03-19T10:19:35Z</time>
      </trkpt>
      <trkpt lat="46.00405" lon="6.57102">
        <ele>2030.44</ele>
        <time>2019-03-19T10:19:46Z</time>
      </trkpt>
      <trkpt lat="46.00399" lon="6.57099">
        <ele>2030.92</ele>
        <time>2019-03-19T10:19:51Z</time>
      </trkpt>
      <trkpt lat="46.00398" lon="6.57098">
        <ele>2030.92</ele>
        <time>2019-03-19T10:19:52Z</time>
      </trkpt>
      <trkpt lat="46.00385" lon="6.57087">
        <ele>2031.88</ele>
        <time>2019-03-19T10:20:05Z</time>
      </trkpt>
      <trkpt lat="46.00384" lon="6.57087">
        <ele>2031.88</ele>
        <time>2019-03-19T10:20:06Z</time>
      </trkpt>
      <trkpt lat="46.00383" lon="6.57086">
        <ele>2031.88</ele>
        <time>2019-03-19T10:20:07Z</time>
      </trkpt>
      <trkpt lat="46.00382" lon="6.57085">
        <ele>2032.36</ele>
        <time>2019-03-19T10:20:08Z</time>
      </trkpt>
      <trkpt lat="46.00381" lon="6.57084">
        <ele>2032.36</ele>
        <time>2019-03-19T10:20:09Z</time>
      </trkpt>
      <trkpt lat="46.00379" lon="6.57084">
        <ele>2032.36</ele>
        <time>2019-03-19T10:20:10Z</time>
      </trkpt>
      <trkpt lat="46.00378" lon="6.57083">
        <ele>2032.36</ele>
        <time>2019-03-19T10:20:11Z</time>
      </trkpt>
      <trkpt lat="46.00377" lon="6.57082">
        <ele>2032.36</ele>
        <time>2019-03-19T10:20:12Z</time>
      </trkpt>
      <trkpt lat="46.00376" lon="6.57082">
        <ele>2032.36</ele>
        <time>2019-03-19T10:20:13Z</time>
      </trkpt>
      <trkpt lat="46.0037" lon="6.57076">
        <ele>2032.36</ele>
        <time>2019-03-19T10:20:19Z</time>
      </trkpt>
      <trkpt lat="46.00369" lon="6.57075">
        <ele>2032.36</ele>
        <time>2019-03-19T10:20:20Z</time>
      </trkpt>
      <trkpt lat="46.00368" lon="6.57074">
        <ele>2032.84</ele>
        <time>2019-03-19T10:20:21Z</time>
      </trkpt>
      <trkpt lat="46.00367" lon="6.57073">
        <ele>2032.84</ele>
        <time>2019-03-19T10:20:22Z</time>
      </trkpt>
      <trkpt lat="46.00366" lon="6.57072">
        <ele>2032.84</ele>
        <time>2019-03-19T10:20:23Z</time>
      </trkpt>
      <trkpt lat="46.00365" lon="6.57071">
        <ele>2032.84</ele>
        <time>2019-03-19T10:20:24Z</time>
      </trkpt>
      <trkpt lat="46.00351" lon="6.57062">
        <ele>2033.33</ele>
        <time>2019-03-19T10:20:36Z</time>
      </trkpt>
      <trkpt lat="46.00334" lon="6.57049">
        <ele>2035.73</ele>
        <time>2019-03-19T10:20:53Z</time>
      </trkpt>
      <trkpt lat="46.00289" lon="6.57024">
        <ele>2036.69</ele>
        <time>2019-03-19T10:21:28Z</time>
      </trkpt>
      <trkpt lat="46.00246" lon="6.57001">
        <ele>2033.81</ele>
        <time>2019-03-19T10:21:57Z</time>
      </trkpt>
      <trkpt lat="46.00203" lon="6.56977">
        <ele>2036.69</ele>
        <time>2019-03-19T10:22:35Z</time>
      </trkpt>
      <trkpt lat="46.0019" lon="6.5697">
        <ele>2038.13</ele>
        <time>2019-03-19T10:22:48Z</time>
      </trkpt>
      <trkpt lat="46.00189" lon="6.56969">
        <ele>2038.13</ele>
        <time>2019-03-19T10:22:49Z</time>
      </trkpt>
      <trkpt lat="46.00187" lon="6.56969">
        <ele>2038.13</ele>
        <time>2019-03-19T10:22:50Z</time>
      </trkpt>
      <trkpt lat="46.00186" lon="6.56968">
        <ele>2038.13</ele>
        <time>2019-03-19T10:22:51Z</time>
      </trkpt>
      <trkpt lat="46.00185" lon="6.56968">
        <ele>2038.61</ele>
        <time>2019-03-19T10:22:52Z</time>
      </trkpt>
      <trkpt lat="46.00184" lon="6.56967">
        <ele>2038.61</ele>
        <time>2019-03-19T10:22:53Z</time>
      </trkpt>
      <trkpt lat="46.00183" lon="6.56966">
        <ele>2038.61</ele>
        <time>2019-03-19T10:22:54Z</time>
      </trkpt>
      <trkpt lat="46.00182" lon="6.56966">
        <ele>2039.09</ele>
        <time>2019-03-19T10:22:55Z</time>
      </trkpt>
      <trkpt lat="46.00169" lon="6.56956">
        <ele>2039.57</ele>
        <time>2019-03-19T10:23:07Z</time>
      </trkpt>
      <trkpt lat="46.00168" lon="6.56955">
        <ele>2039.57</ele>
        <time>2019-03-19T10:23:08Z</time>
      </trkpt>
      <trkpt lat="46.00167" lon="6.56955">
        <ele>2039.57</ele>
        <time>2019-03-19T10:23:09Z</time>
      </trkpt>
      <trkpt lat="46.00166" lon="6.56954">
        <ele>2039.57</ele>
        <time>2019-03-19T10:23:10Z</time>
      </trkpt>
      <trkpt lat="46.00165" lon="6.56953">
        <ele>2040.05</ele>
        <time>2019-03-19T10:23:11Z</time>
      </trkpt>
      <trkpt lat="46.00164" lon="6.56952">
        <ele>2040.05</ele>
        <time>2019-03-19T10:23:12Z</time>
      </trkpt>
      <trkpt lat="46.00163" lon="6.56952">
        <ele>2040.54</ele>
        <time>2019-03-19T10:23:13Z</time>
      </trkpt>
      <trkpt lat="46.00163" lon="6.56951">
        <ele>2040.54</ele>
        <time>2019-03-19T10:23:14Z</time>
      </trkpt>
      <trkpt lat="46.00151" lon="6.5694">
        <ele>2042.46</ele>
        <time>2019-03-19T10:23:28Z</time>
      </trkpt>
      <trkpt lat="46.00149" lon="6.56939">
        <ele>2042.94</ele>
        <time>2019-03-19T10:23:30Z</time>
      </trkpt>
      <trkpt lat="46.00149" lon="6.56937">
        <ele>2042.94</ele>
        <time>2019-03-19T10:23:31Z</time>
      </trkpt>
      <trkpt lat="46.00147" lon="6.56936">
        <ele>2043.42</ele>
        <time>2019-03-19T10:23:33Z</time>
      </trkpt>
      <trkpt lat="46.00145" lon="6.56932">
        <ele>2044.38</ele>
        <time>2019-03-19T10:23:38Z</time>
      </trkpt>
      <trkpt lat="46.00131" lon="6.56915">
        <ele>2047.26</ele>
        <time>2019-03-19T10:23:57Z</time>
      </trkpt>
      <trkpt lat="46.00127" lon="6.56911">
        <ele>2048.23</ele>
        <time>2019-03-19T10:24:02Z</time>
      </trkpt>
      <trkpt lat="46.00125" lon="6.56908">
        <ele>2048.23</ele>
        <time>2019-03-19T10:24:05Z</time>
      </trkpt>
      <trkpt lat="46.00118" lon="6.56899">
        <ele>2050.15</ele>
        <time>2019-03-19T10:24:16Z</time>
      </trkpt>
      <trkpt lat="46.00117" lon="6.56899">
        <ele>2050.63</ele>
        <time>2019-03-19T10:24:17Z</time>
      </trkpt>
      <trkpt lat="46.00116" lon="6.56898">
        <ele>2050.63</ele>
        <time>2019-03-19T10:24:18Z</time>
      </trkpt>
      <trkpt lat="46.00074" lon="6.56876">
        <ele>2048.71</ele>
        <time>2019-03-19T10:24:53Z</time>
      </trkpt>
      <trkpt lat="46.00067" lon="6.56875">
        <ele>2047.26</ele>
        <time>2019-03-19T10:24:55Z</time>
      </trkpt>
      <trkpt lat="46.00062" lon="6.56875">
        <ele>2046.78</ele>
        <time>2019-03-19T10:24:56Z</time>
      </trkpt>
      <trkpt lat="46.00043" lon="6.56874">
        <ele>2041.98</ele>
        <time>2019-03-19T10:25:00Z</time>
      </trkpt>
      <trkpt lat="46.00021" lon="6.56878">
        <ele>2037.65</ele>
        <time>2019-03-19T10:25:04Z</time>
      </trkpt>
      <trkpt lat="46.00012" lon="6.56882">
        <ele>2034.77</ele>
        <time>2019-03-19T10:25:06Z</time>
      </trkpt>
      <trkpt lat="46.00007" lon="6.56887">
        <ele>2032.84</ele>
        <time>2019-03-19T10:25:07Z</time>
      </trkpt>
      <trkpt lat="46.00001" lon="6.5689">
        <ele>2031.4</ele>
        <time>2019-03-19T10:25:08Z</time>
      </trkpt>
      <trkpt lat="45.99996" lon="6.56895">
        <ele>2029</ele>
        <time>2019-03-19T10:25:09Z</time>
      </trkpt>
      <trkpt lat="45.99991" lon="6.56902">
        <ele>2028.04</ele>
        <time>2019-03-19T10:25:10Z</time>
      </trkpt>
      <trkpt lat="45.99985" lon="6.56908">
        <ele>2025.64</ele>
        <time>2019-03-19T10:25:11Z</time>
      </trkpt>
      <trkpt lat="45.99979" lon="6.56912">
        <ele>2023.71</ele>
        <time>2019-03-19T10:25:12Z</time>
      </trkpt>
      <trkpt lat="45.99972" lon="6.56916">
        <ele>2021.79</ele>
        <time>2019-03-19T10:25:13Z</time>
      </trkpt>
      <trkpt lat="45.99966" lon="6.56922">
        <ele>2018.91</ele>
        <time>2019-03-19T10:25:14Z</time>
      </trkpt>
      <trkpt lat="45.99959" lon="6.56927">
        <ele>2016.98</ele>
        <time>2019-03-19T10:25:15Z</time>
      </trkpt>
      <trkpt lat="45.99948" lon="6.56934">
        <ele>2013.14</ele>
        <time>2019-03-19T10:25:17Z</time>
      </trkpt>
      <trkpt lat="45.99945" lon="6.56938">
        <ele>2011.7</ele>
        <time>2019-03-19T10:25:18Z</time>
      </trkpt>
      <trkpt lat="45.99943" lon="6.56942">
        <ele>2011.22</ele>
        <time>2019-03-19T10:25:19Z</time>
      </trkpt>
      <trkpt lat="45.99942" lon="6.56943">
        <ele>2011.22</ele>
        <time>2019-03-19T10:25:20Z</time>
      </trkpt>
      <trkpt lat="45.99942" lon="6.56946">
        <ele>2011.22</ele>
        <time>2019-03-19T10:25:22Z</time>
      </trkpt>
      <trkpt lat="45.99942" lon="6.56947">
        <ele>2011.22</ele>
        <time>2019-03-19T10:25:23Z</time>
      </trkpt>
      <trkpt lat="45.99941" lon="6.56949">
        <ele>2011.22</ele>
        <time>2019-03-19T10:25:24Z</time>
      </trkpt>
      <trkpt lat="45.99941" lon="6.5695">
        <ele>2011.22</ele>
        <time>2019-03-19T10:25:25Z</time>
      </trkpt>
      <trkpt lat="45.9994" lon="6.56952">
        <ele>2011.22</ele>
        <time>2019-03-19T10:25:26Z</time>
      </trkpt>
      <trkpt lat="45.9994" lon="6.56953">
        <ele>2011.22</ele>
        <time>2019-03-19T10:25:27Z</time>
      </trkpt>
      <trkpt lat="45.99939" lon="6.56954">
        <ele>2011.22</ele>
        <time>2019-03-19T10:25:28Z</time>
      </trkpt>
      <trkpt lat="45.99938" lon="6.56956">
        <ele>2010.73</ele>
        <time>2019-03-19T10:25:29Z</time>
      </trkpt>
      <trkpt lat="45.99937" lon="6.56957">
        <ele>2010.73</ele>
        <time>2019-03-19T10:25:30Z</time>
      </trkpt>
      <trkpt lat="45.99937" lon="6.56959">
        <ele>2011.22</ele>
        <time>2019-03-19T10:25:31Z</time>
      </trkpt>
      <trkpt lat="45.99936" lon="6.5696">
        <ele>2011.22</ele>
        <time>2019-03-19T10:25:32Z</time>
      </trkpt>
      <trkpt lat="45.99935" lon="6.56962">
        <ele>2010.73</ele>
        <time>2019-03-19T10:25:33Z</time>
      </trkpt>
      <trkpt lat="45.99931" lon="6.56972">
        <ele>2010.73</ele>
        <time>2019-03-19T10:25:39Z</time>
      </trkpt>
      <trkpt lat="45.9993" lon="6.56973">
        <ele>2010.73</ele>
        <time>2019-03-19T10:25:40Z</time>
      </trkpt>
      <trkpt lat="45.99929" lon="6.56975">
        <ele>2010.73</ele>
        <time>2019-03-19T10:25:41Z</time>
      </trkpt>
      <trkpt lat="45.99916" lon="6.56993">
        <ele>2009.29</ele>
        <time>2019-03-19T10:25:52Z</time>
      </trkpt>
      <trkpt lat="45.99898" lon="6.5701">
        <ele>2009.29</ele>
        <time>2019-03-19T10:26:08Z</time>
      </trkpt>
      <trkpt lat="45.99859" lon="6.57043">
        <ele>2006.89</ele>
        <time>2019-03-19T10:26:38Z</time>
      </trkpt>
      <trkpt lat="45.99849" lon="6.57062">
        <ele>2007.85</ele>
        <time>2019-03-19T10:26:52Z</time>
      </trkpt>
      <trkpt lat="45.99849" lon="6.57063">
        <ele>2007.85</ele>
        <time>2019-03-19T10:26:53Z</time>
      </trkpt>
      <trkpt lat="45.99842" lon="6.57074">
        <ele>2008.81</ele>
        <time>2019-03-19T10:27:02Z</time>
      </trkpt>
      <trkpt lat="45.99832" lon="6.57082">
        <ele>2008.81</ele>
        <time>2019-03-19T10:27:10Z</time>
      </trkpt>
      <trkpt lat="45.99831" lon="6.57082">
        <ele>2008.33</ele>
        <time>2019-03-19T10:27:11Z</time>
      </trkpt>
      <trkpt lat="45.99803" lon="6.57091">
        <ele>2004.97</ele>
        <time>2019-03-19T10:27:27Z</time>
      </trkpt>
      <trkpt lat="45.99792" lon="6.57081">
        <ele>2004.01</ele>
        <time>2019-03-19T10:27:37Z</time>
      </trkpt>
      <trkpt lat="45.99791" lon="6.57078">
        <ele>2004.49</ele>
        <time>2019-03-19T10:27:38Z</time>
      </trkpt>
      <trkpt lat="45.99769" lon="6.57041">
        <ele>2006.41</ele>
        <time>2019-03-19T10:28:11Z</time>
      </trkpt>
      <trkpt lat="45.99767" lon="6.57041">
        <ele>2006.41</ele>
        <time>2019-03-19T10:28:12Z</time>
      </trkpt>
      <trkpt lat="45.99766" lon="6.57041">
        <ele>2006.89</ele>
        <time>2019-03-19T10:28:13Z</time>
      </trkpt>
      <trkpt lat="45.99765" lon="6.57041">
        <ele>2006.89</ele>
        <time>2019-03-19T10:28:14Z</time>
      </trkpt>
      <trkpt lat="45.99764" lon="6.5704">
        <ele>2006.89</ele>
        <time>2019-03-19T10:28:15Z</time>
      </trkpt>
      <trkpt lat="45.99763" lon="6.57041">
        <ele>2006.89</ele>
        <time>2019-03-19T10:28:16Z</time>
      </trkpt>
      <trkpt lat="45.99762" lon="6.5704">
        <ele>2007.37</ele>
        <time>2019-03-19T10:28:17Z</time>
      </trkpt>
      <trkpt lat="45.9976" lon="6.5704">
        <ele>2007.37</ele>
        <time>2019-03-19T10:28:18Z</time>
      </trkpt>
      <trkpt lat="45.99725" lon="6.57043">
        <ele>2008.81</ele>
        <time>2019-03-19T10:28:47Z</time>
      </trkpt>
      <trkpt lat="45.99724" lon="6.57044">
        <ele>2008.81</ele>
        <time>2019-03-19T10:28:48Z</time>
      </trkpt>
      <trkpt lat="45.99723" lon="6.57044">
        <ele>2008.81</ele>
        <time>2019-03-19T10:28:49Z</time>
      </trkpt>
      <trkpt lat="45.99722" lon="6.57044">
        <ele>2009.29</ele>
        <time>2019-03-19T10:28:50Z</time>
      </trkpt>
      <trkpt lat="45.99721" lon="6.57044">
        <ele>2009.29</ele>
        <time>2019-03-19T10:28:51Z</time>
      </trkpt>
      <trkpt lat="45.9969" lon="6.57051">
        <ele>2012.18</ele>
        <time>2019-03-19T10:29:19Z</time>
      </trkpt>
      <trkpt lat="45.99677" lon="6.57059">
        <ele>2015.54</ele>
        <time>2019-03-19T10:29:33Z</time>
      </trkpt>
      <trkpt lat="45.99662" lon="6.57071">
        <ele>2017.94</ele>
        <time>2019-03-19T10:29:52Z</time>
      </trkpt>
      <trkpt lat="45.9965" lon="6.57083">
        <ele>2019.87</ele>
        <time>2019-03-19T10:30:07Z</time>
      </trkpt>
      <trkpt lat="45.99637" lon="6.57098">
        <ele>2020.83</ele>
        <time>2019-03-19T10:30:20Z</time>
      </trkpt>
      <trkpt lat="45.99623" lon="6.57111">
        <ele>2020.83</ele>
        <time>2019-03-19T10:30:32Z</time>
      </trkpt>
      <trkpt lat="45.99615" lon="6.57117">
        <ele>2020.83</ele>
        <time>2019-03-19T10:30:40Z</time>
      </trkpt>
      <trkpt lat="45.99614" lon="6.57118">
        <ele>2021.31</ele>
        <time>2019-03-19T10:30:41Z</time>
      </trkpt>
      <trkpt lat="45.99613" lon="6.57119">
        <ele>2021.31</ele>
        <time>2019-03-19T10:30:42Z</time>
      </trkpt>
      <trkpt lat="45.99612" lon="6.57119">
        <ele>2021.79</ele>
        <time>2019-03-19T10:30:43Z</time>
      </trkpt>
      <trkpt lat="45.99611" lon="6.5712">
        <ele>2021.79</ele>
        <time>2019-03-19T10:30:44Z</time>
      </trkpt>
      <trkpt lat="45.9961" lon="6.5712">
        <ele>2021.79</ele>
        <time>2019-03-19T10:30:45Z</time>
      </trkpt>
      <trkpt lat="45.99609" lon="6.57121">
        <ele>2021.79</ele>
        <time>2019-03-19T10:30:46Z</time>
      </trkpt>
      <trkpt lat="45.99608" lon="6.57121">
        <ele>2021.79</ele>
        <time>2019-03-19T10:30:47Z</time>
      </trkpt>
      <trkpt lat="45.99607" lon="6.57122">
        <ele>2021.79</ele>
        <time>2019-03-19T10:30:48Z</time>
      </trkpt>
      <trkpt lat="45.99606" lon="6.57122">
        <ele>2021.79</ele>
        <time>2019-03-19T10:30:49Z</time>
      </trkpt>
      <trkpt lat="45.99605" lon="6.57123">
        <ele>2021.79</ele>
        <time>2019-03-19T10:30:50Z</time>
      </trkpt>
      <trkpt lat="45.99604" lon="6.57124">
        <ele>2022.27</ele>
        <time>2019-03-19T10:30:51Z</time>
      </trkpt>
      <trkpt lat="45.99603" lon="6.57124">
        <ele>2022.27</ele>
        <time>2019-03-19T10:30:52Z</time>
      </trkpt>
      <trkpt lat="45.99602" lon="6.57125">
        <ele>2022.27</ele>
        <time>2019-03-19T10:30:53Z</time>
      </trkpt>
      <trkpt lat="45.99599" lon="6.57126">
        <ele>2022.27</ele>
        <time>2019-03-19T10:30:55Z</time>
      </trkpt>
      <trkpt lat="45.99598" lon="6.57126">
        <ele>2022.27</ele>
        <time>2019-03-19T10:30:56Z</time>
      </trkpt>
      <trkpt lat="45.99585" lon="6.57134">
        <ele>2023.71</ele>
        <time>2019-03-19T10:31:08Z</time>
      </trkpt>
      <trkpt lat="45.99584" lon="6.57135">
        <ele>2024.19</ele>
        <time>2019-03-19T10:31:09Z</time>
      </trkpt>
      <trkpt lat="45.99583" lon="6.57136">
        <ele>2024.19</ele>
        <time>2019-03-19T10:31:10Z</time>
      </trkpt>
      <trkpt lat="45.99583" lon="6.57137">
        <ele>2024.19</ele>
        <time>2019-03-19T10:31:11Z</time>
      </trkpt>
      <trkpt lat="45.99582" lon="6.57137">
        <ele>2024.19</ele>
        <time>2019-03-19T10:31:12Z</time>
      </trkpt>
      <trkpt lat="45.99581" lon="6.57138">
        <ele>2024.19</ele>
        <time>2019-03-19T10:31:13Z</time>
      </trkpt>
      <trkpt lat="45.99566" lon="6.57148">
        <ele>2027.56</ele>
        <time>2019-03-19T10:31:31Z</time>
      </trkpt>
      <trkpt lat="45.99556" lon="6.57154">
        <ele>2029.48</ele>
        <time>2019-03-19T10:31:41Z</time>
      </trkpt>
      <trkpt lat="45.99546" lon="6.57161">
        <ele>2030.92</ele>
        <time>2019-03-19T10:31:53Z</time>
      </trkpt>
      <trkpt lat="45.99544" lon="6.57163">
        <ele>2030.92</ele>
        <time>2019-03-19T10:31:55Z</time>
      </trkpt>
      <trkpt lat="45.99544" lon="6.57164">
        <ele>2031.4</ele>
        <time>2019-03-19T10:31:56Z</time>
      </trkpt>
      <trkpt lat="45.99543" lon="6.57164">
        <ele>2031.4</ele>
        <time>2019-03-19T10:31:57Z</time>
      </trkpt>
      <trkpt lat="45.99542" lon="6.57165">
        <ele>2031.4</ele>
        <time>2019-03-19T10:31:58Z</time>
      </trkpt>
      <trkpt lat="45.99534" lon="6.57176">
        <ele>2033.81</ele>
        <time>2019-03-19T10:32:11Z</time>
      </trkpt>
      <trkpt lat="45.99533" lon="6.57177">
        <ele>2033.81</ele>
        <time>2019-03-19T10:32:12Z</time>
      </trkpt>
      <trkpt lat="45.99525" lon="6.57197">
        <ele>2035.25</ele>
        <time>2019-03-19T10:32:28Z</time>
      </trkpt>
      <trkpt lat="45.99525" lon="6.57198">
        <ele>2035.73</ele>
        <time>2019-03-19T10:32:29Z</time>
      </trkpt>
      <trkpt lat="45.99525" lon="6.572">
        <ele>2036.21</ele>
        <time>2019-03-19T10:32:31Z</time>
      </trkpt>
      <trkpt lat="45.99524" lon="6.57203">
        <ele>2036.69</ele>
        <time>2019-03-19T10:32:33Z</time>
      </trkpt>
      <trkpt lat="45.99524" lon="6.57204">
        <ele>2037.17</ele>
        <time>2019-03-19T10:32:34Z</time>
      </trkpt>
      <trkpt lat="45.99523" lon="6.57206">
        <ele>2037.17</ele>
        <time>2019-03-19T10:32:36Z</time>
      </trkpt>
      <trkpt lat="45.99522" lon="6.57207">
        <ele>2037.17</ele>
        <time>2019-03-19T10:32:37Z</time>
      </trkpt>
      <trkpt lat="45.99497" lon="6.57224">
        <ele>2040.05</ele>
        <time>2019-03-19T10:33:04Z</time>
      </trkpt>
      <trkpt lat="45.99488" lon="6.57231">
        <ele>2043.42</ele>
        <time>2019-03-19T10:33:18Z</time>
      </trkpt>
      <trkpt lat="45.99487" lon="6.57231">
        <ele>2043.42</ele>
        <time>2019-03-19T10:33:19Z</time>
      </trkpt>
      <trkpt lat="45.99487" lon="6.57231">
        <ele>2043.42</ele>
        <time>2019-03-19T10:33:20Z</time>
      </trkpt>
      <trkpt lat="45.99473" lon="6.57244">
        <ele>2046.78</ele>
        <time>2019-03-19T10:33:40Z</time>
      </trkpt>
      <trkpt lat="45.99468" lon="6.57257">
        <ele>2050.15</ele>
        <time>2019-03-19T10:33:53Z</time>
      </trkpt>
      <trkpt lat="45.99462" lon="6.57285">
        <ele>2053.03</ele>
        <time>2019-03-19T10:34:15Z</time>
      </trkpt>
      <trkpt lat="45.99474" lon="6.57314">
        <ele>2055.92</ele>
        <time>2019-03-19T10:34:39Z</time>
      </trkpt>
      <trkpt lat="45.99487" lon="6.57337">
        <ele>2058.8</ele>
        <time>2019-03-19T10:35:02Z</time>
      </trkpt>
      <trkpt lat="45.99497" lon="6.57358">
        <ele>2062.17</ele>
        <time>2019-03-19T10:35:21Z</time>
      </trkpt>
      <trkpt lat="45.99502" lon="6.57369">
        <ele>2063.13</ele>
        <time>2019-03-19T10:35:29Z</time>
      </trkpt>
      <trkpt lat="45.99503" lon="6.5737">
        <ele>2063.13</ele>
        <time>2019-03-19T10:35:30Z</time>
      </trkpt>
      <trkpt lat="45.99503" lon="6.57371">
        <ele>2063.13</ele>
        <time>2019-03-19T10:35:31Z</time>
      </trkpt>
      <trkpt lat="45.99504" lon="6.57372">
        <ele>2063.13</ele>
        <time>2019-03-19T10:35:32Z</time>
      </trkpt>
      <trkpt lat="45.99505" lon="6.57373">
        <ele>2063.13</ele>
        <time>2019-03-19T10:35:33Z</time>
      </trkpt>
      <trkpt lat="45.99524" lon="6.57407">
        <ele>2063.61</ele>
        <time>2019-03-19T10:35:57Z</time>
      </trkpt>
      <trkpt lat="45.99525" lon="6.57408">
        <ele>2063.61</ele>
        <time>2019-03-19T10:35:58Z</time>
      </trkpt>
      <trkpt lat="45.99525" lon="6.57409">
        <ele>2063.61</ele>
        <time>2019-03-19T10:35:59Z</time>
      </trkpt>
      <trkpt lat="45.99527" lon="6.57411">
        <ele>2063.61</ele>
        <time>2019-03-19T10:36:00Z</time>
      </trkpt>
      <trkpt lat="45.99527" lon="6.57413">
        <ele>2063.61</ele>
        <time>2019-03-19T10:36:01Z</time>
      </trkpt>
      <trkpt lat="45.99527" lon="6.57414">
        <ele>2063.61</ele>
        <time>2019-03-19T10:36:02Z</time>
      </trkpt>
      <trkpt lat="45.99528" lon="6.57415">
        <ele>2063.61</ele>
        <time>2019-03-19T10:36:03Z</time>
      </trkpt>
      <trkpt lat="45.9953" lon="6.57435">
        <ele>2066.97</ele>
        <time>2019-03-19T10:36:21Z</time>
      </trkpt>
      <trkpt lat="45.99529" lon="6.57438">
        <ele>2066.97</ele>
        <time>2019-03-19T10:36:24Z</time>
      </trkpt>
      <trkpt lat="45.99526" lon="6.57439">
        <ele>2067.45</ele>
        <time>2019-03-19T10:36:27Z</time>
      </trkpt>
      <trkpt lat="45.99516" lon="6.57436">
        <ele>2070.82</ele>
        <time>2019-03-19T10:36:41Z</time>
      </trkpt>
      <trkpt lat="45.99508" lon="6.57436">
        <ele>2073.7</ele>
        <time>2019-03-19T10:36:56Z</time>
      </trkpt>
      <trkpt lat="45.99509" lon="6.5745">
        <ele>2075.62</ele>
        <time>2019-03-19T10:37:08Z</time>
      </trkpt>
      <trkpt lat="45.9951" lon="6.57452">
        <ele>2076.1</ele>
        <time>2019-03-19T10:37:10Z</time>
      </trkpt>
      <trkpt lat="45.9951" lon="6.57468">
        <ele>2078.99</ele>
        <time>2019-03-19T10:37:25Z</time>
      </trkpt>
      <trkpt lat="45.99509" lon="6.57479">
        <ele>2082.35</ele>
        <time>2019-03-19T10:37:38Z</time>
      </trkpt>
      <trkpt lat="45.9951" lon="6.57491">
        <ele>2085.24</ele>
        <time>2019-03-19T10:37:51Z</time>
      </trkpt>
      <trkpt lat="45.99508" lon="6.57505">
        <ele>2088.6</ele>
        <time>2019-03-19T10:38:06Z</time>
      </trkpt>
      <trkpt lat="45.99504" lon="6.57521">
        <ele>2091.49</ele>
        <time>2019-03-19T10:38:23Z</time>
      </trkpt>
      <trkpt lat="45.99504" lon="6.57522">
        <ele>2091.49</ele>
        <time>2019-03-19T10:38:24Z</time>
      </trkpt>
      <trkpt lat="45.99503" lon="6.57524">
        <ele>2091.97</ele>
        <time>2019-03-19T10:38:26Z</time>
      </trkpt>
      <trkpt lat="45.99498" lon="6.57525">
        <ele>2093.41</ele>
        <time>2019-03-19T10:38:35Z</time>
      </trkpt>
      <trkpt lat="45.99488" lon="6.57522">
        <ele>2096.77</ele>
        <time>2019-03-19T10:38:51Z</time>
      </trkpt>
      <trkpt lat="45.99478" lon="6.5752">
        <ele>2099.66</ele>
        <time>2019-03-19T10:39:07Z</time>
      </trkpt>
      <trkpt lat="45.9947" lon="6.57519">
        <ele>2102.54</ele>
        <time>2019-03-19T10:39:21Z</time>
      </trkpt>
      <trkpt lat="45.99459" lon="6.57517">
        <ele>2105.91</ele>
        <time>2019-03-19T10:39:37Z</time>
      </trkpt>
      <trkpt lat="45.99449" lon="6.57516">
        <ele>2108.79</ele>
        <time>2019-03-19T10:39:51Z</time>
      </trkpt>
      <trkpt lat="45.99441" lon="6.57515">
        <ele>2112.15</ele>
        <time>2019-03-19T10:40:04Z</time>
      </trkpt>
      <trkpt lat="45.99434" lon="6.57513">
        <ele>2115.04</ele>
        <time>2019-03-19T10:40:16Z</time>
      </trkpt>
      <trkpt lat="45.99433" lon="6.57526">
        <ele>2118.4</ele>
        <time>2019-03-19T10:40:33Z</time>
      </trkpt>
      <trkpt lat="45.99433" lon="6.57528">
        <ele>2118.4</ele>
        <time>2019-03-19T10:40:34Z</time>
      </trkpt>
      <trkpt lat="45.99431" lon="6.57543">
        <ele>2121.77</ele>
        <time>2019-03-19T10:40:50Z</time>
      </trkpt>
      <trkpt lat="45.99429" lon="6.57557">
        <ele>2124.65</ele>
        <time>2019-03-19T10:41:04Z</time>
      </trkpt>
      <trkpt lat="45.99429" lon="6.57559">
        <ele>2125.13</ele>
        <time>2019-03-19T10:41:06Z</time>
      </trkpt>
      <trkpt lat="45.99427" lon="6.57566">
        <ele>2126.57</ele>
        <time>2019-03-19T10:41:14Z</time>
      </trkpt>
      <trkpt lat="45.99421" lon="6.57562">
        <ele>2128.5</ele>
        <time>2019-03-19T10:41:26Z</time>
      </trkpt>
      <trkpt lat="45.99413" lon="6.57553">
        <ele>2131.86</ele>
        <time>2019-03-19T10:41:43Z</time>
      </trkpt>
      <trkpt lat="45.99403" lon="6.57547">
        <ele>2134.74</ele>
        <time>2019-03-19T10:41:58Z</time>
      </trkpt>
      <trkpt lat="45.99397" lon="6.57546">
        <ele>2137.63</ele>
        <time>2019-03-19T10:42:09Z</time>
      </trkpt>
      <trkpt lat="45.99392" lon="6.57545">
        <ele>2139.07</ele>
        <time>2019-03-19T10:42:16Z</time>
      </trkpt>
      <trkpt lat="45.99386" lon="6.57544">
        <ele>2140.99</ele>
        <time>2019-03-19T10:42:25Z</time>
      </trkpt>
      <trkpt lat="45.99379" lon="6.57538">
        <ele>2143.88</ele>
        <time>2019-03-19T10:42:39Z</time>
      </trkpt>
      <trkpt lat="45.99372" lon="6.57531">
        <ele>2146.28</ele>
        <time>2019-03-19T10:42:51Z</time>
      </trkpt>
      <trkpt lat="45.99354" lon="6.57506">
        <ele>2148.2</ele>
        <time>2019-03-19T10:43:25Z</time>
      </trkpt>
      <trkpt lat="45.99353" lon="6.57505">
        <ele>2148.68</ele>
        <time>2019-03-19T10:43:26Z</time>
      </trkpt>
      <trkpt lat="45.99336" lon="6.57482">
        <ele>2150.61</ele>
        <time>2019-03-19T10:43:52Z</time>
      </trkpt>
      <trkpt lat="45.99334" lon="6.5748">
        <ele>2151.09</ele>
        <time>2019-03-19T10:43:54Z</time>
      </trkpt>
      <trkpt lat="45.99327" lon="6.57472">
        <ele>2151.57</ele>
        <time>2019-03-19T10:44:03Z</time>
      </trkpt>
      <trkpt lat="45.99326" lon="6.57471">
        <ele>2151.57</ele>
        <time>2019-03-19T10:44:04Z</time>
      </trkpt>
      <trkpt lat="45.99325" lon="6.5747">
        <ele>2152.05</ele>
        <time>2019-03-19T10:44:05Z</time>
      </trkpt>
      <trkpt lat="45.99324" lon="6.57469">
        <ele>2152.05</ele>
        <time>2019-03-19T10:44:06Z</time>
      </trkpt>
      <trkpt lat="45.99323" lon="6.57467">
        <ele>2152.05</ele>
        <time>2019-03-19T10:44:07Z</time>
      </trkpt>
      <trkpt lat="45.99322" lon="6.57467">
        <ele>2152.05</ele>
        <time>2019-03-19T10:44:08Z</time>
      </trkpt>
      <trkpt lat="45.99322" lon="6.57465">
        <ele>2152.05</ele>
        <time>2019-03-19T10:44:09Z</time>
      </trkpt>
      <trkpt lat="45.99317" lon="6.5746">
        <ele>2152.53</ele>
        <time>2019-03-19T10:44:15Z</time>
      </trkpt>
      <trkpt lat="45.99316" lon="6.57459">
        <ele>2153.01</ele>
        <time>2019-03-19T10:44:16Z</time>
      </trkpt>
      <trkpt lat="45.99282" lon="6.5742">
        <ele>2155.89</ele>
        <time>2019-03-19T10:44:58Z</time>
      </trkpt>
      <trkpt lat="45.99271" lon="6.57409">
        <ele>2159.26</ele>
        <time>2019-03-19T10:45:15Z</time>
      </trkpt>
      <trkpt lat="45.99262" lon="6.574">
        <ele>2162.14</ele>
        <time>2019-03-19T10:45:30Z</time>
      </trkpt>
      <trkpt lat="45.9926" lon="6.57398">
        <ele>2163.58</ele>
        <time>2019-03-19T10:45:34Z</time>
      </trkpt>
      <trkpt lat="45.99258" lon="6.57395">
        <ele>2164.06</ele>
        <time>2019-03-19T10:45:38Z</time>
      </trkpt>
      <trkpt lat="45.99245" lon="6.57383">
        <ele>2167.43</ele>
        <time>2019-03-19T10:45:57Z</time>
      </trkpt>
      <trkpt lat="45.99244" lon="6.57383">
        <ele>2167.43</ele>
        <time>2019-03-19T10:45:58Z</time>
      </trkpt>
      <trkpt lat="45.99241" lon="6.57379">
        <ele>2168.39</ele>
        <time>2019-03-19T10:46:03Z</time>
      </trkpt>
      <trkpt lat="45.99235" lon="6.57371">
        <ele>2171.27</ele>
        <time>2019-03-19T10:46:16Z</time>
      </trkpt>
      <trkpt lat="45.99226" lon="6.57359">
        <ele>2174.64</ele>
        <time>2019-03-19T10:46:32Z</time>
      </trkpt>
      <trkpt lat="45.99224" lon="6.57356">
        <ele>2175.12</ele>
        <time>2019-03-19T10:46:35Z</time>
      </trkpt>
      <trkpt lat="45.99223" lon="6.57354">
        <ele>2175.12</ele>
        <time>2019-03-19T10:46:37Z</time>
      </trkpt>
      <trkpt lat="45.99221" lon="6.57351">
        <ele>2175.6</ele>
        <time>2019-03-19T10:46:40Z</time>
      </trkpt>
      <trkpt lat="45.9922" lon="6.5735">
        <ele>2176.08</ele>
        <time>2019-03-19T10:46:42Z</time>
      </trkpt>
      <trkpt lat="45.99219" lon="6.57349">
        <ele>2176.56</ele>
        <time>2019-03-19T10:46:44Z</time>
      </trkpt>
      <trkpt lat="45.99217" lon="6.57347">
        <ele>2177.04</ele>
        <time>2019-03-19T10:46:47Z</time>
      </trkpt>
      <trkpt lat="45.99215" lon="6.57344">
        <ele>2177.52</ele>
        <time>2019-03-19T10:46:51Z</time>
      </trkpt>
      <trkpt lat="45.99212" lon="6.57341">
        <ele>2178.48</ele>
        <time>2019-03-19T10:46:56Z</time>
      </trkpt>
      <trkpt lat="45.99199" lon="6.57322">
        <ele>2181.37</ele>
        <time>2019-03-19T10:47:18Z</time>
      </trkpt>
      <trkpt lat="45.99191" lon="6.57312">
        <ele>2183.77</ele>
        <time>2019-03-19T10:47:32Z</time>
      </trkpt>
      <trkpt lat="45.99179" lon="6.57296">
        <ele>2187.14</ele>
        <time>2019-03-19T10:47:53Z</time>
      </trkpt>
      <trkpt lat="45.99171" lon="6.57283">
        <ele>2190.02</ele>
        <time>2019-03-19T10:48:10Z</time>
      </trkpt>
      <trkpt lat="45.99161" lon="6.57271">
        <ele>2193.39</ele>
        <time>2019-03-19T10:48:29Z</time>
      </trkpt>
      <trkpt lat="45.9916" lon="6.57271">
        <ele>2193.39</ele>
        <time>2019-03-19T10:48:30Z</time>
      </trkpt>
      <trkpt lat="45.99152" lon="6.57263">
        <ele>2196.27</ele>
        <time>2019-03-19T10:48:43Z</time>
      </trkpt>
      <trkpt lat="45.99144" lon="6.57253">
        <ele>2199.63</ele>
        <time>2019-03-19T10:48:58Z</time>
      </trkpt>
      <trkpt lat="45.99138" lon="6.57245">
        <ele>2202.52</ele>
        <time>2019-03-19T10:49:12Z</time>
      </trkpt>
      <trkpt lat="45.9913" lon="6.57232">
        <ele>2205.88</ele>
        <time>2019-03-19T10:49:30Z</time>
      </trkpt>
      <trkpt lat="45.99135" lon="6.57223">
        <ele>2208.77</ele>
        <time>2019-03-19T10:49:43Z</time>
      </trkpt>
      <trkpt lat="45.99131" lon="6.57216">
        <ele>2211.65</ele>
        <time>2019-03-19T10:49:59Z</time>
      </trkpt>
      <trkpt lat="45.99123" lon="6.57209">
        <ele>2215.01</ele>
        <time>2019-03-19T10:50:13Z</time>
      </trkpt>
      <trkpt lat="45.99123" lon="6.572">
        <ele>2217.9</ele>
        <time>2019-03-19T10:50:30Z</time>
      </trkpt>
      <trkpt lat="45.99131" lon="6.57194">
        <ele>2221.26</ele>
        <time>2019-03-19T10:50:43Z</time>
      </trkpt>
      <trkpt lat="45.99131" lon="6.57194">
        <ele>2221.74</ele>
        <time>2019-03-19T10:50:45Z</time>
      </trkpt>
      <trkpt lat="45.99128" lon="6.57191">
        <ele>2225.11</ele>
        <time>2019-03-19T10:50:59Z</time>
      </trkpt>
      <trkpt lat="45.99126" lon="6.5718">
        <ele>2227.51</ele>
        <time>2019-03-19T10:51:15Z</time>
      </trkpt>
      <trkpt lat="45.99121" lon="6.57162">
        <ele>2230.4</ele>
        <time>2019-03-19T10:51:33Z</time>
      </trkpt>
      <trkpt lat="45.99116" lon="6.5715">
        <ele>2233.76</ele>
        <time>2019-03-19T10:51:47Z</time>
      </trkpt>
      <trkpt lat="45.9911" lon="6.57141">
        <ele>2236.64</ele>
        <time>2019-03-19T10:52:02Z</time>
      </trkpt>
      <trkpt lat="45.99103" lon="6.57133">
        <ele>2240.01</ele>
        <time>2019-03-19T10:52:15Z</time>
      </trkpt>
      <trkpt lat="45.99101" lon="6.57133">
        <ele>2240.97</ele>
        <time>2019-03-19T10:52:18Z</time>
      </trkpt>
      <trkpt lat="45.99089" lon="6.5713">
        <ele>2244.33</ele>
        <time>2019-03-19T10:52:37Z</time>
      </trkpt>
      <trkpt lat="45.99065" lon="6.57114">
        <ele>2247.22</ele>
        <time>2019-03-19T10:53:07Z</time>
      </trkpt>
      <trkpt lat="45.99045" lon="6.571">
        <ele>2247.7</ele>
        <time>2019-03-19T10:53:32Z</time>
      </trkpt>
      <trkpt lat="45.99043" lon="6.57098">
        <ele>2248.18</ele>
        <time>2019-03-19T10:53:35Z</time>
      </trkpt>
      <trkpt lat="45.99026" lon="6.57088">
        <ele>2250.58</ele>
        <time>2019-03-19T10:53:54Z</time>
      </trkpt>
      <trkpt lat="45.99011" lon="6.57081">
        <ele>2253.47</ele>
        <time>2019-03-19T10:54:11Z</time>
      </trkpt>
      <trkpt lat="45.98977" lon="6.57066">
        <ele>2256.35</ele>
        <time>2019-03-19T10:54:58Z</time>
      </trkpt>
      <trkpt lat="45.98977" lon="6.57067">
        <ele>2256.83</ele>
        <time>2019-03-19T10:55:55Z</time>
      </trkpt>
      <trkpt lat="45.98978" lon="6.57067">
        <ele>2256.83</ele>
        <time>2019-03-19T10:56:30Z</time>
      </trkpt>
      <trkpt lat="45.98978" lon="6.57065">
        <ele>2257.31</ele>
        <time>2019-03-19T10:57:25Z</time>
      </trkpt>
      <trkpt lat="45.98978" lon="6.57066">
        <ele>2256.83</ele>
        <time>2019-03-19T10:58:24Z</time>
      </trkpt>
      <trkpt lat="45.98977" lon="6.57068">
        <ele>2256.83</ele>
        <time>2019-03-19T10:59:58Z</time>
      </trkpt>
      <trkpt lat="45.9898" lon="6.57071">
        <ele>2255.87</ele>
        <time>2019-03-19T11:00:28Z</time>
      </trkpt>
      <trkpt lat="45.9898" lon="6.57074">
        <ele>2255.87</ele>
        <time>2019-03-19T11:00:29Z</time>
      </trkpt>
      <trkpt lat="45.98981" lon="6.57078">
        <ele>2254.91</ele>
        <time>2019-03-19T11:00:30Z</time>
      </trkpt>
      <trkpt lat="45.9898" lon="6.57082">
        <ele>2254.43</ele>
        <time>2019-03-19T11:00:31Z</time>
      </trkpt>
      <trkpt lat="45.98981" lon="6.57086">
        <ele>2253.47</ele>
        <time>2019-03-19T11:00:32Z</time>
      </trkpt>
      <trkpt lat="45.98981" lon="6.5709">
        <ele>2252.99</ele>
        <time>2019-03-19T11:00:33Z</time>
      </trkpt>
      <trkpt lat="45.9898" lon="6.57097">
        <ele>2251.06</ele>
        <time>2019-03-19T11:00:34Z</time>
      </trkpt>
      <trkpt lat="45.9898" lon="6.57104">
        <ele>2248.66</ele>
        <time>2019-03-19T11:00:35Z</time>
      </trkpt>
      <trkpt lat="45.9898" lon="6.57113">
        <ele>2247.22</ele>
        <time>2019-03-19T11:00:36Z</time>
      </trkpt>
      <trkpt lat="45.98982" lon="6.57124">
        <ele>2243.85</ele>
        <time>2019-03-19T11:00:37Z</time>
      </trkpt>
      <trkpt lat="45.98986" lon="6.57134">
        <ele>2240.97</ele>
        <time>2019-03-19T11:00:38Z</time>
      </trkpt>
      <trkpt lat="45.9899" lon="6.57144">
        <ele>2237.61</ele>
        <time>2019-03-19T11:00:39Z</time>
      </trkpt>
      <trkpt lat="45.98998" lon="6.57164">
        <ele>2230.4</ele>
        <time>2019-03-19T11:00:41Z</time>
      </trkpt>
      <trkpt lat="45.99001" lon="6.57177">
        <ele>2225.59</ele>
        <time>2019-03-19T11:00:42Z</time>
      </trkpt>
      <trkpt lat="45.99002" lon="6.57191">
        <ele>2221.74</ele>
        <time>2019-03-19T11:00:43Z</time>
      </trkpt>
      <trkpt lat="45.99006" lon="6.57205">
        <ele>2216.94</ele>
        <time>2019-03-19T11:00:44Z</time>
      </trkpt>
      <trkpt lat="45.99009" lon="6.5722">
        <ele>2210.21</ele>
        <time>2019-03-19T11:00:45Z</time>
      </trkpt>
      <trkpt lat="45.99013" lon="6.57237">
        <ele>2203.96</ele>
        <time>2019-03-19T11:00:46Z</time>
      </trkpt>
      <trkpt lat="45.99018" lon="6.57252">
        <ele>2197.23</ele>
        <time>2019-03-19T11:00:47Z</time>
      </trkpt>
      <trkpt lat="45.99023" lon="6.57266">
        <ele>2193.39</ele>
        <time>2019-03-19T11:00:48Z</time>
      </trkpt>
      <trkpt lat="45.99028" lon="6.5728">
        <ele>2185.21</ele>
        <time>2019-03-19T11:00:49Z</time>
      </trkpt>
      <trkpt lat="45.99031" lon="6.57294">
        <ele>2180.41</ele>
        <time>2019-03-19T11:00:50Z</time>
      </trkpt>
      <trkpt lat="45.99035" lon="6.57306">
        <ele>2176.08</ele>
        <time>2019-03-19T11:00:51Z</time>
      </trkpt>
      <trkpt lat="45.99039" lon="6.57316">
        <ele>2173.2</ele>
        <time>2019-03-19T11:00:52Z</time>
      </trkpt>
      <trkpt lat="45.99036" lon="6.57326">
        <ele>2167.91</ele>
        <time>2019-03-19T11:00:53Z</time>
      </trkpt>
      <trkpt lat="45.9903" lon="6.57336">
        <ele>2163.58</ele>
        <time>2019-03-19T11:00:54Z</time>
      </trkpt>
      <trkpt lat="45.99019" lon="6.57344">
        <ele>2157.34</ele>
        <time>2019-03-19T11:00:55Z</time>
      </trkpt>
      <trkpt lat="45.99006" lon="6.57349">
        <ele>2150.13</ele>
        <time>2019-03-19T11:00:56Z</time>
      </trkpt>
      <trkpt lat="45.98995" lon="6.57351">
        <ele>2146.76</ele>
        <time>2019-03-19T11:00:57Z</time>
      </trkpt>
      <trkpt lat="45.98984" lon="6.57353">
        <ele>2143.4</ele>
        <time>2019-03-19T11:00:58Z</time>
      </trkpt>
      <trkpt lat="45.98976" lon="6.57355">
        <ele>2142.44</ele>
        <time>2019-03-19T11:00:59Z</time>
      </trkpt>
      <trkpt lat="45.98967" lon="6.57355">
        <ele>2140.99</ele>
        <time>2019-03-19T11:01:00Z</time>
      </trkpt>
      <trkpt lat="45.98959" lon="6.57355">
        <ele>2140.03</ele>
        <time>2019-03-19T11:01:01Z</time>
      </trkpt>
      <trkpt lat="45.98952" lon="6.57351">
        <ele>2139.55</ele>
        <time>2019-03-19T11:01:02Z</time>
      </trkpt>
      <trkpt lat="45.98945" lon="6.57347">
        <ele>2138.59</ele>
        <time>2019-03-19T11:01:03Z</time>
      </trkpt>
      <trkpt lat="45.98929" lon="6.5734">
        <ele>2134.26</ele>
        <time>2019-03-19T11:01:05Z</time>
      </trkpt>
      <trkpt lat="45.9891" lon="6.57336">
        <ele>2129.46</ele>
        <time>2019-03-19T11:01:07Z</time>
      </trkpt>
      <trkpt lat="45.98901" lon="6.57335">
        <ele>2124.65</ele>
        <time>2019-03-19T11:01:08Z</time>
      </trkpt>
      <trkpt lat="45.9889" lon="6.57337">
        <ele>2119.84</ele>
        <time>2019-03-19T11:01:09Z</time>
      </trkpt>
      <trkpt lat="45.98879" lon="6.57341">
        <ele>2115.52</ele>
        <time>2019-03-19T11:01:10Z</time>
      </trkpt>
      <trkpt lat="45.98869" lon="6.57349">
        <ele>2113.6</ele>
        <time>2019-03-19T11:01:11Z</time>
      </trkpt>
      <trkpt lat="45.98861" lon="6.5736">
        <ele>2114.08</ele>
        <time>2019-03-19T11:01:12Z</time>
      </trkpt>
      <trkpt lat="45.98857" lon="6.57375">
        <ele>2113.6</ele>
        <time>2019-03-19T11:01:13Z</time>
      </trkpt>
      <trkpt lat="45.98853" lon="6.57392">
        <ele>2111.19</ele>
        <time>2019-03-19T11:01:14Z</time>
      </trkpt>
      <trkpt lat="45.98851" lon="6.57411">
        <ele>2106.39</ele>
        <time>2019-03-19T11:01:15Z</time>
      </trkpt>
      <trkpt lat="45.98848" lon="6.57431">
        <ele>2100.62</ele>
        <time>2019-03-19T11:01:16Z</time>
      </trkpt>
      <trkpt lat="45.98847" lon="6.57449">
        <ele>2095.81</ele>
        <time>2019-03-19T11:01:17Z</time>
      </trkpt>
      <trkpt lat="45.98846" lon="6.57466">
        <ele>2091.97</ele>
        <time>2019-03-19T11:01:18Z</time>
      </trkpt>
      <trkpt lat="45.98844" lon="6.57483">
        <ele>2088.12</ele>
        <time>2019-03-19T11:01:19Z</time>
      </trkpt>
      <trkpt lat="45.98841" lon="6.57498">
        <ele>2086.2</ele>
        <time>2019-03-19T11:01:20Z</time>
      </trkpt>
      <trkpt lat="45.98839" lon="6.57514">
        <ele>2085.72</ele>
        <time>2019-03-19T11:01:21Z</time>
      </trkpt>
      <trkpt lat="45.98831" lon="6.57577">
        <ele>2080.91</ele>
        <time>2019-03-19T11:01:26Z</time>
      </trkpt>
      <trkpt lat="45.98829" lon="6.57596">
        <ele>2078.03</ele>
        <time>2019-03-19T11:01:28Z</time>
      </trkpt>
      <trkpt lat="45.98827" lon="6.57603">
        <ele>2077.55</ele>
        <time>2019-03-19T11:01:29Z</time>
      </trkpt>
      <trkpt lat="45.98824" lon="6.57609">
        <ele>2077.55</ele>
        <time>2019-03-19T11:01:30Z</time>
      </trkpt>
      <trkpt lat="45.98821" lon="6.57612">
        <ele>2078.03</ele>
        <time>2019-03-19T11:01:31Z</time>
      </trkpt>
      <trkpt lat="45.98819" lon="6.57616">
        <ele>2078.03</ele>
        <time>2019-03-19T11:01:32Z</time>
      </trkpt>
      <trkpt lat="45.98798" lon="6.57639">
        <ele>2074.66</ele>
        <time>2019-03-19T11:01:38Z</time>
      </trkpt>
      <trkpt lat="45.98794" lon="6.57641">
        <ele>2074.18</ele>
        <time>2019-03-19T11:01:39Z</time>
      </trkpt>
      <trkpt lat="45.9879" lon="6.57643">
        <ele>2074.18</ele>
        <time>2019-03-19T11:01:40Z</time>
      </trkpt>
      <trkpt lat="45.98762" lon="6.57649">
        <ele>2069.38</ele>
        <time>2019-03-19T11:01:45Z</time>
      </trkpt>
      <trkpt lat="45.98747" lon="6.57655">
        <ele>2065.53</ele>
        <time>2019-03-19T11:01:47Z</time>
      </trkpt>
      <trkpt lat="45.98739" lon="6.57659">
        <ele>2064.57</ele>
        <time>2019-03-19T11:01:48Z</time>
      </trkpt>
      <trkpt lat="45.98732" lon="6.57664">
        <ele>2063.61</ele>
        <time>2019-03-19T11:01:49Z</time>
      </trkpt>
      <trkpt lat="45.98727" lon="6.57672">
        <ele>2062.17</ele>
        <time>2019-03-19T11:01:50Z</time>
      </trkpt>
      <trkpt lat="45.98723" lon="6.5768">
        <ele>2061.68</ele>
        <time>2019-03-19T11:01:51Z</time>
      </trkpt>
      <trkpt lat="45.987" lon="6.57721">
        <ele>2059.76</ele>
        <time>2019-03-19T11:01:57Z</time>
      </trkpt>
      <trkpt lat="45.98688" lon="6.57735">
        <ele>2056.4</ele>
        <time>2019-03-19T11:01:59Z</time>
      </trkpt>
      <trkpt lat="45.98683" lon="6.57744">
        <ele>2055.44</ele>
        <time>2019-03-19T11:02:00Z</time>
      </trkpt>
      <trkpt lat="45.98668" lon="6.5777">
        <ele>2052.55</ele>
        <time>2019-03-19T11:02:03Z</time>
      </trkpt>
      <trkpt lat="45.98665" lon="6.57778">
        <ele>2053.03</ele>
        <time>2019-03-19T11:02:04Z</time>
      </trkpt>
      <trkpt lat="45.9865" lon="6.57826">
        <ele>2049.67</ele>
        <time>2019-03-19T11:02:10Z</time>
      </trkpt>
      <trkpt lat="45.98645" lon="6.57849">
        <ele>2045.82</ele>
        <time>2019-03-19T11:02:12Z</time>
      </trkpt>
      <trkpt lat="45.9864" lon="6.57884">
        <ele>2042.94</ele>
        <time>2019-03-19T11:02:15Z</time>
      </trkpt>
      <trkpt lat="45.98636" lon="6.57932">
        <ele>2041.02</ele>
        <time>2019-03-19T11:02:20Z</time>
      </trkpt>
      <trkpt lat="45.98635" lon="6.57988">
        <ele>2037.17</ele>
        <time>2019-03-19T11:02:26Z</time>
      </trkpt>
      <trkpt lat="45.98635" lon="6.58004">
        <ele>2036.21</ele>
        <time>2019-03-19T11:02:28Z</time>
      </trkpt>
      <trkpt lat="45.98633" lon="6.58021">
        <ele>2037.65</ele>
        <time>2019-03-19T11:02:33Z</time>
      </trkpt>
      <trkpt lat="45.98633" lon="6.58025">
        <ele>2038.13</ele>
        <time>2019-03-19T11:02:36Z</time>
      </trkpt>
      <trkpt lat="45.98632" lon="6.58026">
        <ele>2038.13</ele>
        <time>2019-03-19T11:02:37Z</time>
      </trkpt>
      <trkpt lat="45.98632" lon="6.58027">
        <ele>2038.61</ele>
        <time>2019-03-19T11:02:38Z</time>
      </trkpt>
      <trkpt lat="45.98634" lon="6.58071">
        <ele>2041.5</ele>
        <time>2019-03-19T11:03:16Z</time>
      </trkpt>
      <trkpt lat="45.98632" lon="6.58087">
        <ele>2041.98</ele>
        <time>2019-03-19T11:03:30Z</time>
      </trkpt>
      <trkpt lat="45.98634" lon="6.58112">
        <ele>2043.42</ele>
        <time>2019-03-19T11:03:55Z</time>
      </trkpt>
      <trkpt lat="45.98649" lon="6.58141">
        <ele>2041.5</ele>
        <time>2019-03-19T11:04:13Z</time>
      </trkpt>
      <trkpt lat="45.98651" lon="6.58144">
        <ele>2041.98</ele>
        <time>2019-03-19T11:04:18Z</time>
      </trkpt>
      <trkpt lat="45.98652" lon="6.58143">
        <ele>2041.98</ele>
        <time>2019-03-19T11:04:21Z</time>
      </trkpt>
      <trkpt lat="45.98651" lon="6.58138">
        <ele>2041.02</ele>
        <time>2019-03-19T11:04:34Z</time>
      </trkpt>
      <trkpt lat="45.98653" lon="6.58141">
        <ele>2041.5</ele>
        <time>2019-03-19T11:04:41Z</time>
      </trkpt>
      <trkpt lat="45.98654" lon="6.58143">
        <ele>2041.02</ele>
        <time>2019-03-19T11:04:52Z</time>
      </trkpt>
      <trkpt lat="45.98652" lon="6.58139">
        <ele>2041.98</ele>
        <time>2019-03-19T11:05:01Z</time>
      </trkpt>
      <trkpt lat="45.9865" lon="6.58134">
        <ele>2041.5</ele>
        <time>2019-03-19T11:05:16Z</time>
      </trkpt>
      <trkpt lat="45.98658" lon="6.58146">
        <ele>2041.5</ele>
        <time>2019-03-19T11:05:40Z</time>
      </trkpt>
      <trkpt lat="45.98657" lon="6.58152">
        <ele>2041.5</ele>
        <time>2019-03-19T11:05:53Z</time>
      </trkpt>
      <trkpt lat="45.98654" lon="6.58148">
        <ele>2041.5</ele>
        <time>2019-03-19T11:06:04Z</time>
      </trkpt>
      <trkpt lat="45.98655" lon="6.58152">
        <ele>2041.5</ele>
        <time>2019-03-19T11:06:05Z</time>
      </trkpt>
      <trkpt lat="45.98661" lon="6.58157">
        <ele>2041.5</ele>
        <time>2019-03-19T11:06:15Z</time>
      </trkpt>
      <trkpt lat="45.98662" lon="6.58158">
        <ele>2041.5</ele>
        <time>2019-03-19T11:06:21Z</time>
      </trkpt>
      <trkpt lat="45.98662" lon="6.58157">
        <ele>2041.02</ele>
        <time>2019-03-19T11:06:28Z</time>
      </trkpt>
      <trkpt lat="45.98662" lon="6.58161">
        <ele>2041.02</ele>
        <time>2019-03-19T11:06:31Z</time>
      </trkpt>
      <trkpt lat="45.98657" lon="6.58153">
        <ele>2041.5</ele>
        <time>2019-03-19T11:06:54Z</time>
      </trkpt>
      <trkpt lat="45.98655" lon="6.5815">
        <ele>2041.5</ele>
        <time>2019-03-19T11:07:05Z</time>
      </trkpt>
      <trkpt lat="45.98656" lon="6.58151">
        <ele>2041.5</ele>
        <time>2019-03-19T11:07:06Z</time>
      </trkpt>
      <trkpt lat="45.98654" lon="6.58142">
        <ele>2041.5</ele>
        <time>2019-03-19T11:07:11Z</time>
      </trkpt>
      <trkpt lat="45.98654" lon="6.58141">
        <ele>2041.5</ele>
        <time>2019-03-19T11:07:12Z</time>
      </trkpt>
      <trkpt lat="45.98655" lon="6.58139">
        <ele>2041.5</ele>
        <time>2019-03-19T11:07:18Z</time>
      </trkpt>
      <trkpt lat="45.9866" lon="6.58141">
        <ele>2041.02</ele>
        <time>2019-03-19T11:07:41Z</time>
      </trkpt>
      <trkpt lat="45.98659" lon="6.58144">
        <ele>2041.5</ele>
        <time>2019-03-19T11:08:00Z</time>
      </trkpt>
      <trkpt lat="45.98658" lon="6.58143">
        <ele>2041.5</ele>
        <time>2019-03-19T11:08:01Z</time>
      </trkpt>
      <trkpt lat="45.98657" lon="6.58143">
        <ele>2041.98</ele>
        <time>2019-03-19T11:08:02Z</time>
      </trkpt>
      <trkpt lat="45.98656" lon="6.58143">
        <ele>2041.98</ele>
        <time>2019-03-19T11:08:03Z</time>
      </trkpt>
      <trkpt lat="45.9866" lon="6.58146">
        <ele>2041.5</ele>
        <time>2019-03-19T11:08:39Z</time>
      </trkpt>
      <trkpt lat="45.9866" lon="6.58145">
        <ele>2041.02</ele>
        <time>2019-03-19T11:08:43Z</time>
      </trkpt>
      <trkpt lat="45.98657" lon="6.58144">
        <ele>2041.5</ele>
        <time>2019-03-19T11:08:54Z</time>
      </trkpt>
      <trkpt lat="45.98654" lon="6.58133">
        <ele>2041.02</ele>
        <time>2019-03-19T11:09:08Z</time>
      </trkpt>
      <trkpt lat="45.98652" lon="6.58134">
        <ele>2041.02</ele>
        <time>2019-03-19T11:09:26Z</time>
      </trkpt>
      <trkpt lat="45.98654" lon="6.58138">
        <ele>2041.5</ele>
        <time>2019-03-19T11:09:29Z</time>
      </trkpt>
      <trkpt lat="45.98654" lon="6.58136">
        <ele>2041.02</ele>
        <time>2019-03-19T11:09:31Z</time>
      </trkpt>
      <trkpt lat="45.98659" lon="6.58146">
        <ele>2042.94</ele>
        <time>2019-03-19T11:10:18Z</time>
      </trkpt>
      <trkpt lat="45.98659" lon="6.58139">
        <ele>2043.42</ele>
        <time>2019-03-19T11:10:32Z</time>
      </trkpt>
      <trkpt lat="45.9866" lon="6.58141">
        <ele>2043.42</ele>
        <time>2019-03-19T11:10:37Z</time>
      </trkpt>
      <trkpt lat="45.9866" lon="6.58142">
        <ele>2043.42</ele>
        <time>2019-03-19T11:10:38Z</time>
      </trkpt>
      <trkpt lat="45.98663" lon="6.58153">
        <ele>2044.86</ele>
        <time>2019-03-19T11:10:48Z</time>
      </trkpt>
      <trkpt lat="45.98662" lon="6.58153">
        <ele>2045.82</ele>
        <time>2019-03-19T11:10:51Z</time>
      </trkpt>
      <trkpt lat="45.9866" lon="6.58148">
        <ele>2046.3</ele>
        <time>2019-03-19T11:10:54Z</time>
      </trkpt>
      <trkpt lat="45.98657" lon="6.58135">
        <ele>2046.78</ele>
        <time>2019-03-19T11:10:57Z</time>
      </trkpt>
      <trkpt lat="45.98657" lon="6.58134">
        <ele>2047.26</ele>
        <time>2019-03-19T11:10:58Z</time>
      </trkpt>
      <trkpt lat="45.98658" lon="6.58139">
        <ele>2047.75</ele>
        <time>2019-03-19T11:11:01Z</time>
      </trkpt>
      <trkpt lat="45.98654" lon="6.58132">
        <ele>2050.63</ele>
        <time>2019-03-19T11:11:14Z</time>
      </trkpt>
      <trkpt lat="45.98656" lon="6.58139">
        <ele>2051.11</ele>
        <time>2019-03-19T11:11:17Z</time>
      </trkpt>
      <trkpt lat="45.98656" lon="6.58152">
        <ele>2053.99</ele>
        <time>2019-03-19T11:11:36Z</time>
      </trkpt>
      <trkpt lat="45.98654" lon="6.58155">
        <ele>2056.88</ele>
        <time>2019-03-19T11:11:52Z</time>
      </trkpt>
      <trkpt lat="45.98655" lon="6.58157">
        <ele>2057.84</ele>
        <time>2019-03-19T11:11:57Z</time>
      </trkpt>
      <trkpt lat="45.98655" lon="6.58159">
        <ele>2057.84</ele>
        <time>2019-03-19T11:11:58Z</time>
      </trkpt>
      <trkpt lat="45.98656" lon="6.58162">
        <ele>2058.32</ele>
        <time>2019-03-19T11:12:02Z</time>
      </trkpt>
      <trkpt lat="45.98657" lon="6.58164">
        <ele>2058.32</ele>
        <time>2019-03-19T11:12:04Z</time>
      </trkpt>
      <trkpt lat="45.98658" lon="6.58168">
        <ele>2059.28</ele>
        <time>2019-03-19T11:12:09Z</time>
      </trkpt>
      <trkpt lat="45.98658" lon="6.5817">
        <ele>2059.76</ele>
        <time>2019-03-19T11:12:10Z</time>
      </trkpt>
      <trkpt lat="45.98659" lon="6.58172">
        <ele>2059.76</ele>
        <time>2019-03-19T11:12:12Z</time>
      </trkpt>
      <trkpt lat="45.9866" lon="6.58174">
        <ele>2060.24</ele>
        <time>2019-03-19T11:12:15Z</time>
      </trkpt>
      <trkpt lat="45.9866" lon="6.58177">
        <ele>2062.65</ele>
        <time>2019-03-19T11:12:32Z</time>
      </trkpt>
      <trkpt lat="45.98659" lon="6.58177">
        <ele>2062.65</ele>
        <time>2019-03-19T11:12:33Z</time>
      </trkpt>
      <trkpt lat="45.98663" lon="6.58182">
        <ele>2063.13</ele>
        <time>2019-03-19T11:13:07Z</time>
      </trkpt>
      <trkpt lat="45.9866" lon="6.58181">
        <ele>2064.57</ele>
        <time>2019-03-19T11:13:34Z</time>
      </trkpt>
      <trkpt lat="45.98657" lon="6.58191">
        <ele>2067.45</ele>
        <time>2019-03-19T11:13:52Z</time>
      </trkpt>
      <trkpt lat="45.98657" lon="6.58199">
        <ele>2069.86</ele>
        <time>2019-03-19T11:14:07Z</time>
      </trkpt>
      <trkpt lat="45.98658" lon="6.582">
        <ele>2070.34</ele>
        <time>2019-03-19T11:14:08Z</time>
      </trkpt>
      <trkpt lat="45.98661" lon="6.5821">
        <ele>2072.74</ele>
        <time>2019-03-19T11:14:22Z</time>
      </trkpt>
      <trkpt lat="45.98658" lon="6.5821">
        <ele>2074.66</ele>
        <time>2019-03-19T11:14:34Z</time>
      </trkpt>
      <trkpt lat="45.98654" lon="6.58215">
        <ele>2077.07</ele>
        <time>2019-03-19T11:14:49Z</time>
      </trkpt>
      <trkpt lat="45.98652" lon="6.5822">
        <ele>2080.43</ele>
        <time>2019-03-19T11:15:07Z</time>
      </trkpt>
      <trkpt lat="45.98654" lon="6.5822">
        <ele>2080.91</ele>
        <time>2019-03-19T11:15:11Z</time>
      </trkpt>
      <trkpt lat="45.98658" lon="6.58233">
        <ele>2084.28</ele>
        <time>2019-03-19T11:15:32Z</time>
      </trkpt>
      <trkpt lat="45.98659" lon="6.58233">
        <ele>2084.28</ele>
        <time>2019-03-19T11:15:33Z</time>
      </trkpt>
      <trkpt lat="45.98659" lon="6.5824">
        <ele>2087.64</ele>
        <time>2019-03-19T11:15:51Z</time>
      </trkpt>
      <trkpt lat="45.98659" lon="6.58239">
        <ele>2087.64</ele>
        <time>2019-03-19T11:15:53Z</time>
      </trkpt>
      <trkpt lat="45.98659" lon="6.58239">
        <ele>2089.08</ele>
        <time>2019-03-19T11:16:03Z</time>
      </trkpt>
      <trkpt lat="45.9866" lon="6.58239">
        <ele>2090.04</ele>
        <time>2019-03-19T11:16:07Z</time>
      </trkpt>
      <trkpt lat="45.98662" lon="6.5824">
        <ele>2090.52</ele>
        <time>2019-03-19T11:16:09Z</time>
      </trkpt>
      <trkpt lat="45.98663" lon="6.58242">
        <ele>2091.49</ele>
        <time>2019-03-19T11:16:14Z</time>
      </trkpt>
      <trkpt lat="45.98665" lon="6.58243">
        <ele>2092.45</ele>
        <time>2019-03-19T11:16:18Z</time>
      </trkpt>
      <trkpt lat="45.98666" lon="6.58243">
        <ele>2092.45</ele>
        <time>2019-03-19T11:16:19Z</time>
      </trkpt>
      <trkpt lat="45.98664" lon="6.5825">
        <ele>2095.33</ele>
        <time>2019-03-19T11:16:32Z</time>
      </trkpt>
      <trkpt lat="45.9866" lon="6.58252">
        <ele>2097.25</ele>
        <time>2019-03-19T11:16:43Z</time>
      </trkpt>
      <trkpt lat="45.98659" lon="6.58253">
        <ele>2097.73</ele>
        <time>2019-03-19T11:16:45Z</time>
      </trkpt>
      <trkpt lat="45.98658" lon="6.58252">
        <ele>2097.73</ele>
        <time>2019-03-19T11:16:51Z</time>
      </trkpt>
      <trkpt lat="45.98658" lon="6.5825">
        <ele>2097.73</ele>
        <time>2019-03-19T11:16:52Z</time>
      </trkpt>
      <trkpt lat="45.98659" lon="6.58253">
        <ele>2098.7</ele>
        <time>2019-03-19T11:16:57Z</time>
      </trkpt>
      <trkpt lat="45.9866" lon="6.58253">
        <ele>2099.18</ele>
        <time>2019-03-19T11:16:59Z</time>
      </trkpt>
      <trkpt lat="45.98664" lon="6.58259">
        <ele>2100.62</ele>
        <time>2019-03-19T11:17:12Z</time>
      </trkpt>
      <trkpt lat="45.98661" lon="6.58262">
        <ele>2102.54</ele>
        <time>2019-03-19T11:17:20Z</time>
      </trkpt>
      <trkpt lat="45.9866" lon="6.58262">
        <ele>2103.5</ele>
        <time>2019-03-19T11:17:25Z</time>
      </trkpt>
      <trkpt lat="45.98659" lon="6.58263">
        <ele>2103.5</ele>
        <time>2019-03-19T11:17:26Z</time>
      </trkpt>
      <trkpt lat="45.98662" lon="6.58266">
        <ele>2103.98</ele>
        <time>2019-03-19T11:17:30Z</time>
      </trkpt>
      <trkpt lat="45.98662" lon="6.58267">
        <ele>2104.46</ele>
        <time>2019-03-19T11:17:33Z</time>
      </trkpt>
      <trkpt lat="45.98661" lon="6.58268">
        <ele>2104.46</ele>
        <time>2019-03-19T11:17:34Z</time>
      </trkpt>
      <trkpt lat="45.98657" lon="6.5827">
        <ele>2107.83</ele>
        <time>2019-03-19T11:17:52Z</time>
      </trkpt>
      <trkpt lat="45.98661" lon="6.58277">
        <ele>2110.71</ele>
        <time>2019-03-19T11:18:10Z</time>
      </trkpt>
      <trkpt lat="45.98661" lon="6.58276">
        <ele>2111.19</ele>
        <time>2019-03-19T11:18:12Z</time>
      </trkpt>
      <trkpt lat="45.98667" lon="6.58276">
        <ele>2114.08</ele>
        <time>2019-03-19T11:18:32Z</time>
      </trkpt>
      <trkpt lat="45.98668" lon="6.58276">
        <ele>2114.56</ele>
        <time>2019-03-19T11:18:33Z</time>
      </trkpt>
      <trkpt lat="45.98667" lon="6.58282">
        <ele>2116</ele>
        <time>2019-03-19T11:18:45Z</time>
      </trkpt>
      <trkpt lat="45.98692" lon="6.58289">
        <ele>2118.4</ele>
        <time>2019-03-19T11:19:14Z</time>
      </trkpt>
      <trkpt lat="45.98691" lon="6.58289">
        <ele>2118.4</ele>
        <time>2019-03-19T11:19:15Z</time>
      </trkpt>
      <trkpt lat="45.98687" lon="6.58289">
        <ele>2118.4</ele>
        <time>2019-03-19T11:19:22Z</time>
      </trkpt>
      <trkpt lat="45.98688" lon="6.5829">
        <ele>2118.4</ele>
        <time>2019-03-19T11:19:23Z</time>
      </trkpt>
      <trkpt lat="45.98688" lon="6.58293">
        <ele>2119.84</ele>
        <time>2019-03-19T11:19:31Z</time>
      </trkpt>
      <trkpt lat="45.98687" lon="6.58296">
        <ele>2122.73</ele>
        <time>2019-03-19T11:19:46Z</time>
      </trkpt>
      <trkpt lat="45.98687" lon="6.58298">
        <ele>2123.21</ele>
        <time>2019-03-19T11:19:48Z</time>
      </trkpt>
      <trkpt lat="45.98693" lon="6.58306">
        <ele>2126.09</ele>
        <time>2019-03-19T11:20:01Z</time>
      </trkpt>
      <trkpt lat="45.98695" lon="6.58308">
        <ele>2126.09</ele>
        <time>2019-03-19T11:20:04Z</time>
      </trkpt>
      <trkpt lat="45.98697" lon="6.5831">
        <ele>2127.05</ele>
        <time>2019-03-19T11:20:10Z</time>
      </trkpt>
      <trkpt lat="45.98695" lon="6.58317">
        <ele>2130.42</ele>
        <time>2019-03-19T11:20:30Z</time>
      </trkpt>
      <trkpt lat="45.98696" lon="6.58327">
        <ele>2133.3</ele>
        <time>2019-03-19T11:20:50Z</time>
      </trkpt>
      <trkpt lat="45.98696" lon="6.5833">
        <ele>2135.71</ele>
        <time>2019-03-19T11:21:08Z</time>
      </trkpt>
      <trkpt lat="45.98696" lon="6.58332">
        <ele>2136.19</ele>
        <time>2019-03-19T11:21:10Z</time>
      </trkpt>
      <trkpt lat="45.98696" lon="6.58334">
        <ele>2137.63</ele>
        <time>2019-03-19T11:21:19Z</time>
      </trkpt>
      <trkpt lat="45.98696" lon="6.58335">
        <ele>2138.11</ele>
        <time>2019-03-19T11:21:26Z</time>
      </trkpt>
      <trkpt lat="45.98696" lon="6.58336">
        <ele>2138.59</ele>
        <time>2019-03-19T11:21:28Z</time>
      </trkpt>
      <trkpt lat="45.98696" lon="6.58338">
        <ele>2141.47</ele>
        <time>2019-03-19T11:21:46Z</time>
      </trkpt>
      <trkpt lat="45.98695" lon="6.58341">
        <ele>2142.92</ele>
        <time>2019-03-19T11:21:54Z</time>
      </trkpt>
      <trkpt lat="45.98697" lon="6.58342">
        <ele>2143.4</ele>
        <time>2019-03-19T11:21:58Z</time>
      </trkpt>
      <trkpt lat="45.98699" lon="6.58354">
        <ele>2146.28</ele>
        <time>2019-03-19T11:22:18Z</time>
      </trkpt>
      <trkpt lat="45.98699" lon="6.58356">
        <ele>2146.76</ele>
        <time>2019-03-19T11:22:23Z</time>
      </trkpt>
      <trkpt lat="45.98696" lon="6.58366">
        <ele>2149.65</ele>
        <time>2019-03-19T11:22:39Z</time>
      </trkpt>
      <trkpt lat="45.98695" lon="6.58368">
        <ele>2150.61</ele>
        <time>2019-03-19T11:22:44Z</time>
      </trkpt>
      <trkpt lat="45.98693" lon="6.58366">
        <ele>2151.09</ele>
        <time>2019-03-19T11:22:50Z</time>
      </trkpt>
      <trkpt lat="45.98691" lon="6.58369">
        <ele>2152.53</ele>
        <time>2019-03-19T11:22:59Z</time>
      </trkpt>
      <trkpt lat="45.98697" lon="6.58382">
        <ele>2155.41</ele>
        <time>2019-03-19T11:23:19Z</time>
      </trkpt>
      <trkpt lat="45.98706" lon="6.58389">
        <ele>2158.78</ele>
        <time>2019-03-19T11:23:38Z</time>
      </trkpt>
      <trkpt lat="45.98709" lon="6.58389">
        <ele>2161.18</ele>
        <time>2019-03-19T11:23:52Z</time>
      </trkpt>
      <trkpt lat="45.9871" lon="6.58391">
        <ele>2162.14</ele>
        <time>2019-03-19T11:23:57Z</time>
      </trkpt>
      <trkpt lat="45.98721" lon="6.58393">
        <ele>2165.03</ele>
        <time>2019-03-19T11:24:18Z</time>
      </trkpt>
      <trkpt lat="45.9873" lon="6.58399">
        <ele>2168.39</ele>
        <time>2019-03-19T11:24:39Z</time>
      </trkpt>
      <trkpt lat="45.9874" lon="6.58403">
        <ele>2171.27</ele>
        <time>2019-03-19T11:24:58Z</time>
      </trkpt>
      <trkpt lat="45.98749" lon="6.5841">
        <ele>2174.64</ele>
        <time>2019-03-19T11:25:15Z</time>
      </trkpt>
      <trkpt lat="45.98697" lon="6.58426">
        <ele>2176.08</ele>
        <time>2019-03-19T11:25:24Z</time>
      </trkpt>
      <trkpt lat="45.98695" lon="6.58427">
        <ele>2176.08</ele>
        <time>2019-03-19T11:25:25Z</time>
      </trkpt>
      <trkpt lat="45.9869" lon="6.58435">
        <ele>2177.04</ele>
        <time>2019-03-19T11:25:30Z</time>
      </trkpt>
      <trkpt lat="45.98687" lon="6.5844">
        <ele>2179.45</ele>
        <time>2019-03-19T11:25:43Z</time>
      </trkpt>
      <trkpt lat="45.98687" lon="6.58443">
        <ele>2180.41</ele>
        <time>2019-03-19T11:25:51Z</time>
      </trkpt>
      <trkpt lat="45.98685" lon="6.58444">
        <ele>2181.37</ele>
        <time>2019-03-19T11:25:56Z</time>
      </trkpt>
      <trkpt lat="45.98684" lon="6.58445">
        <ele>2182.33</ele>
        <time>2019-03-19T11:26:00Z</time>
      </trkpt>
      <trkpt lat="45.98683" lon="6.58447">
        <ele>2183.29</ele>
        <time>2019-03-19T11:26:06Z</time>
      </trkpt>
      <trkpt lat="45.98676" lon="6.58453">
        <ele>2184.25</ele>
        <time>2019-03-19T11:26:10Z</time>
      </trkpt>
      <trkpt lat="45.98673" lon="6.58458">
        <ele>2187.62</ele>
        <time>2019-03-19T11:26:25Z</time>
      </trkpt>
      <trkpt lat="45.98675" lon="6.58464">
        <ele>2190.02</ele>
        <time>2019-03-19T11:26:39Z</time>
      </trkpt>
      <trkpt lat="45.98678" lon="6.58463">
        <ele>2190.5</ele>
        <time>2019-03-19T11:26:41Z</time>
      </trkpt>
      <trkpt lat="45.98675" lon="6.58466">
        <ele>2191.46</ele>
        <time>2019-03-19T11:26:47Z</time>
      </trkpt>
      <trkpt lat="45.98674" lon="6.58469">
        <ele>2192.42</ele>
        <time>2019-03-19T11:26:54Z</time>
      </trkpt>
      <trkpt lat="45.98674" lon="6.58471">
        <ele>2193.39</ele>
        <time>2019-03-19T11:26:56Z</time>
      </trkpt>
      <trkpt lat="45.98673" lon="6.58472">
        <ele>2193.87</ele>
        <time>2019-03-19T11:26:58Z</time>
      </trkpt>
      <trkpt lat="45.98674" lon="6.58474">
        <ele>2194.35</ele>
        <time>2019-03-19T11:27:00Z</time>
      </trkpt>
      <trkpt lat="45.98672" lon="6.58477">
        <ele>2195.31</ele>
        <time>2019-03-19T11:27:08Z</time>
      </trkpt>
      <trkpt lat="45.98674" lon="6.58479">
        <ele>2195.79</ele>
        <time>2019-03-19T11:27:11Z</time>
      </trkpt>
      <trkpt lat="45.9871" lon="6.58477">
        <ele>2199.15</ele>
        <time>2019-03-19T11:27:27Z</time>
      </trkpt>
      <trkpt lat="45.98711" lon="6.58477">
        <ele>2199.15</ele>
        <time>2019-03-19T11:27:28Z</time>
      </trkpt>
      <trkpt lat="45.98714" lon="6.5848">
        <ele>2200.59</ele>
        <time>2019-03-19T11:27:36Z</time>
      </trkpt>
      <trkpt lat="45.98716" lon="6.58486">
        <ele>2203</ele>
        <time>2019-03-19T11:27:50Z</time>
      </trkpt>
      <trkpt lat="45.98717" lon="6.58486">
        <ele>2203</ele>
        <time>2019-03-19T11:27:51Z</time>
      </trkpt>
      <trkpt lat="45.98717" lon="6.58492">
        <ele>2206.36</ele>
        <time>2019-03-19T11:28:06Z</time>
      </trkpt>
      <trkpt lat="45.98714" lon="6.58497">
        <ele>2208.29</ele>
        <time>2019-03-19T11:28:17Z</time>
      </trkpt>
      <trkpt lat="45.98716" lon="6.58502">
        <ele>2210.69</ele>
        <time>2019-03-19T11:28:28Z</time>
      </trkpt>
      <trkpt lat="45.98718" lon="6.58503">
        <ele>2211.17</ele>
        <time>2019-03-19T11:28:31Z</time>
      </trkpt>
      <trkpt lat="45.98721" lon="6.58511">
        <ele>2214.53</ele>
        <time>2019-03-19T11:28:44Z</time>
      </trkpt>
      <trkpt lat="45.9872" lon="6.58516">
        <ele>2217.42</ele>
        <time>2019-03-19T11:28:56Z</time>
      </trkpt>
      <trkpt lat="45.98714" lon="6.58526">
        <ele>2220.3</ele>
        <time>2019-03-19T11:29:09Z</time>
      </trkpt>
      <trkpt lat="45.98711" lon="6.58531">
        <ele>2223.67</ele>
        <time>2019-03-19T11:29:21Z</time>
      </trkpt>
      <trkpt lat="45.98709" lon="6.58527">
        <ele>2225.59</ele>
        <time>2019-03-19T11:29:30Z</time>
      </trkpt>
      <trkpt lat="45.98708" lon="6.58527">
        <ele>2226.07</ele>
        <time>2019-03-19T11:29:31Z</time>
      </trkpt>
      <trkpt lat="45.98704" lon="6.58524">
        <ele>2227.51</ele>
        <time>2019-03-19T11:29:41Z</time>
      </trkpt>
      <trkpt lat="45.98702" lon="6.5852">
        <ele>2227.99</ele>
        <time>2019-03-19T11:29:45Z</time>
      </trkpt>
      <trkpt lat="45.98702" lon="6.58519">
        <ele>2228.47</ele>
        <time>2019-03-19T11:29:47Z</time>
      </trkpt>
      <trkpt lat="45.98703" lon="6.5852">
        <ele>2228.95</ele>
        <time>2019-03-19T11:29:48Z</time>
      </trkpt>
      <trkpt lat="45.98703" lon="6.58516">
        <ele>2230.4</ele>
        <time>2019-03-19T11:29:57Z</time>
      </trkpt>
      <trkpt lat="45.98703" lon="6.58514">
        <ele>2230.88</ele>
        <time>2019-03-19T11:29:58Z</time>
      </trkpt>
      <trkpt lat="45.98701" lon="6.58511">
        <ele>2231.84</ele>
        <time>2019-03-19T11:30:02Z</time>
      </trkpt>
      <trkpt lat="45.98702" lon="6.58516">
        <ele>2233.28</ele>
        <time>2019-03-19T11:30:10Z</time>
      </trkpt>
      <trkpt lat="45.98704" lon="6.58523">
        <ele>2234.72</ele>
        <time>2019-03-19T11:30:17Z</time>
      </trkpt>
      <trkpt lat="45.98706" lon="6.58525">
        <ele>2235.2</ele>
        <time>2019-03-19T11:30:21Z</time>
      </trkpt>
      <trkpt lat="45.98692" lon="6.58539">
        <ele>2238.57</ele>
        <time>2019-03-19T11:30:38Z</time>
      </trkpt>
      <trkpt lat="45.98665" lon="6.58501">
        <ele>2241.45</ele>
        <time>2019-03-19T11:30:54Z</time>
      </trkpt>
      <trkpt lat="45.98665" lon="6.58499">
        <ele>2241.93</ele>
        <time>2019-03-19T11:30:56Z</time>
      </trkpt>
      <trkpt lat="45.98663" lon="6.58496">
        <ele>2241.93</ele>
        <time>2019-03-19T11:30:58Z</time>
      </trkpt>
      <trkpt lat="45.98664" lon="6.58496">
        <ele>2243.85</ele>
        <time>2019-03-19T11:31:07Z</time>
      </trkpt>
      <trkpt lat="45.98663" lon="6.58496">
        <ele>2244.82</ele>
        <time>2019-03-19T11:31:10Z</time>
      </trkpt>
      <trkpt lat="45.98663" lon="6.58495">
        <ele>2244.82</ele>
        <time>2019-03-19T11:31:11Z</time>
      </trkpt>
      <trkpt lat="45.9866" lon="6.58491">
        <ele>2245.78</ele>
        <time>2019-03-19T11:31:19Z</time>
      </trkpt>
      <trkpt lat="45.98659" lon="6.58492">
        <ele>2247.22</ele>
        <time>2019-03-19T11:31:27Z</time>
      </trkpt>
      <trkpt lat="45.98655" lon="6.58481">
        <ele>2249.62</ele>
        <time>2019-03-19T11:31:38Z</time>
      </trkpt>
      <trkpt lat="45.98653" lon="6.58482">
        <ele>2250.1</ele>
        <time>2019-03-19T11:31:44Z</time>
      </trkpt>
      <trkpt lat="45.9865" lon="6.58479">
        <ele>2252.03</ele>
        <time>2019-03-19T11:31:52Z</time>
      </trkpt>
      <trkpt lat="45.98647" lon="6.58479">
        <ele>2254.91</ele>
        <time>2019-03-19T11:32:08Z</time>
      </trkpt>
      <trkpt lat="45.98646" lon="6.58478">
        <ele>2254.91</ele>
        <time>2019-03-19T11:32:09Z</time>
      </trkpt>
      <trkpt lat="45.98645" lon="6.58479">
        <ele>2258.27</ele>
        <time>2019-03-19T11:32:24Z</time>
      </trkpt>
      <trkpt lat="45.98646" lon="6.58481">
        <ele>2258.75</ele>
        <time>2019-03-19T11:32:26Z</time>
      </trkpt>
      <trkpt lat="45.98648" lon="6.58483">
        <ele>2259.24</ele>
        <time>2019-03-19T11:32:37Z</time>
      </trkpt>
      <trkpt lat="45.98647" lon="6.58482">
        <ele>2259.72</ele>
        <time>2019-03-19T11:32:39Z</time>
      </trkpt>
      <trkpt lat="45.98649" lon="6.58481">
        <ele>2259.72</ele>
        <time>2019-03-19T11:32:42Z</time>
      </trkpt>
      <trkpt lat="45.9865" lon="6.58481">
        <ele>2259.72</ele>
        <time>2019-03-19T11:32:45Z</time>
      </trkpt>
      <trkpt lat="45.98648" lon="6.58477">
        <ele>2262.12</ele>
        <time>2019-03-19T11:32:57Z</time>
      </trkpt>
      <trkpt lat="45.98648" lon="6.5847">
        <ele>2264.04</ele>
        <time>2019-03-19T11:33:05Z</time>
      </trkpt>
      <trkpt lat="45.98649" lon="6.5847">
        <ele>2264.52</ele>
        <time>2019-03-19T11:33:06Z</time>
      </trkpt>
      <trkpt lat="45.98651" lon="6.58454">
        <ele>2266.93</ele>
        <time>2019-03-19T11:33:18Z</time>
      </trkpt>
      <trkpt lat="45.98656" lon="6.58448">
        <ele>2267.41</ele>
        <time>2019-03-19T11:35:30Z</time>
      </trkpt>
      <trkpt lat="45.98659" lon="6.5845">
        <ele>2266.93</ele>
        <time>2019-03-19T11:36:16Z</time>
      </trkpt>
      <trkpt lat="45.98659" lon="6.5845">
        <ele>2266.93</ele>
        <time>2019-03-19T11:36:50Z</time>
      </trkpt>
      <trkpt lat="45.98659" lon="6.58449">
        <ele>2266.93</ele>
        <time>2019-03-19T11:37:28Z</time>
      </trkpt>
      <trkpt lat="45.98659" lon="6.5845">
        <ele>2266.93</ele>
        <time>2019-03-19T11:38:13Z</time>
      </trkpt>
      <trkpt lat="45.98658" lon="6.58448">
        <ele>2268.37</ele>
        <time>2019-03-19T11:40:01Z</time>
      </trkpt>
      <trkpt lat="45.98655" lon="6.58447">
        <ele>2269.33</ele>
        <time>2019-03-19T11:40:26Z</time>
      </trkpt>
      <trkpt lat="45.98658" lon="6.58451">
        <ele>2265.96</ele>
        <time>2019-03-19T11:43:12Z</time>
      </trkpt>
      <trkpt lat="45.98659" lon="6.58446">
        <ele>2263.08</ele>
        <time>2019-03-19T11:43:41Z</time>
      </trkpt>
      <trkpt lat="45.98658" lon="6.58444">
        <ele>2263.08</ele>
        <time>2019-03-19T11:43:50Z</time>
      </trkpt>
      <trkpt lat="45.9866" lon="6.5844">
        <ele>2260.68</ele>
        <time>2019-03-19T11:45:23Z</time>
      </trkpt>
      <trkpt lat="45.9866" lon="6.58443">
        <ele>2260.2</ele>
        <time>2019-03-19T11:45:43Z</time>
      </trkpt>
      <trkpt lat="45.9866" lon="6.58442">
        <ele>2260.68</ele>
        <time>2019-03-19T11:45:47Z</time>
      </trkpt>
      <trkpt lat="45.98655" lon="6.58439">
        <ele>2259.72</ele>
        <time>2019-03-19T11:46:45Z</time>
      </trkpt>
      <trkpt lat="45.98661" lon="6.5843">
        <ele>2259.72</ele>
        <time>2019-03-19T11:48:07Z</time>
      </trkpt>
      <trkpt lat="45.9866" lon="6.58439">
        <ele>2259.24</ele>
        <time>2019-03-19T11:49:06Z</time>
      </trkpt>
      <trkpt lat="45.98663" lon="6.58443">
        <ele>2259.72</ele>
        <time>2019-03-19T11:49:32Z</time>
      </trkpt>
      <trkpt lat="45.98663" lon="6.58433">
        <ele>2257.79</ele>
        <time>2019-03-19T11:50:22Z</time>
      </trkpt>
      <trkpt lat="45.98664" lon="6.58431">
        <ele>2256.83</ele>
        <time>2019-03-19T11:50:23Z</time>
      </trkpt>
      <trkpt lat="45.98664" lon="6.58429">
        <ele>2255.39</ele>
        <time>2019-03-19T11:50:25Z</time>
      </trkpt>
      <trkpt lat="45.98664" lon="6.58428">
        <ele>2254.91</ele>
        <time>2019-03-19T11:50:26Z</time>
      </trkpt>
      <trkpt lat="45.98663" lon="6.58427">
        <ele>2254.43</ele>
        <time>2019-03-19T11:50:27Z</time>
      </trkpt>
      <trkpt lat="45.98662" lon="6.58425">
        <ele>2253.47</ele>
        <time>2019-03-19T11:50:28Z</time>
      </trkpt>
      <trkpt lat="45.98662" lon="6.58423">
        <ele>2252.51</ele>
        <time>2019-03-19T11:50:29Z</time>
      </trkpt>
      <trkpt lat="45.98663" lon="6.58421">
        <ele>2251.06</ele>
        <time>2019-03-19T11:50:30Z</time>
      </trkpt>
      <trkpt lat="45.98663" lon="6.58417">
        <ele>2249.62</ele>
        <time>2019-03-19T11:50:31Z</time>
      </trkpt>
      <trkpt lat="45.98664" lon="6.58413">
        <ele>2248.18</ele>
        <time>2019-03-19T11:50:32Z</time>
      </trkpt>
      <trkpt lat="45.98663" lon="6.5841">
        <ele>2246.26</ele>
        <time>2019-03-19T11:50:33Z</time>
      </trkpt>
      <trkpt lat="45.98663" lon="6.58406">
        <ele>2244.82</ele>
        <time>2019-03-19T11:50:34Z</time>
      </trkpt>
      <trkpt lat="45.98663" lon="6.58402">
        <ele>2242.89</ele>
        <time>2019-03-19T11:50:35Z</time>
      </trkpt>
      <trkpt lat="45.98664" lon="6.58397">
        <ele>2240.97</ele>
        <time>2019-03-19T11:50:36Z</time>
      </trkpt>
      <trkpt lat="45.98669" lon="6.58388">
        <ele>2237.61</ele>
        <time>2019-03-19T11:50:39Z</time>
      </trkpt>
      <trkpt lat="45.98668" lon="6.58384">
        <ele>2236.16</ele>
        <time>2019-03-19T11:50:40Z</time>
      </trkpt>
      <trkpt lat="45.98669" lon="6.5838">
        <ele>2234.72</ele>
        <time>2019-03-19T11:50:41Z</time>
      </trkpt>
      <trkpt lat="45.98669" lon="6.58377">
        <ele>2232.8</ele>
        <time>2019-03-19T11:50:42Z</time>
      </trkpt>
      <trkpt lat="45.98669" lon="6.58374">
        <ele>2231.36</ele>
        <time>2019-03-19T11:50:43Z</time>
      </trkpt>
      <trkpt lat="45.98668" lon="6.58369">
        <ele>2230.4</ele>
        <time>2019-03-19T11:50:44Z</time>
      </trkpt>
      <trkpt lat="45.98669" lon="6.58366">
        <ele>2227.99</ele>
        <time>2019-03-19T11:50:45Z</time>
      </trkpt>
      <trkpt lat="45.98669" lon="6.58363">
        <ele>2226.07</ele>
        <time>2019-03-19T11:50:46Z</time>
      </trkpt>
      <trkpt lat="45.98668" lon="6.58361">
        <ele>2224.63</ele>
        <time>2019-03-19T11:50:47Z</time>
      </trkpt>
      <trkpt lat="45.98668" lon="6.58361">
        <ele>2222.71</ele>
        <time>2019-03-19T11:50:48Z</time>
      </trkpt>
      <trkpt lat="45.98668" lon="6.5836">
        <ele>2221.26</ele>
        <time>2019-03-19T11:50:49Z</time>
      </trkpt>
      <trkpt lat="45.98668" lon="6.58352">
        <ele>2217.9</ele>
        <time>2019-03-19T11:50:52Z</time>
      </trkpt>
      <trkpt lat="45.98668" lon="6.58349">
        <ele>2214.53</ele>
        <time>2019-03-19T11:50:54Z</time>
      </trkpt>
      <trkpt lat="45.98674" lon="6.58337">
        <ele>2211.17</ele>
        <time>2019-03-19T11:51:07Z</time>
      </trkpt>
      <trkpt lat="45.98676" lon="6.5833">
        <ele>2207.81</ele>
        <time>2019-03-19T11:51:10Z</time>
      </trkpt>
      <trkpt lat="45.98678" lon="6.5832">
        <ele>2203.96</ele>
        <time>2019-03-19T11:51:13Z</time>
      </trkpt>
      <trkpt lat="45.98679" lon="6.5831">
        <ele>2200.59</ele>
        <time>2019-03-19T11:51:16Z</time>
      </trkpt>
      <trkpt lat="45.98678" lon="6.58308">
        <ele>2199.63</ele>
        <time>2019-03-19T11:51:17Z</time>
      </trkpt>
      <trkpt lat="45.98679" lon="6.58307">
        <ele>2198.67</ele>
        <time>2019-03-19T11:51:18Z</time>
      </trkpt>
      <trkpt lat="45.9868" lon="6.58306">
        <ele>2197.71</ele>
        <time>2019-03-19T11:51:19Z</time>
      </trkpt>
      <trkpt lat="45.98682" lon="6.58304">
        <ele>2197.23</ele>
        <time>2019-03-19T11:51:20Z</time>
      </trkpt>
      <trkpt lat="45.98683" lon="6.58303">
        <ele>2196.27</ele>
        <time>2019-03-19T11:51:21Z</time>
      </trkpt>
      <trkpt lat="45.98683" lon="6.58301">
        <ele>2193.39</ele>
        <time>2019-03-19T11:51:26Z</time>
      </trkpt>
      <trkpt lat="45.98681" lon="6.58298">
        <ele>2192.42</ele>
        <time>2019-03-19T11:51:29Z</time>
      </trkpt>
      <trkpt lat="45.98675" lon="6.58292">
        <ele>2191.94</ele>
        <time>2019-03-19T11:51:32Z</time>
      </trkpt>
      <trkpt lat="45.98673" lon="6.5829">
        <ele>2191.46</ele>
        <time>2019-03-19T11:51:33Z</time>
      </trkpt>
      <trkpt lat="45.98673" lon="6.58289">
        <ele>2190.98</ele>
        <time>2019-03-19T11:51:34Z</time>
      </trkpt>
      <trkpt lat="45.9867" lon="6.58282">
        <ele>2187.62</ele>
        <time>2019-03-19T11:51:46Z</time>
      </trkpt>
      <trkpt lat="45.9867" lon="6.58275">
        <ele>2186.18</ele>
        <time>2019-03-19T11:51:52Z</time>
      </trkpt>
      <trkpt lat="45.98669" lon="6.58273">
        <ele>2185.69</ele>
        <time>2019-03-19T11:51:53Z</time>
      </trkpt>
      <trkpt lat="45.98668" lon="6.58269">
        <ele>2182.81</ele>
        <time>2019-03-19T11:51:58Z</time>
      </trkpt>
      <trkpt lat="45.98667" lon="6.58268">
        <ele>2182.33</ele>
        <time>2019-03-19T11:51:59Z</time>
      </trkpt>
      <trkpt lat="45.98666" lon="6.58263">
        <ele>2180.89</ele>
        <time>2019-03-19T11:52:03Z</time>
      </trkpt>
      <trkpt lat="45.98666" lon="6.58262">
        <ele>2180.89</ele>
        <time>2019-03-19T11:52:04Z</time>
      </trkpt>
      <trkpt lat="45.98666" lon="6.58261">
        <ele>2179.93</ele>
        <time>2019-03-19T11:52:05Z</time>
      </trkpt>
      <trkpt lat="45.98669" lon="6.58251">
        <ele>2176.56</ele>
        <time>2019-03-19T11:52:09Z</time>
      </trkpt>
      <trkpt lat="45.98668" lon="6.58246">
        <ele>2173.2</ele>
        <time>2019-03-19T11:52:17Z</time>
      </trkpt>
      <trkpt lat="45.98667" lon="6.58245">
        <ele>2173.2</ele>
        <time>2019-03-19T11:52:18Z</time>
      </trkpt>
      <trkpt lat="45.98666" lon="6.58241">
        <ele>2170.79</ele>
        <time>2019-03-19T11:52:23Z</time>
      </trkpt>
      <trkpt lat="45.98665" lon="6.58241">
        <ele>2170.31</ele>
        <time>2019-03-19T11:52:24Z</time>
      </trkpt>
      <trkpt lat="45.98666" lon="6.58238">
        <ele>2169.35</ele>
        <time>2019-03-19T11:52:29Z</time>
      </trkpt>
      <trkpt lat="45.98667" lon="6.58237">
        <ele>2168.39</ele>
        <time>2019-03-19T11:52:30Z</time>
      </trkpt>
      <trkpt lat="45.98666" lon="6.58235">
        <ele>2167.91</ele>
        <time>2019-03-19T11:52:31Z</time>
      </trkpt>
      <trkpt lat="45.98668" lon="6.58231">
        <ele>2167.43</ele>
        <time>2019-03-19T11:52:32Z</time>
      </trkpt>
      <trkpt lat="45.98667" lon="6.58231">
        <ele>2166.47</ele>
        <time>2019-03-19T11:52:33Z</time>
      </trkpt>
      <trkpt lat="45.98665" lon="6.58228">
        <ele>2164.55</ele>
        <time>2019-03-19T11:52:36Z</time>
      </trkpt>
      <trkpt lat="45.98666" lon="6.58227">
        <ele>2164.06</ele>
        <time>2019-03-19T11:52:37Z</time>
      </trkpt>
      <trkpt lat="45.98665" lon="6.58225">
        <ele>2163.1</ele>
        <time>2019-03-19T11:52:40Z</time>
      </trkpt>
      <trkpt lat="45.98664" lon="6.58216">
        <ele>2159.74</ele>
        <time>2019-03-19T11:52:47Z</time>
      </trkpt>
      <trkpt lat="45.98663" lon="6.58212">
        <ele>2157.82</ele>
        <time>2019-03-19T11:52:50Z</time>
      </trkpt>
      <trkpt lat="45.98662" lon="6.5821">
        <ele>2157.34</ele>
        <time>2019-03-19T11:52:51Z</time>
      </trkpt>
      <trkpt lat="45.98663" lon="6.58207">
        <ele>2156.37</ele>
        <time>2019-03-19T11:52:52Z</time>
      </trkpt>
      <trkpt lat="45.98664" lon="6.58204">
        <ele>2155.89</ele>
        <time>2019-03-19T11:52:53Z</time>
      </trkpt>
      <trkpt lat="45.98663" lon="6.58201">
        <ele>2153.97</ele>
        <time>2019-03-19T11:52:56Z</time>
      </trkpt>
      <trkpt lat="45.98662" lon="6.58195">
        <ele>2151.57</ele>
        <time>2019-03-19T11:53:02Z</time>
      </trkpt>
      <trkpt lat="45.98661" lon="6.58193">
        <ele>2150.61</ele>
        <time>2019-03-19T11:53:04Z</time>
      </trkpt>
      <trkpt lat="45.98661" lon="6.58191">
        <ele>2149.16</ele>
        <time>2019-03-19T11:53:08Z</time>
      </trkpt>
      <trkpt lat="45.98661" lon="6.58189">
        <ele>2149.16</ele>
        <time>2019-03-19T11:53:09Z</time>
      </trkpt>
      <trkpt lat="45.98662" lon="6.58188">
        <ele>2148.68</ele>
        <time>2019-03-19T11:53:10Z</time>
      </trkpt>
      <trkpt lat="45.98664" lon="6.58186">
        <ele>2147.24</ele>
        <time>2019-03-19T11:53:13Z</time>
      </trkpt>
      <trkpt lat="45.98665" lon="6.5818">
        <ele>2146.76</ele>
        <time>2019-03-19T11:53:17Z</time>
      </trkpt>
      <trkpt lat="45.98666" lon="6.58175">
        <ele>2146.28</ele>
        <time>2019-03-19T11:53:18Z</time>
      </trkpt>
      <trkpt lat="45.98667" lon="6.58172">
        <ele>2144.84</ele>
        <time>2019-03-19T11:53:19Z</time>
      </trkpt>
      <trkpt lat="45.98667" lon="6.58169">
        <ele>2142.44</ele>
        <time>2019-03-19T11:53:20Z</time>
      </trkpt>
      <trkpt lat="45.98666" lon="6.58167">
        <ele>2140.99</ele>
        <time>2019-03-19T11:53:21Z</time>
      </trkpt>
      <trkpt lat="45.98666" lon="6.58162">
        <ele>2138.59</ele>
        <time>2019-03-19T11:53:22Z</time>
      </trkpt>
      <trkpt lat="45.98666" lon="6.58156">
        <ele>2135.23</ele>
        <time>2019-03-19T11:53:24Z</time>
      </trkpt>
      <trkpt lat="45.9867" lon="6.58142">
        <ele>2130.9</ele>
        <time>2019-03-19T11:53:27Z</time>
      </trkpt>
      <trkpt lat="45.98672" lon="6.58131">
        <ele>2126.57</ele>
        <time>2019-03-19T11:53:29Z</time>
      </trkpt>
      <trkpt lat="45.98674" lon="6.58126">
        <ele>2122.73</ele>
        <time>2019-03-19T11:53:31Z</time>
      </trkpt>
      <trkpt lat="45.98674" lon="6.58125">
        <ele>2120.32</ele>
        <time>2019-03-19T11:53:34Z</time>
      </trkpt>
      <trkpt lat="45.98678" lon="6.58125">
        <ele>2119.36</ele>
        <time>2019-03-19T11:53:49Z</time>
      </trkpt>
      <trkpt lat="45.98681" lon="6.58126">
        <ele>2119.36</ele>
        <time>2019-03-19T11:53:54Z</time>
      </trkpt>
      <trkpt lat="45.98688" lon="6.5813">
        <ele>2119.36</ele>
        <time>2019-03-19T11:54:09Z</time>
      </trkpt>
      <trkpt lat="45.98689" lon="6.58131">
        <ele>2119.36</ele>
        <time>2019-03-19T11:54:10Z</time>
      </trkpt>
      <trkpt lat="45.98693" lon="6.58136">
        <ele>2118.88</ele>
        <time>2019-03-19T11:55:09Z</time>
      </trkpt>
      <trkpt lat="45.98692" lon="6.58132">
        <ele>2118.4</ele>
        <time>2019-03-19T11:55:16Z</time>
      </trkpt>
      <trkpt lat="45.98687" lon="6.58125">
        <ele>2115.04</ele>
        <time>2019-03-19T11:55:21Z</time>
      </trkpt>
      <trkpt lat="45.98686" lon="6.58124">
        <ele>2114.08</ele>
        <time>2019-03-19T11:55:22Z</time>
      </trkpt>
      <trkpt lat="45.98685" lon="6.58121">
        <ele>2113.6</ele>
        <time>2019-03-19T11:55:23Z</time>
      </trkpt>
      <trkpt lat="45.98685" lon="6.58118">
        <ele>2112.63</ele>
        <time>2019-03-19T11:55:24Z</time>
      </trkpt>
      <trkpt lat="45.98685" lon="6.58115">
        <ele>2111.67</ele>
        <time>2019-03-19T11:55:25Z</time>
      </trkpt>
      <trkpt lat="45.98685" lon="6.58115">
        <ele>2110.71</ele>
        <time>2019-03-19T11:55:26Z</time>
      </trkpt>
      <trkpt lat="45.98686" lon="6.58108">
        <ele>2107.83</ele>
        <time>2019-03-19T11:55:29Z</time>
      </trkpt>
      <trkpt lat="45.98686" lon="6.58105">
        <ele>2106.87</ele>
        <time>2019-03-19T11:55:30Z</time>
      </trkpt>
      <trkpt lat="45.98687" lon="6.58103">
        <ele>2105.42</ele>
        <time>2019-03-19T11:55:32Z</time>
      </trkpt>
      <trkpt lat="45.9869" lon="6.58097">
        <ele>2102.06</ele>
        <time>2019-03-19T11:55:38Z</time>
      </trkpt>
      <trkpt lat="45.98691" lon="6.58094">
        <ele>2101.1</ele>
        <time>2019-03-19T11:55:41Z</time>
      </trkpt>
      <trkpt lat="45.98693" lon="6.58089">
        <ele>2099.66</ele>
        <time>2019-03-19T11:55:46Z</time>
      </trkpt>
      <trkpt lat="45.98694" lon="6.58083">
        <ele>2097.73</ele>
        <time>2019-03-19T11:55:54Z</time>
      </trkpt>
      <trkpt lat="45.98695" lon="6.58082">
        <ele>2097.25</ele>
        <time>2019-03-19T11:55:55Z</time>
      </trkpt>
      <trkpt lat="45.98695" lon="6.5808">
        <ele>2096.77</ele>
        <time>2019-03-19T11:55:56Z</time>
      </trkpt>
      <trkpt lat="45.98696" lon="6.5808">
        <ele>2096.29</ele>
        <time>2019-03-19T11:55:57Z</time>
      </trkpt>
      <trkpt lat="45.98692" lon="6.58075">
        <ele>2093.41</ele>
        <time>2019-03-19T11:56:08Z</time>
      </trkpt>
      <trkpt lat="45.98692" lon="6.5807">
        <ele>2092.93</ele>
        <time>2019-03-19T11:56:09Z</time>
      </trkpt>
      <trkpt lat="45.98692" lon="6.58068">
        <ele>2091.97</ele>
        <time>2019-03-19T11:56:10Z</time>
      </trkpt>
      <trkpt lat="45.98692" lon="6.58065">
        <ele>2091</ele>
        <time>2019-03-19T11:56:11Z</time>
      </trkpt>
      <trkpt lat="45.98691" lon="6.58062">
        <ele>2089.56</ele>
        <time>2019-03-19T11:56:12Z</time>
      </trkpt>
      <trkpt lat="45.9869" lon="6.58058">
        <ele>2088.6</ele>
        <time>2019-03-19T11:56:13Z</time>
      </trkpt>
      <trkpt lat="45.9869" lon="6.58054">
        <ele>2087.16</ele>
        <time>2019-03-19T11:56:14Z</time>
      </trkpt>
      <trkpt lat="45.98689" lon="6.58051">
        <ele>2085.72</ele>
        <time>2019-03-19T11:56:15Z</time>
      </trkpt>
      <trkpt lat="45.98689" lon="6.58046">
        <ele>2084.76</ele>
        <time>2019-03-19T11:56:16Z</time>
      </trkpt>
      <trkpt lat="45.98688" lon="6.58043">
        <ele>2083.31</ele>
        <time>2019-03-19T11:56:17Z</time>
      </trkpt>
      <trkpt lat="45.98689" lon="6.58035">
        <ele>2078.99</ele>
        <time>2019-03-19T11:56:20Z</time>
      </trkpt>
      <trkpt lat="45.98688" lon="6.58032">
        <ele>2078.51</ele>
        <time>2019-03-19T11:56:21Z</time>
      </trkpt>
      <trkpt lat="45.98688" lon="6.58028">
        <ele>2077.55</ele>
        <time>2019-03-19T11:56:22Z</time>
      </trkpt>
      <trkpt lat="45.98689" lon="6.58024">
        <ele>2075.62</ele>
        <time>2019-03-19T11:56:23Z</time>
      </trkpt>
      <trkpt lat="45.9869" lon="6.5802">
        <ele>2073.7</ele>
        <time>2019-03-19T11:56:24Z</time>
      </trkpt>
      <trkpt lat="45.98691" lon="6.58017">
        <ele>2072.74</ele>
        <time>2019-03-19T11:56:25Z</time>
      </trkpt>
      <trkpt lat="45.98692" lon="6.58015">
        <ele>2071.78</ele>
        <time>2019-03-19T11:56:26Z</time>
      </trkpt>
      <trkpt lat="45.98693" lon="6.58016">
        <ele>2069.86</ele>
        <time>2019-03-19T11:56:27Z</time>
      </trkpt>
      <trkpt lat="45.98693" lon="6.58012">
        <ele>2068.41</ele>
        <time>2019-03-19T11:56:30Z</time>
      </trkpt>
      <trkpt lat="45.98694" lon="6.5801">
        <ele>2067.93</ele>
        <time>2019-03-19T11:56:31Z</time>
      </trkpt>
      <trkpt lat="45.98694" lon="6.58008">
        <ele>2066.49</ele>
        <time>2019-03-19T11:56:32Z</time>
      </trkpt>
      <trkpt lat="45.98694" lon="6.58005">
        <ele>2066.01</ele>
        <time>2019-03-19T11:56:33Z</time>
      </trkpt>
      <trkpt lat="45.98694" lon="6.58004">
        <ele>2065.05</ele>
        <time>2019-03-19T11:56:34Z</time>
      </trkpt>
      <trkpt lat="45.98694" lon="6.58001">
        <ele>2063.61</ele>
        <time>2019-03-19T11:56:35Z</time>
      </trkpt>
      <trkpt lat="45.98694" lon="6.57999">
        <ele>2062.65</ele>
        <time>2019-03-19T11:56:36Z</time>
      </trkpt>
      <trkpt lat="45.98695" lon="6.57997">
        <ele>2061.2</ele>
        <time>2019-03-19T11:56:37Z</time>
      </trkpt>
      <trkpt lat="45.98695" lon="6.57994">
        <ele>2059.76</ele>
        <time>2019-03-19T11:56:38Z</time>
      </trkpt>
      <trkpt lat="45.98694" lon="6.57991">
        <ele>2058.8</ele>
        <time>2019-03-19T11:56:39Z</time>
      </trkpt>
      <trkpt lat="45.98693" lon="6.57988">
        <ele>2057.84</ele>
        <time>2019-03-19T11:56:40Z</time>
      </trkpt>
      <trkpt lat="45.98692" lon="6.57986">
        <ele>2056.88</ele>
        <time>2019-03-19T11:56:41Z</time>
      </trkpt>
      <trkpt lat="45.98692" lon="6.57985">
        <ele>2054.47</ele>
        <time>2019-03-19T11:56:45Z</time>
      </trkpt>
      <trkpt lat="45.98691" lon="6.57982">
        <ele>2053.99</ele>
        <time>2019-03-19T11:56:58Z</time>
      </trkpt>
      <trkpt lat="45.98691" lon="6.57978">
        <ele>2053.99</ele>
        <time>2019-03-19T11:56:59Z</time>
      </trkpt>
      <trkpt lat="45.9869" lon="6.57972">
        <ele>2053.03</ele>
        <time>2019-03-19T11:57:00Z</time>
      </trkpt>
      <trkpt lat="45.98689" lon="6.57964">
        <ele>2051.59</ele>
        <time>2019-03-19T11:57:01Z</time>
      </trkpt>
      <trkpt lat="45.98687" lon="6.57958">
        <ele>2050.63</ele>
        <time>2019-03-19T11:57:02Z</time>
      </trkpt>
      <trkpt lat="45.98686" lon="6.57954">
        <ele>2049.19</ele>
        <time>2019-03-19T11:57:03Z</time>
      </trkpt>
      <trkpt lat="45.98686" lon="6.57952">
        <ele>2046.78</ele>
        <time>2019-03-19T11:57:06Z</time>
      </trkpt>
      <trkpt lat="45.98685" lon="6.5795">
        <ele>2046.3</ele>
        <time>2019-03-19T11:57:07Z</time>
      </trkpt>
      <trkpt lat="45.98686" lon="6.57944">
        <ele>2045.82</ele>
        <time>2019-03-19T11:57:10Z</time>
      </trkpt>
      <trkpt lat="45.98686" lon="6.57943">
        <ele>2045.82</ele>
        <time>2019-03-19T11:57:11Z</time>
      </trkpt>
      <trkpt lat="45.9867" lon="6.57943">
        <ele>2045.34</ele>
        <time>2019-03-19T11:57:26Z</time>
      </trkpt>
      <trkpt lat="45.9864" lon="6.5796">
        <ele>2041.98</ele>
        <time>2019-03-19T11:57:30Z</time>
      </trkpt>
      <trkpt lat="45.9862" lon="6.5796">
        <ele>2039.09</ele>
        <time>2019-03-19T11:57:38Z</time>
      </trkpt>
      <trkpt lat="45.98625" lon="6.57946">
        <ele>2036.21</ele>
        <time>2019-03-19T11:57:42Z</time>
      </trkpt>
      <trkpt lat="45.98641" lon="6.57946">
        <ele>2032.84</ele>
        <time>2019-03-19T11:57:48Z</time>
      </trkpt>
      <trkpt lat="45.98655" lon="6.57966">
        <ele>2033.81</ele>
        <time>2019-03-19T11:57:57Z</time>
      </trkpt>
      <trkpt lat="45.98656" lon="6.57968">
        <ele>2033.81</ele>
        <time>2019-03-19T11:57:58Z</time>
      </trkpt>
      <trkpt lat="45.98657" lon="6.57971">
        <ele>2033.33</ele>
        <time>2019-03-19T11:58:05Z</time>
      </trkpt>
      <trkpt lat="45.98656" lon="6.57976">
        <ele>2033.33</ele>
        <time>2019-03-19T11:58:20Z</time>
      </trkpt>
      <trkpt lat="45.98647" lon="6.57982">
        <ele>2033.33</ele>
        <time>2019-03-19T11:58:49Z</time>
      </trkpt>
      <trkpt lat="45.98643" lon="6.57982">
        <ele>2033.33</ele>
        <time>2019-03-19T11:59:01Z</time>
      </trkpt>
      <trkpt lat="45.9864" lon="6.57987">
        <ele>2032.84</ele>
        <time>2019-03-19T11:59:35Z</time>
      </trkpt>
      <trkpt lat="45.98638" lon="6.57988">
        <ele>2033.33</ele>
        <time>2019-03-19T12:00:04Z</time>
      </trkpt>
      <trkpt lat="45.98637" lon="6.57989">
        <ele>2033.81</ele>
        <time>2019-03-19T12:00:45Z</time>
      </trkpt>
      <trkpt lat="45.98638" lon="6.57985">
        <ele>2033.81</ele>
        <time>2019-03-19T12:02:40Z</time>
      </trkpt>
      <trkpt lat="45.98637" lon="6.57979">
        <ele>2033.81</ele>
        <time>2019-03-19T12:03:05Z</time>
      </trkpt>
      <trkpt lat="45.98637" lon="6.57978">
        <ele>2034.29</ele>
        <time>2019-03-19T12:03:06Z</time>
      </trkpt>
      <trkpt lat="45.98636" lon="6.57941">
        <ele>2036.69</ele>
        <time>2019-03-19T12:03:26Z</time>
      </trkpt>
      <trkpt lat="45.98637" lon="6.57939">
        <ele>2036.69</ele>
        <time>2019-03-19T12:03:27Z</time>
      </trkpt>
      <trkpt lat="45.98636" lon="6.57937">
        <ele>2036.69</ele>
        <time>2019-03-19T12:03:28Z</time>
      </trkpt>
      <trkpt lat="45.98636" lon="6.57935">
        <ele>2037.17</ele>
        <time>2019-03-19T12:03:29Z</time>
      </trkpt>
      <trkpt lat="45.98636" lon="6.57933">
        <ele>2037.17</ele>
        <time>2019-03-19T12:03:30Z</time>
      </trkpt>
      <trkpt lat="45.98636" lon="6.57931">
        <ele>2037.17</ele>
        <time>2019-03-19T12:03:31Z</time>
      </trkpt>
      <trkpt lat="45.98636" lon="6.57929">
        <ele>2037.17</ele>
        <time>2019-03-19T12:03:32Z</time>
      </trkpt>
      <trkpt lat="45.98636" lon="6.57927">
        <ele>2037.17</ele>
        <time>2019-03-19T12:03:33Z</time>
      </trkpt>
      <trkpt lat="45.98636" lon="6.57925">
        <ele>2037.65</ele>
        <time>2019-03-19T12:03:34Z</time>
      </trkpt>
      <trkpt lat="45.98636" lon="6.57923">
        <ele>2037.65</ele>
        <time>2019-03-19T12:03:35Z</time>
      </trkpt>
      <trkpt lat="45.98638" lon="6.57878">
        <ele>2041.02</ele>
        <time>2019-03-19T12:03:58Z</time>
      </trkpt>
      <trkpt lat="45.98641" lon="6.57854">
        <ele>2041.02</ele>
        <time>2019-03-19T12:04:09Z</time>
      </trkpt>
      <trkpt lat="45.98641" lon="6.57853">
        <ele>2041.02</ele>
        <time>2019-03-19T12:04:10Z</time>
      </trkpt>
      <trkpt lat="45.98645" lon="6.57827">
        <ele>2043.42</ele>
        <time>2019-03-19T12:04:24Z</time>
      </trkpt>
      <trkpt lat="45.98652" lon="6.57808">
        <ele>2046.3</ele>
        <time>2019-03-19T12:04:38Z</time>
      </trkpt>
      <trkpt lat="45.98659" lon="6.57788">
        <ele>2048.71</ele>
        <time>2019-03-19T12:04:52Z</time>
      </trkpt>
      <trkpt lat="45.98659" lon="6.57787">
        <ele>2049.19</ele>
        <time>2019-03-19T12:04:53Z</time>
      </trkpt>
      <trkpt lat="45.9866" lon="6.57785">
        <ele>2049.19</ele>
        <time>2019-03-19T12:04:54Z</time>
      </trkpt>
      <trkpt lat="45.9866" lon="6.57783">
        <ele>2049.19</ele>
        <time>2019-03-19T12:04:55Z</time>
      </trkpt>
      <trkpt lat="45.98661" lon="6.57781">
        <ele>2049.19</ele>
        <time>2019-03-19T12:04:56Z</time>
      </trkpt>
      <trkpt lat="45.98672" lon="6.5775">
        <ele>2049.19</ele>
        <time>2019-03-19T12:05:12Z</time>
      </trkpt>
      <trkpt lat="45.98678" lon="6.5774">
        <ele>2049.67</ele>
        <time>2019-03-19T12:05:19Z</time>
      </trkpt>
      <trkpt lat="45.98682" lon="6.5773">
        <ele>2050.63</ele>
        <time>2019-03-19T12:05:24Z</time>
      </trkpt>
      <trkpt lat="45.98683" lon="6.57728">
        <ele>2051.11</ele>
        <time>2019-03-19T12:05:25Z</time>
      </trkpt>
      <trkpt lat="45.98683" lon="6.57726">
        <ele>2051.11</ele>
        <time>2019-03-19T12:05:26Z</time>
      </trkpt>
      <trkpt lat="45.98684" lon="6.57725">
        <ele>2051.59</ele>
        <time>2019-03-19T12:05:27Z</time>
      </trkpt>
      <trkpt lat="45.98686" lon="6.57723">
        <ele>2051.59</ele>
        <time>2019-03-19T12:05:28Z</time>
      </trkpt>
      <trkpt lat="45.98685" lon="6.57722">
        <ele>2052.07</ele>
        <time>2019-03-19T12:05:29Z</time>
      </trkpt>
      <trkpt lat="45.98686" lon="6.57721">
        <ele>2052.07</ele>
        <time>2019-03-19T12:05:30Z</time>
      </trkpt>
      <trkpt lat="45.98687" lon="6.57719">
        <ele>2052.07</ele>
        <time>2019-03-19T12:05:31Z</time>
      </trkpt>
      <trkpt lat="45.98689" lon="6.57717">
        <ele>2052.55</ele>
        <time>2019-03-19T12:05:33Z</time>
      </trkpt>
      <trkpt lat="45.9869" lon="6.57716">
        <ele>2053.03</ele>
        <time>2019-03-19T12:05:35Z</time>
      </trkpt>
      <trkpt lat="45.98691" lon="6.57715">
        <ele>2053.03</ele>
        <time>2019-03-19T12:05:36Z</time>
      </trkpt>
      <trkpt lat="45.98703" lon="6.57699">
        <ele>2056.4</ele>
        <time>2019-03-19T12:05:51Z</time>
      </trkpt>
      <trkpt lat="45.98717" lon="6.57673">
        <ele>2058.32</ele>
        <time>2019-03-19T12:06:08Z</time>
      </trkpt>
      <trkpt lat="45.98718" lon="6.57671">
        <ele>2058.32</ele>
        <time>2019-03-19T12:06:09Z</time>
      </trkpt>
      <trkpt lat="45.98719" lon="6.5767">
        <ele>2057.84</ele>
        <time>2019-03-19T12:06:10Z</time>
      </trkpt>
      <trkpt lat="45.9872" lon="6.57668">
        <ele>2058.32</ele>
        <time>2019-03-19T12:06:11Z</time>
      </trkpt>
      <trkpt lat="45.98721" lon="6.57666">
        <ele>2058.32</ele>
        <time>2019-03-19T12:06:12Z</time>
      </trkpt>
      <trkpt lat="45.98727" lon="6.57654">
        <ele>2059.28</ele>
        <time>2019-03-19T12:06:25Z</time>
      </trkpt>
      <trkpt lat="45.98727" lon="6.57653">
        <ele>2059.28</ele>
        <time>2019-03-19T12:06:26Z</time>
      </trkpt>
      <trkpt lat="45.98727" lon="6.57652">
        <ele>2059.28</ele>
        <time>2019-03-19T12:06:27Z</time>
      </trkpt>
      <trkpt lat="45.98728" lon="6.57651">
        <ele>2059.28</ele>
        <time>2019-03-19T12:06:28Z</time>
      </trkpt>
      <trkpt lat="45.98729" lon="6.5765">
        <ele>2059.28</ele>
        <time>2019-03-19T12:06:30Z</time>
      </trkpt>
      <trkpt lat="45.98728" lon="6.57648">
        <ele>2059.76</ele>
        <time>2019-03-19T12:06:31Z</time>
      </trkpt>
      <trkpt lat="45.9873" lon="6.57645">
        <ele>2059.76</ele>
        <time>2019-03-19T12:06:34Z</time>
      </trkpt>
      <trkpt lat="45.98751" lon="6.57634">
        <ele>2063.13</ele>
        <time>2019-03-19T12:06:57Z</time>
      </trkpt>
      <trkpt lat="45.98763" lon="6.5763">
        <ele>2065.05</ele>
        <time>2019-03-19T12:07:08Z</time>
      </trkpt>
      <trkpt lat="45.98764" lon="6.57629">
        <ele>2065.05</ele>
        <time>2019-03-19T12:07:09Z</time>
      </trkpt>
      <trkpt lat="45.98769" lon="6.57629">
        <ele>2066.49</ele>
        <time>2019-03-19T12:07:13Z</time>
      </trkpt>
      <trkpt lat="45.9877" lon="6.57629">
        <ele>2066.49</ele>
        <time>2019-03-19T12:07:14Z</time>
      </trkpt>
      <trkpt lat="45.98771" lon="6.5763">
        <ele>2066.97</ele>
        <time>2019-03-19T12:07:15Z</time>
      </trkpt>
      <trkpt lat="45.98774" lon="6.5763">
        <ele>2067.45</ele>
        <time>2019-03-19T12:07:17Z</time>
      </trkpt>
      <trkpt lat="45.98775" lon="6.5763">
        <ele>2067.93</ele>
        <time>2019-03-19T12:07:18Z</time>
      </trkpt>
      <trkpt lat="45.98776" lon="6.5763">
        <ele>2068.41</ele>
        <time>2019-03-19T12:07:19Z</time>
      </trkpt>
      <trkpt lat="45.9878" lon="6.57629">
        <ele>2068.89</ele>
        <time>2019-03-19T12:07:23Z</time>
      </trkpt>
      <trkpt lat="45.9878" lon="6.57628">
        <ele>2068.89</ele>
        <time>2019-03-19T12:07:24Z</time>
      </trkpt>
      <trkpt lat="45.98781" lon="6.57628">
        <ele>2068.89</ele>
        <time>2019-03-19T12:07:25Z</time>
      </trkpt>
      <trkpt lat="45.98794" lon="6.57621">
        <ele>2071.3</ele>
        <time>2019-03-19T12:07:39Z</time>
      </trkpt>
      <trkpt lat="45.98795" lon="6.57621">
        <ele>2071.3</ele>
        <time>2019-03-19T12:07:40Z</time>
      </trkpt>
      <trkpt lat="45.98796" lon="6.5762">
        <ele>2071.78</ele>
        <time>2019-03-19T12:07:41Z</time>
      </trkpt>
      <trkpt lat="45.98798" lon="6.5762">
        <ele>2071.78</ele>
        <time>2019-03-19T12:07:42Z</time>
      </trkpt>
      <trkpt lat="45.98799" lon="6.57619">
        <ele>2071.78</ele>
        <time>2019-03-19T12:07:43Z</time>
      </trkpt>
      <trkpt lat="45.988" lon="6.57618">
        <ele>2071.78</ele>
        <time>2019-03-19T12:07:44Z</time>
      </trkpt>
      <trkpt lat="45.98801" lon="6.57617">
        <ele>2071.78</ele>
        <time>2019-03-19T12:07:45Z</time>
      </trkpt>
      <trkpt lat="45.98802" lon="6.57616">
        <ele>2071.78</ele>
        <time>2019-03-19T12:07:46Z</time>
      </trkpt>
      <trkpt lat="45.98803" lon="6.57614">
        <ele>2071.78</ele>
        <time>2019-03-19T12:07:47Z</time>
      </trkpt>
      <trkpt lat="45.98804" lon="6.57613">
        <ele>2071.78</ele>
        <time>2019-03-19T12:07:48Z</time>
      </trkpt>
      <trkpt lat="45.98805" lon="6.57612">
        <ele>2071.78</ele>
        <time>2019-03-19T12:07:49Z</time>
      </trkpt>
      <trkpt lat="45.98806" lon="6.57611">
        <ele>2071.78</ele>
        <time>2019-03-19T12:07:50Z</time>
      </trkpt>
      <trkpt lat="45.98806" lon="6.57609">
        <ele>2071.78</ele>
        <time>2019-03-19T12:07:51Z</time>
      </trkpt>
      <trkpt lat="45.98808" lon="6.57607">
        <ele>2071.78</ele>
        <time>2019-03-19T12:07:53Z</time>
      </trkpt>
      <trkpt lat="45.98809" lon="6.57606">
        <ele>2071.78</ele>
        <time>2019-03-19T12:07:54Z</time>
      </trkpt>
      <trkpt lat="45.98809" lon="6.57605">
        <ele>2072.26</ele>
        <time>2019-03-19T12:07:55Z</time>
      </trkpt>
      <trkpt lat="45.9882" lon="6.5759">
        <ele>2075.62</ele>
        <time>2019-03-19T12:08:09Z</time>
      </trkpt>
      <trkpt lat="45.98833" lon="6.57537">
        <ele>2076.59</ele>
        <time>2019-03-19T12:08:47Z</time>
      </trkpt>
      <trkpt lat="45.98832" lon="6.57535">
        <ele>2076.59</ele>
        <time>2019-03-19T12:08:48Z</time>
      </trkpt>
      <trkpt lat="45.98832" lon="6.57532">
        <ele>2077.55</ele>
        <time>2019-03-19T12:08:50Z</time>
      </trkpt>
      <trkpt lat="45.98832" lon="6.57531">
        <ele>2077.55</ele>
        <time>2019-03-19T12:08:51Z</time>
      </trkpt>
      <trkpt lat="45.98832" lon="6.5753">
        <ele>2077.55</ele>
        <time>2019-03-19T12:08:52Z</time>
      </trkpt>
      <trkpt lat="45.98832" lon="6.57529">
        <ele>2077.55</ele>
        <time>2019-03-19T12:08:53Z</time>
      </trkpt>
      <trkpt lat="45.98833" lon="6.57527">
        <ele>2077.55</ele>
        <time>2019-03-19T12:08:54Z</time>
      </trkpt>
      <trkpt lat="45.98833" lon="6.57525">
        <ele>2078.03</ele>
        <time>2019-03-19T12:08:55Z</time>
      </trkpt>
      <trkpt lat="45.98834" lon="6.57523">
        <ele>2078.03</ele>
        <time>2019-03-19T12:08:56Z</time>
      </trkpt>
      <trkpt lat="45.98835" lon="6.57522">
        <ele>2078.03</ele>
        <time>2019-03-19T12:08:57Z</time>
      </trkpt>
      <trkpt lat="45.98838" lon="6.57514">
        <ele>2078.99</ele>
        <time>2019-03-19T12:09:02Z</time>
      </trkpt>
      <trkpt lat="45.9884" lon="6.5751">
        <ele>2079.47</ele>
        <time>2019-03-19T12:09:05Z</time>
      </trkpt>
      <trkpt lat="45.98843" lon="6.5748">
        <ele>2082.83</ele>
        <time>2019-03-19T12:09:29Z</time>
      </trkpt>
      <trkpt lat="45.98847" lon="6.57455">
        <ele>2085.72</ele>
        <time>2019-03-19T12:09:46Z</time>
      </trkpt>
      <trkpt lat="45.98852" lon="6.5743">
        <ele>2088.6</ele>
        <time>2019-03-19T12:10:03Z</time>
      </trkpt>
      <trkpt lat="45.98854" lon="6.57404">
        <ele>2091.97</ele>
        <time>2019-03-19T12:10:22Z</time>
      </trkpt>
      <trkpt lat="45.98859" lon="6.57385">
        <ele>2094.85</ele>
        <time>2019-03-19T12:10:37Z</time>
      </trkpt>
      <trkpt lat="45.98861" lon="6.57379">
        <ele>2095.81</ele>
        <time>2019-03-19T12:10:41Z</time>
      </trkpt>
      <trkpt lat="45.98861" lon="6.57378">
        <ele>2096.29</ele>
        <time>2019-03-19T12:10:42Z</time>
      </trkpt>
      <trkpt lat="45.98867" lon="6.57364">
        <ele>2099.66</ele>
        <time>2019-03-19T12:10:56Z</time>
      </trkpt>
      <trkpt lat="45.98874" lon="6.57352">
        <ele>2103.02</ele>
        <time>2019-03-19T12:11:09Z</time>
      </trkpt>
      <trkpt lat="45.98882" lon="6.57339">
        <ele>2105.91</ele>
        <time>2019-03-19T12:11:22Z</time>
      </trkpt>
      <trkpt lat="45.98888" lon="6.5733">
        <ele>2107.35</ele>
        <time>2019-03-19T12:11:30Z</time>
      </trkpt>
      <trkpt lat="45.98889" lon="6.57329">
        <ele>2107.83</ele>
        <time>2019-03-19T12:11:31Z</time>
      </trkpt>
      <trkpt lat="45.9889" lon="6.57329">
        <ele>2107.83</ele>
        <time>2019-03-19T12:11:32Z</time>
      </trkpt>
      <trkpt lat="45.98893" lon="6.57328">
        <ele>2108.79</ele>
        <time>2019-03-19T12:11:37Z</time>
      </trkpt>
      <trkpt lat="45.98894" lon="6.57328">
        <ele>2108.79</ele>
        <time>2019-03-19T12:11:38Z</time>
      </trkpt>
      <trkpt lat="45.98906" lon="6.57324">
        <ele>2112.15</ele>
        <time>2019-03-19T12:11:51Z</time>
      </trkpt>
      <trkpt lat="45.98913" lon="6.57326">
        <ele>2114.08</ele>
        <time>2019-03-19T12:11:59Z</time>
      </trkpt>
      <trkpt lat="45.98923" lon="6.57331">
        <ele>2116.96</ele>
        <time>2019-03-19T12:12:12Z</time>
      </trkpt>
      <trkpt lat="45.98933" lon="6.57334">
        <ele>2120.81</ele>
        <time>2019-03-19T12:12:25Z</time>
      </trkpt>
      <trkpt lat="45.98935" lon="6.57336">
        <ele>2120.81</ele>
        <time>2019-03-19T12:12:28Z</time>
      </trkpt>
      <trkpt lat="45.98938" lon="6.57337">
        <ele>2121.77</ele>
        <time>2019-03-19T12:12:32Z</time>
      </trkpt>
      <trkpt lat="45.98939" lon="6.57337">
        <ele>2122.25</ele>
        <time>2019-03-19T12:12:33Z</time>
      </trkpt>
      <trkpt lat="45.9894" lon="6.57338">
        <ele>2122.73</ele>
        <time>2019-03-19T12:12:35Z</time>
      </trkpt>
      <trkpt lat="45.98941" lon="6.57338">
        <ele>2123.21</ele>
        <time>2019-03-19T12:12:36Z</time>
      </trkpt>
      <trkpt lat="45.98942" lon="6.57339">
        <ele>2123.21</ele>
        <time>2019-03-19T12:12:37Z</time>
      </trkpt>
      <trkpt lat="45.98946" lon="6.5734">
        <ele>2124.65</ele>
        <time>2019-03-19T12:12:43Z</time>
      </trkpt>
      <trkpt lat="45.98956" lon="6.57342">
        <ele>2128.02</ele>
        <time>2019-03-19T12:12:56Z</time>
      </trkpt>
      <trkpt lat="45.98966" lon="6.57344">
        <ele>2130.9</ele>
        <time>2019-03-19T12:13:09Z</time>
      </trkpt>
      <trkpt lat="45.98968" lon="6.57345">
        <ele>2132.34</ele>
        <time>2019-03-19T12:13:12Z</time>
      </trkpt>
      <trkpt lat="45.98969" lon="6.57344">
        <ele>2132.34</ele>
        <time>2019-03-19T12:13:13Z</time>
      </trkpt>
      <trkpt lat="45.98976" lon="6.57343">
        <ele>2134.74</ele>
        <time>2019-03-19T12:13:24Z</time>
      </trkpt>
      <trkpt lat="45.98978" lon="6.57343">
        <ele>2135.71</ele>
        <time>2019-03-19T12:13:27Z</time>
      </trkpt>
      <trkpt lat="45.98988" lon="6.57336">
        <ele>2138.59</ele>
        <time>2019-03-19T12:13:42Z</time>
      </trkpt>
      <trkpt lat="45.99006" lon="6.5733">
        <ele>2141.95</ele>
        <time>2019-03-19T12:14:04Z</time>
      </trkpt>
      <trkpt lat="45.9902" lon="6.57325">
        <ele>2144.84</ele>
        <time>2019-03-19T12:14:21Z</time>
      </trkpt>
      <trkpt lat="45.9903" lon="6.57321">
        <ele>2148.2</ele>
        <time>2019-03-19T12:14:34Z</time>
      </trkpt>
      <trkpt lat="45.99038" lon="6.57319">
        <ele>2151.57</ele>
        <time>2019-03-19T12:14:46Z</time>
      </trkpt>
      <trkpt lat="45.99049" lon="6.57316">
        <ele>2154.45</ele>
        <time>2019-03-19T12:15:00Z</time>
      </trkpt>
      <trkpt lat="45.99053" lon="6.57314">
        <ele>2155.89</ele>
        <time>2019-03-19T12:15:07Z</time>
      </trkpt>
      <trkpt lat="45.9906" lon="6.57308">
        <ele>2158.78</ele>
        <time>2019-03-19T12:15:18Z</time>
      </trkpt>
      <trkpt lat="45.99063" lon="6.57303">
        <ele>2160.7</ele>
        <time>2019-03-19T12:15:38Z</time>
      </trkpt>
      <trkpt lat="45.99062" lon="6.57302">
        <ele>2161.18</ele>
        <time>2019-03-19T12:15:40Z</time>
      </trkpt>
      <trkpt lat="45.99052" lon="6.5729">
        <ele>2164.06</ele>
        <time>2019-03-19T12:15:56Z</time>
      </trkpt>
      <trkpt lat="45.99051" lon="6.57289">
        <ele>2164.55</ele>
        <time>2019-03-19T12:15:58Z</time>
      </trkpt>
      <trkpt lat="45.9905" lon="6.57288">
        <ele>2165.03</ele>
        <time>2019-03-19T12:16:00Z</time>
      </trkpt>
      <trkpt lat="45.99049" lon="6.57285">
        <ele>2165.51</ele>
        <time>2019-03-19T12:16:03Z</time>
      </trkpt>
      <trkpt lat="45.99036" lon="6.57275">
        <ele>2168.39</ele>
        <time>2019-03-19T12:16:20Z</time>
      </trkpt>
      <trkpt lat="45.99033" lon="6.57273">
        <ele>2169.35</ele>
        <time>2019-03-19T12:16:23Z</time>
      </trkpt>
      <trkpt lat="45.99032" lon="6.57271">
        <ele>2169.83</ele>
        <time>2019-03-19T12:16:25Z</time>
      </trkpt>
      <trkpt lat="45.99023" lon="6.57261">
        <ele>2172.24</ele>
        <time>2019-03-19T12:16:40Z</time>
      </trkpt>
      <trkpt lat="45.9902" lon="6.57259">
        <ele>2173.2</ele>
        <time>2019-03-19T12:16:43Z</time>
      </trkpt>
      <trkpt lat="45.99011" lon="6.57251">
        <ele>2176.08</ele>
        <time>2019-03-19T12:16:58Z</time>
      </trkpt>
      <trkpt lat="45.99008" lon="6.57248">
        <ele>2177.52</ele>
        <time>2019-03-19T12:17:04Z</time>
      </trkpt>
      <trkpt lat="45.99006" lon="6.57245">
        <ele>2178</ele>
        <time>2019-03-19T12:17:08Z</time>
      </trkpt>
      <trkpt lat="45.98997" lon="6.57237">
        <ele>2181.37</ele>
        <time>2019-03-19T12:17:23Z</time>
      </trkpt>
      <trkpt lat="45.98993" lon="6.57232">
        <ele>2182.81</ele>
        <time>2019-03-19T12:17:29Z</time>
      </trkpt>
      <trkpt lat="45.98986" lon="6.57225">
        <ele>2185.21</ele>
        <time>2019-03-19T12:17:43Z</time>
      </trkpt>
      <trkpt lat="45.98983" lon="6.5722">
        <ele>2187.14</ele>
        <time>2019-03-19T12:17:50Z</time>
      </trkpt>
      <trkpt lat="45.98989" lon="6.57213">
        <ele>2189.54</ele>
        <time>2019-03-19T12:18:04Z</time>
      </trkpt>
      <trkpt lat="45.99001" lon="6.57206">
        <ele>2192.42</ele>
        <time>2019-03-19T12:18:20Z</time>
      </trkpt>
      <trkpt lat="45.99015" lon="6.57197">
        <ele>2195.31</ele>
        <time>2019-03-19T12:18:37Z</time>
      </trkpt>
      <trkpt lat="45.99024" lon="6.57192">
        <ele>2198.67</ele>
        <time>2019-03-19T12:18:50Z</time>
      </trkpt>
      <trkpt lat="45.99034" lon="6.57187">
        <ele>2201.56</ele>
        <time>2019-03-19T12:19:04Z</time>
      </trkpt>
      <trkpt lat="45.99043" lon="6.57183">
        <ele>2204.92</ele>
        <time>2019-03-19T12:19:19Z</time>
      </trkpt>
      <trkpt lat="45.99051" lon="6.57179">
        <ele>2206.36</ele>
        <time>2019-03-19T12:19:32Z</time>
      </trkpt>
      <trkpt lat="45.99052" lon="6.57179">
        <ele>2206.84</ele>
        <time>2019-03-19T12:19:33Z</time>
      </trkpt>
      <trkpt lat="45.99052" lon="6.57178">
        <ele>2206.84</ele>
        <time>2019-03-19T12:19:34Z</time>
      </trkpt>
      <trkpt lat="45.99049" lon="6.57175">
        <ele>2209.25</ele>
        <time>2019-03-19T12:19:45Z</time>
      </trkpt>
      <trkpt lat="45.99047" lon="6.57174">
        <ele>2209.73</ele>
        <time>2019-03-19T12:19:47Z</time>
      </trkpt>
      <trkpt lat="45.99039" lon="6.5717">
        <ele>2211.65</ele>
        <time>2019-03-19T12:19:58Z</time>
      </trkpt>
      <trkpt lat="45.99038" lon="6.57169">
        <ele>2212.13</ele>
        <time>2019-03-19T12:20:00Z</time>
      </trkpt>
      <trkpt lat="45.99032" lon="6.57164">
        <ele>2213.57</ele>
        <time>2019-03-19T12:20:09Z</time>
      </trkpt>
      <trkpt lat="45.99031" lon="6.57162">
        <ele>2214.05</ele>
        <time>2019-03-19T12:20:11Z</time>
      </trkpt>
      <trkpt lat="45.99026" lon="6.57157">
        <ele>2215.5</ele>
        <time>2019-03-19T12:20:18Z</time>
      </trkpt>
      <trkpt lat="45.99024" lon="6.57156">
        <ele>2215.98</ele>
        <time>2019-03-19T12:20:20Z</time>
      </trkpt>
      <trkpt lat="45.99021" lon="6.57154">
        <ele>2217.42</ele>
        <time>2019-03-19T12:20:25Z</time>
      </trkpt>
      <trkpt lat="45.99019" lon="6.57154">
        <ele>2217.42</ele>
        <time>2019-03-19T12:20:27Z</time>
      </trkpt>
      <trkpt lat="45.9901" lon="6.57149">
        <ele>2220.3</ele>
        <time>2019-03-19T12:20:40Z</time>
      </trkpt>
      <trkpt lat="45.99009" lon="6.57148">
        <ele>2220.78</ele>
        <time>2019-03-19T12:20:42Z</time>
      </trkpt>
      <trkpt lat="45.99" lon="6.57146">
        <ele>2223.67</ele>
        <time>2019-03-19T12:20:55Z</time>
      </trkpt>
      <trkpt lat="45.98991" lon="6.5714">
        <ele>2227.03</ele>
        <time>2019-03-19T12:21:10Z</time>
      </trkpt>
      <trkpt lat="45.98987" lon="6.57133">
        <ele>2227.99</ele>
        <time>2019-03-19T12:21:17Z</time>
      </trkpt>
      <trkpt lat="45.98983" lon="6.57128">
        <ele>2229.43</ele>
        <time>2019-03-19T12:21:24Z</time>
      </trkpt>
      <trkpt lat="45.98979" lon="6.57124">
        <ele>2230.88</ele>
        <time>2019-03-19T12:21:30Z</time>
      </trkpt>
      <trkpt lat="45.98978" lon="6.57122">
        <ele>2231.36</ele>
        <time>2019-03-19T12:21:32Z</time>
      </trkpt>
      <trkpt lat="45.98969" lon="6.57113">
        <ele>2234.24</ele>
        <time>2019-03-19T12:21:47Z</time>
      </trkpt>
      <trkpt lat="45.98972" lon="6.57104">
        <ele>2236.16</ele>
        <time>2019-03-19T12:22:00Z</time>
      </trkpt>
      <trkpt lat="45.98973" lon="6.57104">
        <ele>2236.64</ele>
        <time>2019-03-19T12:22:01Z</time>
      </trkpt>
      <trkpt lat="45.98974" lon="6.57103">
        <ele>2236.64</ele>
        <time>2019-03-19T12:22:02Z</time>
      </trkpt>
      <trkpt lat="45.98975" lon="6.57102">
        <ele>2237.13</ele>
        <time>2019-03-19T12:22:03Z</time>
      </trkpt>
      <trkpt lat="45.98975" lon="6.57102">
        <ele>2237.13</ele>
        <time>2019-03-19T12:22:04Z</time>
      </trkpt>
      <trkpt lat="45.98983" lon="6.57089">
        <ele>2240.01</ele>
        <time>2019-03-19T12:22:20Z</time>
      </trkpt>
      <trkpt lat="45.98976" lon="6.57088">
        <ele>2243.37</ele>
        <time>2019-03-19T12:22:36Z</time>
      </trkpt>
      <trkpt lat="45.98983" lon="6.5708">
        <ele>2246.26</ele>
        <time>2019-03-19T12:22:56Z</time>
      </trkpt>
      <trkpt lat="45.98983" lon="6.57069">
        <ele>2249.62</ele>
        <time>2019-03-19T12:23:11Z</time>
      </trkpt>
      <trkpt lat="45.9898" lon="6.57067">
        <ele>2250.1</ele>
        <time>2019-03-19T12:23:14Z</time>
      </trkpt>
      <trkpt lat="45.98967" lon="6.57058">
        <ele>2252.99</ele>
        <time>2019-03-19T12:23:32Z</time>
      </trkpt>
      <trkpt lat="45.98965" lon="6.57057">
        <ele>2252.99</ele>
        <time>2019-03-19T12:23:34Z</time>
      </trkpt>
      <trkpt lat="45.98965" lon="6.57056">
        <ele>2253.47</ele>
        <time>2019-03-19T12:23:35Z</time>
      </trkpt>
      <trkpt lat="45.98946" lon="6.57049">
        <ele>2255.87</ele>
        <time>2019-03-19T12:23:55Z</time>
      </trkpt>
      <trkpt lat="45.98927" lon="6.57048">
        <ele>2255.87</ele>
        <time>2019-03-19T12:24:11Z</time>
      </trkpt>
      <trkpt lat="45.98924" lon="6.57047">
        <ele>2255.87</ele>
        <time>2019-03-19T12:24:14Z</time>
      </trkpt>
      <trkpt lat="45.98922" lon="6.57046">
        <ele>2255.87</ele>
        <time>2019-03-19T12:24:15Z</time>
      </trkpt>
      <trkpt lat="45.98921" lon="6.57046">
        <ele>2255.87</ele>
        <time>2019-03-19T12:24:16Z</time>
      </trkpt>
      <trkpt lat="45.9892" lon="6.57045">
        <ele>2255.87</ele>
        <time>2019-03-19T12:24:17Z</time>
      </trkpt>
      <trkpt lat="45.98919" lon="6.57044">
        <ele>2255.87</ele>
        <time>2019-03-19T12:24:18Z</time>
      </trkpt>
      <trkpt lat="45.98903" lon="6.57039">
        <ele>2255.87</ele>
        <time>2019-03-19T12:24:33Z</time>
      </trkpt>
      <trkpt lat="45.98886" lon="6.57031">
        <ele>2255.87</ele>
        <time>2019-03-19T12:24:48Z</time>
      </trkpt>
      <trkpt lat="45.98847" lon="6.57018">
        <ele>2256.83</ele>
        <time>2019-03-19T12:25:22Z</time>
      </trkpt>
      <trkpt lat="45.98846" lon="6.57019">
        <ele>2256.83</ele>
        <time>2019-03-19T12:25:23Z</time>
      </trkpt>
      <trkpt lat="45.98845" lon="6.57018">
        <ele>2256.83</ele>
        <time>2019-03-19T12:25:24Z</time>
      </trkpt>
      <trkpt lat="45.98843" lon="6.57018">
        <ele>2256.83</ele>
        <time>2019-03-19T12:25:25Z</time>
      </trkpt>
      <trkpt lat="45.98842" lon="6.57018">
        <ele>2257.31</ele>
        <time>2019-03-19T12:25:26Z</time>
      </trkpt>
      <trkpt lat="45.98841" lon="6.57018">
        <ele>2257.31</ele>
        <time>2019-03-19T12:25:27Z</time>
      </trkpt>
      <trkpt lat="45.9884" lon="6.57017">
        <ele>2257.31</ele>
        <time>2019-03-19T12:25:28Z</time>
      </trkpt>
      <trkpt lat="45.98839" lon="6.57017">
        <ele>2257.31</ele>
        <time>2019-03-19T12:25:29Z</time>
      </trkpt>
      <trkpt lat="45.98838" lon="6.57017">
        <ele>2257.31</ele>
        <time>2019-03-19T12:25:30Z</time>
      </trkpt>
      <trkpt lat="45.98837" lon="6.57016">
        <ele>2257.31</ele>
        <time>2019-03-19T12:25:31Z</time>
      </trkpt>
      <trkpt lat="45.98836" lon="6.57016">
        <ele>2257.31</ele>
        <time>2019-03-19T12:25:32Z</time>
      </trkpt>
      <trkpt lat="45.98835" lon="6.57015">
        <ele>2257.79</ele>
        <time>2019-03-19T12:25:33Z</time>
      </trkpt>
      <trkpt lat="45.98834" lon="6.57015">
        <ele>2257.79</ele>
        <time>2019-03-19T12:25:34Z</time>
      </trkpt>
      <trkpt lat="45.98833" lon="6.57014">
        <ele>2257.79</ele>
        <time>2019-03-19T12:25:35Z</time>
      </trkpt>
      <trkpt lat="45.98831" lon="6.57014">
        <ele>2257.79</ele>
        <time>2019-03-19T12:25:36Z</time>
      </trkpt>
      <trkpt lat="45.98831" lon="6.57013">
        <ele>2257.79</ele>
        <time>2019-03-19T12:25:37Z</time>
      </trkpt>
      <trkpt lat="45.9883" lon="6.57012">
        <ele>2257.79</ele>
        <time>2019-03-19T12:25:38Z</time>
      </trkpt>
      <trkpt lat="45.98829" lon="6.57012">
        <ele>2257.79</ele>
        <time>2019-03-19T12:25:39Z</time>
      </trkpt>
      <trkpt lat="45.98828" lon="6.57011">
        <ele>2257.79</ele>
        <time>2019-03-19T12:25:40Z</time>
      </trkpt>
      <trkpt lat="45.98827" lon="6.5701">
        <ele>2257.79</ele>
        <time>2019-03-19T12:25:41Z</time>
      </trkpt>
      <trkpt lat="45.98825" lon="6.57009">
        <ele>2258.27</ele>
        <time>2019-03-19T12:25:42Z</time>
      </trkpt>
      <trkpt lat="45.98824" lon="6.57008">
        <ele>2257.79</ele>
        <time>2019-03-19T12:25:43Z</time>
      </trkpt>
      <trkpt lat="45.98823" lon="6.57008">
        <ele>2257.79</ele>
        <time>2019-03-19T12:25:44Z</time>
      </trkpt>
      <trkpt lat="45.98822" lon="6.57007">
        <ele>2257.79</ele>
        <time>2019-03-19T12:25:45Z</time>
      </trkpt>
      <trkpt lat="45.98821" lon="6.57007">
        <ele>2258.27</ele>
        <time>2019-03-19T12:25:46Z</time>
      </trkpt>
      <trkpt lat="45.9882" lon="6.57007">
        <ele>2258.27</ele>
        <time>2019-03-19T12:25:47Z</time>
      </trkpt>
      <trkpt lat="45.98819" lon="6.57007">
        <ele>2258.27</ele>
        <time>2019-03-19T12:25:48Z</time>
      </trkpt>
      <trkpt lat="45.98818" lon="6.57006">
        <ele>2258.27</ele>
        <time>2019-03-19T12:25:49Z</time>
      </trkpt>
      <trkpt lat="45.98817" lon="6.57006">
        <ele>2258.27</ele>
        <time>2019-03-19T12:25:50Z</time>
      </trkpt>
      <trkpt lat="45.98816" lon="6.57005">
        <ele>2258.75</ele>
        <time>2019-03-19T12:25:51Z</time>
      </trkpt>
      <trkpt lat="45.98815" lon="6.57004">
        <ele>2258.75</ele>
        <time>2019-03-19T12:25:52Z</time>
      </trkpt>
      <trkpt lat="45.98799" lon="6.56993">
        <ele>2260.68</ele>
        <time>2019-03-19T12:26:10Z</time>
      </trkpt>
      <trkpt lat="45.98797" lon="6.56992">
        <ele>2260.68</ele>
        <time>2019-03-19T12:26:12Z</time>
      </trkpt>
      <trkpt lat="45.98796" lon="6.56992">
        <ele>2261.16</ele>
        <time>2019-03-19T12:26:13Z</time>
      </trkpt>
      <trkpt lat="45.98785" lon="6.56988">
        <ele>2263.08</ele>
        <time>2019-03-19T12:26:25Z</time>
      </trkpt>
      <trkpt lat="45.98784" lon="6.56987">
        <ele>2263.08</ele>
        <time>2019-03-19T12:26:27Z</time>
      </trkpt>
      <trkpt lat="45.98783" lon="6.56987">
        <ele>2263.56</ele>
        <time>2019-03-19T12:26:28Z</time>
      </trkpt>
      <trkpt lat="45.98773" lon="6.56986">
        <ele>2265.48</ele>
        <time>2019-03-19T12:26:39Z</time>
      </trkpt>
      <trkpt lat="45.98773" lon="6.56986">
        <ele>2265.96</ele>
        <time>2019-03-19T12:26:40Z</time>
      </trkpt>
      <trkpt lat="45.98761" lon="6.56984">
        <ele>2269.33</ele>
        <time>2019-03-19T12:26:54Z</time>
      </trkpt>
      <trkpt lat="45.98752" lon="6.56981">
        <ele>2272.21</ele>
        <time>2019-03-19T12:27:07Z</time>
      </trkpt>
      <trkpt lat="45.98747" lon="6.56978">
        <ele>2273.66</ele>
        <time>2019-03-19T12:27:14Z</time>
      </trkpt>
      <trkpt lat="45.98742" lon="6.56976">
        <ele>2275.58</ele>
        <time>2019-03-19T12:27:23Z</time>
      </trkpt>
      <trkpt lat="45.98741" lon="6.56976">
        <ele>2276.06</ele>
        <time>2019-03-19T12:27:25Z</time>
      </trkpt>
      <trkpt lat="45.98732" lon="6.56971">
        <ele>2278.94</ele>
        <time>2019-03-19T12:27:40Z</time>
      </trkpt>
      <trkpt lat="45.98723" lon="6.56966">
        <ele>2282.31</ele>
        <time>2019-03-19T12:27:54Z</time>
      </trkpt>
      <trkpt lat="45.98716" lon="6.56962">
        <ele>2284.23</ele>
        <time>2019-03-19T12:28:05Z</time>
      </trkpt>
      <trkpt lat="45.98705" lon="6.56961">
        <ele>2287.59</ele>
        <time>2019-03-19T12:28:19Z</time>
      </trkpt>
      <trkpt lat="45.98695" lon="6.56959">
        <ele>2290.48</ele>
        <time>2019-03-19T12:28:32Z</time>
      </trkpt>
      <trkpt lat="45.98686" lon="6.56956">
        <ele>2293.84</ele>
        <time>2019-03-19T12:28:47Z</time>
      </trkpt>
      <trkpt lat="45.98685" lon="6.56954">
        <ele>2295.28</ele>
        <time>2019-03-19T12:28:51Z</time>
      </trkpt>
      <trkpt lat="45.98676" lon="6.56949">
        <ele>2298.17</ele>
        <time>2019-03-19T12:29:11Z</time>
      </trkpt>
      <trkpt lat="45.98663" lon="6.56954">
        <ele>2301.53</ele>
        <time>2019-03-19T12:29:27Z</time>
      </trkpt>
      <trkpt lat="45.98649" lon="6.56959">
        <ele>2304.42</ele>
        <time>2019-03-19T12:29:43Z</time>
      </trkpt>
      <trkpt lat="45.98633" lon="6.56971">
        <ele>2306.82</ele>
        <time>2019-03-19T12:30:02Z</time>
      </trkpt>
      <trkpt lat="45.98616" lon="6.56985">
        <ele>2307.78</ele>
        <time>2019-03-19T12:30:19Z</time>
      </trkpt>
      <trkpt lat="45.986" lon="6.56995">
        <ele>2307.78</ele>
        <time>2019-03-19T12:30:35Z</time>
      </trkpt>
      <trkpt lat="45.9858" lon="6.57014">
        <ele>2306.82</ele>
        <time>2019-03-19T12:30:55Z</time>
      </trkpt>
      <trkpt lat="45.98544" lon="6.57057">
        <ele>2306.82</ele>
        <time>2019-03-19T12:31:33Z</time>
      </trkpt>
      <trkpt lat="45.98532" lon="6.57076">
        <ele>2307.78</ele>
        <time>2019-03-19T12:32:03Z</time>
      </trkpt>
      <trkpt lat="45.98532" lon="6.57077">
        <ele>2307.78</ele>
        <time>2019-03-19T12:32:19Z</time>
      </trkpt>
      <trkpt lat="45.98533" lon="6.57076">
        <ele>2307.78</ele>
        <time>2019-03-19T12:32:32Z</time>
      </trkpt>
      <trkpt lat="45.98534" lon="6.57074">
        <ele>2307.78</ele>
        <time>2019-03-19T12:32:43Z</time>
      </trkpt>
      <trkpt lat="45.98534" lon="6.57073">
        <ele>2307.78</ele>
        <time>2019-03-19T12:32:56Z</time>
      </trkpt>
      <trkpt lat="45.98533" lon="6.57074">
        <ele>2307.78</ele>
        <time>2019-03-19T12:33:07Z</time>
      </trkpt>
      <trkpt lat="45.98533" lon="6.57074">
        <ele>2307.78</ele>
        <time>2019-03-19T12:33:18Z</time>
      </trkpt>
      <trkpt lat="45.98533" lon="6.57074">
        <ele>2307.78</ele>
        <time>2019-03-19T12:33:31Z</time>
      </trkpt>
      <trkpt lat="45.98534" lon="6.57075">
        <ele>2307.78</ele>
        <time>2019-03-19T12:33:55Z</time>
      </trkpt>
      <trkpt lat="45.98535" lon="6.57073">
        <ele>2308.74</ele>
        <time>2019-03-19T12:34:20Z</time>
      </trkpt>
      <trkpt lat="45.98536" lon="6.57072">
        <ele>2308.74</ele>
        <time>2019-03-19T12:35:20Z</time>
      </trkpt>
      <trkpt lat="45.98537" lon="6.5707">
        <ele>2308.26</ele>
        <time>2019-03-19T12:36:47Z</time>
      </trkpt>
      <trkpt lat="45.98523" lon="6.57098">
        <ele>2311.63</ele>
        <time>2019-03-19T12:38:23Z</time>
      </trkpt>
      <trkpt lat="45.98516" lon="6.57114">
        <ele>2313.55</ele>
        <time>2019-03-19T12:38:40Z</time>
      </trkpt>
      <trkpt lat="45.98513" lon="6.57124">
        <ele>2314.99</ele>
        <time>2019-03-19T12:38:48Z</time>
      </trkpt>
      <trkpt lat="45.98513" lon="6.57125">
        <ele>2315.47</ele>
        <time>2019-03-19T12:38:49Z</time>
      </trkpt>
      <trkpt lat="45.98501" lon="6.5715">
        <ele>2318.84</ele>
        <time>2019-03-19T12:39:12Z</time>
      </trkpt>
      <trkpt lat="45.9849" lon="6.5717">
        <ele>2321.72</ele>
        <time>2019-03-19T12:39:32Z</time>
      </trkpt>
      <trkpt lat="45.98482" lon="6.57192">
        <ele>2324.61</ele>
        <time>2019-03-19T12:39:53Z</time>
      </trkpt>
      <trkpt lat="45.98474" lon="6.5721">
        <ele>2327.97</ele>
        <time>2019-03-19T12:40:11Z</time>
      </trkpt>
      <trkpt lat="45.98461" lon="6.57221">
        <ele>2330.85</ele>
        <time>2019-03-19T12:40:27Z</time>
      </trkpt>
      <trkpt lat="45.98449" lon="6.57232">
        <ele>2334.22</ele>
        <time>2019-03-19T12:40:46Z</time>
      </trkpt>
      <trkpt lat="45.98446" lon="6.57237">
        <ele>2335.66</ele>
        <time>2019-03-19T12:40:53Z</time>
      </trkpt>
      <trkpt lat="45.98445" lon="6.57239">
        <ele>2336.14</ele>
        <time>2019-03-19T12:40:55Z</time>
      </trkpt>
      <trkpt lat="45.98444" lon="6.57244">
        <ele>2337.58</ele>
        <time>2019-03-19T12:41:01Z</time>
      </trkpt>
      <trkpt lat="45.98444" lon="6.57246">
        <ele>2337.58</ele>
        <time>2019-03-19T12:41:03Z</time>
      </trkpt>
      <trkpt lat="45.98443" lon="6.57253">
        <ele>2339.02</ele>
        <time>2019-03-19T12:41:10Z</time>
      </trkpt>
      <trkpt lat="45.98443" lon="6.57262">
        <ele>2340.47</ele>
        <time>2019-03-19T12:41:20Z</time>
      </trkpt>
      <trkpt lat="45.98442" lon="6.57268">
        <ele>2341.43</ele>
        <time>2019-03-19T12:41:26Z</time>
      </trkpt>
      <trkpt lat="45.98442" lon="6.5727">
        <ele>2341.91</ele>
        <time>2019-03-19T12:41:28Z</time>
      </trkpt>
      <trkpt lat="45.98442" lon="6.57278">
        <ele>2342.87</ele>
        <time>2019-03-19T12:41:34Z</time>
      </trkpt>
      <trkpt lat="45.98442" lon="6.5728">
        <ele>2343.83</ele>
        <time>2019-03-19T12:41:36Z</time>
      </trkpt>
      <trkpt lat="45.98442" lon="6.57299">
        <ele>2346.72</ele>
        <time>2019-03-19T12:41:54Z</time>
      </trkpt>
      <trkpt lat="45.98442" lon="6.573">
        <ele>2346.72</ele>
        <time>2019-03-19T12:41:55Z</time>
      </trkpt>
      <trkpt lat="45.98443" lon="6.57302">
        <ele>2347.2</ele>
        <time>2019-03-19T12:41:57Z</time>
      </trkpt>
      <trkpt lat="45.98438" lon="6.5731">
        <ele>2349.12</ele>
        <time>2019-03-19T12:42:06Z</time>
      </trkpt>
      <trkpt lat="45.98425" lon="6.57306">
        <ele>2352</ele>
        <time>2019-03-19T12:42:25Z</time>
      </trkpt>
      <trkpt lat="45.98416" lon="6.57301">
        <ele>2354.89</ele>
        <time>2019-03-19T12:42:42Z</time>
      </trkpt>
      <trkpt lat="45.98406" lon="6.57298">
        <ele>2358.25</ele>
        <time>2019-03-19T12:42:57Z</time>
      </trkpt>
      <trkpt lat="45.98395" lon="6.57297">
        <ele>2361.14</ele>
        <time>2019-03-19T12:43:15Z</time>
      </trkpt>
      <trkpt lat="45.98384" lon="6.57296">
        <ele>2364.02</ele>
        <time>2019-03-19T12:43:35Z</time>
      </trkpt>
      <trkpt lat="45.98373" lon="6.57296">
        <ele>2367.38</ele>
        <time>2019-03-19T12:43:52Z</time>
      </trkpt>
      <trkpt lat="45.98374" lon="6.573">
        <ele>2368.83</ele>
        <time>2019-03-19T12:44:01Z</time>
      </trkpt>
      <trkpt lat="45.98378" lon="6.57309">
        <ele>2370.75</ele>
        <time>2019-03-19T12:44:13Z</time>
      </trkpt>
      <trkpt lat="45.98383" lon="6.57322">
        <ele>2372.67</ele>
        <time>2019-03-19T12:44:28Z</time>
      </trkpt>
      <trkpt lat="45.98386" lon="6.57326">
        <ele>2373.63</ele>
        <time>2019-03-19T12:44:34Z</time>
      </trkpt>
      <trkpt lat="45.98386" lon="6.57328">
        <ele>2373.63</ele>
        <time>2019-03-19T12:44:36Z</time>
      </trkpt>
      <trkpt lat="45.98387" lon="6.57333">
        <ele>2374.59</ele>
        <time>2019-03-19T12:44:41Z</time>
      </trkpt>
      <trkpt lat="45.9839" lon="6.57339">
        <ele>2375.07</ele>
        <time>2019-03-19T12:44:49Z</time>
      </trkpt>
      <trkpt lat="45.98393" lon="6.57345">
        <ele>2376.04</ele>
        <time>2019-03-19T12:44:55Z</time>
      </trkpt>
      <trkpt lat="45.98393" lon="6.57346">
        <ele>2376.04</ele>
        <time>2019-03-19T12:44:56Z</time>
      </trkpt>
      <trkpt lat="45.98396" lon="6.57364">
        <ele>2378.92</ele>
        <time>2019-03-19T12:45:13Z</time>
      </trkpt>
      <trkpt lat="45.98396" lon="6.57367">
        <ele>2379.4</ele>
        <time>2019-03-19T12:45:15Z</time>
      </trkpt>
      <trkpt lat="45.98397" lon="6.57373">
        <ele>2379.88</ele>
        <time>2019-03-19T12:45:21Z</time>
      </trkpt>
      <trkpt lat="45.98398" lon="6.57377">
        <ele>2380.36</ele>
        <time>2019-03-19T12:45:24Z</time>
      </trkpt>
      <trkpt lat="45.98398" lon="6.57383">
        <ele>2381.8</ele>
        <time>2019-03-19T12:45:30Z</time>
      </trkpt>
      <trkpt lat="45.98398" lon="6.57385">
        <ele>2381.8</ele>
        <time>2019-03-19T12:45:32Z</time>
      </trkpt>
      <trkpt lat="45.98392" lon="6.57388">
        <ele>2385.17</ele>
        <time>2019-03-19T12:45:53Z</time>
      </trkpt>
      <trkpt lat="45.98382" lon="6.57383">
        <ele>2388.05</ele>
        <time>2019-03-19T12:46:30Z</time>
      </trkpt>
      <trkpt lat="45.98382" lon="6.57395">
        <ele>2391.42</ele>
        <time>2019-03-19T12:46:43Z</time>
      </trkpt>
      <trkpt lat="45.98381" lon="6.57401">
        <ele>2392.86</ele>
        <time>2019-03-19T12:46:49Z</time>
      </trkpt>
      <trkpt lat="45.9838" lon="6.57412">
        <ele>2394.78</ele>
        <time>2019-03-19T12:47:00Z</time>
      </trkpt>
      <trkpt lat="45.98379" lon="6.57424">
        <ele>2397.67</ele>
        <time>2019-03-19T12:47:16Z</time>
      </trkpt>
      <trkpt lat="45.98379" lon="6.57427">
        <ele>2398.15</ele>
        <time>2019-03-19T12:47:19Z</time>
      </trkpt>
      <trkpt lat="45.98371" lon="6.57425">
        <ele>2400.55</ele>
        <time>2019-03-19T12:47:38Z</time>
      </trkpt>
      <trkpt lat="45.98363" lon="6.57422">
        <ele>2403.91</ele>
        <time>2019-03-19T12:48:03Z</time>
      </trkpt>
      <trkpt lat="45.9836" lon="6.5743">
        <ele>2406.8</ele>
        <time>2019-03-19T12:48:16Z</time>
      </trkpt>
      <trkpt lat="45.98356" lon="6.57437">
        <ele>2410.16</ele>
        <time>2019-03-19T12:48:30Z</time>
      </trkpt>
      <trkpt lat="45.98349" lon="6.57444">
        <ele>2413.05</ele>
        <time>2019-03-19T12:48:45Z</time>
      </trkpt>
      <trkpt lat="45.98344" lon="6.57448">
        <ele>2414.01</ele>
        <time>2019-03-19T12:48:52Z</time>
      </trkpt>
      <trkpt lat="45.98342" lon="6.57451">
        <ele>2414.97</ele>
        <time>2019-03-19T12:48:56Z</time>
      </trkpt>
      <trkpt lat="45.9833" lon="6.57466">
        <ele>2418.33</ele>
        <time>2019-03-19T12:49:16Z</time>
      </trkpt>
      <trkpt lat="45.9832" lon="6.5748">
        <ele>2421.22</ele>
        <time>2019-03-19T12:49:35Z</time>
      </trkpt>
      <trkpt lat="45.98317" lon="6.57484">
        <ele>2422.66</ele>
        <time>2019-03-19T12:49:41Z</time>
      </trkpt>
      <trkpt lat="45.98312" lon="6.57495">
        <ele>2425.54</ele>
        <time>2019-03-19T12:49:56Z</time>
      </trkpt>
      <trkpt lat="45.98311" lon="6.57503">
        <ele>2428.91</ele>
        <time>2019-03-19T12:50:08Z</time>
      </trkpt>
      <trkpt lat="45.98313" lon="6.57514">
        <ele>2428.91</ele>
        <time>2019-03-19T12:50:38Z</time>
      </trkpt>
      <trkpt lat="45.98313" lon="6.57513">
        <ele>2428.43</ele>
        <time>2019-03-19T12:50:56Z</time>
      </trkpt>
      <trkpt lat="45.98317" lon="6.57513">
        <ele>2428.91</ele>
        <time>2019-03-19T12:51:53Z</time>
      </trkpt>
      <trkpt lat="45.98316" lon="6.57514">
        <ele>2428.91</ele>
        <time>2019-03-19T12:51:57Z</time>
      </trkpt>
      <trkpt lat="45.98315" lon="6.57515">
        <ele>2429.39</ele>
        <time>2019-03-19T12:53:58Z</time>
      </trkpt>
      <trkpt lat="45.98309" lon="6.57527">
        <ele>2432.75</ele>
        <time>2019-03-19T12:55:28Z</time>
      </trkpt>
      <trkpt lat="45.98308" lon="6.57528">
        <ele>2434.2</ele>
        <time>2019-03-19T12:55:31Z</time>
      </trkpt>
      <trkpt lat="45.98302" lon="6.57528">
        <ele>2437.08</ele>
        <time>2019-03-19T12:55:44Z</time>
      </trkpt>
      <trkpt lat="45.98301" lon="6.57528">
        <ele>2438.04</ele>
        <time>2019-03-19T12:55:48Z</time>
      </trkpt>
      <trkpt lat="45.98297" lon="6.57532">
        <ele>2441.41</ele>
        <time>2019-03-19T12:56:07Z</time>
      </trkpt>
      <trkpt lat="45.98292" lon="6.57536">
        <ele>2444.29</ele>
        <time>2019-03-19T12:56:24Z</time>
      </trkpt>
      <trkpt lat="45.98286" lon="6.57539">
        <ele>2447.17</ele>
        <time>2019-03-19T12:56:44Z</time>
      </trkpt>
      <trkpt lat="45.9828" lon="6.5754">
        <ele>2450.54</ele>
        <time>2019-03-19T12:57:04Z</time>
      </trkpt>
      <trkpt lat="45.98272" lon="6.57546">
        <ele>2453.42</ele>
        <time>2019-03-19T12:57:27Z</time>
      </trkpt>
      <trkpt lat="45.98267" lon="6.5755">
        <ele>2456.79</ele>
        <time>2019-03-19T12:57:44Z</time>
      </trkpt>
      <trkpt lat="45.98259" lon="6.57552">
        <ele>2459.67</ele>
        <time>2019-03-19T12:58:04Z</time>
      </trkpt>
      <trkpt lat="45.98254" lon="6.57549">
        <ele>2463.04</ele>
        <time>2019-03-19T12:58:23Z</time>
      </trkpt>
      <trkpt lat="45.98246" lon="6.5755">
        <ele>2465.92</ele>
        <time>2019-03-19T12:58:47Z</time>
      </trkpt>
      <trkpt lat="45.98242" lon="6.57554">
        <ele>2469.28</ele>
        <time>2019-03-19T12:59:08Z</time>
      </trkpt>
      <trkpt lat="45.98235" lon="6.5755">
        <ele>2472.17</ele>
        <time>2019-03-19T12:59:31Z</time>
      </trkpt>
      <trkpt lat="45.98231" lon="6.57546">
        <ele>2475.53</ele>
        <time>2019-03-19T12:59:51Z</time>
      </trkpt>
      <trkpt lat="45.98227" lon="6.57545">
        <ele>2478.42</ele>
        <time>2019-03-19T13:00:07Z</time>
      </trkpt>
      <trkpt lat="45.98221" lon="6.57546">
        <ele>2481.78</ele>
        <time>2019-03-19T13:00:23Z</time>
      </trkpt>
      <trkpt lat="45.98215" lon="6.57555">
        <ele>2484.66</ele>
        <time>2019-03-19T13:00:41Z</time>
      </trkpt>
      <trkpt lat="45.98213" lon="6.57561">
        <ele>2487.55</ele>
        <time>2019-03-19T13:00:55Z</time>
      </trkpt>
      <trkpt lat="45.98209" lon="6.57567">
        <ele>2490.91</ele>
        <time>2019-03-19T13:01:09Z</time>
      </trkpt>
      <trkpt lat="45.98206" lon="6.57577">
        <ele>2492.84</ele>
        <time>2019-03-19T13:01:30Z</time>
      </trkpt>
      <trkpt lat="45.98201" lon="6.57585">
        <ele>2495.72</ele>
        <time>2019-03-19T13:01:48Z</time>
      </trkpt>
      <trkpt lat="45.98197" lon="6.57588">
        <ele>2498.6</ele>
        <time>2019-03-19T13:02:01Z</time>
      </trkpt>
      <trkpt lat="45.98193" lon="6.5759">
        <ele>2500.05</ele>
        <time>2019-03-19T13:02:11Z</time>
      </trkpt>
      <trkpt lat="45.98187" lon="6.57593">
        <ele>2503.41</ele>
        <time>2019-03-19T13:02:26Z</time>
      </trkpt>
      <trkpt lat="45.98181" lon="6.57597">
        <ele>2506.77</ele>
        <time>2019-03-19T13:02:46Z</time>
      </trkpt>
      <trkpt lat="45.98177" lon="6.57604">
        <ele>2509.66</ele>
        <time>2019-03-19T13:03:04Z</time>
      </trkpt>
      <trkpt lat="45.98175" lon="6.57609">
        <ele>2512.54</ele>
        <time>2019-03-19T13:03:20Z</time>
      </trkpt>
      <trkpt lat="45.98174" lon="6.57621">
        <ele>2515.91</ele>
        <time>2019-03-19T13:03:42Z</time>
      </trkpt>
      <trkpt lat="45.98174" lon="6.57629">
        <ele>2516.39</ele>
        <time>2019-03-19T13:03:52Z</time>
      </trkpt>
      <trkpt lat="45.98174" lon="6.57647">
        <ele>2519.75</ele>
        <time>2019-03-19T13:04:19Z</time>
      </trkpt>
      <trkpt lat="45.98175" lon="6.57652">
        <ele>2521.19</ele>
        <time>2019-03-19T13:05:16Z</time>
      </trkpt>
      <trkpt lat="45.98173" lon="6.57653">
        <ele>2520.71</ele>
        <time>2019-03-19T13:06:14Z</time>
      </trkpt>
      <trkpt lat="45.98173" lon="6.57652">
        <ele>2520.71</ele>
        <time>2019-03-19T13:06:47Z</time>
      </trkpt>
      <trkpt lat="45.98173" lon="6.57652">
        <ele>2520.71</ele>
        <time>2019-03-19T13:07:23Z</time>
      </trkpt>
      <trkpt lat="45.98173" lon="6.57652">
        <ele>2520.71</ele>
        <time>2019-03-19T13:07:54Z</time>
      </trkpt>
      <trkpt lat="45.98173" lon="6.57654">
        <ele>2520.23</ele>
        <time>2019-03-19T13:08:27Z</time>
      </trkpt>
      <trkpt lat="45.98173" lon="6.57654">
        <ele>2520.23</ele>
        <time>2019-03-19T13:09:00Z</time>
      </trkpt>
      <trkpt lat="45.98173" lon="6.57655">
        <ele>2520.23</ele>
        <time>2019-03-19T13:09:44Z</time>
      </trkpt>
      <trkpt lat="45.98173" lon="6.57651">
        <ele>2520.23</ele>
        <time>2019-03-19T13:10:27Z</time>
      </trkpt>
      <trkpt lat="45.98174" lon="6.57652">
        <ele>2520.71</ele>
        <time>2019-03-19T13:11:09Z</time>
      </trkpt>
      <trkpt lat="45.98174" lon="6.57649">
        <ele>2520.23</ele>
        <time>2019-03-19T13:11:29Z</time>
      </trkpt>
      <trkpt lat="45.98174" lon="6.57645">
        <ele>2519.75</ele>
        <time>2019-03-19T13:11:30Z</time>
      </trkpt>
      <trkpt lat="45.98174" lon="6.5764">
        <ele>2519.27</ele>
        <time>2019-03-19T13:11:31Z</time>
      </trkpt>
      <trkpt lat="45.98174" lon="6.57637">
        <ele>2518.79</ele>
        <time>2019-03-19T13:11:32Z</time>
      </trkpt>
      <trkpt lat="45.98174" lon="6.57633">
        <ele>2518.79</ele>
        <time>2019-03-19T13:11:33Z</time>
      </trkpt>
      <trkpt lat="45.98174" lon="6.57628">
        <ele>2517.83</ele>
        <time>2019-03-19T13:11:34Z</time>
      </trkpt>
      <trkpt lat="45.98175" lon="6.57625">
        <ele>2516.87</ele>
        <time>2019-03-19T13:11:35Z</time>
      </trkpt>
      <trkpt lat="45.98177" lon="6.57624">
        <ele>2516.39</ele>
        <time>2019-03-19T13:11:36Z</time>
      </trkpt>
      <trkpt lat="45.98179" lon="6.57621">
        <ele>2515.43</ele>
        <time>2019-03-19T13:11:37Z</time>
      </trkpt>
      <trkpt lat="45.9818" lon="6.57617">
        <ele>2514.95</ele>
        <time>2019-03-19T13:11:38Z</time>
      </trkpt>
      <trkpt lat="45.9818" lon="6.57612">
        <ele>2513.5</ele>
        <time>2019-03-19T13:11:39Z</time>
      </trkpt>
      <trkpt lat="45.98179" lon="6.57609">
        <ele>2512.54</ele>
        <time>2019-03-19T13:11:40Z</time>
      </trkpt>
      <trkpt lat="45.98178" lon="6.57606">
        <ele>2511.58</ele>
        <time>2019-03-19T13:11:41Z</time>
      </trkpt>
      <trkpt lat="45.98177" lon="6.57603">
        <ele>2511.1</ele>
        <time>2019-03-19T13:11:42Z</time>
      </trkpt>
      <trkpt lat="45.98178" lon="6.57598">
        <ele>2510.62</ele>
        <time>2019-03-19T13:11:43Z</time>
      </trkpt>
      <trkpt lat="45.9818" lon="6.57595">
        <ele>2509.18</ele>
        <time>2019-03-19T13:11:44Z</time>
      </trkpt>
      <trkpt lat="45.98183" lon="6.57594">
        <ele>2507.26</ele>
        <time>2019-03-19T13:11:45Z</time>
      </trkpt>
      <trkpt lat="45.98185" lon="6.57594">
        <ele>2506.29</ele>
        <time>2019-03-19T13:11:46Z</time>
      </trkpt>
      <trkpt lat="45.98187" lon="6.57595">
        <ele>2505.33</ele>
        <time>2019-03-19T13:11:47Z</time>
      </trkpt>
      <trkpt lat="45.98188" lon="6.57596">
        <ele>2504.85</ele>
        <time>2019-03-19T13:11:48Z</time>
      </trkpt>
      <trkpt lat="45.9819" lon="6.57596">
        <ele>2504.37</ele>
        <time>2019-03-19T13:11:49Z</time>
      </trkpt>
      <trkpt lat="45.98192" lon="6.57598">
        <ele>2504.37</ele>
        <time>2019-03-19T13:11:50Z</time>
      </trkpt>
      <trkpt lat="45.98194" lon="6.57599">
        <ele>2503.89</ele>
        <time>2019-03-19T13:11:51Z</time>
      </trkpt>
      <trkpt lat="45.98196" lon="6.57601">
        <ele>2503.41</ele>
        <time>2019-03-19T13:11:52Z</time>
      </trkpt>
      <trkpt lat="45.982" lon="6.57604">
        <ele>2501.49</ele>
        <time>2019-03-19T13:11:56Z</time>
      </trkpt>
      <trkpt lat="45.98201" lon="6.57602">
        <ele>2501.49</ele>
        <time>2019-03-19T13:11:57Z</time>
      </trkpt>
      <trkpt lat="45.98202" lon="6.57598">
        <ele>2500.53</ele>
        <time>2019-03-19T13:11:58Z</time>
      </trkpt>
      <trkpt lat="45.98202" lon="6.57593">
        <ele>2499.57</ele>
        <time>2019-03-19T13:11:59Z</time>
      </trkpt>
      <trkpt lat="45.98201" lon="6.57587">
        <ele>2499.08</ele>
        <time>2019-03-19T13:12:00Z</time>
      </trkpt>
      <trkpt lat="45.98201" lon="6.57583">
        <ele>2498.12</ele>
        <time>2019-03-19T13:12:01Z</time>
      </trkpt>
      <trkpt lat="45.98201" lon="6.57581">
        <ele>2497.16</ele>
        <time>2019-03-19T13:12:02Z</time>
      </trkpt>
      <trkpt lat="45.98203" lon="6.5758">
        <ele>2496.68</ele>
        <time>2019-03-19T13:12:05Z</time>
      </trkpt>
      <trkpt lat="45.98204" lon="6.5758">
        <ele>2496.2</ele>
        <time>2019-03-19T13:12:06Z</time>
      </trkpt>
      <trkpt lat="45.98205" lon="6.5758">
        <ele>2495.72</ele>
        <time>2019-03-19T13:12:07Z</time>
      </trkpt>
      <trkpt lat="45.98206" lon="6.57579">
        <ele>2495.24</ele>
        <time>2019-03-19T13:12:08Z</time>
      </trkpt>
      <trkpt lat="45.9821" lon="6.57577">
        <ele>2494.28</ele>
        <time>2019-03-19T13:12:14Z</time>
      </trkpt>
      <trkpt lat="45.98212" lon="6.57578">
        <ele>2493.8</ele>
        <time>2019-03-19T13:12:15Z</time>
      </trkpt>
      <trkpt lat="45.98213" lon="6.5758">
        <ele>2492.36</ele>
        <time>2019-03-19T13:12:16Z</time>
      </trkpt>
      <trkpt lat="45.98214" lon="6.57582">
        <ele>2491.39</ele>
        <time>2019-03-19T13:12:17Z</time>
      </trkpt>
      <trkpt lat="45.98215" lon="6.57583">
        <ele>2491.39</ele>
        <time>2019-03-19T13:12:18Z</time>
      </trkpt>
      <trkpt lat="45.98218" lon="6.57585">
        <ele>2490.43</ele>
        <time>2019-03-19T13:12:23Z</time>
      </trkpt>
      <trkpt lat="45.9822" lon="6.57582">
        <ele>2489.95</ele>
        <time>2019-03-19T13:12:24Z</time>
      </trkpt>
      <trkpt lat="45.98221" lon="6.5758">
        <ele>2489.47</ele>
        <time>2019-03-19T13:12:25Z</time>
      </trkpt>
      <trkpt lat="45.98221" lon="6.57577">
        <ele>2488.51</ele>
        <time>2019-03-19T13:12:26Z</time>
      </trkpt>
      <trkpt lat="45.98221" lon="6.57574">
        <ele>2488.03</ele>
        <time>2019-03-19T13:12:27Z</time>
      </trkpt>
      <trkpt lat="45.98221" lon="6.57572">
        <ele>2488.03</ele>
        <time>2019-03-19T13:12:28Z</time>
      </trkpt>
      <trkpt lat="45.98222" lon="6.57569">
        <ele>2487.55</ele>
        <time>2019-03-19T13:12:29Z</time>
      </trkpt>
      <trkpt lat="45.98224" lon="6.57567">
        <ele>2487.07</ele>
        <time>2019-03-19T13:12:30Z</time>
      </trkpt>
      <trkpt lat="45.98228" lon="6.57567">
        <ele>2486.11</ele>
        <time>2019-03-19T13:12:31Z</time>
      </trkpt>
      <trkpt lat="45.98231" lon="6.57568">
        <ele>2484.66</ele>
        <time>2019-03-19T13:12:32Z</time>
      </trkpt>
      <trkpt lat="45.98234" lon="6.57566">
        <ele>2483.7</ele>
        <time>2019-03-19T13:12:33Z</time>
      </trkpt>
      <trkpt lat="45.98238" lon="6.57564">
        <ele>2482.26</ele>
        <time>2019-03-19T13:12:34Z</time>
      </trkpt>
      <trkpt lat="45.98241" lon="6.57565">
        <ele>2480.34</ele>
        <time>2019-03-19T13:12:35Z</time>
      </trkpt>
      <trkpt lat="45.98243" lon="6.57567">
        <ele>2478.42</ele>
        <time>2019-03-19T13:12:36Z</time>
      </trkpt>
      <trkpt lat="45.98244" lon="6.57568">
        <ele>2477.94</ele>
        <time>2019-03-19T13:12:37Z</time>
      </trkpt>
      <trkpt lat="45.98247" lon="6.57567">
        <ele>2476.97</ele>
        <time>2019-03-19T13:12:38Z</time>
      </trkpt>
      <trkpt lat="45.98249" lon="6.57564">
        <ele>2475.53</ele>
        <time>2019-03-19T13:12:39Z</time>
      </trkpt>
      <trkpt lat="45.98251" lon="6.57563">
        <ele>2474.09</ele>
        <time>2019-03-19T13:12:40Z</time>
      </trkpt>
      <trkpt lat="45.98253" lon="6.57564">
        <ele>2473.61</ele>
        <time>2019-03-19T13:12:41Z</time>
      </trkpt>
      <trkpt lat="45.98254" lon="6.57566">
        <ele>2471.21</ele>
        <time>2019-03-19T13:12:42Z</time>
      </trkpt>
      <trkpt lat="45.98255" lon="6.57566">
        <ele>2469.28</ele>
        <time>2019-03-19T13:12:45Z</time>
      </trkpt>
      <trkpt lat="45.98257" lon="6.57564">
        <ele>2468.8</ele>
        <time>2019-03-19T13:12:46Z</time>
      </trkpt>
      <trkpt lat="45.98258" lon="6.57561">
        <ele>2468.32</ele>
        <time>2019-03-19T13:12:47Z</time>
      </trkpt>
      <trkpt lat="45.98259" lon="6.57558">
        <ele>2467.36</ele>
        <time>2019-03-19T13:12:48Z</time>
      </trkpt>
      <trkpt lat="45.98265" lon="6.5755">
        <ele>2464.96</ele>
        <time>2019-03-19T13:12:52Z</time>
      </trkpt>
      <trkpt lat="45.98268" lon="6.57551">
        <ele>2464</ele>
        <time>2019-03-19T13:12:53Z</time>
      </trkpt>
      <trkpt lat="45.98271" lon="6.57551">
        <ele>2463.04</ele>
        <time>2019-03-19T13:12:54Z</time>
      </trkpt>
      <trkpt lat="45.98274" lon="6.5755">
        <ele>2461.59</ele>
        <time>2019-03-19T13:12:55Z</time>
      </trkpt>
      <trkpt lat="45.98277" lon="6.5755">
        <ele>2460.15</ele>
        <time>2019-03-19T13:12:56Z</time>
      </trkpt>
      <trkpt lat="45.9828" lon="6.57552">
        <ele>2458.23</ele>
        <time>2019-03-19T13:12:57Z</time>
      </trkpt>
      <trkpt lat="45.98283" lon="6.5755">
        <ele>2458.23</ele>
        <time>2019-03-19T13:12:58Z</time>
      </trkpt>
      <trkpt lat="45.98284" lon="6.57547">
        <ele>2456.31</ele>
        <time>2019-03-19T13:12:59Z</time>
      </trkpt>
      <trkpt lat="45.98286" lon="6.57545">
        <ele>2454.38</ele>
        <time>2019-03-19T13:13:00Z</time>
      </trkpt>
      <trkpt lat="45.98288" lon="6.57544">
        <ele>2452.94</ele>
        <time>2019-03-19T13:13:01Z</time>
      </trkpt>
      <trkpt lat="45.98289" lon="6.57546">
        <ele>2451.02</ele>
        <time>2019-03-19T13:13:02Z</time>
      </trkpt>
      <trkpt lat="45.98291" lon="6.57547">
        <ele>2449.58</ele>
        <time>2019-03-19T13:13:03Z</time>
      </trkpt>
      <trkpt lat="45.98292" lon="6.57546">
        <ele>2449.58</ele>
        <time>2019-03-19T13:13:04Z</time>
      </trkpt>
      <trkpt lat="45.98296" lon="6.57549">
        <ele>2447.65</ele>
        <time>2019-03-19T13:13:11Z</time>
      </trkpt>
      <trkpt lat="45.98297" lon="6.57551">
        <ele>2446.69</ele>
        <time>2019-03-19T13:13:12Z</time>
      </trkpt>
      <trkpt lat="45.98298" lon="6.57554">
        <ele>2445.25</ele>
        <time>2019-03-19T13:13:13Z</time>
      </trkpt>
      <trkpt lat="45.98299" lon="6.57565">
        <ele>2443.33</ele>
        <time>2019-03-19T13:13:19Z</time>
      </trkpt>
      <trkpt lat="45.98299" lon="6.57566">
        <ele>2442.85</ele>
        <time>2019-03-19T13:13:20Z</time>
      </trkpt>
      <trkpt lat="45.98301" lon="6.57567">
        <ele>2442.37</ele>
        <time>2019-03-19T13:13:21Z</time>
      </trkpt>
      <trkpt lat="45.98303" lon="6.57566">
        <ele>2442.37</ele>
        <time>2019-03-19T13:13:22Z</time>
      </trkpt>
      <trkpt lat="45.98305" lon="6.57564">
        <ele>2441.41</ele>
        <time>2019-03-19T13:13:23Z</time>
      </trkpt>
      <trkpt lat="45.98308" lon="6.57563">
        <ele>2440.92</ele>
        <time>2019-03-19T13:13:24Z</time>
      </trkpt>
      <trkpt lat="45.9831" lon="6.57564">
        <ele>2439</ele>
        <time>2019-03-19T13:13:25Z</time>
      </trkpt>
      <trkpt lat="45.98313" lon="6.57565">
        <ele>2438.04</ele>
        <time>2019-03-19T13:13:26Z</time>
      </trkpt>
      <trkpt lat="45.98316" lon="6.57561">
        <ele>2437.08</ele>
        <time>2019-03-19T13:13:27Z</time>
      </trkpt>
      <trkpt lat="45.98317" lon="6.57556">
        <ele>2435.64</ele>
        <time>2019-03-19T13:13:28Z</time>
      </trkpt>
      <trkpt lat="45.98318" lon="6.5755">
        <ele>2434.2</ele>
        <time>2019-03-19T13:13:29Z</time>
      </trkpt>
      <trkpt lat="45.9832" lon="6.57544">
        <ele>2433.23</ele>
        <time>2019-03-19T13:13:30Z</time>
      </trkpt>
      <trkpt lat="45.98322" lon="6.57531">
        <ele>2431.31</ele>
        <time>2019-03-19T13:13:32Z</time>
      </trkpt>
      <trkpt lat="45.98327" lon="6.57526">
        <ele>2429.87</ele>
        <time>2019-03-19T13:13:33Z</time>
      </trkpt>
      <trkpt lat="45.98333" lon="6.57521">
        <ele>2427.95</ele>
        <time>2019-03-19T13:13:34Z</time>
      </trkpt>
      <trkpt lat="45.98339" lon="6.57514">
        <ele>2425.54</ele>
        <time>2019-03-19T13:13:35Z</time>
      </trkpt>
      <trkpt lat="45.98344" lon="6.57508">
        <ele>2423.14</ele>
        <time>2019-03-19T13:13:36Z</time>
      </trkpt>
      <trkpt lat="45.98349" lon="6.57501">
        <ele>2421.22</ele>
        <time>2019-03-19T13:13:37Z</time>
      </trkpt>
      <trkpt lat="45.98352" lon="6.57495">
        <ele>2419.3</ele>
        <time>2019-03-19T13:13:38Z</time>
      </trkpt>
      <trkpt lat="45.98354" lon="6.5749">
        <ele>2417.85</ele>
        <time>2019-03-19T13:13:39Z</time>
      </trkpt>
      <trkpt lat="45.98357" lon="6.57487">
        <ele>2417.37</ele>
        <time>2019-03-19T13:13:40Z</time>
      </trkpt>
      <trkpt lat="45.98359" lon="6.57484">
        <ele>2416.89</ele>
        <time>2019-03-19T13:13:41Z</time>
      </trkpt>
      <trkpt lat="45.9836" lon="6.57479">
        <ele>2416.41</ele>
        <time>2019-03-19T13:13:42Z</time>
      </trkpt>
      <trkpt lat="45.98359" lon="6.57474">
        <ele>2416.41</ele>
        <time>2019-03-19T13:13:43Z</time>
      </trkpt>
      <trkpt lat="45.9836" lon="6.57469">
        <ele>2415.93</ele>
        <time>2019-03-19T13:13:44Z</time>
      </trkpt>
      <trkpt lat="45.98361" lon="6.57466">
        <ele>2414.97</ele>
        <time>2019-03-19T13:13:45Z</time>
      </trkpt>
      <trkpt lat="45.98362" lon="6.57463">
        <ele>2414.01</ele>
        <time>2019-03-19T13:13:46Z</time>
      </trkpt>
      <trkpt lat="45.98363" lon="6.5746">
        <ele>2413.53</ele>
        <time>2019-03-19T13:13:47Z</time>
      </trkpt>
      <trkpt lat="45.98362" lon="6.57456">
        <ele>2412.57</ele>
        <time>2019-03-19T13:13:48Z</time>
      </trkpt>
      <trkpt lat="45.9836" lon="6.57451">
        <ele>2412.09</ele>
        <time>2019-03-19T13:13:49Z</time>
      </trkpt>
      <trkpt lat="45.98358" lon="6.57437">
        <ele>2410.16</ele>
        <time>2019-03-19T13:13:53Z</time>
      </trkpt>
      <trkpt lat="45.98359" lon="6.57437">
        <ele>2409.68</ele>
        <time>2019-03-19T13:13:54Z</time>
      </trkpt>
      <trkpt lat="45.98362" lon="6.57436">
        <ele>2408.24</ele>
        <time>2019-03-19T13:13:57Z</time>
      </trkpt>
      <trkpt lat="45.98363" lon="6.57433">
        <ele>2407.76</ele>
        <time>2019-03-19T13:13:58Z</time>
      </trkpt>
      <trkpt lat="45.98362" lon="6.57431">
        <ele>2407.28</ele>
        <time>2019-03-19T13:13:59Z</time>
      </trkpt>
      <trkpt lat="45.98362" lon="6.57429">
        <ele>2407.28</ele>
        <time>2019-03-19T13:14:00Z</time>
      </trkpt>
      <trkpt lat="45.98362" lon="6.57426">
        <ele>2406.8</ele>
        <time>2019-03-19T13:14:01Z</time>
      </trkpt>
      <trkpt lat="45.98363" lon="6.57423">
        <ele>2406.32</ele>
        <time>2019-03-19T13:14:02Z</time>
      </trkpt>
      <trkpt lat="45.98363" lon="6.57421">
        <ele>2405.84</ele>
        <time>2019-03-19T13:14:03Z</time>
      </trkpt>
      <trkpt lat="45.98363" lon="6.5742">
        <ele>2405.36</ele>
        <time>2019-03-19T13:14:04Z</time>
      </trkpt>
      <trkpt lat="45.98364" lon="6.57417">
        <ele>2404.88</ele>
        <time>2019-03-19T13:14:05Z</time>
      </trkpt>
      <trkpt lat="45.98365" lon="6.57414">
        <ele>2403.91</ele>
        <time>2019-03-19T13:14:06Z</time>
      </trkpt>
      <trkpt lat="45.98366" lon="6.5741">
        <ele>2403.43</ele>
        <time>2019-03-19T13:14:07Z</time>
      </trkpt>
      <trkpt lat="45.98367" lon="6.57408">
        <ele>2401.99</ele>
        <time>2019-03-19T13:14:08Z</time>
      </trkpt>
      <trkpt lat="45.98368" lon="6.57405">
        <ele>2401.03</ele>
        <time>2019-03-19T13:14:09Z</time>
      </trkpt>
      <trkpt lat="45.98368" lon="6.57402">
        <ele>2400.07</ele>
        <time>2019-03-19T13:14:10Z</time>
      </trkpt>
      <trkpt lat="45.98369" lon="6.574">
        <ele>2399.59</ele>
        <time>2019-03-19T13:14:11Z</time>
      </trkpt>
      <trkpt lat="45.98371" lon="6.57398">
        <ele>2398.63</ele>
        <time>2019-03-19T13:14:12Z</time>
      </trkpt>
      <trkpt lat="45.98372" lon="6.57395">
        <ele>2398.15</ele>
        <time>2019-03-19T13:14:13Z</time>
      </trkpt>
      <trkpt lat="45.98372" lon="6.57392">
        <ele>2397.18</ele>
        <time>2019-03-19T13:14:14Z</time>
      </trkpt>
      <trkpt lat="45.98373" lon="6.57389">
        <ele>2396.22</ele>
        <time>2019-03-19T13:14:15Z</time>
      </trkpt>
      <trkpt lat="45.98374" lon="6.57387">
        <ele>2395.26</ele>
        <time>2019-03-19T13:14:16Z</time>
      </trkpt>
      <trkpt lat="45.98376" lon="6.57385">
        <ele>2394.3</ele>
        <time>2019-03-19T13:14:17Z</time>
      </trkpt>
      <trkpt lat="45.98377" lon="6.57383">
        <ele>2393.34</ele>
        <time>2019-03-19T13:14:18Z</time>
      </trkpt>
      <trkpt lat="45.98378" lon="6.57382">
        <ele>2392.38</ele>
        <time>2019-03-19T13:14:19Z</time>
      </trkpt>
      <trkpt lat="45.98379" lon="6.57381">
        <ele>2391.9</ele>
        <time>2019-03-19T13:14:20Z</time>
      </trkpt>
      <trkpt lat="45.98381" lon="6.5738">
        <ele>2390.94</ele>
        <time>2019-03-19T13:14:21Z</time>
      </trkpt>
      <trkpt lat="45.98382" lon="6.57379">
        <ele>2389.97</ele>
        <time>2019-03-19T13:14:22Z</time>
      </trkpt>
      <trkpt lat="45.98385" lon="6.57377">
        <ele>2388.53</ele>
        <time>2019-03-19T13:14:25Z</time>
      </trkpt>
      <trkpt lat="45.98387" lon="6.57378">
        <ele>2387.57</ele>
        <time>2019-03-19T13:14:26Z</time>
      </trkpt>
      <trkpt lat="45.98388" lon="6.57378">
        <ele>2386.61</ele>
        <time>2019-03-19T13:14:27Z</time>
      </trkpt>
      <trkpt lat="45.98393" lon="6.57379">
        <ele>2384.69</ele>
        <time>2019-03-19T13:14:31Z</time>
      </trkpt>
      <trkpt lat="45.98394" lon="6.57377">
        <ele>2384.21</ele>
        <time>2019-03-19T13:14:32Z</time>
      </trkpt>
      <trkpt lat="45.98394" lon="6.57374">
        <ele>2384.21</ele>
        <time>2019-03-19T13:14:33Z</time>
      </trkpt>
      <trkpt lat="45.98395" lon="6.57372">
        <ele>2383.73</ele>
        <time>2019-03-19T13:14:34Z</time>
      </trkpt>
      <trkpt lat="45.98397" lon="6.5737">
        <ele>2381.8</ele>
        <time>2019-03-19T13:14:35Z</time>
      </trkpt>
      <trkpt lat="45.98398" lon="6.57368">
        <ele>2381.32</ele>
        <time>2019-03-19T13:14:36Z</time>
      </trkpt>
      <trkpt lat="45.98399" lon="6.57365">
        <ele>2380.36</ele>
        <time>2019-03-19T13:14:37Z</time>
      </trkpt>
      <trkpt lat="45.98401" lon="6.57363">
        <ele>2379.4</ele>
        <time>2019-03-19T13:14:38Z</time>
      </trkpt>
      <trkpt lat="45.98403" lon="6.57361">
        <ele>2377.96</ele>
        <time>2019-03-19T13:14:39Z</time>
      </trkpt>
      <trkpt lat="45.98404" lon="6.5736">
        <ele>2377</ele>
        <time>2019-03-19T13:14:40Z</time>
      </trkpt>
      <trkpt lat="45.98404" lon="6.57358">
        <ele>2374.59</ele>
        <time>2019-03-19T13:14:44Z</time>
      </trkpt>
      <trkpt lat="45.98409" lon="6.57352">
        <ele>2373.15</ele>
        <time>2019-03-19T13:14:49Z</time>
      </trkpt>
      <trkpt lat="45.9841" lon="6.57353">
        <ele>2372.19</ele>
        <time>2019-03-19T13:14:50Z</time>
      </trkpt>
      <trkpt lat="45.98412" lon="6.57353">
        <ele>2371.23</ele>
        <time>2019-03-19T13:14:51Z</time>
      </trkpt>
      <trkpt lat="45.98414" lon="6.57353">
        <ele>2370.75</ele>
        <time>2019-03-19T13:14:52Z</time>
      </trkpt>
      <trkpt lat="45.98416" lon="6.57352">
        <ele>2370.75</ele>
        <time>2019-03-19T13:14:53Z</time>
      </trkpt>
      <trkpt lat="45.98417" lon="6.57348">
        <ele>2369.79</ele>
        <time>2019-03-19T13:14:54Z</time>
      </trkpt>
      <trkpt lat="45.98419" lon="6.57345">
        <ele>2368.83</ele>
        <time>2019-03-19T13:14:55Z</time>
      </trkpt>
      <trkpt lat="45.98421" lon="6.57344">
        <ele>2366.9</ele>
        <time>2019-03-19T13:14:56Z</time>
      </trkpt>
      <trkpt lat="45.98423" lon="6.57345">
        <ele>2365.46</ele>
        <time>2019-03-19T13:14:57Z</time>
      </trkpt>
      <trkpt lat="45.98425" lon="6.57345">
        <ele>2364.98</ele>
        <time>2019-03-19T13:14:58Z</time>
      </trkpt>
      <trkpt lat="45.98427" lon="6.57343">
        <ele>2364.5</ele>
        <time>2019-03-19T13:14:59Z</time>
      </trkpt>
      <trkpt lat="45.98429" lon="6.57341">
        <ele>2363.54</ele>
        <time>2019-03-19T13:15:00Z</time>
      </trkpt>
      <trkpt lat="45.98432" lon="6.57339">
        <ele>2362.1</ele>
        <time>2019-03-19T13:15:01Z</time>
      </trkpt>
      <trkpt lat="45.98438" lon="6.57333">
        <ele>2359.21</ele>
        <time>2019-03-19T13:15:03Z</time>
      </trkpt>
      <trkpt lat="45.98442" lon="6.57329">
        <ele>2357.77</ele>
        <time>2019-03-19T13:15:04Z</time>
      </trkpt>
      <trkpt lat="45.98446" lon="6.57323">
        <ele>2356.81</ele>
        <time>2019-03-19T13:15:05Z</time>
      </trkpt>
      <trkpt lat="45.98445" lon="6.57315">
        <ele>2354.41</ele>
        <time>2019-03-19T13:15:06Z</time>
      </trkpt>
      <trkpt lat="45.98445" lon="6.57308">
        <ele>2352</ele>
        <time>2019-03-19T13:15:07Z</time>
      </trkpt>
      <trkpt lat="45.98447" lon="6.57303">
        <ele>2350.56</ele>
        <time>2019-03-19T13:15:08Z</time>
      </trkpt>
      <trkpt lat="45.9845" lon="6.57301">
        <ele>2348.64</ele>
        <time>2019-03-19T13:15:09Z</time>
      </trkpt>
      <trkpt lat="45.98453" lon="6.57297">
        <ele>2347.2</ele>
        <time>2019-03-19T13:15:10Z</time>
      </trkpt>
      <trkpt lat="45.98454" lon="6.57292">
        <ele>2345.75</ele>
        <time>2019-03-19T13:15:11Z</time>
      </trkpt>
      <trkpt lat="45.98457" lon="6.57286">
        <ele>2344.79</ele>
        <time>2019-03-19T13:15:12Z</time>
      </trkpt>
      <trkpt lat="45.98461" lon="6.57282">
        <ele>2342.39</ele>
        <time>2019-03-19T13:15:13Z</time>
      </trkpt>
      <trkpt lat="45.98465" lon="6.57276">
        <ele>2340.95</ele>
        <time>2019-03-19T13:15:14Z</time>
      </trkpt>
      <trkpt lat="45.98469" lon="6.5727">
        <ele>2339.02</ele>
        <time>2019-03-19T13:15:15Z</time>
      </trkpt>
      <trkpt lat="45.98473" lon="6.57263">
        <ele>2337.1</ele>
        <time>2019-03-19T13:15:16Z</time>
      </trkpt>
      <trkpt lat="45.98475" lon="6.57255">
        <ele>2335.66</ele>
        <time>2019-03-19T13:15:17Z</time>
      </trkpt>
      <trkpt lat="45.98477" lon="6.57248">
        <ele>2334.22</ele>
        <time>2019-03-19T13:15:18Z</time>
      </trkpt>
      <trkpt lat="45.9848" lon="6.57242">
        <ele>2332.78</ele>
        <time>2019-03-19T13:15:19Z</time>
      </trkpt>
      <trkpt lat="45.98482" lon="6.57235">
        <ele>2331.81</ele>
        <time>2019-03-19T13:15:20Z</time>
      </trkpt>
      <trkpt lat="45.98485" lon="6.57227">
        <ele>2330.37</ele>
        <time>2019-03-19T13:15:21Z</time>
      </trkpt>
      <trkpt lat="45.98488" lon="6.57219">
        <ele>2328.45</ele>
        <time>2019-03-19T13:15:22Z</time>
      </trkpt>
      <trkpt lat="45.98491" lon="6.57211">
        <ele>2327.01</ele>
        <time>2019-03-19T13:15:23Z</time>
      </trkpt>
      <trkpt lat="45.98494" lon="6.57203">
        <ele>2325.57</ele>
        <time>2019-03-19T13:15:24Z</time>
      </trkpt>
      <trkpt lat="45.98497" lon="6.57194">
        <ele>2324.61</ele>
        <time>2019-03-19T13:15:25Z</time>
      </trkpt>
      <trkpt lat="45.98501" lon="6.57185">
        <ele>2323.16</ele>
        <time>2019-03-19T13:15:26Z</time>
      </trkpt>
      <trkpt lat="45.98508" lon="6.57166">
        <ele>2318.84</ele>
        <time>2019-03-19T13:15:28Z</time>
      </trkpt>
      <trkpt lat="45.98514" lon="6.57144">
        <ele>2315.47</ele>
        <time>2019-03-19T13:15:30Z</time>
      </trkpt>
      <trkpt lat="45.98519" lon="6.57121">
        <ele>2312.11</ele>
        <time>2019-03-19T13:15:32Z</time>
      </trkpt>
      <trkpt lat="45.98526" lon="6.57099">
        <ele>2309.22</ele>
        <time>2019-03-19T13:15:34Z</time>
      </trkpt>
      <trkpt lat="45.9854" lon="6.57069">
        <ele>2305.38</ele>
        <time>2019-03-19T13:15:37Z</time>
      </trkpt>
      <trkpt lat="45.98564" lon="6.57029">
        <ele>2304.42</ele>
        <time>2019-03-19T13:15:43Z</time>
      </trkpt>
      <trkpt lat="45.98575" lon="6.57016">
        <ele>2306.34</ele>
        <time>2019-03-19T13:15:47Z</time>
      </trkpt>
      <trkpt lat="45.98591" lon="6.56995">
        <ele>2306.82</ele>
        <time>2019-03-19T13:16:03Z</time>
      </trkpt>
      <trkpt lat="45.98632" lon="6.56964">
        <ele>2305.86</ele>
        <time>2019-03-19T13:16:32Z</time>
      </trkpt>
      <trkpt lat="45.98669" lon="6.56946">
        <ele>2302.98</ele>
        <time>2019-03-19T13:16:44Z</time>
      </trkpt>
      <trkpt lat="45.98673" lon="6.56944">
        <ele>2302.01</ele>
        <time>2019-03-19T13:16:45Z</time>
      </trkpt>
      <trkpt lat="45.98677" lon="6.56944">
        <ele>2301.05</ele>
        <time>2019-03-19T13:16:46Z</time>
      </trkpt>
      <trkpt lat="45.98681" lon="6.56948">
        <ele>2299.61</ele>
        <time>2019-03-19T13:16:47Z</time>
      </trkpt>
      <trkpt lat="45.98685" lon="6.56951">
        <ele>2298.65</ele>
        <time>2019-03-19T13:16:48Z</time>
      </trkpt>
      <trkpt lat="45.9869" lon="6.56953">
        <ele>2297.21</ele>
        <time>2019-03-19T13:16:49Z</time>
      </trkpt>
      <trkpt lat="45.98695" lon="6.56956">
        <ele>2294.8</ele>
        <time>2019-03-19T13:16:50Z</time>
      </trkpt>
      <trkpt lat="45.987" lon="6.56959">
        <ele>2292.4</ele>
        <time>2019-03-19T13:16:51Z</time>
      </trkpt>
      <trkpt lat="45.98705" lon="6.5696">
        <ele>2290.48</ele>
        <time>2019-03-19T13:16:52Z</time>
      </trkpt>
      <trkpt lat="45.98711" lon="6.56962">
        <ele>2288.56</ele>
        <time>2019-03-19T13:16:53Z</time>
      </trkpt>
      <trkpt lat="45.98717" lon="6.56965">
        <ele>2286.63</ele>
        <time>2019-03-19T13:16:54Z</time>
      </trkpt>
      <trkpt lat="45.98724" lon="6.56969">
        <ele>2284.71</ele>
        <time>2019-03-19T13:16:55Z</time>
      </trkpt>
      <trkpt lat="45.98731" lon="6.56973">
        <ele>2282.79</ele>
        <time>2019-03-19T13:16:56Z</time>
      </trkpt>
      <trkpt lat="45.98737" lon="6.56976">
        <ele>2279.42</ele>
        <time>2019-03-19T13:16:57Z</time>
      </trkpt>
      <trkpt lat="45.98745" lon="6.5698">
        <ele>2276.54</ele>
        <time>2019-03-19T13:16:58Z</time>
      </trkpt>
      <trkpt lat="45.98754" lon="6.56983">
        <ele>2274.62</ele>
        <time>2019-03-19T13:16:59Z</time>
      </trkpt>
      <trkpt lat="45.98763" lon="6.56986">
        <ele>2272.21</ele>
        <time>2019-03-19T13:17:00Z</time>
      </trkpt>
      <trkpt lat="45.98773" lon="6.5699">
        <ele>2268.85</ele>
        <time>2019-03-19T13:17:01Z</time>
      </trkpt>
      <trkpt lat="45.98783" lon="6.56995">
        <ele>2266.93</ele>
        <time>2019-03-19T13:17:02Z</time>
      </trkpt>
      <trkpt lat="45.98794" lon="6.56998">
        <ele>2262.6</ele>
        <time>2019-03-19T13:17:03Z</time>
      </trkpt>
      <trkpt lat="45.98803" lon="6.57002">
        <ele>2257.79</ele>
        <time>2019-03-19T13:17:04Z</time>
      </trkpt>
      <trkpt lat="45.98832" lon="6.57015">
        <ele>2253.47</ele>
        <time>2019-03-19T13:17:07Z</time>
      </trkpt>
      <trkpt lat="45.98839" lon="6.57018">
        <ele>2252.51</ele>
        <time>2019-03-19T13:17:08Z</time>
      </trkpt>
      <trkpt lat="45.98846" lon="6.5702">
        <ele>2252.99</ele>
        <time>2019-03-19T13:17:09Z</time>
      </trkpt>
      <trkpt lat="45.98895" lon="6.57033">
        <ele>2254.91</ele>
        <time>2019-03-19T13:17:20Z</time>
      </trkpt>
      <trkpt lat="45.9894" lon="6.57042">
        <ele>2255.39</ele>
        <time>2019-03-19T13:17:41Z</time>
      </trkpt>
      <trkpt lat="45.9898" lon="6.57057">
        <ele>2251.54</ele>
        <time>2019-03-19T13:18:02Z</time>
      </trkpt>
      <trkpt lat="45.98992" lon="6.57062">
        <ele>2248.18</ele>
        <time>2019-03-19T13:18:04Z</time>
      </trkpt>
      <trkpt lat="45.99009" lon="6.57072">
        <ele>2244.82</ele>
        <time>2019-03-19T13:18:07Z</time>
      </trkpt>
      <trkpt lat="45.99032" lon="6.57087">
        <ele>2241.93</ele>
        <time>2019-03-19T13:18:11Z</time>
      </trkpt>
      <trkpt lat="45.99053" lon="6.57104">
        <ele>2238.57</ele>
        <time>2019-03-19T13:18:15Z</time>
      </trkpt>
      <trkpt lat="45.99063" lon="6.57111">
        <ele>2238.09</ele>
        <time>2019-03-19T13:18:17Z</time>
      </trkpt>
      <trkpt lat="45.99079" lon="6.57125">
        <ele>2237.61</ele>
        <time>2019-03-19T13:18:21Z</time>
      </trkpt>
      <trkpt lat="45.99083" lon="6.57127">
        <ele>2237.61</ele>
        <time>2019-03-19T13:18:22Z</time>
      </trkpt>
      <trkpt lat="45.99086" lon="6.57127">
        <ele>2237.61</ele>
        <time>2019-03-19T13:18:23Z</time>
      </trkpt>
      <trkpt lat="45.99089" lon="6.57129">
        <ele>2237.13</ele>
        <time>2019-03-19T13:18:24Z</time>
      </trkpt>
      <trkpt lat="45.99091" lon="6.57131">
        <ele>2237.13</ele>
        <time>2019-03-19T13:18:25Z</time>
      </trkpt>
      <trkpt lat="45.99093" lon="6.57132">
        <ele>2237.13</ele>
        <time>2019-03-19T13:18:26Z</time>
      </trkpt>
      <trkpt lat="45.99095" lon="6.57132">
        <ele>2237.13</ele>
        <time>2019-03-19T13:18:29Z</time>
      </trkpt>
      <trkpt lat="45.99095" lon="6.57131">
        <ele>2237.13</ele>
        <time>2019-03-19T13:18:30Z</time>
      </trkpt>
      <trkpt lat="45.991" lon="6.57121">
        <ele>2236.16</ele>
        <time>2019-03-19T13:18:35Z</time>
      </trkpt>
      <trkpt lat="45.99102" lon="6.5712">
        <ele>2235.68</ele>
        <time>2019-03-19T13:18:36Z</time>
      </trkpt>
      <trkpt lat="45.99106" lon="6.57122">
        <ele>2234.72</ele>
        <time>2019-03-19T13:18:37Z</time>
      </trkpt>
      <trkpt lat="45.99108" lon="6.57124">
        <ele>2233.76</ele>
        <time>2019-03-19T13:18:38Z</time>
      </trkpt>
      <trkpt lat="45.99109" lon="6.57126">
        <ele>2232.8</ele>
        <time>2019-03-19T13:18:39Z</time>
      </trkpt>
      <trkpt lat="45.9911" lon="6.57126">
        <ele>2231.84</ele>
        <time>2019-03-19T13:18:40Z</time>
      </trkpt>
      <trkpt lat="45.99113" lon="6.57124">
        <ele>2231.84</ele>
        <time>2019-03-19T13:18:45Z</time>
      </trkpt>
      <trkpt lat="45.99115" lon="6.57122">
        <ele>2231.36</ele>
        <time>2019-03-19T13:18:46Z</time>
      </trkpt>
      <trkpt lat="45.99118" lon="6.5712">
        <ele>2230.4</ele>
        <time>2019-03-19T13:18:47Z</time>
      </trkpt>
      <trkpt lat="45.99127" lon="6.57119">
        <ele>2226.55</ele>
        <time>2019-03-19T13:18:50Z</time>
      </trkpt>
      <trkpt lat="45.9913" lon="6.57118">
        <ele>2225.11</ele>
        <time>2019-03-19T13:18:51Z</time>
      </trkpt>
      <trkpt lat="45.99132" lon="6.57115">
        <ele>2223.67</ele>
        <time>2019-03-19T13:18:52Z</time>
      </trkpt>
      <trkpt lat="45.99134" lon="6.57112">
        <ele>2222.22</ele>
        <time>2019-03-19T13:18:53Z</time>
      </trkpt>
      <trkpt lat="45.99137" lon="6.57112">
        <ele>2221.26</ele>
        <time>2019-03-19T13:18:54Z</time>
      </trkpt>
      <trkpt lat="45.9914" lon="6.5711">
        <ele>2219.82</ele>
        <time>2019-03-19T13:18:55Z</time>
      </trkpt>
      <trkpt lat="45.99141" lon="6.57106">
        <ele>2218.38</ele>
        <time>2019-03-19T13:18:56Z</time>
      </trkpt>
      <trkpt lat="45.99142" lon="6.57102">
        <ele>2216.94</ele>
        <time>2019-03-19T13:18:57Z</time>
      </trkpt>
      <trkpt lat="45.99145" lon="6.57101">
        <ele>2215.5</ele>
        <time>2019-03-19T13:18:58Z</time>
      </trkpt>
      <trkpt lat="45.99147" lon="6.57102">
        <ele>2213.57</ele>
        <time>2019-03-19T13:18:59Z</time>
      </trkpt>
      <trkpt lat="45.99148" lon="6.57105">
        <ele>2212.61</ele>
        <time>2019-03-19T13:19:00Z</time>
      </trkpt>
      <trkpt lat="45.99149" lon="6.57108">
        <ele>2210.69</ele>
        <time>2019-03-19T13:19:01Z</time>
      </trkpt>
      <trkpt lat="45.99151" lon="6.57108">
        <ele>2210.21</ele>
        <time>2019-03-19T13:19:02Z</time>
      </trkpt>
      <trkpt lat="45.99154" lon="6.57105">
        <ele>2209.73</ele>
        <time>2019-03-19T13:19:03Z</time>
      </trkpt>
      <trkpt lat="45.99156" lon="6.57103">
        <ele>2208.77</ele>
        <time>2019-03-19T13:19:04Z</time>
      </trkpt>
      <trkpt lat="45.99159" lon="6.57104">
        <ele>2207.32</ele>
        <time>2019-03-19T13:19:05Z</time>
      </trkpt>
      <trkpt lat="45.9916" lon="6.57102">
        <ele>2206.84</ele>
        <time>2019-03-19T13:19:06Z</time>
      </trkpt>
      <trkpt lat="45.99162" lon="6.57098">
        <ele>2205.4</ele>
        <time>2019-03-19T13:19:07Z</time>
      </trkpt>
      <trkpt lat="45.99164" lon="6.57095">
        <ele>2203.96</ele>
        <time>2019-03-19T13:19:08Z</time>
      </trkpt>
      <trkpt lat="45.99167" lon="6.57087">
        <ele>2202.04</ele>
        <time>2019-03-19T13:19:10Z</time>
      </trkpt>
      <trkpt lat="45.99171" lon="6.57075">
        <ele>2198.67</ele>
        <time>2019-03-19T13:19:13Z</time>
      </trkpt>
      <trkpt lat="45.99175" lon="6.57074">
        <ele>2197.23</ele>
        <time>2019-03-19T13:19:14Z</time>
      </trkpt>
      <trkpt lat="45.99177" lon="6.57071">
        <ele>2195.79</ele>
        <time>2019-03-19T13:19:15Z</time>
      </trkpt>
      <trkpt lat="45.99179" lon="6.57068">
        <ele>2194.35</ele>
        <time>2019-03-19T13:19:16Z</time>
      </trkpt>
      <trkpt lat="45.99182" lon="6.57066">
        <ele>2192.9</ele>
        <time>2019-03-19T13:19:17Z</time>
      </trkpt>
      <trkpt lat="45.99185" lon="6.57065">
        <ele>2191.94</ele>
        <time>2019-03-19T13:19:18Z</time>
      </trkpt>
      <trkpt lat="45.99188" lon="6.57061">
        <ele>2190.02</ele>
        <time>2019-03-19T13:19:19Z</time>
      </trkpt>
      <trkpt lat="45.99191" lon="6.57059">
        <ele>2188.1</ele>
        <time>2019-03-19T13:19:20Z</time>
      </trkpt>
      <trkpt lat="45.99194" lon="6.57056">
        <ele>2186.18</ele>
        <time>2019-03-19T13:19:21Z</time>
      </trkpt>
      <trkpt lat="45.99197" lon="6.57053">
        <ele>2184.25</ele>
        <time>2019-03-19T13:19:22Z</time>
      </trkpt>
      <trkpt lat="45.992" lon="6.57053">
        <ele>2182.33</ele>
        <time>2019-03-19T13:19:23Z</time>
      </trkpt>
      <trkpt lat="45.99203" lon="6.57055">
        <ele>2180.89</ele>
        <time>2019-03-19T13:19:24Z</time>
      </trkpt>
      <trkpt lat="45.99205" lon="6.57054">
        <ele>2179.45</ele>
        <time>2019-03-19T13:19:25Z</time>
      </trkpt>
      <trkpt lat="45.99207" lon="6.5705">
        <ele>2178</ele>
        <time>2019-03-19T13:19:26Z</time>
      </trkpt>
      <trkpt lat="45.99209" lon="6.57047">
        <ele>2176.56</ele>
        <time>2019-03-19T13:19:27Z</time>
      </trkpt>
      <trkpt lat="45.99213" lon="6.57045">
        <ele>2174.64</ele>
        <time>2019-03-19T13:19:28Z</time>
      </trkpt>
      <trkpt lat="45.99215" lon="6.57042">
        <ele>2172.72</ele>
        <time>2019-03-19T13:19:29Z</time>
      </trkpt>
      <trkpt lat="45.99217" lon="6.57037">
        <ele>2171.76</ele>
        <time>2019-03-19T13:19:30Z</time>
      </trkpt>
      <trkpt lat="45.9922" lon="6.57036">
        <ele>2168.87</ele>
        <time>2019-03-19T13:19:31Z</time>
      </trkpt>
      <trkpt lat="45.99223" lon="6.57036">
        <ele>2167.43</ele>
        <time>2019-03-19T13:19:32Z</time>
      </trkpt>
      <trkpt lat="45.99227" lon="6.57036">
        <ele>2165.99</ele>
        <time>2019-03-19T13:19:33Z</time>
      </trkpt>
      <trkpt lat="45.99231" lon="6.57038">
        <ele>2163.58</ele>
        <time>2019-03-19T13:19:34Z</time>
      </trkpt>
      <trkpt lat="45.99235" lon="6.57039">
        <ele>2162.62</ele>
        <time>2019-03-19T13:19:35Z</time>
      </trkpt>
      <trkpt lat="45.99238" lon="6.57036">
        <ele>2161.66</ele>
        <time>2019-03-19T13:19:36Z</time>
      </trkpt>
      <trkpt lat="45.9924" lon="6.57031">
        <ele>2159.74</ele>
        <time>2019-03-19T13:19:37Z</time>
      </trkpt>
      <trkpt lat="45.99243" lon="6.57025">
        <ele>2158.3</ele>
        <time>2019-03-19T13:19:38Z</time>
      </trkpt>
      <trkpt lat="45.99244" lon="6.57018">
        <ele>2156.86</ele>
        <time>2019-03-19T13:19:39Z</time>
      </trkpt>
      <trkpt lat="45.99243" lon="6.57011">
        <ele>2155.41</ele>
        <time>2019-03-19T13:19:40Z</time>
      </trkpt>
      <trkpt lat="45.9924" lon="6.57">
        <ele>2153.01</ele>
        <time>2019-03-19T13:19:42Z</time>
      </trkpt>
      <trkpt lat="45.99242" lon="6.56996">
        <ele>2151.09</ele>
        <time>2019-03-19T13:19:43Z</time>
      </trkpt>
      <trkpt lat="45.99248" lon="6.56995">
        <ele>2149.16</ele>
        <time>2019-03-19T13:19:44Z</time>
      </trkpt>
      <trkpt lat="45.99255" lon="6.56996">
        <ele>2146.76</ele>
        <time>2019-03-19T13:19:45Z</time>
      </trkpt>
      <trkpt lat="45.99261" lon="6.57">
        <ele>2143.88</ele>
        <time>2019-03-19T13:19:46Z</time>
      </trkpt>
      <trkpt lat="45.99265" lon="6.57003">
        <ele>2142.92</ele>
        <time>2019-03-19T13:19:47Z</time>
      </trkpt>
      <trkpt lat="45.99269" lon="6.57003">
        <ele>2142.44</ele>
        <time>2019-03-19T13:19:48Z</time>
      </trkpt>
      <trkpt lat="45.99273" lon="6.56998">
        <ele>2141.47</ele>
        <time>2019-03-19T13:19:49Z</time>
      </trkpt>
      <trkpt lat="45.99284" lon="6.56982">
        <ele>2137.15</ele>
        <time>2019-03-19T13:19:51Z</time>
      </trkpt>
      <trkpt lat="45.99291" lon="6.56973">
        <ele>2134.26</ele>
        <time>2019-03-19T13:19:52Z</time>
      </trkpt>
      <trkpt lat="45.99306" lon="6.56955">
        <ele>2130.9</ele>
        <time>2019-03-19T13:19:54Z</time>
      </trkpt>
      <trkpt lat="45.99316" lon="6.56941">
        <ele>2128.98</ele>
        <time>2019-03-19T13:19:56Z</time>
      </trkpt>
      <trkpt lat="45.99325" lon="6.56933">
        <ele>2132.34</ele>
        <time>2019-03-19T13:19:59Z</time>
      </trkpt>
      <trkpt lat="45.99341" lon="6.56923">
        <ele>2129.94</ele>
        <time>2019-03-19T13:20:02Z</time>
      </trkpt>
      <trkpt lat="45.99354" lon="6.5691">
        <ele>2123.69</ele>
        <time>2019-03-19T13:20:04Z</time>
      </trkpt>
      <trkpt lat="45.99362" lon="6.56902">
        <ele>2120.32</ele>
        <time>2019-03-19T13:20:05Z</time>
      </trkpt>
      <trkpt lat="45.9937" lon="6.56893">
        <ele>2116.96</ele>
        <time>2019-03-19T13:20:06Z</time>
      </trkpt>
      <trkpt lat="45.99379" lon="6.56884">
        <ele>2113.6</ele>
        <time>2019-03-19T13:20:07Z</time>
      </trkpt>
      <trkpt lat="45.99387" lon="6.56876">
        <ele>2112.63</ele>
        <time>2019-03-19T13:20:08Z</time>
      </trkpt>
      <trkpt lat="45.99394" lon="6.56871">
        <ele>2111.67</ele>
        <time>2019-03-19T13:20:09Z</time>
      </trkpt>
      <trkpt lat="45.99405" lon="6.56864">
        <ele>2116</ele>
        <time>2019-03-19T13:20:12Z</time>
      </trkpt>
      <trkpt lat="45.99406" lon="6.56863">
        <ele>2118.88</ele>
        <time>2019-03-19T13:20:16Z</time>
      </trkpt>
      <trkpt lat="45.9941" lon="6.56855">
        <ele>2121.77</ele>
        <time>2019-03-19T13:20:40Z</time>
      </trkpt>
      <trkpt lat="45.99412" lon="6.56852">
        <ele>2121.77</ele>
        <time>2019-03-19T13:20:46Z</time>
      </trkpt>
      <trkpt lat="45.99414" lon="6.5685">
        <ele>2121.77</ele>
        <time>2019-03-19T13:20:48Z</time>
      </trkpt>
      <trkpt lat="45.99416" lon="6.56848">
        <ele>2121.77</ele>
        <time>2019-03-19T13:20:52Z</time>
      </trkpt>
      <trkpt lat="45.99416" lon="6.56847">
        <ele>2121.77</ele>
        <time>2019-03-19T13:20:53Z</time>
      </trkpt>
      <trkpt lat="45.99417" lon="6.56846">
        <ele>2121.77</ele>
        <time>2019-03-19T13:20:54Z</time>
      </trkpt>
      <trkpt lat="45.99418" lon="6.56845">
        <ele>2121.77</ele>
        <time>2019-03-19T13:20:55Z</time>
      </trkpt>
      <trkpt lat="45.9942" lon="6.56843">
        <ele>2121.77</ele>
        <time>2019-03-19T13:20:56Z</time>
      </trkpt>
      <trkpt lat="45.99421" lon="6.56842">
        <ele>2121.77</ele>
        <time>2019-03-19T13:20:57Z</time>
      </trkpt>
      <trkpt lat="45.99445" lon="6.56811">
        <ele>2122.25</ele>
        <time>2019-03-19T13:21:19Z</time>
      </trkpt>
      <trkpt lat="45.99448" lon="6.56808">
        <ele>2122.25</ele>
        <time>2019-03-19T13:21:23Z</time>
      </trkpt>
      <trkpt lat="45.99449" lon="6.56806">
        <ele>2122.73</ele>
        <time>2019-03-19T13:21:24Z</time>
      </trkpt>
      <trkpt lat="45.9945" lon="6.56805">
        <ele>2122.73</ele>
        <time>2019-03-19T13:21:25Z</time>
      </trkpt>
      <trkpt lat="45.99486" lon="6.56759">
        <ele>2121.77</ele>
        <time>2019-03-19T13:21:44Z</time>
      </trkpt>
      <trkpt lat="45.99514" lon="6.56728">
        <ele>2122.25</ele>
        <time>2019-03-19T13:22:03Z</time>
      </trkpt>
      <trkpt lat="45.99525" lon="6.56716">
        <ele>2123.69</ele>
        <time>2019-03-19T13:22:28Z</time>
      </trkpt>
      <trkpt lat="45.99529" lon="6.5671">
        <ele>2124.17</ele>
        <time>2019-03-19T13:22:39Z</time>
      </trkpt>
      <trkpt lat="45.99537" lon="6.56702">
        <ele>2125.61</ele>
        <time>2019-03-19T13:22:55Z</time>
      </trkpt>
      <trkpt lat="45.99543" lon="6.56695">
        <ele>2126.57</ele>
        <time>2019-03-19T13:23:07Z</time>
      </trkpt>
      <trkpt lat="45.99549" lon="6.56686">
        <ele>2127.53</ele>
        <time>2019-03-19T13:23:23Z</time>
      </trkpt>
      <trkpt lat="45.99557" lon="6.56678">
        <ele>2128.98</ele>
        <time>2019-03-19T13:23:41Z</time>
      </trkpt>
      <trkpt lat="45.99566" lon="6.5667">
        <ele>2129.94</ele>
        <time>2019-03-19T13:24:01Z</time>
      </trkpt>
      <trkpt lat="45.99576" lon="6.56657">
        <ele>2131.38</ele>
        <time>2019-03-19T13:24:25Z</time>
      </trkpt>
      <trkpt lat="45.99589" lon="6.56645">
        <ele>2133.3</ele>
        <time>2019-03-19T13:24:53Z</time>
      </trkpt>
      <trkpt lat="45.99604" lon="6.56636">
        <ele>2135.23</ele>
        <time>2019-03-19T13:25:25Z</time>
      </trkpt>
      <trkpt lat="45.99614" lon="6.56632">
        <ele>2137.15</ele>
        <time>2019-03-19T13:25:45Z</time>
      </trkpt>
      <trkpt lat="45.99642" lon="6.56621">
        <ele>2137.63</ele>
        <time>2019-03-19T13:26:49Z</time>
      </trkpt>
      <trkpt lat="45.99643" lon="6.56622">
        <ele>2137.15</ele>
        <time>2019-03-19T13:26:50Z</time>
      </trkpt>
      <trkpt lat="45.99645" lon="6.56623">
        <ele>2136.67</ele>
        <time>2019-03-19T13:26:51Z</time>
      </trkpt>
      <trkpt lat="45.99647" lon="6.56624">
        <ele>2136.19</ele>
        <time>2019-03-19T13:26:52Z</time>
      </trkpt>
      <trkpt lat="45.9965" lon="6.56626">
        <ele>2134.74</ele>
        <time>2019-03-19T13:26:53Z</time>
      </trkpt>
      <trkpt lat="45.99654" lon="6.56629">
        <ele>2132.34</ele>
        <time>2019-03-19T13:26:54Z</time>
      </trkpt>
      <trkpt lat="45.99658" lon="6.56631">
        <ele>2130.42</ele>
        <time>2019-03-19T13:26:55Z</time>
      </trkpt>
      <trkpt lat="45.99662" lon="6.56633">
        <ele>2128.02</ele>
        <time>2019-03-19T13:26:56Z</time>
      </trkpt>
      <trkpt lat="45.99668" lon="6.56635">
        <ele>2125.61</ele>
        <time>2019-03-19T13:26:57Z</time>
      </trkpt>
      <trkpt lat="45.99673" lon="6.56637">
        <ele>2124.65</ele>
        <time>2019-03-19T13:26:58Z</time>
      </trkpt>
      <trkpt lat="45.99683" lon="6.56639">
        <ele>2121.29</ele>
        <time>2019-03-19T13:27:00Z</time>
      </trkpt>
      <trkpt lat="45.99686" lon="6.5664">
        <ele>2119.84</ele>
        <time>2019-03-19T13:27:01Z</time>
      </trkpt>
      <trkpt lat="45.9969" lon="6.56642">
        <ele>2118.4</ele>
        <time>2019-03-19T13:27:02Z</time>
      </trkpt>
      <trkpt lat="45.99695" lon="6.56643">
        <ele>2116.96</ele>
        <time>2019-03-19T13:27:03Z</time>
      </trkpt>
      <trkpt lat="45.99699" lon="6.56645">
        <ele>2115.52</ele>
        <time>2019-03-19T13:27:04Z</time>
      </trkpt>
      <trkpt lat="45.99703" lon="6.56647">
        <ele>2113.12</ele>
        <time>2019-03-19T13:27:05Z</time>
      </trkpt>
      <trkpt lat="45.99708" lon="6.56648">
        <ele>2111.19</ele>
        <time>2019-03-19T13:27:06Z</time>
      </trkpt>
      <trkpt lat="45.99711" lon="6.56649">
        <ele>2109.75</ele>
        <time>2019-03-19T13:27:07Z</time>
      </trkpt>
      <trkpt lat="45.99715" lon="6.56651">
        <ele>2108.31</ele>
        <time>2019-03-19T13:27:08Z</time>
      </trkpt>
      <trkpt lat="45.99722" lon="6.56653">
        <ele>2104.94</ele>
        <time>2019-03-19T13:27:10Z</time>
      </trkpt>
      <trkpt lat="45.99725" lon="6.56655">
        <ele>2103.02</ele>
        <time>2019-03-19T13:27:11Z</time>
      </trkpt>
      <trkpt lat="45.99729" lon="6.56656">
        <ele>2101.58</ele>
        <time>2019-03-19T13:27:12Z</time>
      </trkpt>
      <trkpt lat="45.9974" lon="6.5666">
        <ele>2098.21</ele>
        <time>2019-03-19T13:27:14Z</time>
      </trkpt>
      <trkpt lat="45.99744" lon="6.5666">
        <ele>2096.29</ele>
        <time>2019-03-19T13:27:15Z</time>
      </trkpt>
      <trkpt lat="45.99746" lon="6.5666">
        <ele>2095.33</ele>
        <time>2019-03-19T13:27:16Z</time>
      </trkpt>
      <trkpt lat="45.99748" lon="6.56661">
        <ele>2094.37</ele>
        <time>2019-03-19T13:27:18Z</time>
      </trkpt>
      <trkpt lat="45.99749" lon="6.56661">
        <ele>2093.89</ele>
        <time>2019-03-19T13:27:40Z</time>
      </trkpt>
      <trkpt lat="45.99751" lon="6.56662">
        <ele>2093.41</ele>
        <time>2019-03-19T13:28:24Z</time>
      </trkpt>
      <trkpt lat="45.99752" lon="6.56663">
        <ele>2092.93</ele>
        <time>2019-03-19T13:28:25Z</time>
      </trkpt>
      <trkpt lat="45.99753" lon="6.56663">
        <ele>2091.97</ele>
        <time>2019-03-19T13:28:26Z</time>
      </trkpt>
      <trkpt lat="45.99754" lon="6.56668">
        <ele>2089.56</ele>
        <time>2019-03-19T13:28:30Z</time>
      </trkpt>
      <trkpt lat="45.99753" lon="6.56672">
        <ele>2088.6</ele>
        <time>2019-03-19T13:28:31Z</time>
      </trkpt>
      <trkpt lat="45.99754" lon="6.56677">
        <ele>2086.68</ele>
        <time>2019-03-19T13:28:32Z</time>
      </trkpt>
      <trkpt lat="45.99756" lon="6.56683">
        <ele>2084.28</ele>
        <time>2019-03-19T13:28:33Z</time>
      </trkpt>
      <trkpt lat="45.99757" lon="6.56692">
        <ele>2080.91</ele>
        <time>2019-03-19T13:28:34Z</time>
      </trkpt>
      <trkpt lat="45.99754" lon="6.56699">
        <ele>2077.07</ele>
        <time>2019-03-19T13:28:35Z</time>
      </trkpt>
      <trkpt lat="45.99753" lon="6.56707">
        <ele>2074.66</ele>
        <time>2019-03-19T13:28:36Z</time>
      </trkpt>
      <trkpt lat="45.99756" lon="6.56717">
        <ele>2069.86</ele>
        <time>2019-03-19T13:28:37Z</time>
      </trkpt>
      <trkpt lat="45.99757" lon="6.56727">
        <ele>2063.61</ele>
        <time>2019-03-19T13:28:38Z</time>
      </trkpt>
      <trkpt lat="45.99756" lon="6.56737">
        <ele>2059.76</ele>
        <time>2019-03-19T13:28:39Z</time>
      </trkpt>
      <trkpt lat="45.99758" lon="6.56747">
        <ele>2054.47</ele>
        <time>2019-03-19T13:28:40Z</time>
      </trkpt>
      <trkpt lat="45.99761" lon="6.56756">
        <ele>2050.15</ele>
        <time>2019-03-19T13:28:41Z</time>
      </trkpt>
      <trkpt lat="45.99762" lon="6.56765">
        <ele>2047.26</ele>
        <time>2019-03-19T13:28:42Z</time>
      </trkpt>
      <trkpt lat="45.99762" lon="6.56773">
        <ele>2043.9</ele>
        <time>2019-03-19T13:28:43Z</time>
      </trkpt>
      <trkpt lat="45.99766" lon="6.56781">
        <ele>2040.05</ele>
        <time>2019-03-19T13:28:44Z</time>
      </trkpt>
      <trkpt lat="45.99769" lon="6.56788">
        <ele>2037.65</ele>
        <time>2019-03-19T13:28:45Z</time>
      </trkpt>
      <trkpt lat="45.99775" lon="6.56794">
        <ele>2035.25</ele>
        <time>2019-03-19T13:28:46Z</time>
      </trkpt>
      <trkpt lat="45.99781" lon="6.56799">
        <ele>2032.84</ele>
        <time>2019-03-19T13:28:47Z</time>
      </trkpt>
      <trkpt lat="45.99786" lon="6.56803">
        <ele>2031.4</ele>
        <time>2019-03-19T13:28:48Z</time>
      </trkpt>
      <trkpt lat="45.99819" lon="6.56845">
        <ele>2030.44</ele>
        <time>2019-03-19T13:29:04Z</time>
      </trkpt>
      <trkpt lat="45.99838" lon="6.56856">
        <ele>2027.08</ele>
        <time>2019-03-19T13:29:13Z</time>
      </trkpt>
      <trkpt lat="45.99855" lon="6.56877">
        <ele>2025.64</ele>
        <time>2019-03-19T13:29:20Z</time>
      </trkpt>
      <trkpt lat="45.99859" lon="6.56879">
        <ele>2024.67</ele>
        <time>2019-03-19T13:29:21Z</time>
      </trkpt>
      <trkpt lat="45.99863" lon="6.56881">
        <ele>2023.71</ele>
        <time>2019-03-19T13:29:22Z</time>
      </trkpt>
      <trkpt lat="45.99868" lon="6.56882">
        <ele>2023.23</ele>
        <time>2019-03-19T13:29:23Z</time>
      </trkpt>
      <trkpt lat="45.99873" lon="6.56883">
        <ele>2022.75</ele>
        <time>2019-03-19T13:29:24Z</time>
      </trkpt>
      <trkpt lat="45.99884" lon="6.56885">
        <ele>2021.31</ele>
        <time>2019-03-19T13:29:26Z</time>
      </trkpt>
      <trkpt lat="45.99896" lon="6.56888">
        <ele>2018.43</ele>
        <time>2019-03-19T13:29:28Z</time>
      </trkpt>
      <trkpt lat="45.99903" lon="6.5689">
        <ele>2017.46</ele>
        <time>2019-03-19T13:29:29Z</time>
      </trkpt>
      <trkpt lat="45.99921" lon="6.56899">
        <ele>2014.58</ele>
        <time>2019-03-19T13:29:32Z</time>
      </trkpt>
      <trkpt lat="45.99927" lon="6.56904">
        <ele>2013.14</ele>
        <time>2019-03-19T13:29:33Z</time>
      </trkpt>
      <trkpt lat="45.99934" lon="6.56909">
        <ele>2011.22</ele>
        <time>2019-03-19T13:29:34Z</time>
      </trkpt>
      <trkpt lat="45.99941" lon="6.56913">
        <ele>2009.29</ele>
        <time>2019-03-19T13:29:35Z</time>
      </trkpt>
      <trkpt lat="45.99948" lon="6.56917">
        <ele>2007.37</ele>
        <time>2019-03-19T13:29:36Z</time>
      </trkpt>
      <trkpt lat="45.99954" lon="6.56922">
        <ele>2005.45</ele>
        <time>2019-03-19T13:29:37Z</time>
      </trkpt>
      <trkpt lat="45.9996" lon="6.56928">
        <ele>2004.01</ele>
        <time>2019-03-19T13:29:38Z</time>
      </trkpt>
      <trkpt lat="45.99966" lon="6.56934">
        <ele>2003.04</ele>
        <time>2019-03-19T13:29:39Z</time>
      </trkpt>
      <trkpt lat="45.99972" lon="6.56936">
        <ele>2003.04</ele>
        <time>2019-03-19T13:29:40Z</time>
      </trkpt>
      <trkpt lat="45.99984" lon="6.56944">
        <ele>2003.52</ele>
        <time>2019-03-19T13:29:45Z</time>
      </trkpt>
      <trkpt lat="45.99986" lon="6.56945">
        <ele>2003.04</ele>
        <time>2019-03-19T13:29:46Z</time>
      </trkpt>
      <trkpt lat="45.99987" lon="6.56946">
        <ele>2003.04</ele>
        <time>2019-03-19T13:29:47Z</time>
      </trkpt>
      <trkpt lat="45.99986" lon="6.56947">
        <ele>2002.56</ele>
        <time>2019-03-19T13:30:10Z</time>
      </trkpt>
      <trkpt lat="45.99986" lon="6.56947">
        <ele>2002.56</ele>
        <time>2019-03-19T13:31:03Z</time>
      </trkpt>
      <trkpt lat="45.99986" lon="6.56946">
        <ele>2002.56</ele>
        <time>2019-03-19T13:31:31Z</time>
      </trkpt>
      <trkpt lat="45.99986" lon="6.56945">
        <ele>2002.56</ele>
        <time>2019-03-19T13:31:52Z</time>
      </trkpt>
      <trkpt lat="45.99986" lon="6.56946">
        <ele>2002.56</ele>
        <time>2019-03-19T13:32:25Z</time>
      </trkpt>
      <trkpt lat="45.99986" lon="6.56947">
        <ele>2002.56</ele>
        <time>2019-03-19T13:33:07Z</time>
      </trkpt>
      <trkpt lat="45.99987" lon="6.56946">
        <ele>2002.56</ele>
        <time>2019-03-19T13:34:20Z</time>
      </trkpt>
      <trkpt lat="45.9999" lon="6.56946">
        <ele>2002.56</ele>
        <time>2019-03-19T13:35:48Z</time>
      </trkpt>
      <trkpt lat="45.99992" lon="6.56946">
        <ele>2002.56</ele>
        <time>2019-03-19T13:35:49Z</time>
      </trkpt>
      <trkpt lat="45.99992" lon="6.56947">
        <ele>2003.04</ele>
        <time>2019-03-19T13:35:50Z</time>
      </trkpt>
      <trkpt lat="45.99997" lon="6.5695">
        <ele>2003.04</ele>
        <time>2019-03-19T13:35:54Z</time>
      </trkpt>
      <trkpt lat="45.99998" lon="6.56951">
        <ele>2003.04</ele>
        <time>2019-03-19T13:35:55Z</time>
      </trkpt>
      <trkpt lat="45.99999" lon="6.56951">
        <ele>2003.04</ele>
        <time>2019-03-19T13:35:56Z</time>
      </trkpt>
      <trkpt lat="46" lon="6.56952">
        <ele>2003.04</ele>
        <time>2019-03-19T13:35:57Z</time>
      </trkpt>
      <trkpt lat="46.00001" lon="6.56952">
        <ele>2003.04</ele>
        <time>2019-03-19T13:35:58Z</time>
      </trkpt>
      <trkpt lat="46.00002" lon="6.56953">
        <ele>2003.04</ele>
        <time>2019-03-19T13:35:59Z</time>
      </trkpt>
      <trkpt lat="46.00003" lon="6.56954">
        <ele>2003.52</ele>
        <time>2019-03-19T13:36:00Z</time>
      </trkpt>
      <trkpt lat="46.00004" lon="6.56954">
        <ele>2003.52</ele>
        <time>2019-03-19T13:36:01Z</time>
      </trkpt>
      <trkpt lat="46.00005" lon="6.56955">
        <ele>2003.52</ele>
        <time>2019-03-19T13:36:02Z</time>
      </trkpt>
      <trkpt lat="46.00006" lon="6.56956">
        <ele>2003.52</ele>
        <time>2019-03-19T13:36:03Z</time>
      </trkpt>
      <trkpt lat="46.00043" lon="6.56988">
        <ele>2006.41</ele>
        <time>2019-03-19T13:36:39Z</time>
      </trkpt>
      <trkpt lat="46.00051" lon="6.56992">
        <ele>2006.89</ele>
        <time>2019-03-19T13:36:47Z</time>
      </trkpt>
      <trkpt lat="46.00052" lon="6.56992">
        <ele>2006.89</ele>
        <time>2019-03-19T13:36:48Z</time>
      </trkpt>
      <trkpt lat="46.00053" lon="6.56993">
        <ele>2007.37</ele>
        <time>2019-03-19T13:36:49Z</time>
      </trkpt>
      <trkpt lat="46.00054" lon="6.56993">
        <ele>2007.37</ele>
        <time>2019-03-19T13:36:50Z</time>
      </trkpt>
      <trkpt lat="46.00055" lon="6.56993">
        <ele>2007.37</ele>
        <time>2019-03-19T13:36:51Z</time>
      </trkpt>
      <trkpt lat="46.00057" lon="6.56994">
        <ele>2007.37</ele>
        <time>2019-03-19T13:36:52Z</time>
      </trkpt>
      <trkpt lat="46.00058" lon="6.56994">
        <ele>2007.85</ele>
        <time>2019-03-19T13:36:53Z</time>
      </trkpt>
      <trkpt lat="46.00102" lon="6.56998">
        <ele>2010.25</ele>
        <time>2019-03-19T13:37:31Z</time>
      </trkpt>
      <trkpt lat="46.00144" lon="6.57006">
        <ele>2011.7</ele>
        <time>2019-03-19T13:38:05Z</time>
      </trkpt>
      <trkpt lat="46.00178" lon="6.57016">
        <ele>2012.66</ele>
        <time>2019-03-19T13:38:30Z</time>
      </trkpt>
      <trkpt lat="46.00208" lon="6.57023">
        <ele>2014.58</ele>
        <time>2019-03-19T13:38:55Z</time>
      </trkpt>
      <trkpt lat="46.00218" lon="6.57026">
        <ele>2014.1</ele>
        <time>2019-03-19T13:39:03Z</time>
      </trkpt>
      <trkpt lat="46.00219" lon="6.57026">
        <ele>2014.1</ele>
        <time>2019-03-19T13:39:04Z</time>
      </trkpt>
      <trkpt lat="46.00254" lon="6.57035">
        <ele>2015.06</ele>
        <time>2019-03-19T13:39:31Z</time>
      </trkpt>
      <trkpt lat="46.00282" lon="6.57051">
        <ele>2016.98</ele>
        <time>2019-03-19T13:39:54Z</time>
      </trkpt>
      <trkpt lat="46.00305" lon="6.57064">
        <ele>2018.43</ele>
        <time>2019-03-19T13:40:13Z</time>
      </trkpt>
      <trkpt lat="46.00315" lon="6.57068">
        <ele>2018.43</ele>
        <time>2019-03-19T13:40:21Z</time>
      </trkpt>
      <trkpt lat="46.00317" lon="6.57068">
        <ele>2018.43</ele>
        <time>2019-03-19T13:40:22Z</time>
      </trkpt>
      <trkpt lat="46.00318" lon="6.57068">
        <ele>2018.43</ele>
        <time>2019-03-19T13:40:23Z</time>
      </trkpt>
      <trkpt lat="46.00357" lon="6.57079">
        <ele>2020.35</ele>
        <time>2019-03-19T13:40:54Z</time>
      </trkpt>
      <trkpt lat="46.00363" lon="6.57082">
        <ele>2020.83</ele>
        <time>2019-03-19T13:40:59Z</time>
      </trkpt>
      <trkpt lat="46.00405" lon="6.57103">
        <ele>2021.31</ele>
        <time>2019-03-19T13:41:32Z</time>
      </trkpt>
      <trkpt lat="46.00437" lon="6.57124">
        <ele>2018.43</ele>
        <time>2019-03-19T13:41:57Z</time>
      </trkpt>
      <trkpt lat="46.00466" lon="6.57145">
        <ele>2015.06</ele>
        <time>2019-03-19T13:42:14Z</time>
      </trkpt>
      <trkpt lat="46.00488" lon="6.57161">
        <ele>2012.18</ele>
        <time>2019-03-19T13:42:21Z</time>
      </trkpt>
      <trkpt lat="46.00502" lon="6.57168">
        <ele>2008.81</ele>
        <time>2019-03-19T13:42:26Z</time>
      </trkpt>
      <trkpt lat="46.00524" lon="6.57171">
        <ele>2005.93</ele>
        <time>2019-03-19T13:42:38Z</time>
      </trkpt>
      <trkpt lat="46.00553" lon="6.57175">
        <ele>2003.04</ele>
        <time>2019-03-19T13:42:54Z</time>
      </trkpt>
      <trkpt lat="46.00579" lon="6.57205">
        <ele>2005.93</ele>
        <time>2019-03-19T13:43:23Z</time>
      </trkpt>
      <trkpt lat="46.00585" lon="6.5721">
        <ele>2007.85</ele>
        <time>2019-03-19T13:43:31Z</time>
      </trkpt>
      <trkpt lat="46.00588" lon="6.5721">
        <ele>2008.81</ele>
        <time>2019-03-19T13:43:34Z</time>
      </trkpt>
      <trkpt lat="46.00588" lon="6.57209">
        <ele>2008.81</ele>
        <time>2019-03-19T13:43:36Z</time>
      </trkpt>
      <trkpt lat="46.0059" lon="6.57208">
        <ele>2009.77</ele>
        <time>2019-03-19T13:43:39Z</time>
      </trkpt>
      <trkpt lat="46.00597" lon="6.57205">
        <ele>2011.7</ele>
        <time>2019-03-19T13:43:48Z</time>
      </trkpt>
      <trkpt lat="46.00601" lon="6.57203">
        <ele>2013.14</ele>
        <time>2019-03-19T13:43:55Z</time>
      </trkpt>
      <trkpt lat="46.00611" lon="6.57196">
        <ele>2016.02</ele>
        <time>2019-03-19T13:44:10Z</time>
      </trkpt>
      <trkpt lat="46.00618" lon="6.57192">
        <ele>2018.43</ele>
        <time>2019-03-19T13:44:20Z</time>
      </trkpt>
      <trkpt lat="46.0062" lon="6.57192">
        <ele>2018.91</ele>
        <time>2019-03-19T13:44:22Z</time>
      </trkpt>
      <trkpt lat="46.00626" lon="6.57188">
        <ele>2020.35</ele>
        <time>2019-03-19T13:44:29Z</time>
      </trkpt>
      <trkpt lat="46.00628" lon="6.57186">
        <ele>2020.83</ele>
        <time>2019-03-19T13:44:31Z</time>
      </trkpt>
      <trkpt lat="46.00645" lon="6.57175">
        <ele>2023.71</ele>
        <time>2019-03-19T13:44:51Z</time>
      </trkpt>
      <trkpt lat="46.00647" lon="6.57183">
        <ele>2025.15</ele>
        <time>2019-03-19T13:45:00Z</time>
      </trkpt>
      <trkpt lat="46.00646" lon="6.57185">
        <ele>2025.64</ele>
        <time>2019-03-19T13:45:02Z</time>
      </trkpt>
      <trkpt lat="46.00645" lon="6.5719">
        <ele>2026.6</ele>
        <time>2019-03-19T13:45:07Z</time>
      </trkpt>
      <trkpt lat="46.00641" lon="6.57204">
        <ele>2029.48</ele>
        <time>2019-03-19T13:45:21Z</time>
      </trkpt>
      <trkpt lat="46.0064" lon="6.57208">
        <ele>2029.96</ele>
        <time>2019-03-19T13:45:24Z</time>
      </trkpt>
      <trkpt lat="46.00639" lon="6.57229">
        <ele>2032.84</ele>
        <time>2019-03-19T13:45:41Z</time>
      </trkpt>
      <trkpt lat="46.00641" lon="6.57248">
        <ele>2036.21</ele>
        <time>2019-03-19T13:45:55Z</time>
      </trkpt>
      <trkpt lat="46.00642" lon="6.57249">
        <ele>2036.21</ele>
        <time>2019-03-19T13:45:56Z</time>
      </trkpt>
      <trkpt lat="46.00642" lon="6.5725">
        <ele>2036.69</ele>
        <time>2019-03-19T13:45:57Z</time>
      </trkpt>
      <trkpt lat="46.00645" lon="6.57267">
        <ele>2039.57</ele>
        <time>2019-03-19T13:46:12Z</time>
      </trkpt>
      <trkpt lat="46.00664" lon="6.57301">
        <ele>2041.5</ele>
        <time>2019-03-19T13:46:39Z</time>
      </trkpt>
      <trkpt lat="46.00681" lon="6.57328">
        <ele>2041.98</ele>
        <time>2019-03-19T13:46:57Z</time>
      </trkpt>
      <trkpt lat="46.00714" lon="6.57373">
        <ele>2039.57</ele>
        <time>2019-03-19T13:47:21Z</time>
      </trkpt>
      <trkpt lat="46.00747" lon="6.57417">
        <ele>2038.61</ele>
        <time>2019-03-19T13:47:51Z</time>
      </trkpt>
      <trkpt lat="46.00773" lon="6.57471">
        <ele>2035.73</ele>
        <time>2019-03-19T13:48:18Z</time>
      </trkpt>
      <trkpt lat="46.00782" lon="6.57488">
        <ele>2032.36</ele>
        <time>2019-03-19T13:48:21Z</time>
      </trkpt>
      <trkpt lat="46.00791" lon="6.57505">
        <ele>2028.04</ele>
        <time>2019-03-19T13:48:23Z</time>
      </trkpt>
      <trkpt lat="46.00798" lon="6.57523">
        <ele>2024.67</ele>
        <time>2019-03-19T13:48:25Z</time>
      </trkpt>
      <trkpt lat="46.00807" lon="6.5755">
        <ele>2019.39</ele>
        <time>2019-03-19T13:48:28Z</time>
      </trkpt>
      <trkpt lat="46.00811" lon="6.5756">
        <ele>2018.43</ele>
        <time>2019-03-19T13:48:29Z</time>
      </trkpt>
      <trkpt lat="46.00816" lon="6.57568">
        <ele>2016.98</ele>
        <time>2019-03-19T13:48:30Z</time>
      </trkpt>
      <trkpt lat="46.00822" lon="6.57577">
        <ele>2014.1</ele>
        <time>2019-03-19T13:48:31Z</time>
      </trkpt>
      <trkpt lat="46.00833" lon="6.57592">
        <ele>2009.77</ele>
        <time>2019-03-19T13:48:33Z</time>
      </trkpt>
      <trkpt lat="46.00842" lon="6.57604">
        <ele>2004.97</ele>
        <time>2019-03-19T13:48:35Z</time>
      </trkpt>
      <trkpt lat="46.0085" lon="6.57635">
        <ele>2006.41</ele>
        <time>2019-03-19T13:48:53Z</time>
      </trkpt>
      <trkpt lat="46.0085" lon="6.57636">
        <ele>2006.41</ele>
        <time>2019-03-19T13:48:54Z</time>
      </trkpt>
      <trkpt lat="46.00851" lon="6.57638">
        <ele>2006.89</ele>
        <time>2019-03-19T13:48:55Z</time>
      </trkpt>
      <trkpt lat="46.00851" lon="6.57639">
        <ele>2006.89</ele>
        <time>2019-03-19T13:48:56Z</time>
      </trkpt>
      <trkpt lat="46.00851" lon="6.57641">
        <ele>2006.89</ele>
        <time>2019-03-19T13:48:57Z</time>
      </trkpt>
      <trkpt lat="46.00852" lon="6.57642">
        <ele>2007.37</ele>
        <time>2019-03-19T13:48:58Z</time>
      </trkpt>
      <trkpt lat="46.00864" lon="6.57678">
        <ele>2008.33</ele>
        <time>2019-03-19T13:49:21Z</time>
      </trkpt>
      <trkpt lat="46.00877" lon="6.57707">
        <ele>2008.81</ele>
        <time>2019-03-19T13:49:39Z</time>
      </trkpt>
      <trkpt lat="46.00886" lon="6.57722">
        <ele>2010.25</ele>
        <time>2019-03-19T13:49:52Z</time>
      </trkpt>
      <trkpt lat="46.00887" lon="6.57723">
        <ele>2010.25</ele>
        <time>2019-03-19T13:49:53Z</time>
      </trkpt>
      <trkpt lat="46.00894" lon="6.5773">
        <ele>2012.18</ele>
        <time>2019-03-19T13:50:02Z</time>
      </trkpt>
      <trkpt lat="46.00895" lon="6.57731">
        <ele>2012.18</ele>
        <time>2019-03-19T13:50:03Z</time>
      </trkpt>
      <trkpt lat="46.00899" lon="6.57737">
        <ele>2013.62</ele>
        <time>2019-03-19T13:50:10Z</time>
      </trkpt>
      <trkpt lat="46.009" lon="6.57739">
        <ele>2013.62</ele>
        <time>2019-03-19T13:50:13Z</time>
      </trkpt>
      <trkpt lat="46.00902" lon="6.5774">
        <ele>2014.58</ele>
        <time>2019-03-19T13:50:15Z</time>
      </trkpt>
      <trkpt lat="46.00904" lon="6.57744">
        <ele>2015.54</ele>
        <time>2019-03-19T13:50:20Z</time>
      </trkpt>
      <trkpt lat="46.00912" lon="6.57752">
        <ele>2017.46</ele>
        <time>2019-03-19T13:50:32Z</time>
      </trkpt>
      <trkpt lat="46.00914" lon="6.57754">
        <ele>2018.43</ele>
        <time>2019-03-19T13:50:34Z</time>
      </trkpt>
      <trkpt lat="46.00914" lon="6.57755">
        <ele>2018.43</ele>
        <time>2019-03-19T13:50:35Z</time>
      </trkpt>
      <trkpt lat="46.00916" lon="6.57757">
        <ele>2018.91</ele>
        <time>2019-03-19T13:50:38Z</time>
      </trkpt>
      <trkpt lat="46.00917" lon="6.57758">
        <ele>2019.39</ele>
        <time>2019-03-19T13:50:39Z</time>
      </trkpt>
      <trkpt lat="46.00926" lon="6.57765">
        <ele>2022.27</ele>
        <time>2019-03-19T13:50:53Z</time>
      </trkpt>
      <trkpt lat="46.00935" lon="6.57773">
        <ele>2025.64</ele>
        <time>2019-03-19T13:51:08Z</time>
      </trkpt>
      <trkpt lat="46.00939" lon="6.57778">
        <ele>2027.08</ele>
        <time>2019-03-19T13:51:16Z</time>
      </trkpt>
      <trkpt lat="46.00943" lon="6.57782">
        <ele>2028.52</ele>
        <time>2019-03-19T13:51:23Z</time>
      </trkpt>
      <trkpt lat="46.0095" lon="6.57792">
        <ele>2031.4</ele>
        <time>2019-03-19T13:51:36Z</time>
      </trkpt>
      <trkpt lat="46.00951" lon="6.57793">
        <ele>2031.88</ele>
        <time>2019-03-19T13:51:38Z</time>
      </trkpt>
      <trkpt lat="46.00956" lon="6.57805">
        <ele>2034.77</ele>
        <time>2019-03-19T13:51:52Z</time>
      </trkpt>
      <trkpt lat="46.00963" lon="6.57817">
        <ele>2038.13</ele>
        <time>2019-03-19T13:52:08Z</time>
      </trkpt>
      <trkpt lat="46.00969" lon="6.57828">
        <ele>2041.02</ele>
        <time>2019-03-19T13:52:22Z</time>
      </trkpt>
      <trkpt lat="46.00975" lon="6.57838">
        <ele>2043.9</ele>
        <time>2019-03-19T13:52:35Z</time>
      </trkpt>
      <trkpt lat="46.00981" lon="6.57854">
        <ele>2047.26</ele>
        <time>2019-03-19T13:52:51Z</time>
      </trkpt>
      <trkpt lat="46.00983" lon="6.5786">
        <ele>2048.23</ele>
        <time>2019-03-19T13:52:57Z</time>
      </trkpt>
      <trkpt lat="46.00983" lon="6.57862">
        <ele>2048.23</ele>
        <time>2019-03-19T13:52:58Z</time>
      </trkpt>
      <trkpt lat="46.00987" lon="6.57881">
        <ele>2051.59</ele>
        <time>2019-03-19T13:53:15Z</time>
      </trkpt>
      <trkpt lat="46.00992" lon="6.57906">
        <ele>2053.99</ele>
        <time>2019-03-19T13:53:34Z</time>
      </trkpt>
      <trkpt lat="46.00993" lon="6.57908">
        <ele>2053.99</ele>
        <time>2019-03-19T13:53:36Z</time>
      </trkpt>
      <trkpt lat="46.00994" lon="6.57909">
        <ele>2053.99</ele>
        <time>2019-03-19T13:53:37Z</time>
      </trkpt>
      <trkpt lat="46.00997" lon="6.57918">
        <ele>2055.44</ele>
        <time>2019-03-19T13:56:26Z</time>
      </trkpt>
      <trkpt lat="46.00997" lon="6.57921">
        <ele>2055.44</ele>
        <time>2019-03-19T13:57:44Z</time>
      </trkpt>
      <trkpt lat="46.00987" lon="6.57964">
        <ele>2052.07</ele>
        <time>2019-03-19T13:57:53Z</time>
      </trkpt>
      <trkpt lat="46.00971" lon="6.58034">
        <ele>2048.71</ele>
        <time>2019-03-19T13:58:06Z</time>
      </trkpt>
      <trkpt lat="46.00968" lon="6.58101">
        <ele>2045.34</ele>
        <time>2019-03-19T13:59:21Z</time>
      </trkpt>
      <trkpt lat="46.00973" lon="6.58101">
        <ele>2042.94</ele>
        <time>2019-03-19T13:59:38Z</time>
      </trkpt>
      <trkpt lat="46.00975" lon="6.58098">
        <ele>2041.98</ele>
        <time>2019-03-19T13:59:39Z</time>
      </trkpt>
      <trkpt lat="46.00979" lon="6.58096">
        <ele>2040.05</ele>
        <time>2019-03-19T13:59:40Z</time>
      </trkpt>
      <trkpt lat="46.00986" lon="6.58098">
        <ele>2036.69</ele>
        <time>2019-03-19T13:59:41Z</time>
      </trkpt>
      <trkpt lat="46.00994" lon="6.58102">
        <ele>2033.33</ele>
        <time>2019-03-19T13:59:42Z</time>
      </trkpt>
      <trkpt lat="46.01003" lon="6.58102">
        <ele>2029</ele>
        <time>2019-03-19T13:59:43Z</time>
      </trkpt>
      <trkpt lat="46.01012" lon="6.581">
        <ele>2024.67</ele>
        <time>2019-03-19T13:59:44Z</time>
      </trkpt>
      <trkpt lat="46.01021" lon="6.58102">
        <ele>2019.39</ele>
        <time>2019-03-19T13:59:45Z</time>
      </trkpt>
      <trkpt lat="46.01029" lon="6.58101">
        <ele>2016.02</ele>
        <time>2019-03-19T13:59:46Z</time>
      </trkpt>
      <trkpt lat="46.01037" lon="6.58098">
        <ele>2011.22</ele>
        <time>2019-03-19T13:59:47Z</time>
      </trkpt>
      <trkpt lat="46.01045" lon="6.581">
        <ele>2005.45</ele>
        <time>2019-03-19T13:59:48Z</time>
      </trkpt>
      <trkpt lat="46.01052" lon="6.58106">
        <ele>2000.64</ele>
        <time>2019-03-19T13:59:49Z</time>
      </trkpt>
      <trkpt lat="46.01062" lon="6.5812">
        <ele>1996.8</ele>
        <time>2019-03-19T13:59:51Z</time>
      </trkpt>
      <trkpt lat="46.01067" lon="6.5812">
        <ele>1995.83</ele>
        <time>2019-03-19T13:59:52Z</time>
      </trkpt>
      <trkpt lat="46.0107" lon="6.58116">
        <ele>1994.87</ele>
        <time>2019-03-19T13:59:53Z</time>
      </trkpt>
      <trkpt lat="46.01074" lon="6.58114">
        <ele>1994.39</ele>
        <time>2019-03-19T13:59:54Z</time>
      </trkpt>
      <trkpt lat="46.01075" lon="6.58115">
        <ele>1993.91</ele>
        <time>2019-03-19T13:59:55Z</time>
      </trkpt>
      <trkpt lat="46.01076" lon="6.58117">
        <ele>1993.91</ele>
        <time>2019-03-19T13:59:56Z</time>
      </trkpt>
      <trkpt lat="46.01075" lon="6.5812">
        <ele>1993.43</ele>
        <time>2019-03-19T13:59:57Z</time>
      </trkpt>
      <trkpt lat="46.01075" lon="6.58121">
        <ele>1993.43</ele>
        <time>2019-03-19T13:59:58Z</time>
      </trkpt>
      <trkpt lat="46.01076" lon="6.5812">
        <ele>1992.95</ele>
        <time>2019-03-19T14:00:02Z</time>
      </trkpt>
      <trkpt lat="46.01077" lon="6.58121">
        <ele>1992.47</ele>
        <time>2019-03-19T14:00:03Z</time>
      </trkpt>
      <trkpt lat="46.0108" lon="6.5812">
        <ele>1991.99</ele>
        <time>2019-03-19T14:00:04Z</time>
      </trkpt>
      <trkpt lat="46.01084" lon="6.58117">
        <ele>1991.51</ele>
        <time>2019-03-19T14:00:05Z</time>
      </trkpt>
      <trkpt lat="46.01088" lon="6.58115">
        <ele>1990.07</ele>
        <time>2019-03-19T14:00:06Z</time>
      </trkpt>
      <trkpt lat="46.01092" lon="6.58115">
        <ele>1988.62</ele>
        <time>2019-03-19T14:00:07Z</time>
      </trkpt>
      <trkpt lat="46.01096" lon="6.58116">
        <ele>1987.18</ele>
        <time>2019-03-19T14:00:08Z</time>
      </trkpt>
      <trkpt lat="46.011" lon="6.58116">
        <ele>1985.26</ele>
        <time>2019-03-19T14:00:09Z</time>
      </trkpt>
      <trkpt lat="46.01106" lon="6.58116">
        <ele>1982.86</ele>
        <time>2019-03-19T14:00:10Z</time>
      </trkpt>
      <trkpt lat="46.01112" lon="6.58114">
        <ele>1979.97</ele>
        <time>2019-03-19T14:00:11Z</time>
      </trkpt>
      <trkpt lat="46.0112" lon="6.58109">
        <ele>1975.65</ele>
        <time>2019-03-19T14:00:12Z</time>
      </trkpt>
      <trkpt lat="46.01128" lon="6.58104">
        <ele>1971.32</ele>
        <time>2019-03-19T14:00:13Z</time>
      </trkpt>
      <trkpt lat="46.01136" lon="6.58097">
        <ele>1968.44</ele>
        <time>2019-03-19T14:00:14Z</time>
      </trkpt>
      <trkpt lat="46.01144" lon="6.58089">
        <ele>1964.59</ele>
        <time>2019-03-19T14:00:15Z</time>
      </trkpt>
      <trkpt lat="46.01153" lon="6.58085">
        <ele>1961.71</ele>
        <time>2019-03-19T14:00:16Z</time>
      </trkpt>
      <trkpt lat="46.01162" lon="6.58085">
        <ele>1959.3</ele>
        <time>2019-03-19T14:00:17Z</time>
      </trkpt>
      <trkpt lat="46.0117" lon="6.58087">
        <ele>1957.38</ele>
        <time>2019-03-19T14:00:18Z</time>
      </trkpt>
      <trkpt lat="46.01179" lon="6.58089">
        <ele>1956.42</ele>
        <time>2019-03-19T14:00:19Z</time>
      </trkpt>
      <trkpt lat="46.01195" lon="6.58092">
        <ele>1955.46</ele>
        <time>2019-03-19T14:00:21Z</time>
      </trkpt>
      <trkpt lat="46.01204" lon="6.58094">
        <ele>1954.98</ele>
        <time>2019-03-19T14:00:22Z</time>
      </trkpt>
      <trkpt lat="46.01213" lon="6.58099">
        <ele>1952.57</ele>
        <time>2019-03-19T14:00:23Z</time>
      </trkpt>
      <trkpt lat="46.01223" lon="6.58103">
        <ele>1951.61</ele>
        <time>2019-03-19T14:00:24Z</time>
      </trkpt>
      <trkpt lat="46.01234" lon="6.58103">
        <ele>1950.65</ele>
        <time>2019-03-19T14:00:25Z</time>
      </trkpt>
      <trkpt lat="46.01245" lon="6.58102">
        <ele>1948.25</ele>
        <time>2019-03-19T14:00:26Z</time>
      </trkpt>
      <trkpt lat="46.01256" lon="6.58102">
        <ele>1942.96</ele>
        <time>2019-03-19T14:00:27Z</time>
      </trkpt>
      <trkpt lat="46.01274" lon="6.58101">
        <ele>1941.04</ele>
        <time>2019-03-19T14:00:29Z</time>
      </trkpt>
      <trkpt lat="46.01283" lon="6.58099">
        <ele>1940.56</ele>
        <time>2019-03-19T14:00:30Z</time>
      </trkpt>
      <trkpt lat="46.0129" lon="6.58099">
        <ele>1939.6</ele>
        <time>2019-03-19T14:00:31Z</time>
      </trkpt>
      <trkpt lat="46.01297" lon="6.58098">
        <ele>1939.6</ele>
        <time>2019-03-19T14:00:32Z</time>
      </trkpt>
      <trkpt lat="46.01304" lon="6.58096">
        <ele>1940.08</ele>
        <time>2019-03-19T14:00:33Z</time>
      </trkpt>
      <trkpt lat="46.01312" lon="6.58095">
        <ele>1939.12</ele>
        <time>2019-03-19T14:00:34Z</time>
      </trkpt>
      <trkpt lat="46.01321" lon="6.58095">
        <ele>1937.19</ele>
        <time>2019-03-19T14:00:35Z</time>
      </trkpt>
      <trkpt lat="46.0133" lon="6.58096">
        <ele>1935.27</ele>
        <time>2019-03-19T14:00:36Z</time>
      </trkpt>
      <trkpt lat="46.01339" lon="6.58099">
        <ele>1933.35</ele>
        <time>2019-03-19T14:00:37Z</time>
      </trkpt>
      <trkpt lat="46.01348" lon="6.58102">
        <ele>1931.43</ele>
        <time>2019-03-19T14:00:38Z</time>
      </trkpt>
      <trkpt lat="46.01357" lon="6.58104">
        <ele>1930.46</ele>
        <time>2019-03-19T14:00:39Z</time>
      </trkpt>
      <trkpt lat="46.01366" lon="6.58104">
        <ele>1929.98</ele>
        <time>2019-03-19T14:00:40Z</time>
      </trkpt>
      <trkpt lat="46.01374" lon="6.58104">
        <ele>1929.98</ele>
        <time>2019-03-19T14:00:41Z</time>
      </trkpt>
      <trkpt lat="46.01382" lon="6.58104">
        <ele>1930.46</ele>
        <time>2019-03-19T14:00:42Z</time>
      </trkpt>
      <trkpt lat="46.01391" lon="6.58104">
        <ele>1929.5</ele>
        <time>2019-03-19T14:00:43Z</time>
      </trkpt>
      <trkpt lat="46.01404" lon="6.58103">
        <ele>1926.62</ele>
        <time>2019-03-19T14:00:45Z</time>
      </trkpt>
      <trkpt lat="46.01443" lon="6.58093">
        <ele>1927.1</ele>
        <time>2019-03-19T14:00:56Z</time>
      </trkpt>
      <trkpt lat="46.01476" lon="6.5809">
        <ele>1924.22</ele>
        <time>2019-03-19T14:01:03Z</time>
      </trkpt>
      <trkpt lat="46.01479" lon="6.58092">
        <ele>1922.77</ele>
        <time>2019-03-19T14:01:05Z</time>
      </trkpt>
      <trkpt lat="46.01479" lon="6.58086">
        <ele>1921.81</ele>
        <time>2019-03-19T14:01:13Z</time>
      </trkpt>
      <trkpt lat="46.01478" lon="6.58083">
        <ele>1921.33</ele>
        <time>2019-03-19T14:01:14Z</time>
      </trkpt>
      <trkpt lat="46.01475" lon="6.58078">
        <ele>1920.37</ele>
        <time>2019-03-19T14:01:15Z</time>
      </trkpt>
      <trkpt lat="46.01473" lon="6.58073">
        <ele>1919.41</ele>
        <time>2019-03-19T14:01:16Z</time>
      </trkpt>
      <trkpt lat="46.01473" lon="6.58067">
        <ele>1917.97</ele>
        <time>2019-03-19T14:01:17Z</time>
      </trkpt>
      <trkpt lat="46.01473" lon="6.5806">
        <ele>1916.53</ele>
        <time>2019-03-19T14:01:18Z</time>
      </trkpt>
      <trkpt lat="46.01471" lon="6.58052">
        <ele>1914.6</ele>
        <time>2019-03-19T14:01:19Z</time>
      </trkpt>
      <trkpt lat="46.01469" lon="6.58042">
        <ele>1912.2</ele>
        <time>2019-03-19T14:01:20Z</time>
      </trkpt>
      <trkpt lat="46.01465" lon="6.58035">
        <ele>1909.8</ele>
        <time>2019-03-19T14:01:21Z</time>
      </trkpt>
      <trkpt lat="46.0146" lon="6.58029">
        <ele>1907.87</ele>
        <time>2019-03-19T14:01:22Z</time>
      </trkpt>
      <trkpt lat="46.01457" lon="6.58023">
        <ele>1905.95</ele>
        <time>2019-03-19T14:01:23Z</time>
      </trkpt>
      <trkpt lat="46.01454" lon="6.58018">
        <ele>1904.51</ele>
        <time>2019-03-19T14:01:24Z</time>
      </trkpt>
      <trkpt lat="46.01452" lon="6.58013">
        <ele>1902.59</ele>
        <time>2019-03-19T14:01:25Z</time>
      </trkpt>
      <trkpt lat="46.01452" lon="6.58009">
        <ele>1901.14</ele>
        <time>2019-03-19T14:01:26Z</time>
      </trkpt>
      <trkpt lat="46.01451" lon="6.58003">
        <ele>1899.22</ele>
        <time>2019-03-19T14:01:27Z</time>
      </trkpt>
      <trkpt lat="46.01452" lon="6.57998">
        <ele>1896.82</ele>
        <time>2019-03-19T14:01:28Z</time>
      </trkpt>
      <trkpt lat="46.01455" lon="6.57993">
        <ele>1893.93</ele>
        <time>2019-03-19T14:01:29Z</time>
      </trkpt>
      <trkpt lat="46.01457" lon="6.57987">
        <ele>1892.01</ele>
        <time>2019-03-19T14:01:30Z</time>
      </trkpt>
      <trkpt lat="46.01459" lon="6.5798">
        <ele>1888.65</ele>
        <time>2019-03-19T14:01:31Z</time>
      </trkpt>
      <trkpt lat="46.01461" lon="6.57971">
        <ele>1883.36</ele>
        <time>2019-03-19T14:01:32Z</time>
      </trkpt>
      <trkpt lat="46.01463" lon="6.57963">
        <ele>1879.03</ele>
        <time>2019-03-19T14:01:33Z</time>
      </trkpt>
      <trkpt lat="46.01464" lon="6.57955">
        <ele>1875.19</ele>
        <time>2019-03-19T14:01:34Z</time>
      </trkpt>
      <trkpt lat="46.01463" lon="6.57945">
        <ele>1869.9</ele>
        <time>2019-03-19T14:01:35Z</time>
      </trkpt>
      <trkpt lat="46.01466" lon="6.57936">
        <ele>1864.61</ele>
        <time>2019-03-19T14:01:36Z</time>
      </trkpt>
      <trkpt lat="46.01471" lon="6.57929">
        <ele>1859.81</ele>
        <time>2019-03-19T14:01:37Z</time>
      </trkpt>
      <trkpt lat="46.01474" lon="6.57919">
        <ele>1855</ele>
        <time>2019-03-19T14:01:38Z</time>
      </trkpt>
      <trkpt lat="46.01477" lon="6.57908">
        <ele>1848.27</ele>
        <time>2019-03-19T14:01:39Z</time>
      </trkpt>
      <trkpt lat="46.01482" lon="6.57898">
        <ele>1842.98</ele>
        <time>2019-03-19T14:01:40Z</time>
      </trkpt>
      <trkpt lat="46.01485" lon="6.57887">
        <ele>1838.66</ele>
        <time>2019-03-19T14:01:41Z</time>
      </trkpt>
      <trkpt lat="46.01491" lon="6.5788">
        <ele>1833.37</ele>
        <time>2019-03-19T14:01:42Z</time>
      </trkpt>
      <trkpt lat="46.01496" lon="6.57873">
        <ele>1829.05</ele>
        <time>2019-03-19T14:01:43Z</time>
      </trkpt>
      <trkpt lat="46.015" lon="6.57865">
        <ele>1824.72</ele>
        <time>2019-03-19T14:01:44Z</time>
      </trkpt>
      <trkpt lat="46.01505" lon="6.57858">
        <ele>1819.91</ele>
        <time>2019-03-19T14:01:45Z</time>
      </trkpt>
      <trkpt lat="46.01511" lon="6.57854">
        <ele>1816.07</ele>
        <time>2019-03-19T14:01:46Z</time>
      </trkpt>
      <trkpt lat="46.01517" lon="6.57848">
        <ele>1811.26</ele>
        <time>2019-03-19T14:01:47Z</time>
      </trkpt>
      <trkpt lat="46.01524" lon="6.57845">
        <ele>1806.94</ele>
        <time>2019-03-19T14:01:48Z</time>
      </trkpt>
      <trkpt lat="46.01529" lon="6.57841">
        <ele>1803.09</ele>
        <time>2019-03-19T14:01:49Z</time>
      </trkpt>
      <trkpt lat="46.01535" lon="6.57836">
        <ele>1798.28</ele>
        <time>2019-03-19T14:01:50Z</time>
      </trkpt>
      <trkpt lat="46.0154" lon="6.57832">
        <ele>1794.44</ele>
        <time>2019-03-19T14:01:51Z</time>
      </trkpt>
      <trkpt lat="46.01543" lon="6.57826">
        <ele>1790.59</ele>
        <time>2019-03-19T14:01:52Z</time>
      </trkpt>
      <trkpt lat="46.01544" lon="6.5782">
        <ele>1787.23</ele>
        <time>2019-03-19T14:01:53Z</time>
      </trkpt>
      <trkpt lat="46.01547" lon="6.57816">
        <ele>1784.34</ele>
        <time>2019-03-19T14:01:54Z</time>
      </trkpt>
      <trkpt lat="46.0155" lon="6.5781">
        <ele>1780.98</ele>
        <time>2019-03-19T14:01:55Z</time>
      </trkpt>
      <trkpt lat="46.01551" lon="6.57802">
        <ele>1777.61</ele>
        <time>2019-03-19T14:01:56Z</time>
      </trkpt>
      <trkpt lat="46.01553" lon="6.57795">
        <ele>1773.77</ele>
        <time>2019-03-19T14:01:57Z</time>
      </trkpt>
      <trkpt lat="46.01557" lon="6.5779">
        <ele>1770.41</ele>
        <time>2019-03-19T14:01:58Z</time>
      </trkpt>
      <trkpt lat="46.01562" lon="6.57785">
        <ele>1767.04</ele>
        <time>2019-03-19T14:01:59Z</time>
      </trkpt>
      <trkpt lat="46.01565" lon="6.57776">
        <ele>1762.23</ele>
        <time>2019-03-19T14:02:00Z</time>
      </trkpt>
      <trkpt lat="46.01571" lon="6.57772">
        <ele>1756.95</ele>
        <time>2019-03-19T14:02:01Z</time>
      </trkpt>
      <trkpt lat="46.01577" lon="6.5777">
        <ele>1751.66</ele>
        <time>2019-03-19T14:02:02Z</time>
      </trkpt>
      <trkpt lat="46.01581" lon="6.57768">
        <ele>1747.81</ele>
        <time>2019-03-19T14:02:03Z</time>
      </trkpt>
      <trkpt lat="46.01585" lon="6.57759">
        <ele>1744.45</ele>
        <time>2019-03-19T14:02:04Z</time>
      </trkpt>
      <trkpt lat="46.01589" lon="6.57755">
        <ele>1741.08</ele>
        <time>2019-03-19T14:02:05Z</time>
      </trkpt>
      <trkpt lat="46.01594" lon="6.57753">
        <ele>1738.2</ele>
        <time>2019-03-19T14:02:06Z</time>
      </trkpt>
      <trkpt lat="46.016" lon="6.5775">
        <ele>1735.32</ele>
        <time>2019-03-19T14:02:07Z</time>
      </trkpt>
      <trkpt lat="46.01605" lon="6.57745">
        <ele>1732.43</ele>
        <time>2019-03-19T14:02:08Z</time>
      </trkpt>
      <trkpt lat="46.01609" lon="6.57737">
        <ele>1728.59</ele>
        <time>2019-03-19T14:02:09Z</time>
      </trkpt>
      <trkpt lat="46.01612" lon="6.57735">
        <ele>1725.7</ele>
        <time>2019-03-19T14:02:10Z</time>
      </trkpt>
      <trkpt lat="46.01614" lon="6.57735">
        <ele>1723.78</ele>
        <time>2019-03-19T14:02:11Z</time>
      </trkpt>
      <trkpt lat="46.01617" lon="6.57736">
        <ele>1722.82</ele>
        <time>2019-03-19T14:02:12Z</time>
      </trkpt>
      <trkpt lat="46.01621" lon="6.57735">
        <ele>1720.9</ele>
        <time>2019-03-19T14:02:14Z</time>
      </trkpt>
      <trkpt lat="46.01623" lon="6.57731">
        <ele>1719.46</ele>
        <time>2019-03-19T14:02:15Z</time>
      </trkpt>
      <trkpt lat="46.01627" lon="6.57729">
        <ele>1717.53</ele>
        <time>2019-03-19T14:02:16Z</time>
      </trkpt>
      <trkpt lat="46.01631" lon="6.57728">
        <ele>1715.61</ele>
        <time>2019-03-19T14:02:17Z</time>
      </trkpt>
      <trkpt lat="46.01633" lon="6.57727">
        <ele>1713.69</ele>
        <time>2019-03-19T14:02:18Z</time>
      </trkpt>
      <trkpt lat="46.01636" lon="6.57725">
        <ele>1712.25</ele>
        <time>2019-03-19T14:02:19Z</time>
      </trkpt>
      <trkpt lat="46.01639" lon="6.57726">
        <ele>1709.84</ele>
        <time>2019-03-19T14:02:20Z</time>
      </trkpt>
      <trkpt lat="46.01641" lon="6.57727">
        <ele>1707.44</ele>
        <time>2019-03-19T14:02:21Z</time>
      </trkpt>
      <trkpt lat="46.01643" lon="6.57725">
        <ele>1705.52</ele>
        <time>2019-03-19T14:02:22Z</time>
      </trkpt>
      <trkpt lat="46.01646" lon="6.57724">
        <ele>1703.11</ele>
        <time>2019-03-19T14:02:23Z</time>
      </trkpt>
      <trkpt lat="46.01648" lon="6.57723">
        <ele>1700.71</ele>
        <time>2019-03-19T14:02:24Z</time>
      </trkpt>
      <trkpt lat="46.01649" lon="6.57719">
        <ele>1699.27</ele>
        <time>2019-03-19T14:02:25Z</time>
      </trkpt>
      <trkpt lat="46.01654" lon="6.57715">
        <ele>1697.34</ele>
        <time>2019-03-19T14:02:26Z</time>
      </trkpt>
      <trkpt lat="46.01656" lon="6.57712">
        <ele>1694.46</ele>
        <time>2019-03-19T14:02:27Z</time>
      </trkpt>
      <trkpt lat="46.01657" lon="6.57707">
        <ele>1692.06</ele>
        <time>2019-03-19T14:02:28Z</time>
      </trkpt>
      <trkpt lat="46.0166" lon="6.57702">
        <ele>1690.14</ele>
        <time>2019-03-19T14:02:29Z</time>
      </trkpt>
      <trkpt lat="46.01662" lon="6.57702">
        <ele>1687.73</ele>
        <time>2019-03-19T14:02:30Z</time>
      </trkpt>
      <trkpt lat="46.01664" lon="6.57705">
        <ele>1686.29</ele>
        <time>2019-03-19T14:02:31Z</time>
      </trkpt>
      <trkpt lat="46.01667" lon="6.57707">
        <ele>1684.37</ele>
        <time>2019-03-19T14:02:32Z</time>
      </trkpt>
      <trkpt lat="46.01671" lon="6.57707">
        <ele>1682.44</ele>
        <time>2019-03-19T14:02:33Z</time>
      </trkpt>
      <trkpt lat="46.01671" lon="6.57703">
        <ele>1681.48</ele>
        <time>2019-03-19T14:02:34Z</time>
      </trkpt>
      <trkpt lat="46.01671" lon="6.57699">
        <ele>1680.04</ele>
        <time>2019-03-19T14:02:35Z</time>
      </trkpt>
      <trkpt lat="46.01674" lon="6.57695">
        <ele>1677.64</ele>
        <time>2019-03-19T14:02:36Z</time>
      </trkpt>
      <trkpt lat="46.01677" lon="6.57695">
        <ele>1676.2</ele>
        <time>2019-03-19T14:02:37Z</time>
      </trkpt>
      <trkpt lat="46.0168" lon="6.57696">
        <ele>1674.27</ele>
        <time>2019-03-19T14:02:38Z</time>
      </trkpt>
      <trkpt lat="46.01682" lon="6.57697">
        <ele>1672.83</ele>
        <time>2019-03-19T14:02:39Z</time>
      </trkpt>
      <trkpt lat="46.01683" lon="6.57697">
        <ele>1671.39</ele>
        <time>2019-03-19T14:02:40Z</time>
      </trkpt>
      <trkpt lat="46.01684" lon="6.57696">
        <ele>1670.43</ele>
        <time>2019-03-19T14:02:41Z</time>
      </trkpt>
      <trkpt lat="46.01685" lon="6.57693">
        <ele>1668.99</ele>
        <time>2019-03-19T14:02:42Z</time>
      </trkpt>
      <trkpt lat="46.01687" lon="6.5769">
        <ele>1668.02</ele>
        <time>2019-03-19T14:02:43Z</time>
      </trkpt>
      <trkpt lat="46.01689" lon="6.57688">
        <ele>1666.1</ele>
        <time>2019-03-19T14:02:44Z</time>
      </trkpt>
      <trkpt lat="46.01692" lon="6.57689">
        <ele>1664.66</ele>
        <time>2019-03-19T14:02:45Z</time>
      </trkpt>
      <trkpt lat="46.01695" lon="6.57689">
        <ele>1662.74</ele>
        <time>2019-03-19T14:02:46Z</time>
      </trkpt>
      <trkpt lat="46.01697" lon="6.57686">
        <ele>1661.3</ele>
        <time>2019-03-19T14:02:47Z</time>
      </trkpt>
      <trkpt lat="46.01698" lon="6.57682">
        <ele>1659.37</ele>
        <time>2019-03-19T14:02:48Z</time>
      </trkpt>
      <trkpt lat="46.01699" lon="6.57678">
        <ele>1657.93</ele>
        <time>2019-03-19T14:02:49Z</time>
      </trkpt>
      <trkpt lat="46.017" lon="6.57677">
        <ele>1656.01</ele>
        <time>2019-03-19T14:02:50Z</time>
      </trkpt>
      <trkpt lat="46.01699" lon="6.57671">
        <ele>1652.64</ele>
        <time>2019-03-19T14:02:52Z</time>
      </trkpt>
      <trkpt lat="46.01699" lon="6.57668">
        <ele>1651.2</ele>
        <time>2019-03-19T14:02:53Z</time>
      </trkpt>
      <trkpt lat="46.017" lon="6.57665">
        <ele>1650.24</ele>
        <time>2019-03-19T14:02:54Z</time>
      </trkpt>
      <trkpt lat="46.01702" lon="6.57665">
        <ele>1648.8</ele>
        <time>2019-03-19T14:02:55Z</time>
      </trkpt>
      <trkpt lat="46.01703" lon="6.57667">
        <ele>1647.84</ele>
        <time>2019-03-19T14:02:56Z</time>
      </trkpt>
      <trkpt lat="46.01704" lon="6.57668">
        <ele>1646.4</ele>
        <time>2019-03-19T14:02:58Z</time>
      </trkpt>
      <trkpt lat="46.01706" lon="6.57672">
        <ele>1646.4</ele>
        <time>2019-03-19T14:03:07Z</time>
      </trkpt>
      <trkpt lat="46.01722" lon="6.57679">
        <ele>1643.03</ele>
        <time>2019-03-19T14:03:14Z</time>
      </trkpt>
      <trkpt lat="46.0173" lon="6.57683">
        <ele>1641.59</ele>
        <time>2019-03-19T14:03:17Z</time>
      </trkpt>
      <trkpt lat="46.01747" lon="6.5769">
        <ele>1638.22</ele>
        <time>2019-03-19T14:03:23Z</time>
      </trkpt>
      <trkpt lat="46.01751" lon="6.57692">
        <ele>1637.26</ele>
        <time>2019-03-19T14:03:24Z</time>
      </trkpt>
      <trkpt lat="46.01763" lon="6.57699">
        <ele>1635.34</ele>
        <time>2019-03-19T14:03:30Z</time>
      </trkpt>
      <trkpt lat="46.01763" lon="6.57696">
        <ele>1634.38</ele>
        <time>2019-03-19T14:03:31Z</time>
      </trkpt>
      <trkpt lat="46.01763" lon="6.57692">
        <ele>1633.42</ele>
        <time>2019-03-19T14:03:32Z</time>
      </trkpt>
      <trkpt lat="46.01764" lon="6.57689">
        <ele>1631.49</ele>
        <time>2019-03-19T14:03:33Z</time>
      </trkpt>
      <trkpt lat="46.01766" lon="6.57686">
        <ele>1629.57</ele>
        <time>2019-03-19T14:03:34Z</time>
      </trkpt>
      <trkpt lat="46.01767" lon="6.57682">
        <ele>1628.61</ele>
        <time>2019-03-19T14:03:35Z</time>
      </trkpt>
      <trkpt lat="46.01767" lon="6.57677">
        <ele>1626.21</ele>
        <time>2019-03-19T14:03:36Z</time>
      </trkpt>
      <trkpt lat="46.01768" lon="6.57674">
        <ele>1623.8</ele>
        <time>2019-03-19T14:03:37Z</time>
      </trkpt>
      <trkpt lat="46.01769" lon="6.57671">
        <ele>1621.88</ele>
        <time>2019-03-19T14:03:38Z</time>
      </trkpt>
      <trkpt lat="46.01774" lon="6.57662">
        <ele>1615.63</ele>
        <time>2019-03-19T14:03:40Z</time>
      </trkpt>
      <trkpt lat="46.0178" lon="6.57654">
        <ele>1611.79</ele>
        <time>2019-03-19T14:03:42Z</time>
      </trkpt>
      <trkpt lat="46.0178" lon="6.5765">
        <ele>1609.86</ele>
        <time>2019-03-19T14:03:43Z</time>
      </trkpt>
      <trkpt lat="46.01782" lon="6.57648">
        <ele>1607.46</ele>
        <time>2019-03-19T14:03:44Z</time>
      </trkpt>
      <trkpt lat="46.01785" lon="6.57643">
        <ele>1603.14</ele>
        <time>2019-03-19T14:03:46Z</time>
      </trkpt>
      <trkpt lat="46.01789" lon="6.57641">
        <ele>1601.69</ele>
        <time>2019-03-19T14:03:47Z</time>
      </trkpt>
      <trkpt lat="46.01792" lon="6.5764">
        <ele>1598.81</ele>
        <time>2019-03-19T14:03:48Z</time>
      </trkpt>
      <trkpt lat="46.01794" lon="6.57637">
        <ele>1594.48</ele>
        <time>2019-03-19T14:03:50Z</time>
      </trkpt>
      <trkpt lat="46.01794" lon="6.57633">
        <ele>1592.56</ele>
        <time>2019-03-19T14:03:51Z</time>
      </trkpt>
      <trkpt lat="46.01797" lon="6.57629">
        <ele>1590.64</ele>
        <time>2019-03-19T14:03:52Z</time>
      </trkpt>
      <trkpt lat="46.01799" lon="6.57627">
        <ele>1589.2</ele>
        <time>2019-03-19T14:03:53Z</time>
      </trkpt>
      <trkpt lat="46.018" lon="6.57623">
        <ele>1586.79</ele>
        <time>2019-03-19T14:03:54Z</time>
      </trkpt>
      <trkpt lat="46.01801" lon="6.57619">
        <ele>1583.91</ele>
        <time>2019-03-19T14:03:55Z</time>
      </trkpt>
      <trkpt lat="46.01805" lon="6.57613">
        <ele>1581.51</ele>
        <time>2019-03-19T14:03:56Z</time>
      </trkpt>
      <trkpt lat="46.01807" lon="6.57608">
        <ele>1578.62</ele>
        <time>2019-03-19T14:03:57Z</time>
      </trkpt>
      <trkpt lat="46.0181" lon="6.57603">
        <ele>1575.26</ele>
        <time>2019-03-19T14:03:58Z</time>
      </trkpt>
      <trkpt lat="46.01813" lon="6.57602">
        <ele>1573.82</ele>
        <time>2019-03-19T14:03:59Z</time>
      </trkpt>
      <trkpt lat="46.01815" lon="6.57602">
        <ele>1571.41</ele>
        <time>2019-03-19T14:04:00Z</time>
      </trkpt>
      <trkpt lat="46.01817" lon="6.57604">
        <ele>1569.97</ele>
        <time>2019-03-19T14:04:01Z</time>
      </trkpt>
      <trkpt lat="46.01818" lon="6.57604">
        <ele>1569.01</ele>
        <time>2019-03-19T14:04:02Z</time>
      </trkpt>
      <trkpt lat="46.0182" lon="6.57602">
        <ele>1568.05</ele>
        <time>2019-03-19T14:04:03Z</time>
      </trkpt>
      <trkpt lat="46.01822" lon="6.57598">
        <ele>1566.61</ele>
        <time>2019-03-19T14:04:04Z</time>
      </trkpt>
      <trkpt lat="46.01825" lon="6.57595">
        <ele>1564.68</ele>
        <time>2019-03-19T14:04:05Z</time>
      </trkpt>
      <trkpt lat="46.01827" lon="6.57593">
        <ele>1562.28</ele>
        <time>2019-03-19T14:04:06Z</time>
      </trkpt>
      <trkpt lat="46.01829" lon="6.57595">
        <ele>1559.88</ele>
        <time>2019-03-19T14:04:08Z</time>
      </trkpt>
      <trkpt lat="46.01832" lon="6.57597">
        <ele>1559.4</ele>
        <time>2019-03-19T14:04:09Z</time>
      </trkpt>
      <trkpt lat="46.01843" lon="6.57606">
        <ele>1556.51</ele>
        <time>2019-03-19T14:04:13Z</time>
      </trkpt>
      <trkpt lat="46.01844" lon="6.57602">
        <ele>1555.07</ele>
        <time>2019-03-19T14:04:14Z</time>
      </trkpt>
      <trkpt lat="46.01847" lon="6.57599">
        <ele>1553.15</ele>
        <time>2019-03-19T14:04:15Z</time>
      </trkpt>
      <trkpt lat="46.01854" lon="6.57593">
        <ele>1549.3</ele>
        <time>2019-03-19T14:04:17Z</time>
      </trkpt>
      <trkpt lat="46.01855" lon="6.57586">
        <ele>1546.9</ele>
        <time>2019-03-19T14:04:18Z</time>
      </trkpt>
      <trkpt lat="46.01858" lon="6.57582">
        <ele>1544.01</ele>
        <time>2019-03-19T14:04:19Z</time>
      </trkpt>
      <trkpt lat="46.01861" lon="6.57579">
        <ele>1541.13</ele>
        <time>2019-03-19T14:04:20Z</time>
      </trkpt>
      <trkpt lat="46.01864" lon="6.57577">
        <ele>1539.21</ele>
        <time>2019-03-19T14:04:21Z</time>
      </trkpt>
      <trkpt lat="46.01866" lon="6.57572">
        <ele>1536.32</ele>
        <time>2019-03-19T14:04:22Z</time>
      </trkpt>
      <trkpt lat="46.0187" lon="6.57568">
        <ele>1534.4</ele>
        <time>2019-03-19T14:04:23Z</time>
      </trkpt>
      <trkpt lat="46.01874" lon="6.57566">
        <ele>1531.04</ele>
        <time>2019-03-19T14:04:24Z</time>
      </trkpt>
      <trkpt lat="46.01876" lon="6.57562">
        <ele>1528.63</ele>
        <time>2019-03-19T14:04:25Z</time>
      </trkpt>
      <trkpt lat="46.01879" lon="6.57559">
        <ele>1525.27</ele>
        <time>2019-03-19T14:04:26Z</time>
      </trkpt>
      <trkpt lat="46.01883" lon="6.57557">
        <ele>1521.9</ele>
        <time>2019-03-19T14:04:27Z</time>
      </trkpt>
      <trkpt lat="46.01887" lon="6.57558">
        <ele>1519.02</ele>
        <time>2019-03-19T14:04:28Z</time>
      </trkpt>
      <trkpt lat="46.0189" lon="6.5756">
        <ele>1518.06</ele>
        <time>2019-03-19T14:04:29Z</time>
      </trkpt>
      <trkpt lat="46.019" lon="6.57567">
        <ele>1514.69</ele>
        <time>2019-03-19T14:04:32Z</time>
      </trkpt>
      <trkpt lat="46.01905" lon="6.57563">
        <ele>1512.77</ele>
        <time>2019-03-19T14:04:34Z</time>
      </trkpt>
      <trkpt lat="46.01907" lon="6.5756">
        <ele>1510.85</ele>
        <time>2019-03-19T14:04:35Z</time>
      </trkpt>
      <trkpt lat="46.01909" lon="6.57555">
        <ele>1509.41</ele>
        <time>2019-03-19T14:04:36Z</time>
      </trkpt>
      <trkpt lat="46.01911" lon="6.57551">
        <ele>1507</ele>
        <time>2019-03-19T14:04:37Z</time>
      </trkpt>
      <trkpt lat="46.01912" lon="6.57546">
        <ele>1504.12</ele>
        <time>2019-03-19T14:04:38Z</time>
      </trkpt>
      <trkpt lat="46.01913" lon="6.57541">
        <ele>1501.24</ele>
        <time>2019-03-19T14:04:39Z</time>
      </trkpt>
      <trkpt lat="46.01912" lon="6.57537">
        <ele>1499.31</ele>
        <time>2019-03-19T14:04:40Z</time>
      </trkpt>
      <trkpt lat="46.01911" lon="6.57533">
        <ele>1497.87</ele>
        <time>2019-03-19T14:04:41Z</time>
      </trkpt>
      <trkpt lat="46.0191" lon="6.5753">
        <ele>1496.91</ele>
        <time>2019-03-19T14:04:42Z</time>
      </trkpt>
      <trkpt lat="46.01912" lon="6.57528">
        <ele>1495.47</ele>
        <time>2019-03-19T14:04:43Z</time>
      </trkpt>
      <trkpt lat="46.01914" lon="6.57526">
        <ele>1494.03</ele>
        <time>2019-03-19T14:04:44Z</time>
      </trkpt>
      <trkpt lat="46.01916" lon="6.57523">
        <ele>1492.1</ele>
        <time>2019-03-19T14:04:45Z</time>
      </trkpt>
      <trkpt lat="46.01919" lon="6.57521">
        <ele>1490.18</ele>
        <time>2019-03-19T14:04:46Z</time>
      </trkpt>
      <trkpt lat="46.01921" lon="6.57521">
        <ele>1487.78</ele>
        <time>2019-03-19T14:04:47Z</time>
      </trkpt>
      <trkpt lat="46.01921" lon="6.57521">
        <ele>1486.34</ele>
        <time>2019-03-19T14:04:49Z</time>
      </trkpt>
      <trkpt lat="46.01921" lon="6.57517">
        <ele>1485.85</ele>
        <time>2019-03-19T14:04:54Z</time>
      </trkpt>
      <trkpt lat="46.0192" lon="6.57514">
        <ele>1485.37</ele>
        <time>2019-03-19T14:04:55Z</time>
      </trkpt>
      <trkpt lat="46.0192" lon="6.57512">
        <ele>1485.37</ele>
        <time>2019-03-19T14:04:56Z</time>
      </trkpt>
      <trkpt lat="46.01921" lon="6.5751">
        <ele>1484.41</ele>
        <time>2019-03-19T14:04:57Z</time>
      </trkpt>
      <trkpt lat="46.01923" lon="6.57509">
        <ele>1482.97</ele>
        <time>2019-03-19T14:04:58Z</time>
      </trkpt>
      <trkpt lat="46.01922" lon="6.57508">
        <ele>1482.01</ele>
        <time>2019-03-19T14:05:00Z</time>
      </trkpt>
      <trkpt lat="46.01925" lon="6.57511">
        <ele>1481.53</ele>
        <time>2019-03-19T14:05:04Z</time>
      </trkpt>
      <trkpt lat="46.01926" lon="6.5751">
        <ele>1481.05</ele>
        <time>2019-03-19T14:05:05Z</time>
      </trkpt>
      <trkpt lat="46.01925" lon="6.57508">
        <ele>1480.57</ele>
        <time>2019-03-19T14:05:06Z</time>
      </trkpt>
      <trkpt lat="46.01925" lon="6.57507">
        <ele>1479.61</ele>
        <time>2019-03-19T14:05:07Z</time>
      </trkpt>
      <trkpt lat="46.01926" lon="6.57503">
        <ele>1477.2</ele>
        <time>2019-03-19T14:05:15Z</time>
      </trkpt>
      <trkpt lat="46.01926" lon="6.57501">
        <ele>1477.2</ele>
        <time>2019-03-19T14:05:16Z</time>
      </trkpt>
      <trkpt lat="46.01929" lon="6.57503">
        <ele>1474.8</ele>
        <time>2019-03-19T14:05:31Z</time>
      </trkpt>
      <trkpt lat="46.01921" lon="6.57493">
        <ele>1473.36</ele>
        <time>2019-03-19T14:05:43Z</time>
      </trkpt>
      <trkpt lat="46.0192" lon="6.57491">
        <ele>1472.88</ele>
        <time>2019-03-19T14:05:44Z</time>
      </trkpt>
      <trkpt lat="46.0192" lon="6.5749">
        <ele>1472.88</ele>
        <time>2019-03-19T14:05:45Z</time>
      </trkpt>
      <trkpt lat="46.01919" lon="6.57487">
        <ele>1472.4</ele>
        <time>2019-03-19T14:05:46Z</time>
      </trkpt>
      <trkpt lat="46.01918" lon="6.57482">
        <ele>1472.4</ele>
        <time>2019-03-19T14:05:47Z</time>
      </trkpt>
      <trkpt lat="46.01918" lon="6.57479">
        <ele>1472.4</ele>
        <time>2019-03-19T14:05:48Z</time>
      </trkpt>
      <trkpt lat="46.01917" lon="6.57477">
        <ele>1471.92</ele>
        <time>2019-03-19T14:05:49Z</time>
      </trkpt>
      <trkpt lat="46.01915" lon="6.57474">
        <ele>1471.92</ele>
        <time>2019-03-19T14:05:52Z</time>
      </trkpt>
      <trkpt lat="46.01913" lon="6.57472">
        <ele>1471.44</ele>
        <time>2019-03-19T14:05:53Z</time>
      </trkpt>
      <trkpt lat="46.01911" lon="6.57451">
        <ele>1469.99</ele>
        <time>2019-03-19T14:06:00Z</time>
      </trkpt>
      <trkpt lat="46.01912" lon="6.57445">
        <ele>1468.55</ele>
        <time>2019-03-19T14:06:02Z</time>
      </trkpt>
      <trkpt lat="46.01913" lon="6.57439">
        <ele>1467.59</ele>
        <time>2019-03-19T14:06:03Z</time>
      </trkpt>
      <trkpt lat="46.01914" lon="6.57431">
        <ele>1465.67</ele>
        <time>2019-03-19T14:06:04Z</time>
      </trkpt>
      <trkpt lat="46.01916" lon="6.57426">
        <ele>1463.74</ele>
        <time>2019-03-19T14:06:05Z</time>
      </trkpt>
      <trkpt lat="46.01918" lon="6.57425">
        <ele>1462.78</ele>
        <time>2019-03-19T14:06:06Z</time>
      </trkpt>
      <trkpt lat="46.0192" lon="6.57425">
        <ele>1461.34</ele>
        <time>2019-03-19T14:06:07Z</time>
      </trkpt>
      <trkpt lat="46.01923" lon="6.57422">
        <ele>1459.9</ele>
        <time>2019-03-19T14:06:08Z</time>
      </trkpt>
      <trkpt lat="46.01926" lon="6.57419">
        <ele>1457.5</ele>
        <time>2019-03-19T14:06:09Z</time>
      </trkpt>
      <trkpt lat="46.01929" lon="6.57416">
        <ele>1455.57</ele>
        <time>2019-03-19T14:06:10Z</time>
      </trkpt>
      <trkpt lat="46.01932" lon="6.57412">
        <ele>1453.65</ele>
        <time>2019-03-19T14:06:11Z</time>
      </trkpt>
      <trkpt lat="46.01935" lon="6.57409">
        <ele>1452.21</ele>
        <time>2019-03-19T14:06:12Z</time>
      </trkpt>
      <trkpt lat="46.01937" lon="6.57405">
        <ele>1450.77</ele>
        <time>2019-03-19T14:06:13Z</time>
      </trkpt>
      <trkpt lat="46.01937" lon="6.574">
        <ele>1448.84</ele>
        <time>2019-03-19T14:06:14Z</time>
      </trkpt>
      <trkpt lat="46.01938" lon="6.57395">
        <ele>1447.4</ele>
        <time>2019-03-19T14:06:15Z</time>
      </trkpt>
      <trkpt lat="46.01939" lon="6.57391">
        <ele>1445.96</ele>
        <time>2019-03-19T14:06:16Z</time>
      </trkpt>
      <trkpt lat="46.01942" lon="6.57391">
        <ele>1444.52</ele>
        <time>2019-03-19T14:06:17Z</time>
      </trkpt>
      <trkpt lat="46.01945" lon="6.57392">
        <ele>1443.56</ele>
        <time>2019-03-19T14:06:18Z</time>
      </trkpt>
      <trkpt lat="46.01948" lon="6.57391">
        <ele>1442.11</ele>
        <time>2019-03-19T14:06:19Z</time>
      </trkpt>
      <trkpt lat="46.01949" lon="6.57386">
        <ele>1441.15</ele>
        <time>2019-03-19T14:06:20Z</time>
      </trkpt>
      <trkpt lat="46.0195" lon="6.57381">
        <ele>1439.23</ele>
        <time>2019-03-19T14:06:21Z</time>
      </trkpt>
      <trkpt lat="46.01952" lon="6.57376">
        <ele>1437.79</ele>
        <time>2019-03-19T14:06:22Z</time>
      </trkpt>
      <trkpt lat="46.01955" lon="6.57374">
        <ele>1436.35</ele>
        <time>2019-03-19T14:06:23Z</time>
      </trkpt>
      <trkpt lat="46.01956" lon="6.57371">
        <ele>1435.39</ele>
        <time>2019-03-19T14:06:24Z</time>
      </trkpt>
      <trkpt lat="46.01957" lon="6.57368">
        <ele>1434.91</ele>
        <time>2019-03-19T14:06:25Z</time>
      </trkpt>
      <trkpt lat="46.01958" lon="6.57366">
        <ele>1433.46</ele>
        <time>2019-03-19T14:06:26Z</time>
      </trkpt>
      <trkpt lat="46.01957" lon="6.57364">
        <ele>1432.02</ele>
        <time>2019-03-19T14:06:29Z</time>
      </trkpt>
      <trkpt lat="46.01964" lon="6.57371">
        <ele>1431.06</ele>
        <time>2019-03-19T14:07:02Z</time>
      </trkpt>
      <trkpt lat="46.01964" lon="6.57373">
        <ele>1430.58</ele>
        <time>2019-03-19T14:07:03Z</time>
      </trkpt>
      <trkpt lat="46.01964" lon="6.57374">
        <ele>1430.1</ele>
        <time>2019-03-19T14:07:04Z</time>
      </trkpt>
      <trkpt lat="46.01965" lon="6.57374">
        <ele>1429.62</ele>
        <time>2019-03-19T14:07:05Z</time>
      </trkpt>
      <trkpt lat="46.01969" lon="6.5737">
        <ele>1429.14</ele>
        <time>2019-03-19T14:07:07Z</time>
      </trkpt>
      <trkpt lat="46.01972" lon="6.57368">
        <ele>1426.73</ele>
        <time>2019-03-19T14:07:11Z</time>
      </trkpt>
      <trkpt lat="46.01973" lon="6.57364">
        <ele>1425.77</ele>
        <time>2019-03-19T14:07:15Z</time>
      </trkpt>
      <trkpt lat="46.01978" lon="6.57355">
        <ele>1422.89</ele>
        <time>2019-03-19T14:07:24Z</time>
      </trkpt>
      <trkpt lat="46.0198" lon="6.57355">
        <ele>1421.93</ele>
        <time>2019-03-19T14:07:25Z</time>
      </trkpt>
      <trkpt lat="46.01982" lon="6.57356">
        <ele>1420.97</ele>
        <time>2019-03-19T14:07:26Z</time>
      </trkpt>
      <trkpt lat="46.01985" lon="6.57357">
        <ele>1420</ele>
        <time>2019-03-19T14:07:27Z</time>
      </trkpt>
      <trkpt lat="46.01987" lon="6.57357">
        <ele>1419.04</ele>
        <time>2019-03-19T14:07:28Z</time>
      </trkpt>
      <trkpt lat="46.01988" lon="6.57357">
        <ele>1418.56</ele>
        <time>2019-03-19T14:07:29Z</time>
      </trkpt>
      <trkpt lat="46.01989" lon="6.57357">
        <ele>1417.12</ele>
        <time>2019-03-19T14:07:31Z</time>
      </trkpt>
      <trkpt lat="46.01991" lon="6.57351">
        <ele>1415.2</ele>
        <time>2019-03-19T14:07:38Z</time>
      </trkpt>
      <trkpt lat="46.01991" lon="6.57349">
        <ele>1414.24</ele>
        <time>2019-03-19T14:07:39Z</time>
      </trkpt>
      <trkpt lat="46.01993" lon="6.57347">
        <ele>1413.76</ele>
        <time>2019-03-19T14:07:40Z</time>
      </trkpt>
      <trkpt lat="46.01995" lon="6.57346">
        <ele>1412.79</ele>
        <time>2019-03-19T14:07:41Z</time>
      </trkpt>
      <trkpt lat="46.01996" lon="6.57346">
        <ele>1411.83</ele>
        <time>2019-03-19T14:07:42Z</time>
      </trkpt>
      <trkpt lat="46.01998" lon="6.57346">
        <ele>1411.35</ele>
        <time>2019-03-19T14:07:43Z</time>
      </trkpt>
      <trkpt lat="46.01998" lon="6.57343">
        <ele>1410.39</ele>
        <time>2019-03-19T14:07:44Z</time>
      </trkpt>
      <trkpt lat="46.02" lon="6.5734">
        <ele>1409.43</ele>
        <time>2019-03-19T14:07:45Z</time>
      </trkpt>
      <trkpt lat="46.02003" lon="6.57339">
        <ele>1407.99</ele>
        <time>2019-03-19T14:07:46Z</time>
      </trkpt>
      <trkpt lat="46.02004" lon="6.57336">
        <ele>1407.51</ele>
        <time>2019-03-19T14:07:47Z</time>
      </trkpt>
      <trkpt lat="46.02005" lon="6.57332">
        <ele>1406.55</ele>
        <time>2019-03-19T14:07:48Z</time>
      </trkpt>
      <trkpt lat="46.02006" lon="6.57329">
        <ele>1405.1</ele>
        <time>2019-03-19T14:07:49Z</time>
      </trkpt>
      <trkpt lat="46.02008" lon="6.57327">
        <ele>1403.66</ele>
        <time>2019-03-19T14:07:50Z</time>
      </trkpt>
      <trkpt lat="46.0201" lon="6.57326">
        <ele>1402.22</ele>
        <time>2019-03-19T14:07:52Z</time>
      </trkpt>
      <trkpt lat="46.02012" lon="6.57326">
        <ele>1401.74</ele>
        <time>2019-03-19T14:07:53Z</time>
      </trkpt>
      <trkpt lat="46.02021" lon="6.57328">
        <ele>1398.37</ele>
        <time>2019-03-19T14:08:12Z</time>
      </trkpt>
      <trkpt lat="46.02021" lon="6.57326">
        <ele>1397.89</ele>
        <time>2019-03-19T14:08:13Z</time>
      </trkpt>
      <trkpt lat="46.02023" lon="6.57324">
        <ele>1397.41</ele>
        <time>2019-03-19T14:08:14Z</time>
      </trkpt>
      <trkpt lat="46.02024" lon="6.57323">
        <ele>1395.97</ele>
        <time>2019-03-19T14:08:15Z</time>
      </trkpt>
      <trkpt lat="46.02026" lon="6.57321">
        <ele>1395.49</ele>
        <time>2019-03-19T14:08:16Z</time>
      </trkpt>
      <trkpt lat="46.02028" lon="6.57319">
        <ele>1394.53</ele>
        <time>2019-03-19T14:08:17Z</time>
      </trkpt>
      <trkpt lat="46.0203" lon="6.57316">
        <ele>1393.57</ele>
        <time>2019-03-19T14:08:18Z</time>
      </trkpt>
      <trkpt lat="46.0203" lon="6.57314">
        <ele>1392.61</ele>
        <time>2019-03-19T14:08:19Z</time>
      </trkpt>
      <trkpt lat="46.0203" lon="6.57311">
        <ele>1390.2</ele>
        <time>2019-03-19T14:08:23Z</time>
      </trkpt>
      <trkpt lat="46.0203" lon="6.57309">
        <ele>1389.72</ele>
        <time>2019-03-19T14:08:24Z</time>
      </trkpt>
      <trkpt lat="46.02031" lon="6.57307">
        <ele>1389.24</ele>
        <time>2019-03-19T14:08:25Z</time>
      </trkpt>
      <trkpt lat="46.02031" lon="6.57306">
        <ele>1388.76</ele>
        <time>2019-03-19T14:08:26Z</time>
      </trkpt>
      <trkpt lat="46.02031" lon="6.57305">
        <ele>1387.8</ele>
        <time>2019-03-19T14:08:27Z</time>
      </trkpt>
      <trkpt lat="46.02036" lon="6.57304">
        <ele>1385.4</ele>
        <time>2019-03-19T14:08:32Z</time>
      </trkpt>
      <trkpt lat="46.02037" lon="6.57303">
        <ele>1384.92</ele>
        <time>2019-03-19T14:08:33Z</time>
      </trkpt>
      <trkpt lat="46.02037" lon="6.57301">
        <ele>1384.44</ele>
        <time>2019-03-19T14:08:34Z</time>
      </trkpt>
      <trkpt lat="46.02037" lon="6.57298">
        <ele>1383.96</ele>
        <time>2019-03-19T14:08:35Z</time>
      </trkpt>
      <trkpt lat="46.02038" lon="6.57296">
        <ele>1382.99</ele>
        <time>2019-03-19T14:08:36Z</time>
      </trkpt>
      <trkpt lat="46.02039" lon="6.57294">
        <ele>1382.03</ele>
        <time>2019-03-19T14:08:37Z</time>
      </trkpt>
      <trkpt lat="46.02042" lon="6.57292">
        <ele>1381.07</ele>
        <time>2019-03-19T14:08:38Z</time>
      </trkpt>
      <trkpt lat="46.02043" lon="6.5729">
        <ele>1379.63</ele>
        <time>2019-03-19T14:08:39Z</time>
      </trkpt>
      <trkpt lat="46.02045" lon="6.57286">
        <ele>1378.19</ele>
        <time>2019-03-19T14:08:40Z</time>
      </trkpt>
      <trkpt lat="46.02046" lon="6.57283">
        <ele>1376.75</ele>
        <time>2019-03-19T14:08:41Z</time>
      </trkpt>
      <trkpt lat="46.02047" lon="6.5728">
        <ele>1375.78</ele>
        <time>2019-03-19T14:08:42Z</time>
      </trkpt>
      <trkpt lat="46.02049" lon="6.57278">
        <ele>1374.82</ele>
        <time>2019-03-19T14:08:43Z</time>
      </trkpt>
      <trkpt lat="46.02049" lon="6.57275">
        <ele>1374.34</ele>
        <time>2019-03-19T14:08:44Z</time>
      </trkpt>
      <trkpt lat="46.02049" lon="6.57271">
        <ele>1373.38</ele>
        <time>2019-03-19T14:08:45Z</time>
      </trkpt>
      <trkpt lat="46.02051" lon="6.57267">
        <ele>1372.42</ele>
        <time>2019-03-19T14:08:46Z</time>
      </trkpt>
      <trkpt lat="46.02052" lon="6.57262">
        <ele>1370.5</ele>
        <time>2019-03-19T14:08:47Z</time>
      </trkpt>
      <trkpt lat="46.02054" lon="6.57258">
        <ele>1368.57</ele>
        <time>2019-03-19T14:08:48Z</time>
      </trkpt>
      <trkpt lat="46.02057" lon="6.57254">
        <ele>1367.61</ele>
        <time>2019-03-19T14:08:49Z</time>
      </trkpt>
      <trkpt lat="46.02061" lon="6.57249">
        <ele>1366.17</ele>
        <time>2019-03-19T14:08:50Z</time>
      </trkpt>
      <trkpt lat="46.02064" lon="6.57245">
        <ele>1365.21</ele>
        <time>2019-03-19T14:08:51Z</time>
      </trkpt>
      <trkpt lat="46.02068" lon="6.57238">
        <ele>1363.29</ele>
        <time>2019-03-19T14:08:52Z</time>
      </trkpt>
      <trkpt lat="46.02071" lon="6.57232">
        <ele>1361.36</ele>
        <time>2019-03-19T14:08:53Z</time>
      </trkpt>
      <trkpt lat="46.02075" lon="6.57228">
        <ele>1359.44</ele>
        <time>2019-03-19T14:08:54Z</time>
      </trkpt>
      <trkpt lat="46.02079" lon="6.57224">
        <ele>1358</ele>
        <time>2019-03-19T14:08:55Z</time>
      </trkpt>
      <trkpt lat="46.02085" lon="6.57221">
        <ele>1357.52</ele>
        <time>2019-03-19T14:08:56Z</time>
      </trkpt>
      <trkpt lat="46.02091" lon="6.57222">
        <ele>1355.6</ele>
        <time>2019-03-19T14:08:57Z</time>
      </trkpt>
      <trkpt lat="46.02098" lon="6.57226">
        <ele>1353.19</ele>
        <time>2019-03-19T14:08:58Z</time>
      </trkpt>
      <trkpt lat="46.02104" lon="6.57232">
        <ele>1351.75</ele>
        <time>2019-03-19T14:08:59Z</time>
      </trkpt>
      <trkpt lat="46.02109" lon="6.57236">
        <ele>1350.79</ele>
        <time>2019-03-19T14:09:00Z</time>
      </trkpt>
      <trkpt lat="46.02114" lon="6.57239">
        <ele>1350.79</ele>
        <time>2019-03-19T14:09:01Z</time>
      </trkpt>
      <trkpt lat="46.0212" lon="6.57241">
        <ele>1350.31</ele>
        <time>2019-03-19T14:09:02Z</time>
      </trkpt>
      <trkpt lat="46.02125" lon="6.57245">
        <ele>1348.39</ele>
        <time>2019-03-19T14:09:03Z</time>
      </trkpt>
      <trkpt lat="46.02131" lon="6.57248">
        <ele>1347.43</ele>
        <time>2019-03-19T14:09:04Z</time>
      </trkpt>
      <trkpt lat="46.02137" lon="6.5725">
        <ele>1345.5</ele>
        <time>2019-03-19T14:09:05Z</time>
      </trkpt>
      <trkpt lat="46.02152" lon="6.57255">
        <ele>1342.14</ele>
        <time>2019-03-19T14:09:07Z</time>
      </trkpt>
      <trkpt lat="46.02161" lon="6.57259">
        <ele>1339.73</ele>
        <time>2019-03-19T14:09:08Z</time>
      </trkpt>
      <trkpt lat="46.0217" lon="6.57267">
        <ele>1336.85</ele>
        <time>2019-03-19T14:09:09Z</time>
      </trkpt>
      <trkpt lat="46.02175" lon="6.57276">
        <ele>1334.45</ele>
        <time>2019-03-19T14:09:10Z</time>
      </trkpt>
      <trkpt lat="46.0218" lon="6.57284">
        <ele>1333.49</ele>
        <time>2019-03-19T14:09:11Z</time>
      </trkpt>
      <trkpt lat="46.02183" lon="6.57291">
        <ele>1333.49</ele>
        <time>2019-03-19T14:09:12Z</time>
      </trkpt>
      <trkpt lat="46.02185" lon="6.57296">
        <ele>1333.97</ele>
        <time>2019-03-19T14:09:13Z</time>
      </trkpt>
      <trkpt lat="46.02187" lon="6.57308">
        <ele>1334.93</ele>
        <time>2019-03-19T14:09:16Z</time>
      </trkpt>
      <trkpt lat="46.02189" lon="6.57315">
        <ele>1334.45</ele>
        <time>2019-03-19T14:09:17Z</time>
      </trkpt>
      <trkpt lat="46.02192" lon="6.57323">
        <ele>1333.97</ele>
        <time>2019-03-19T14:09:18Z</time>
      </trkpt>
      <trkpt lat="46.02195" lon="6.5733">
        <ele>1333.49</ele>
        <time>2019-03-19T14:09:19Z</time>
      </trkpt>
      <trkpt lat="46.022" lon="6.57337">
        <ele>1333.01</ele>
        <time>2019-03-19T14:09:20Z</time>
      </trkpt>
      <trkpt lat="46.02204" lon="6.57342">
        <ele>1333.01</ele>
        <time>2019-03-19T14:09:21Z</time>
      </trkpt>
      <trkpt lat="46.02207" lon="6.57346">
        <ele>1332.04</ele>
        <time>2019-03-19T14:09:22Z</time>
      </trkpt>
      <trkpt lat="46.02215" lon="6.57356">
        <ele>1331.08</ele>
        <time>2019-03-19T14:09:24Z</time>
      </trkpt>
      <trkpt lat="46.02224" lon="6.57363">
        <ele>1330.12</ele>
        <time>2019-03-19T14:09:26Z</time>
      </trkpt>
      <trkpt lat="46.02234" lon="6.5737">
        <ele>1327.72</ele>
        <time>2019-03-19T14:09:28Z</time>
      </trkpt>
      <trkpt lat="46.02253" lon="6.57381">
        <ele>1324.35</ele>
        <time>2019-03-19T14:09:31Z</time>
      </trkpt>
      <trkpt lat="46.02266" lon="6.57389">
        <ele>1322.91</ele>
        <time>2019-03-19T14:09:34Z</time>
      </trkpt>
      <trkpt lat="46.02276" lon="6.57398">
        <ele>1322.91</ele>
        <time>2019-03-19T14:09:38Z</time>
      </trkpt>
      <trkpt lat="46.02277" lon="6.57399">
        <ele>1322.91</ele>
        <time>2019-03-19T14:09:39Z</time>
      </trkpt>
      <trkpt lat="46.0232" lon="6.57421">
        <ele>1321.95</ele>
        <time>2019-03-19T14:10:03Z</time>
      </trkpt>
      <trkpt lat="46.02364" lon="6.57444">
        <ele>1320.99</ele>
        <time>2019-03-19T14:10:30Z</time>
      </trkpt>
      <trkpt lat="46.02411" lon="6.57455">
        <ele>1318.59</ele>
        <time>2019-03-19T14:10:52Z</time>
      </trkpt>
      <trkpt lat="46.02448" lon="6.57447">
        <ele>1317.62</ele>
        <time>2019-03-19T14:11:25Z</time>
      </trkpt>
      <trkpt lat="46.02447" lon="6.57447">
        <ele>1317.14</ele>
        <time>2019-03-19T14:11:53Z</time>
      </trkpt>
      <trkpt lat="46.0245" lon="6.57448">
        <ele>1317.62</ele>
        <time>2019-03-19T14:12:09Z</time>
      </trkpt>
      <trkpt lat="46.02451" lon="6.57448">
        <ele>1317.62</ele>
        <time>2019-03-19T14:12:10Z</time>
      </trkpt>
      <trkpt lat="46.02453" lon="6.57448">
        <ele>1317.62</ele>
        <time>2019-03-19T14:12:11Z</time>
      </trkpt>
      <trkpt lat="46.02455" lon="6.57448">
        <ele>1317.62</ele>
        <time>2019-03-19T14:12:12Z</time>
      </trkpt>
      <trkpt lat="46.02457" lon="6.57448">
        <ele>1317.62</ele>
        <time>2019-03-19T14:12:13Z</time>
      </trkpt>
      <trkpt lat="46.02458" lon="6.57448">
        <ele>1317.62</ele>
        <time>2019-03-19T14:12:14Z</time>
      </trkpt>
      <trkpt lat="46.0246" lon="6.57449">
        <ele>1317.62</ele>
        <time>2019-03-19T14:12:15Z</time>
      </trkpt>
      <trkpt lat="46.02462" lon="6.57449">
        <ele>1317.62</ele>
        <time>2019-03-19T14:12:16Z</time>
      </trkpt>
      <trkpt lat="46.02464" lon="6.5745">
        <ele>1317.62</ele>
        <time>2019-03-19T14:12:17Z</time>
      </trkpt>
      <trkpt lat="46.02465" lon="6.57451">
        <ele>1317.62</ele>
        <time>2019-03-19T14:12:18Z</time>
      </trkpt>
      <trkpt lat="46.02485" lon="6.57454">
        <ele>1316.66</ele>
        <time>2019-03-19T14:12:30Z</time>
      </trkpt>
      <trkpt lat="46.02486" lon="6.57454">
        <ele>1316.66</ele>
        <time>2019-03-19T14:12:31Z</time>
      </trkpt>
      <trkpt lat="46.02531" lon="6.57456">
        <ele>1316.18</ele>
        <time>2019-03-19T14:12:59Z</time>
      </trkpt>
      <trkpt lat="46.02576" lon="6.5744">
        <ele>1316.18</ele>
        <time>2019-03-19T14:13:27Z</time>
      </trkpt>
      <trkpt lat="46.02618" lon="6.57417">
        <ele>1315.22</ele>
        <time>2019-03-19T14:13:54Z</time>
      </trkpt>
      <trkpt lat="46.02662" lon="6.57391">
        <ele>1315.7</ele>
        <time>2019-03-19T14:14:23Z</time>
      </trkpt>
      <trkpt lat="46.0267" lon="6.57383">
        <ele>1316.18</ele>
        <time>2019-03-19T14:14:30Z</time>
      </trkpt>
      <trkpt lat="46.02672" lon="6.57383">
        <ele>1316.18</ele>
        <time>2019-03-19T14:14:31Z</time>
      </trkpt>
      <trkpt lat="46.02718" lon="6.57361">
        <ele>1316.18</ele>
        <time>2019-03-19T14:14:59Z</time>
      </trkpt>
      <trkpt lat="46.02727" lon="6.57355">
        <ele>1316.18</ele>
        <time>2019-03-19T14:15:05Z</time>
      </trkpt>
      <trkpt lat="46.02728" lon="6.57354">
        <ele>1316.18</ele>
        <time>2019-03-19T14:15:06Z</time>
      </trkpt>
      <trkpt lat="46.0273" lon="6.57353">
        <ele>1316.18</ele>
        <time>2019-03-19T14:15:07Z</time>
      </trkpt>
      <trkpt lat="46.02732" lon="6.57352">
        <ele>1316.18</ele>
        <time>2019-03-19T14:15:08Z</time>
      </trkpt>
      <trkpt lat="46.02733" lon="6.57351">
        <ele>1316.18</ele>
        <time>2019-03-19T14:15:09Z</time>
      </trkpt>
      <trkpt lat="46.02735" lon="6.57351">
        <ele>1316.18</ele>
        <time>2019-03-19T14:15:10Z</time>
      </trkpt>
      <trkpt lat="46.02737" lon="6.57351">
        <ele>1315.7</ele>
        <time>2019-03-19T14:15:11Z</time>
      </trkpt>
      <trkpt lat="46.02749" lon="6.57346">
        <ele>1316.18</ele>
        <time>2019-03-19T14:15:19Z</time>
      </trkpt>
      <trkpt lat="46.02751" lon="6.57345">
        <ele>1316.18</ele>
        <time>2019-03-19T14:15:20Z</time>
      </trkpt>
      <trkpt lat="46.02752" lon="6.57344">
        <ele>1316.18</ele>
        <time>2019-03-19T14:15:21Z</time>
      </trkpt>
      <trkpt lat="46.0279" lon="6.57326">
        <ele>1314.74</ele>
        <time>2019-03-19T14:15:47Z</time>
      </trkpt>
      <trkpt lat="46.0279" lon="6.57327">
        <ele>1314.74</ele>
        <time>2019-03-19T14:15:48Z</time>
      </trkpt>
      <trkpt lat="46.0279" lon="6.57328">
        <ele>1314.74</ele>
        <time>2019-03-19T14:15:49Z</time>
      </trkpt>
      <trkpt lat="46.02789" lon="6.5733">
        <ele>1314.74</ele>
        <time>2019-03-19T14:15:50Z</time>
      </trkpt>
      <trkpt lat="46.02788" lon="6.57331">
        <ele>1314.74</ele>
        <time>2019-03-19T14:15:51Z</time>
      </trkpt>
      <trkpt lat="46.02787" lon="6.57332">
        <ele>1315.22</ele>
        <time>2019-03-19T14:15:52Z</time>
      </trkpt>
      <trkpt lat="46.02785" lon="6.57332">
        <ele>1315.22</ele>
        <time>2019-03-19T14:15:53Z</time>
      </trkpt>
      <trkpt lat="46.02779" lon="6.57338">
        <ele>1316.18</ele>
        <time>2019-03-19T14:15:59Z</time>
      </trkpt>
      <trkpt lat="46.02777" lon="6.57339">
        <ele>1316.66</ele>
        <time>2019-03-19T14:16:00Z</time>
      </trkpt>
      <trkpt lat="46.02776" lon="6.57339">
        <ele>1316.66</ele>
        <time>2019-03-19T14:16:01Z</time>
      </trkpt>
      <trkpt lat="46.02758" lon="6.57353">
        <ele>1320.03</ele>
        <time>2019-03-19T14:16:17Z</time>
      </trkpt>
      <trkpt lat="46.02743" lon="6.5737">
        <ele>1323.39</ele>
        <time>2019-03-19T14:16:33Z</time>
      </trkpt>
      <trkpt lat="46.02744" lon="6.57372">
        <ele>1323.87</ele>
        <time>2019-03-19T14:16:37Z</time>
      </trkpt>
      <trkpt lat="46.02752" lon="6.5738">
        <ele>1326.28</ele>
        <time>2019-03-19T14:16:55Z</time>
      </trkpt>
      <trkpt lat="46.02751" lon="6.57386">
        <ele>1328.2</ele>
        <time>2019-03-19T14:17:05Z</time>
      </trkpt>
      <trkpt lat="46.02753" lon="6.57387">
        <ele>1328.68</ele>
        <time>2019-03-19T14:17:10Z</time>
      </trkpt>
      <trkpt lat="46.02754" lon="6.57387">
        <ele>1329.16</ele>
        <time>2019-03-19T14:17:11Z</time>
      </trkpt>
      <trkpt lat="46.02755" lon="6.57388">
        <ele>1329.16</ele>
        <time>2019-03-19T14:17:12Z</time>
      </trkpt>
      <trkpt lat="46.02756" lon="6.57388">
        <ele>1329.16</ele>
        <time>2019-03-19T14:17:13Z</time>
      </trkpt>
      <trkpt lat="46.02757" lon="6.57388">
        <ele>1329.16</ele>
        <time>2019-03-19T14:17:14Z</time>
      </trkpt>
      <trkpt lat="46.02763" lon="6.57392">
        <ele>1329.64</ele>
        <time>2019-03-19T14:17:23Z</time>
      </trkpt>
      <trkpt lat="46.02799" lon="6.57439">
        <ele>1327.72</ele>
        <time>2019-03-19T14:18:07Z</time>
      </trkpt>
      <trkpt lat="46.02805" lon="6.57451">
        <ele>1327.24</ele>
        <time>2019-03-19T14:18:10Z</time>
      </trkpt>
      <trkpt lat="46.02819" lon="6.57465">
        <ele>1325.8</ele>
        <time>2019-03-19T14:18:14Z</time>
      </trkpt>
      <trkpt lat="46.02822" lon="6.57474">
        <ele>1325.8</ele>
        <time>2019-03-19T14:18:16Z</time>
      </trkpt>
      <trkpt lat="46.02824" lon="6.57476">
        <ele>1325.8</ele>
        <time>2019-03-19T14:18:17Z</time>
      </trkpt>
      <trkpt lat="46.02828" lon="6.57476">
        <ele>1325.8</ele>
        <time>2019-03-19T14:18:18Z</time>
      </trkpt>
      <trkpt lat="46.02832" lon="6.57474">
        <ele>1325.31</ele>
        <time>2019-03-19T14:18:19Z</time>
      </trkpt>
      <trkpt lat="46.02837" lon="6.57473">
        <ele>1323.87</ele>
        <time>2019-03-19T14:18:20Z</time>
      </trkpt>
      <trkpt lat="46.02842" lon="6.57471">
        <ele>1322.91</ele>
        <time>2019-03-19T14:18:21Z</time>
      </trkpt>
      <trkpt lat="46.02848" lon="6.57471">
        <ele>1321.95</ele>
        <time>2019-03-19T14:18:22Z</time>
      </trkpt>
      <trkpt lat="46.02854" lon="6.57472">
        <ele>1320.99</ele>
        <time>2019-03-19T14:18:23Z</time>
      </trkpt>
      <trkpt lat="46.0286" lon="6.57473">
        <ele>1320.03</ele>
        <time>2019-03-19T14:18:24Z</time>
      </trkpt>
      <trkpt lat="46.02865" lon="6.57476">
        <ele>1319.07</ele>
        <time>2019-03-19T14:18:25Z</time>
      </trkpt>
      <trkpt lat="46.0287" lon="6.57481">
        <ele>1318.1</ele>
        <time>2019-03-19T14:18:26Z</time>
      </trkpt>
      <trkpt lat="46.02874" lon="6.57485">
        <ele>1317.62</ele>
        <time>2019-03-19T14:18:27Z</time>
      </trkpt>
      <trkpt lat="46.02879" lon="6.57488">
        <ele>1317.14</ele>
        <time>2019-03-19T14:18:28Z</time>
      </trkpt>
      <trkpt lat="46.02883" lon="6.57492">
        <ele>1316.66</ele>
        <time>2019-03-19T14:18:29Z</time>
      </trkpt>
      <trkpt lat="46.0291" lon="6.57508">
        <ele>1313.78</ele>
        <time>2019-03-19T14:18:34Z</time>
      </trkpt>
      <trkpt lat="46.02921" lon="6.57517">
        <ele>1312.82</ele>
        <time>2019-03-19T14:18:36Z</time>
      </trkpt>
      <trkpt lat="46.02926" lon="6.57518">
        <ele>1312.34</ele>
        <time>2019-03-19T14:18:37Z</time>
      </trkpt>
      <trkpt lat="46.02933" lon="6.57518">
        <ele>1311.86</ele>
        <time>2019-03-19T14:18:38Z</time>
      </trkpt>
      <trkpt lat="46.02939" lon="6.57516">
        <ele>1311.38</ele>
        <time>2019-03-19T14:18:39Z</time>
      </trkpt>
      <trkpt lat="46.02946" lon="6.57515">
        <ele>1309.93</ele>
        <time>2019-03-19T14:18:40Z</time>
      </trkpt>
      <trkpt lat="46.02953" lon="6.57515">
        <ele>1308.97</ele>
        <time>2019-03-19T14:18:41Z</time>
      </trkpt>
      <trkpt lat="46.0296" lon="6.57514">
        <ele>1308.49</ele>
        <time>2019-03-19T14:18:42Z</time>
      </trkpt>
      <trkpt lat="46.02966" lon="6.57511">
        <ele>1308.49</ele>
        <time>2019-03-19T14:18:43Z</time>
      </trkpt>
      <trkpt lat="46.0297" lon="6.57506">
        <ele>1308.97</ele>
        <time>2019-03-19T14:18:44Z</time>
      </trkpt>
      <trkpt lat="46.02974" lon="6.57502">
        <ele>1308.49</ele>
        <time>2019-03-19T14:18:45Z</time>
      </trkpt>
      <trkpt lat="46.02978" lon="6.57499">
        <ele>1308.01</ele>
        <time>2019-03-19T14:18:46Z</time>
      </trkpt>
      <trkpt lat="46.02982" lon="6.57497">
        <ele>1307.53</ele>
        <time>2019-03-19T14:18:47Z</time>
      </trkpt>
      <trkpt lat="46.02985" lon="6.57498">
        <ele>1307.53</ele>
        <time>2019-03-19T14:18:48Z</time>
      </trkpt>
      <trkpt lat="46.02988" lon="6.575">
        <ele>1307.05</ele>
        <time>2019-03-19T14:18:49Z</time>
      </trkpt>
      <trkpt lat="46.0299" lon="6.57501">
        <ele>1307.05</ele>
        <time>2019-03-19T14:18:50Z</time>
      </trkpt>
      <trkpt lat="46.02992" lon="6.57499">
        <ele>1307.05</ele>
        <time>2019-03-19T14:18:51Z</time>
      </trkpt>
      <trkpt lat="46.02994" lon="6.57498">
        <ele>1306.57</ele>
        <time>2019-03-19T14:19:11Z</time>
      </trkpt>
    </trkseg>
  </trk>
</gpx>